<?xml version="1.0" encoding="UTF-8" standalone="no" ?><gpx xmlns="http://www.topografix.com/GPX/1/1" xmlns:xsi="http://www.w3.org/2001/XMLSchema-instance" creator="Kurviger.de version 0.10" version="1.1" xmlns:gh="https://kurviger.de/public/schema/gpx/1.1">
<metadata><name>KurzeMarmoladaTenz</name><copyright author="OpenStreetMap contributors"/><link href="https://kurviger.de"><text>Kurviger.de GPX</text></link><time>2017-08-03T02:33:04Z</time></metadata>
<rte><name>KurzeMarmoladaTenz</name>
<rtept lat="46.343245" lon="11.332178"><desc>dem Straßenverlauf von Strada Statale delle Dolomiti, SS48 folgen</desc></rtept>
<rtept lat="46.30792" lon="11.468139"><desc>Wegpunkt 1</desc></rtept>
<rtept lat="46.360211" lon="11.844619"><desc>Wegpunkt 2</desc></rtept>
<rtept lat="46.471047" lon="11.510923"><desc>Wegpunkt 3</desc></rtept>
<rtept lat="46.49512" lon="11.485904"><desc>Wegpunkt 4</desc></rtept>
<rtept lat="46.390039" lon="11.528439"><desc>Wegpunkt 5</desc></rtept>
<rtept lat="46.343245" lon="11.332178"><desc>Ziel erreicht</desc></rtept>
</rte>
<trk><name>KurzeMarmoladaTenz</name><trkseg>
<trkpt lat="46.343245" lon="11.332178"><ele>717.0</ele><time>2017-08-03T02:33:04Z</time></trkpt>
<trkpt lat="46.343372" lon="11.332919"><ele>712.0</ele><time>2017-08-03T02:33:07Z</time></trkpt>
<trkpt lat="46.343385" lon="11.333188"><ele>712.0</ele><time>2017-08-03T02:33:08Z</time></trkpt>
<trkpt lat="46.343345" lon="11.33346"><ele>706.0</ele><time>2017-08-03T02:33:09Z</time></trkpt>
<trkpt lat="46.343275" lon="11.333659"><ele>731.0</ele><time>2017-08-03T02:33:11Z</time></trkpt>
<trkpt lat="46.343124" lon="11.333875"><ele>731.0</ele><time>2017-08-03T02:33:12Z</time></trkpt>
<trkpt lat="46.34252" lon="11.334518"><ele>726.0</ele><time>2017-08-03T02:33:17Z</time></trkpt>
<trkpt lat="46.342283" lon="11.334738"><ele>750.0</ele><time>2017-08-03T02:33:19Z</time></trkpt>
<trkpt lat="46.34218" lon="11.334998"><ele>750.0</ele><time>2017-08-03T02:33:20Z</time></trkpt>
<trkpt lat="46.342186" lon="11.335341"><ele>753.0</ele><time>2017-08-03T02:33:22Z</time></trkpt>
<trkpt lat="46.342268" lon="11.335567"><ele>753.0</ele><time>2017-08-03T02:33:23Z</time></trkpt>
<trkpt lat="46.342442" lon="11.335724"><ele>753.0</ele><time>2017-08-03T02:33:24Z</time></trkpt>
<trkpt lat="46.342835" lon="11.335949"><ele>749.0</ele><time>2017-08-03T02:33:27Z</time></trkpt>
<trkpt lat="46.342975" lon="11.336157"><ele>749.0</ele><time>2017-08-03T02:33:28Z</time></trkpt>
<trkpt lat="46.343063" lon="11.336447"><ele>749.0</ele><time>2017-08-03T02:33:30Z</time></trkpt>
<trkpt lat="46.343184" lon="11.337689"><ele>766.0</ele><time>2017-08-03T02:33:35Z</time></trkpt>
<trkpt lat="46.343407" lon="11.340295"><ele>757.0</ele><time>2017-08-03T02:33:46Z</time></trkpt>
<trkpt lat="46.343429" lon="11.340833"><ele>757.0</ele><time>2017-08-03T02:33:49Z</time></trkpt>
<trkpt lat="46.343389" lon="11.34108"><ele>760.0</ele><time>2017-08-03T02:33:50Z</time></trkpt>
<trkpt lat="46.343327" lon="11.341226"><ele>790.0</ele><time>2017-08-03T02:33:52Z</time></trkpt>
<trkpt lat="46.343186" lon="11.341486"><ele>790.0</ele><time>2017-08-03T02:33:53Z</time></trkpt>
<trkpt lat="46.342656" lon="11.34242"><ele>787.0</ele><time>2017-08-03T02:33:58Z</time></trkpt>
<trkpt lat="46.342504" lon="11.342622"><ele>779.0</ele><time>2017-08-03T02:33:59Z</time></trkpt>
<trkpt lat="46.342333" lon="11.342781"><ele>810.0</ele><time>2017-08-03T02:34:02Z</time></trkpt>
<trkpt lat="46.342132" lon="11.342912"><ele>810.0</ele><time>2017-08-03T02:34:03Z</time></trkpt>
<trkpt lat="46.341993" lon="11.342945"><ele>810.0</ele><time>2017-08-03T02:34:04Z</time></trkpt>
<trkpt lat="46.34161" lon="11.342897"><ele>829.0</ele><time>2017-08-03T02:34:06Z</time></trkpt>
<trkpt lat="46.341502" lon="11.342946"><ele>829.0</ele><time>2017-08-03T02:34:07Z</time></trkpt>
<trkpt lat="46.341389" lon="11.343033"><ele>829.0</ele><time>2017-08-03T02:34:08Z</time></trkpt>
<trkpt lat="46.340978" lon="11.343598"><ele>807.0</ele><time>2017-08-03T02:34:12Z</time></trkpt>
<trkpt lat="46.340584" lon="11.344093"><ele>836.0</ele><time>2017-08-03T02:34:15Z</time></trkpt>
<trkpt lat="46.340514" lon="11.344271"><ele>821.0</ele><time>2017-08-03T02:34:16Z</time></trkpt>
<trkpt lat="46.34047" lon="11.344465"><ele>821.0</ele><time>2017-08-03T02:34:17Z</time></trkpt>
<trkpt lat="46.340495" lon="11.344728"><ele>821.0</ele><time>2017-08-03T02:34:19Z</time></trkpt>
<trkpt lat="46.340539" lon="11.344968"><ele>821.0</ele><time>2017-08-03T02:34:20Z</time></trkpt>
<trkpt lat="46.34065" lon="11.345333"><ele>825.0</ele><time>2017-08-03T02:34:21Z</time></trkpt>
<trkpt lat="46.340741" lon="11.345575"><ele>825.0</ele><time>2017-08-03T02:34:22Z</time></trkpt>
<trkpt lat="46.340797" lon="11.345702"><ele>825.0</ele><time>2017-08-03T02:34:23Z</time></trkpt>
<trkpt lat="46.340864" lon="11.34579"><ele>796.0</ele><time>2017-08-03T02:34:25Z</time></trkpt>
<trkpt lat="46.340947" lon="11.345851"><ele>822.0</ele><time>2017-08-03T02:34:26Z</time></trkpt>
<trkpt lat="46.341043" lon="11.34589"><ele>822.0</ele><time>2017-08-03T02:34:27Z</time></trkpt>
<trkpt lat="46.342428" lon="11.346238"><ele>823.0</ele><time>2017-08-03T02:34:36Z</time></trkpt>
<trkpt lat="46.342495" lon="11.34629"><ele>823.0</ele><time>2017-08-03T02:34:36Z</time></trkpt>
<trkpt lat="46.342544" lon="11.346359"><ele>818.0</ele><time>2017-08-03T02:34:37Z</time></trkpt>
<trkpt lat="46.342576" lon="11.346448"><ele>818.0</ele><time>2017-08-03T02:34:37Z</time></trkpt>
<trkpt lat="46.342599" lon="11.346575"><ele>818.0</ele><time>2017-08-03T02:34:38Z</time></trkpt>
<trkpt lat="46.34258" lon="11.346707"><ele>822.0</ele><time>2017-08-03T02:34:38Z</time></trkpt>
<trkpt lat="46.342541" lon="11.346811"><ele>822.0</ele><time>2017-08-03T02:34:39Z</time></trkpt>
<trkpt lat="46.342358" lon="11.347046"><ele>843.0</ele><time>2017-08-03T02:34:41Z</time></trkpt>
<trkpt lat="46.342171" lon="11.347338"><ele>843.0</ele><time>2017-08-03T02:34:42Z</time></trkpt>
<trkpt lat="46.34211" lon="11.347523"><ele>842.0</ele><time>2017-08-03T02:34:43Z</time></trkpt>
<trkpt lat="46.342086" lon="11.347689"><ele>842.0</ele><time>2017-08-03T02:34:44Z</time></trkpt>
<trkpt lat="46.34207" lon="11.348092"><ele>842.0</ele><time>2017-08-03T02:34:46Z</time></trkpt>
<trkpt lat="46.341992" lon="11.348578"><ele>838.0</ele><time>2017-08-03T02:34:48Z</time></trkpt>
<trkpt lat="46.341798" lon="11.349353"><ele>837.0</ele><time>2017-08-03T02:34:51Z</time></trkpt>
<trkpt lat="46.341783" lon="11.349604"><ele>837.0</ele><time>2017-08-03T02:34:53Z</time></trkpt>
<trkpt lat="46.341798" lon="11.349769"><ele>837.0</ele><time>2017-08-03T02:34:53Z</time></trkpt>
<trkpt lat="46.341845" lon="11.349965"><ele>837.0</ele><time>2017-08-03T02:34:54Z</time></trkpt>
<trkpt lat="46.341891" lon="11.35008"><ele>850.0</ele><time>2017-08-03T02:34:55Z</time></trkpt>
<trkpt lat="46.342725" lon="11.351631"><ele>841.0</ele><time>2017-08-03T02:35:04Z</time></trkpt>
<trkpt lat="46.34283" lon="11.351883"><ele>851.0</ele><time>2017-08-03T02:35:05Z</time></trkpt>
<trkpt lat="46.343025" lon="11.352547"><ele>867.0</ele><time>2017-08-03T02:35:08Z</time></trkpt>
<trkpt lat="46.343172" lon="11.353234"><ele>867.0</ele><time>2017-08-03T02:35:11Z</time></trkpt>
<trkpt lat="46.343294" lon="11.353608"><ele>881.0</ele><time>2017-08-03T02:35:13Z</time></trkpt>
<trkpt lat="46.343508" lon="11.354149"><ele>821.0</ele><time>2017-08-03T02:35:17Z</time></trkpt>
<trkpt lat="46.343544" lon="11.354304"><ele>825.0</ele><time>2017-08-03T02:35:18Z</time></trkpt>
<trkpt lat="46.343548" lon="11.354425"><ele>825.0</ele><time>2017-08-03T02:35:19Z</time></trkpt>
<trkpt lat="46.343503" lon="11.354648"><ele>825.0</ele><time>2017-08-03T02:35:20Z</time></trkpt>
<trkpt lat="46.34332" lon="11.355087"><ele>894.0</ele><time>2017-08-03T02:35:24Z</time></trkpt>
<trkpt lat="46.342508" lon="11.356148"><ele>878.0</ele><time>2017-08-03T02:35:31Z</time></trkpt>
<trkpt lat="46.341806" lon="11.357322"><ele>888.0</ele><time>2017-08-03T02:35:38Z</time></trkpt>
<trkpt lat="46.34171" lon="11.357431"><ele>888.0</ele><time>2017-08-03T02:35:38Z</time></trkpt>
<trkpt lat="46.341576" lon="11.35753"><ele>900.0</ele><time>2017-08-03T02:35:39Z</time></trkpt>
<trkpt lat="46.341455" lon="11.357569"><ele>900.0</ele><time>2017-08-03T02:35:40Z</time></trkpt>
<trkpt lat="46.340979" lon="11.357494"><ele>921.0</ele><time>2017-08-03T02:35:43Z</time></trkpt>
<trkpt lat="46.340798" lon="11.35751"><ele>913.0</ele><time>2017-08-03T02:35:45Z</time></trkpt>
<trkpt lat="46.34069" lon="11.357553"><ele>913.0</ele><time>2017-08-03T02:35:45Z</time></trkpt>
<trkpt lat="46.340591" lon="11.357624"><ele>913.0</ele><time>2017-08-03T02:35:46Z</time></trkpt>
<trkpt lat="46.340491" lon="11.357729"><ele>913.0</ele><time>2017-08-03T02:35:47Z</time></trkpt>
<trkpt lat="46.340109" lon="11.358404"><ele>893.0</ele><time>2017-08-03T02:35:51Z</time></trkpt>
<trkpt lat="46.340045" lon="11.358485"><ele>893.0</ele><time>2017-08-03T02:35:51Z</time></trkpt>
<trkpt lat="46.339665" lon="11.358782"><ele>913.0</ele><time>2017-08-03T02:35:54Z</time></trkpt>
<trkpt lat="46.339581" lon="11.358822"><ele>913.0</ele><time>2017-08-03T02:35:55Z</time></trkpt>
<trkpt lat="46.339388" lon="11.358853"><ele>913.0</ele><time>2017-08-03T02:35:56Z</time></trkpt>
<trkpt lat="46.339246" lon="11.358844"><ele>913.0</ele><time>2017-08-03T02:35:57Z</time></trkpt>
<trkpt lat="46.338966" lon="11.358763"><ele>917.0</ele><time>2017-08-03T02:35:59Z</time></trkpt>
<trkpt lat="46.338828" lon="11.35875"><ele>917.0</ele><time>2017-08-03T02:35:59Z</time></trkpt>
<trkpt lat="46.338713" lon="11.35876"><ele>917.0</ele><time>2017-08-03T02:36:00Z</time></trkpt>
<trkpt lat="46.338488" lon="11.358856"><ele>917.0</ele><time>2017-08-03T02:36:02Z</time></trkpt>
<trkpt lat="46.338382" lon="11.358941"><ele>917.0</ele><time>2017-08-03T02:36:02Z</time></trkpt>
<trkpt lat="46.335362" lon="11.361954"><ele>920.0</ele><time>2017-08-03T02:36:25Z</time></trkpt>
<trkpt lat="46.334712" lon="11.362538"><ele>934.0</ele><time>2017-08-03T02:36:30Z</time></trkpt>
<trkpt lat="46.334567" lon="11.362758"><ele>934.0</ele><time>2017-08-03T02:36:31Z</time></trkpt>
<trkpt lat="46.334523" lon="11.36287"><ele>934.0</ele><time>2017-08-03T02:36:32Z</time></trkpt>
<trkpt lat="46.334463" lon="11.363197"><ele>934.0</ele><time>2017-08-03T02:36:33Z</time></trkpt>
<trkpt lat="46.334469" lon="11.363299"><ele>934.0</ele><time>2017-08-03T02:36:34Z</time></trkpt>
<trkpt lat="46.334614" lon="11.363986"><ele>925.0</ele><time>2017-08-03T02:36:37Z</time></trkpt>
<trkpt lat="46.334614" lon="11.364337"><ele>927.0</ele><time>2017-08-03T02:36:38Z</time></trkpt>
<trkpt lat="46.334559" lon="11.364674"><ele>927.0</ele><time>2017-08-03T02:36:40Z</time></trkpt>
<trkpt lat="46.334467" lon="11.364937"><ele>927.0</ele><time>2017-08-03T02:36:41Z</time></trkpt>
<trkpt lat="46.334078" lon="11.365617"><ele>950.0</ele><time>2017-08-03T02:36:45Z</time></trkpt>
<trkpt lat="46.333801" lon="11.366044"><ele>951.0</ele><time>2017-08-03T02:36:48Z</time></trkpt>
<trkpt lat="46.333265" lon="11.366604"><ele>957.0</ele><time>2017-08-03T02:36:52Z</time></trkpt>
<trkpt lat="46.333099" lon="11.366853"><ele>950.0</ele><time>2017-08-03T02:36:53Z</time></trkpt>
<trkpt lat="46.332852" lon="11.367376"><ele>950.0</ele><time>2017-08-03T02:36:56Z</time></trkpt>
<trkpt lat="46.332383" lon="11.368444"><ele>971.0</ele><time>2017-08-03T02:37:01Z</time></trkpt>
<trkpt lat="46.332238" lon="11.368827"><ele>971.0</ele><time>2017-08-03T02:37:03Z</time></trkpt>
<trkpt lat="46.33213" lon="11.369166"><ele>971.0</ele><time>2017-08-03T02:37:05Z</time></trkpt>
<trkpt lat="46.332047" lon="11.369614"><ele>968.0</ele><time>2017-08-03T02:37:07Z</time></trkpt>
<trkpt lat="46.332034" lon="11.3707"><ele>972.0</ele><time>2017-08-03T02:37:12Z</time></trkpt>
<trkpt lat="46.331984" lon="11.370967"><ele>976.0</ele><time>2017-08-03T02:37:13Z</time></trkpt>
<trkpt lat="46.331877" lon="11.371212"><ele>976.0</ele><time>2017-08-03T02:37:14Z</time></trkpt>
<trkpt lat="46.3318" lon="11.37134"><ele>976.0</ele><time>2017-08-03T02:37:15Z</time></trkpt>
<trkpt lat="46.331485" lon="11.371721"><ele>980.0</ele><time>2017-08-03T02:37:17Z</time></trkpt>
<trkpt lat="46.331395" lon="11.371874"><ele>980.0</ele><time>2017-08-03T02:37:18Z</time></trkpt>
<trkpt lat="46.331323" lon="11.372041"><ele>980.0</ele><time>2017-08-03T02:37:19Z</time></trkpt>
<trkpt lat="46.3311" lon="11.372965"><ele>973.0</ele><time>2017-08-03T02:37:23Z</time></trkpt>
<trkpt lat="46.331047" lon="11.37314"><ele>973.0</ele><time>2017-08-03T02:37:24Z</time></trkpt>
<trkpt lat="46.330943" lon="11.373396"><ele>972.0</ele><time>2017-08-03T02:37:25Z</time></trkpt>
<trkpt lat="46.330805" lon="11.373676"><ele>987.0</ele><time>2017-08-03T02:37:27Z</time></trkpt>
<trkpt lat="46.330627" lon="11.373945"><ele>987.0</ele><time>2017-08-03T02:37:29Z</time></trkpt>
<trkpt lat="46.330402" lon="11.374213"><ele>985.0</ele><time>2017-08-03T02:37:30Z</time></trkpt>
<trkpt lat="46.330034" lon="11.374726"><ele>985.0</ele><time>2017-08-03T02:37:34Z</time></trkpt>
<trkpt lat="46.32803" lon="11.377801"><ele>1018.0</ele><time>2017-08-03T02:37:52Z</time></trkpt>
<trkpt lat="46.327812" lon="11.378077"><ele>1018.0</ele><time>2017-08-03T02:37:54Z</time></trkpt>
<trkpt lat="46.327703" lon="11.378185"><ele>1018.0</ele><time>2017-08-03T02:37:54Z</time></trkpt>
<trkpt lat="46.326194" lon="11.379523"><ele>1029.0</ele><time>2017-08-03T02:38:05Z</time></trkpt>
<trkpt lat="46.325878" lon="11.379814"><ele>1029.0</ele><time>2017-08-03T02:38:08Z</time></trkpt>
<trkpt lat="46.325715" lon="11.380009"><ele>1020.0</ele><time>2017-08-03T02:38:09Z</time></trkpt>
<trkpt lat="46.322824" lon="11.384027"><ele>1031.0</ele><time>2017-08-03T02:38:34Z</time></trkpt>
<trkpt lat="46.322696" lon="11.384243"><ele>1037.0</ele><time>2017-08-03T02:38:35Z</time></trkpt>
<trkpt lat="46.322469" lon="11.384684"><ele>1035.0</ele><time>2017-08-03T02:38:38Z</time></trkpt>
<trkpt lat="46.321862" lon="11.386047"><ele>1056.0</ele><time>2017-08-03T02:38:45Z</time></trkpt>
<trkpt lat="46.321731" lon="11.386311"><ele>1056.0</ele><time>2017-08-03T02:38:46Z</time></trkpt>
<trkpt lat="46.32167" lon="11.3864"><ele>1056.0</ele><time>2017-08-03T02:38:47Z</time></trkpt>
<trkpt lat="46.321497" lon="11.386574"><ele>1041.0</ele><time>2017-08-03T02:38:48Z</time></trkpt>
<trkpt lat="46.321337" lon="11.386686"><ele>1051.0</ele><time>2017-08-03T02:38:49Z</time></trkpt>
<trkpt lat="46.320578" lon="11.387104"><ele>1044.0</ele><time>2017-08-03T02:38:54Z</time></trkpt>
<trkpt lat="46.320215" lon="11.387333"><ele>1044.0</ele><time>2017-08-03T02:38:57Z</time></trkpt>
<trkpt lat="46.320032" lon="11.387527"><ele>1059.0</ele><time>2017-08-03T02:38:58Z</time></trkpt>
<trkpt lat="46.319893" lon="11.387708"><ele>1048.0</ele><time>2017-08-03T02:39:00Z</time></trkpt>
<trkpt lat="46.318977" lon="11.388972"><ele>1056.0</ele><time>2017-08-03T02:39:08Z</time></trkpt>
<trkpt lat="46.318357" lon="11.389793"><ele>1066.0</ele><time>2017-08-03T02:39:13Z</time></trkpt>
<trkpt lat="46.318188" lon="11.389938"><ele>1062.0</ele><time>2017-08-03T02:39:14Z</time></trkpt>
<trkpt lat="46.318022" lon="11.390001"><ele>1072.0</ele><time>2017-08-03T02:39:15Z</time></trkpt>
<trkpt lat="46.31783" lon="11.390031"><ele>1072.0</ele><time>2017-08-03T02:39:17Z</time></trkpt>
<trkpt lat="46.315826" lon="11.389798"><ele>1087.0</ele><time>2017-08-03T02:39:29Z</time></trkpt>
<trkpt lat="46.31556" lon="11.389845"><ele>1087.0</ele><time>2017-08-03T02:39:31Z</time></trkpt>
<trkpt lat="46.315351" lon="11.389966"><ele>1087.0</ele><time>2017-08-03T02:39:32Z</time></trkpt>
<trkpt lat="46.314022" lon="11.390949"><ele>1097.0</ele><time>2017-08-03T02:39:41Z</time></trkpt>
<trkpt lat="46.313723" lon="11.391206"><ele>1097.0</ele><time>2017-08-03T02:39:44Z</time></trkpt>
<trkpt lat="46.313537" lon="11.391399"><ele>1097.0</ele><time>2017-08-03T02:39:45Z</time></trkpt>
<trkpt lat="46.313408" lon="11.391549"><ele>1097.0</ele><time>2017-08-03T02:39:46Z</time></trkpt>
<trkpt lat="46.312657" lon="11.392557"><ele>1100.0</ele><time>2017-08-03T02:39:52Z</time></trkpt>
<trkpt lat="46.310815" lon="11.395077"><ele>1111.0</ele><time>2017-08-03T02:40:08Z</time></trkpt>
<trkpt lat="46.310739" lon="11.395269"><ele>1111.0</ele><time>2017-08-03T02:40:09Z</time></trkpt>
<trkpt lat="46.310647" lon="11.395595"><ele>1111.0</ele><time>2017-08-03T02:40:11Z</time></trkpt>
<trkpt lat="46.310563" lon="11.395983"><ele>1093.0</ele><time>2017-08-03T02:40:13Z</time></trkpt>
<trkpt lat="46.310234" lon="11.39806"><ele>1106.0</ele><time>2017-08-03T02:40:22Z</time></trkpt>
<trkpt lat="46.310181" lon="11.398643"><ele>1114.0</ele><time>2017-08-03T02:40:30Z</time></trkpt>
<trkpt lat="46.31014" lon="11.399201"><ele>1118.0</ele><time>2017-08-03T02:40:32Z</time></trkpt>
<trkpt lat="46.310149" lon="11.399539"><ele>1118.0</ele><time>2017-08-03T02:40:34Z</time></trkpt>
<trkpt lat="46.310217" lon="11.400341"><ele>1114.0</ele><time>2017-08-03T02:40:37Z</time></trkpt>
<trkpt lat="46.31027" lon="11.400641"><ele>1114.0</ele><time>2017-08-03T02:40:38Z</time></trkpt>
<trkpt lat="46.31035" lon="11.400836"><ele>1109.0</ele><time>2017-08-03T02:40:39Z</time></trkpt>
<trkpt lat="46.310448" lon="11.400988"><ele>1109.0</ele><time>2017-08-03T02:40:40Z</time></trkpt>
<trkpt lat="46.31088" lon="11.40144"><ele>1124.0</ele><time>2017-08-03T02:40:43Z</time></trkpt>
<trkpt lat="46.310987" lon="11.401689"><ele>1121.0</ele><time>2017-08-03T02:40:44Z</time></trkpt>
<trkpt lat="46.311027" lon="11.401824"><ele>1121.0</ele><time>2017-08-03T02:40:44Z</time></trkpt>
<trkpt lat="46.311044" lon="11.402117"><ele>1121.0</ele><time>2017-08-03T02:40:46Z</time></trkpt>
<trkpt lat="46.311023" lon="11.402262"><ele>1121.0</ele><time>2017-08-03T02:40:46Z</time></trkpt>
<trkpt lat="46.310927" lon="11.402531"><ele>1127.0</ele><time>2017-08-03T02:40:47Z</time></trkpt>
<trkpt lat="46.310847" lon="11.402682"><ele>1127.0</ele><time>2017-08-03T02:40:48Z</time></trkpt>
<trkpt lat="46.310747" lon="11.402824"><ele>1102.0</ele><time>2017-08-03T02:40:49Z</time></trkpt>
<trkpt lat="46.309451" lon="11.404399"><ele>1087.0</ele><time>2017-08-03T02:40:59Z</time></trkpt>
<trkpt lat="46.309272" lon="11.404576"><ele>1087.0</ele><time>2017-08-03T02:41:00Z</time></trkpt>
<trkpt lat="46.309104" lon="11.404665"><ele>1076.0</ele><time>2017-08-03T02:41:01Z</time></trkpt>
<trkpt lat="46.308949" lon="11.404691"><ele>1076.0</ele><time>2017-08-03T02:41:02Z</time></trkpt>
<trkpt lat="46.308587" lon="11.404639"><ele>1076.0</ele><time>2017-08-03T02:41:04Z</time></trkpt>
<trkpt lat="46.308003" lon="11.404502"><ele>1075.0</ele><time>2017-08-03T02:41:07Z</time></trkpt>
<trkpt lat="46.307835" lon="11.404502"><ele>1075.0</ele><time>2017-08-03T02:41:08Z</time></trkpt>
<trkpt lat="46.307625" lon="11.40457"><ele>1075.0</ele><time>2017-08-03T02:41:10Z</time></trkpt>
<trkpt lat="46.307482" lon="11.404663"><ele>1068.0</ele><time>2017-08-03T02:41:11Z</time></trkpt>
<trkpt lat="46.307297" lon="11.404852"><ele>1068.0</ele><time>2017-08-03T02:41:12Z</time></trkpt>
<trkpt lat="46.306591" lon="11.406089"><ele>1072.0</ele><time>2017-08-03T02:41:18Z</time></trkpt>
<trkpt lat="46.30651" lon="11.406197"><ele>1072.0</ele><time>2017-08-03T02:41:19Z</time></trkpt>
<trkpt lat="46.306334" lon="11.406374"><ele>1072.0</ele><time>2017-08-03T02:41:20Z</time></trkpt>
<trkpt lat="46.305562" lon="11.407031"><ele>1068.0</ele><time>2017-08-03T02:41:25Z</time></trkpt>
<trkpt lat="46.305356" lon="11.407165"><ele>1068.0</ele><time>2017-08-03T02:41:26Z</time></trkpt>
<trkpt lat="46.305233" lon="11.40721"><ele>1068.0</ele><time>2017-08-03T02:41:27Z</time></trkpt>
<trkpt lat="46.30466" lon="11.407347"><ele>1053.0</ele><time>2017-08-03T02:41:30Z</time></trkpt>
<trkpt lat="46.304465" lon="11.407368"><ele>1053.0</ele><time>2017-08-03T02:41:31Z</time></trkpt>
<trkpt lat="46.303995" lon="11.407261"><ele>1036.0</ele><time>2017-08-03T02:41:34Z</time></trkpt>
<trkpt lat="46.303776" lon="11.407244"><ele>1036.0</ele><time>2017-08-03T02:41:35Z</time></trkpt>
<trkpt lat="46.302958" lon="11.407271"><ele>1030.0</ele><time>2017-08-03T02:41:40Z</time></trkpt>
<trkpt lat="46.302764" lon="11.407324"><ele>1030.0</ele><time>2017-08-03T02:41:41Z</time></trkpt>
<trkpt lat="46.29777" lon="11.409682"><ele>1047.0</ele><time>2017-08-03T02:42:10Z</time></trkpt>
<trkpt lat="46.297084" lon="11.410043"><ele>1037.0</ele><time>2017-08-03T02:42:14Z</time></trkpt>
<trkpt lat="46.296174" lon="11.410884"><ele>1036.0</ele><time>2017-08-03T02:42:20Z</time></trkpt>
<trkpt lat="46.295777" lon="11.411372"><ele>1004.0</ele><time>2017-08-03T02:42:23Z</time></trkpt>
<trkpt lat="46.295378" lon="11.412034"><ele>1032.0</ele><time>2017-08-03T02:42:27Z</time></trkpt>
<trkpt lat="46.294572" lon="11.414031"><ele>1023.0</ele><time>2017-08-03T02:42:36Z</time></trkpt>
<trkpt lat="46.294269" lon="11.41516"><ele>1060.0</ele><time>2017-08-03T02:42:41Z</time></trkpt>
<trkpt lat="46.294092" lon="11.415727"><ele>1007.0</ele><time>2017-08-03T02:42:44Z</time></trkpt>
<trkpt lat="46.293994" lon="11.416122"><ele>1016.0</ele><time>2017-08-03T02:42:46Z</time></trkpt>
<trkpt lat="46.293935" lon="11.416718"><ele>1028.0</ele><time>2017-08-03T02:42:49Z</time></trkpt>
<trkpt lat="46.293861" lon="11.417218"><ele>1028.0</ele><time>2017-08-03T02:42:51Z</time></trkpt>
<trkpt lat="46.293693" lon="11.417621"><ele>1027.0</ele><time>2017-08-03T02:42:52Z</time></trkpt>
<trkpt lat="46.293464" lon="11.417971"><ele>1027.0</ele><time>2017-08-03T02:42:54Z</time></trkpt>
<trkpt lat="46.293153" lon="11.418256"><ele>991.0</ele><time>2017-08-03T02:42:57Z</time></trkpt>
<trkpt lat="46.292891" lon="11.418445"><ele>1007.0</ele><time>2017-08-03T02:42:59Z</time></trkpt>
<trkpt lat="46.292449" lon="11.418562"><ele>998.0</ele><time>2017-08-03T02:43:01Z</time></trkpt>
<trkpt lat="46.291391" lon="11.418761"><ele>998.0</ele><time>2017-08-03T02:43:07Z</time></trkpt>
<trkpt lat="46.289863" lon="11.419094"><ele>995.0</ele><time>2017-08-03T02:43:18Z</time></trkpt>
<trkpt lat="46.289801" lon="11.419236"><ele>1004.0</ele><time>2017-08-03T02:43:19Z</time></trkpt>
<trkpt lat="46.289373" lon="11.419842"><ele>1004.0</ele><time>2017-08-03T02:43:23Z</time></trkpt>
<trkpt lat="46.289255" lon="11.419884"><ele>1004.0</ele><time>2017-08-03T02:43:24Z</time></trkpt>
<trkpt lat="46.288793" lon="11.419984"><ele>1002.0</ele><time>2017-08-03T02:43:27Z</time></trkpt>
<trkpt lat="46.288456" lon="11.420112"><ele>1013.0</ele><time>2017-08-03T02:43:30Z</time></trkpt>
<trkpt lat="46.288194" lon="11.420247"><ele>1009.0</ele><time>2017-08-03T02:43:32Z</time></trkpt>
<trkpt lat="46.287992" lon="11.420422"><ele>1009.0</ele><time>2017-08-03T02:43:33Z</time></trkpt>
<trkpt lat="46.28789" lon="11.420685"><ele>1009.0</ele><time>2017-08-03T02:43:35Z</time></trkpt>
<trkpt lat="46.28783" lon="11.420981"><ele>1021.0</ele><time>2017-08-03T02:43:36Z</time></trkpt>
<trkpt lat="46.287803" lon="11.421379"><ele>1021.0</ele><time>2017-08-03T02:43:38Z</time></trkpt>
<trkpt lat="46.287702" lon="11.421635"><ele>1021.0</ele><time>2017-08-03T02:43:39Z</time></trkpt>
<trkpt lat="46.28754" lon="11.421967"><ele>1033.0</ele><time>2017-08-03T02:43:41Z</time></trkpt>
<trkpt lat="46.287505" lon="11.422253"><ele>1033.0</ele><time>2017-08-03T02:43:43Z</time></trkpt>
<trkpt lat="46.28752" lon="11.422571"><ele>1043.0</ele><time>2017-08-03T02:43:44Z</time></trkpt>
<trkpt lat="46.287504" lon="11.4228"><ele>1043.0</ele><time>2017-08-03T02:43:46Z</time></trkpt>
<trkpt lat="46.287475" lon="11.422944"><ele>1024.0</ele><time>2017-08-03T02:43:47Z</time></trkpt>
<trkpt lat="46.286819" lon="11.424086"><ele>1037.0</ele><time>2017-08-03T02:43:54Z</time></trkpt>
<trkpt lat="46.286617" lon="11.424317"><ele>1036.0</ele><time>2017-08-03T02:43:56Z</time></trkpt>
<trkpt lat="46.28619" lon="11.424534"><ele>1036.0</ele><time>2017-08-03T02:43:59Z</time></trkpt>
<trkpt lat="46.286012" lon="11.424604"><ele>1036.0</ele><time>2017-08-03T02:44:00Z</time></trkpt>
<trkpt lat="46.285767" lon="11.424789"><ele>1018.0</ele><time>2017-08-03T02:44:02Z</time></trkpt>
<trkpt lat="46.285426" lon="11.425306"><ele>1038.0</ele><time>2017-08-03T02:44:06Z</time></trkpt>
<trkpt lat="46.285261" lon="11.425761"><ele>1038.0</ele><time>2017-08-03T02:44:08Z</time></trkpt>
<trkpt lat="46.284972" lon="11.426222"><ele>1035.0</ele><time>2017-08-03T02:44:11Z</time></trkpt>
<trkpt lat="46.284808" lon="11.426418"><ele>1035.0</ele><time>2017-08-03T02:44:12Z</time></trkpt>
<trkpt lat="46.284717" lon="11.426745"><ele>1047.0</ele><time>2017-08-03T02:44:14Z</time></trkpt>
<trkpt lat="46.284736" lon="11.427075"><ele>1047.0</ele><time>2017-08-03T02:44:16Z</time></trkpt>
<trkpt lat="46.284903" lon="11.427415"><ele>1047.0</ele><time>2017-08-03T02:44:18Z</time></trkpt>
<trkpt lat="46.285041" lon="11.427987"><ele>1081.0</ele><time>2017-08-03T02:44:21Z</time></trkpt>
<trkpt lat="46.28525" lon="11.429355"><ele>1082.0</ele><time>2017-08-03T02:44:28Z</time></trkpt>
<trkpt lat="46.285371" lon="11.431167"><ele>1073.0</ele><time>2017-08-03T02:44:36Z</time></trkpt>
<trkpt lat="46.285506" lon="11.431591"><ele>1073.0</ele><time>2017-08-03T02:44:38Z</time></trkpt>
<trkpt lat="46.285661" lon="11.431928"><ele>1067.0</ele><time>2017-08-03T02:44:40Z</time></trkpt>
<trkpt lat="46.285802" lon="11.432157"><ele>1067.0</ele><time>2017-08-03T02:44:42Z</time></trkpt>
<trkpt lat="46.286274" lon="11.432582"><ele>1077.0</ele><time>2017-08-03T02:44:46Z</time></trkpt>
<trkpt lat="46.286368" lon="11.43273"><ele>1077.0</ele><time>2017-08-03T02:44:47Z</time></trkpt>
<trkpt lat="46.286415" lon="11.432919"><ele>1077.0</ele><time>2017-08-03T02:44:47Z</time></trkpt>
<trkpt lat="46.286449" lon="11.433289"><ele>1077.0</ele><time>2017-08-03T02:44:49Z</time></trkpt>
<trkpt lat="46.286503" lon="11.433491"><ele>1071.0</ele><time>2017-08-03T02:44:50Z</time></trkpt>
<trkpt lat="46.286611" lon="11.433639"><ele>1071.0</ele><time>2017-08-03T02:44:51Z</time></trkpt>
<trkpt lat="46.28684" lon="11.433855"><ele>1097.0</ele><time>2017-08-03T02:44:54Z</time></trkpt>
<trkpt lat="46.286988" lon="11.43405"><ele>1097.0</ele><time>2017-08-03T02:44:55Z</time></trkpt>
<trkpt lat="46.287055" lon="11.434239"><ele>1080.0</ele><time>2017-08-03T02:44:56Z</time></trkpt>
<trkpt lat="46.287075" lon="11.434387"><ele>1080.0</ele><time>2017-08-03T02:44:57Z</time></trkpt>
<trkpt lat="46.287022" lon="11.435027"><ele>1076.0</ele><time>2017-08-03T02:45:00Z</time></trkpt>
<trkpt lat="46.287089" lon="11.435303"><ele>1076.0</ele><time>2017-08-03T02:45:02Z</time></trkpt>
<trkpt lat="46.287237" lon="11.435546"><ele>1076.0</ele><time>2017-08-03T02:45:03Z</time></trkpt>
<trkpt lat="46.287419" lon="11.435795"><ele>1076.0</ele><time>2017-08-03T02:45:05Z</time></trkpt>
<trkpt lat="46.287641" lon="11.436159"><ele>1097.0</ele><time>2017-08-03T02:45:07Z</time></trkpt>
<trkpt lat="46.287905" lon="11.437069"><ele>1085.0</ele><time>2017-08-03T02:45:12Z</time></trkpt>
<trkpt lat="46.288209" lon="11.43764"><ele>1074.0</ele><time>2017-08-03T02:45:15Z</time></trkpt>
<trkpt lat="46.288359" lon="11.437874"><ele>1084.0</ele><time>2017-08-03T02:45:17Z</time></trkpt>
<trkpt lat="46.288575" lon="11.438123"><ele>1084.0</ele><time>2017-08-03T02:45:19Z</time></trkpt>
<trkpt lat="46.288859" lon="11.438246"><ele>1084.0</ele><time>2017-08-03T02:45:21Z</time></trkpt>
<trkpt lat="46.29021" lon="11.438605"><ele>1091.0</ele><time>2017-08-03T02:45:30Z</time></trkpt>
<trkpt lat="46.290936" lon="11.438864"><ele>1098.0</ele><time>2017-08-03T02:45:35Z</time></trkpt>
<trkpt lat="46.291036" lon="11.438946"><ele>1098.0</ele><time>2017-08-03T02:45:36Z</time></trkpt>
<trkpt lat="46.291398" lon="11.438859"><ele>1098.0</ele><time>2017-08-03T02:45:39Z</time></trkpt>
<trkpt lat="46.291848" lon="11.438578"><ele>1099.0</ele><time>2017-08-03T02:45:42Z</time></trkpt>
<trkpt lat="46.291964" lon="11.438596"><ele>1099.0</ele><time>2017-08-03T02:45:45Z</time></trkpt>
<trkpt lat="46.292098" lon="11.438437"><ele>1099.0</ele><time>2017-08-03T02:45:46Z</time></trkpt>
<trkpt lat="46.292313" lon="11.437936"><ele>1103.0</ele><time>2017-08-03T02:45:49Z</time></trkpt>
<trkpt lat="46.292288" lon="11.43746"><ele>1113.0</ele><time>2017-08-03T02:45:52Z</time></trkpt>
<trkpt lat="46.292355" lon="11.437262"><ele>1113.0</ele><time>2017-08-03T02:45:53Z</time></trkpt>
<trkpt lat="46.292468" lon="11.437211"><ele>1113.0</ele><time>2017-08-03T02:45:54Z</time></trkpt>
<trkpt lat="46.292857" lon="11.437358"><ele>1126.0</ele><time>2017-08-03T02:45:57Z</time></trkpt>
<trkpt lat="46.29317" lon="11.437616"><ele>1117.0</ele><time>2017-08-03T02:46:00Z</time></trkpt>
<trkpt lat="46.293402" lon="11.438211"><ele>1145.0</ele><time>2017-08-03T02:46:05Z</time></trkpt>
<trkpt lat="46.293576" lon="11.438486"><ele>1129.0</ele><time>2017-08-03T02:46:07Z</time></trkpt>
<trkpt lat="46.294239" lon="11.438953"><ele>1151.0</ele><time>2017-08-03T02:46:13Z</time></trkpt>
<trkpt lat="46.294325" lon="11.439062"><ele>1151.0</ele><time>2017-08-03T02:46:14Z</time></trkpt>
<trkpt lat="46.294571" lon="11.44037"><ele>1138.0</ele><time>2017-08-03T02:46:21Z</time></trkpt>
<trkpt lat="46.295291" lon="11.441866"><ele>1144.0</ele><time>2017-08-03T02:46:31Z</time></trkpt>
<trkpt lat="46.295436" lon="11.441991"><ele>1144.0</ele><time>2017-08-03T02:46:32Z</time></trkpt>
<trkpt lat="46.29562" lon="11.442044"><ele>1144.0</ele><time>2017-08-03T02:46:34Z</time></trkpt>
<trkpt lat="46.296044" lon="11.44196"><ele>1160.0</ele><time>2017-08-03T02:46:37Z</time></trkpt>
<trkpt lat="46.296291" lon="11.441995"><ele>1160.0</ele><time>2017-08-03T02:46:39Z</time></trkpt>
<trkpt lat="46.296585" lon="11.442195"><ele>1160.0</ele><time>2017-08-03T02:46:42Z</time></trkpt>
<trkpt lat="46.29698" lon="11.4426"><ele>1174.0</ele><time>2017-08-03T02:46:46Z</time></trkpt>
<trkpt lat="46.297477" lon="11.443668"><ele>1164.0</ele><time>2017-08-03T02:46:53Z</time></trkpt>
<trkpt lat="46.297653" lon="11.443904"><ele>1181.0</ele><time>2017-08-03T02:46:55Z</time></trkpt>
<trkpt lat="46.297854" lon="11.444043"><ele>1181.0</ele><time>2017-08-03T02:46:57Z</time></trkpt>
<trkpt lat="46.298635" lon="11.444418"><ele>1183.0</ele><time>2017-08-03T02:47:03Z</time></trkpt>
<trkpt lat="46.298839" lon="11.444602"><ele>1183.0</ele><time>2017-08-03T02:47:05Z</time></trkpt>
<trkpt lat="46.299272" lon="11.445201"><ele>1184.0</ele><time>2017-08-03T02:47:10Z</time></trkpt>
<trkpt lat="46.299451" lon="11.445303"><ele>1184.0</ele><time>2017-08-03T02:47:11Z</time></trkpt>
<trkpt lat="46.2996" lon="11.4453"><ele>1184.0</ele><time>2017-08-03T02:47:12Z</time></trkpt>
<trkpt lat="46.300097" lon="11.445056"><ele>1200.0</ele><time>2017-08-03T02:47:17Z</time></trkpt>
<trkpt lat="46.3002" lon="11.445092"><ele>1200.0</ele><time>2017-08-03T02:47:17Z</time></trkpt>
<trkpt lat="46.300265" lon="11.445183"><ele>1200.0</ele><time>2017-08-03T02:47:18Z</time></trkpt>
<trkpt lat="46.300331" lon="11.445589"><ele>1200.0</ele><time>2017-08-03T02:47:20Z</time></trkpt>
<trkpt lat="46.300418" lon="11.445912"><ele>1198.0</ele><time>2017-08-03T02:47:23Z</time></trkpt>
<trkpt lat="46.300323" lon="11.446036"><ele>1198.0</ele><time>2017-08-03T02:47:24Z</time></trkpt>
<trkpt lat="46.300246" lon="11.446836"><ele>1196.0</ele><time>2017-08-03T02:47:29Z</time></trkpt>
<trkpt lat="46.300204" lon="11.447129"><ele>1196.0</ele><time>2017-08-03T02:47:30Z</time></trkpt>
<trkpt lat="46.300083" lon="11.447517"><ele>1190.0</ele><time>2017-08-03T02:47:33Z</time></trkpt>
<trkpt lat="46.300075" lon="11.447665"><ele>1190.0</ele><time>2017-08-03T02:47:34Z</time></trkpt>
<trkpt lat="46.300105" lon="11.448054"><ele>1190.0</ele><time>2017-08-03T02:47:36Z</time></trkpt>
<trkpt lat="46.300054" lon="11.448533"><ele>1185.0</ele><time>2017-08-03T02:47:38Z</time></trkpt>
<trkpt lat="46.300055" lon="11.448901"><ele>1185.0</ele><time>2017-08-03T02:47:40Z</time></trkpt>
<trkpt lat="46.300095" lon="11.449359"><ele>1177.0</ele><time>2017-08-03T02:47:43Z</time></trkpt>
<trkpt lat="46.30009" lon="11.449914"><ele>1177.0</ele><time>2017-08-03T02:47:46Z</time></trkpt>
<trkpt lat="46.299928" lon="11.450895"><ele>1160.0</ele><time>2017-08-03T02:47:52Z</time></trkpt>
<trkpt lat="46.299835" lon="11.451744"><ele>1155.0</ele><time>2017-08-03T02:47:56Z</time></trkpt>
<trkpt lat="46.29978" lon="11.452396"><ele>1155.0</ele><time>2017-08-03T02:48:00Z</time></trkpt>
<trkpt lat="46.300036" lon="11.451792"><ele>1165.0</ele><time>2017-08-03T02:48:03Z</time></trkpt>
<trkpt lat="46.300137" lon="11.451689"><ele>1165.0</ele><time>2017-08-03T02:48:04Z</time></trkpt>
<trkpt lat="46.300249" lon="11.451663"><ele>1166.0</ele><time>2017-08-03T02:48:05Z</time></trkpt>
<trkpt lat="46.300356" lon="11.451706"><ele>1165.0</ele><time>2017-08-03T02:48:05Z</time></trkpt>
<trkpt lat="46.300492" lon="11.451903"><ele>1165.0</ele><time>2017-08-03T02:48:06Z</time></trkpt>
<trkpt lat="46.301014" lon="11.45314"><ele>1178.0</ele><time>2017-08-03T02:48:13Z</time></trkpt>
<trkpt lat="46.301125" lon="11.453279"><ele>1178.0</ele><time>2017-08-03T02:48:13Z</time></trkpt>
<trkpt lat="46.301231" lon="11.453287"><ele>1178.0</ele><time>2017-08-03T02:48:14Z</time></trkpt>
<trkpt lat="46.301592" lon="11.453148"><ele>1178.0</ele><time>2017-08-03T02:48:16Z</time></trkpt>
<trkpt lat="46.302041" lon="11.453188"><ele>1198.0</ele><time>2017-08-03T02:48:19Z</time></trkpt>
<trkpt lat="46.302224" lon="11.453278"><ele>1198.0</ele><time>2017-08-03T02:48:20Z</time></trkpt>
<trkpt lat="46.302597" lon="11.453712"><ele>1198.0</ele><time>2017-08-03T02:48:23Z</time></trkpt>
<trkpt lat="46.303026" lon="11.454262"><ele>1172.0</ele><time>2017-08-03T02:48:27Z</time></trkpt>
<trkpt lat="46.303129" lon="11.454403"><ele>1172.0</ele><time>2017-08-03T02:48:28Z</time></trkpt>
<trkpt lat="46.303185" lon="11.45455"><ele>1172.0</ele><time>2017-08-03T02:48:29Z</time></trkpt>
<trkpt lat="46.303205" lon="11.454757"><ele>1172.0</ele><time>2017-08-03T02:48:30Z</time></trkpt>
<trkpt lat="46.303189" lon="11.454958"><ele>1172.0</ele><time>2017-08-03T02:48:30Z</time></trkpt>
<trkpt lat="46.303123" lon="11.455138"><ele>1168.0</ele><time>2017-08-03T02:48:31Z</time></trkpt>
<trkpt lat="46.30302" lon="11.455295"><ele>1168.0</ele><time>2017-08-03T02:48:32Z</time></trkpt>
<trkpt lat="46.302772" lon="11.45546"><ele>1168.0</ele><time>2017-08-03T02:48:34Z</time></trkpt>
<trkpt lat="46.302669" lon="11.455577"><ele>1168.0</ele><time>2017-08-03T02:48:35Z</time></trkpt>
<trkpt lat="46.302663" lon="11.455722"><ele>1168.0</ele><time>2017-08-03T02:48:35Z</time></trkpt>
<trkpt lat="46.302726" lon="11.45581"><ele>1168.0</ele><time>2017-08-03T02:48:36Z</time></trkpt>
<trkpt lat="46.303095" lon="11.455862"><ele>1173.0</ele><time>2017-08-03T02:48:39Z</time></trkpt>
<trkpt lat="46.303254" lon="11.455931"><ele>1173.0</ele><time>2017-08-03T02:48:40Z</time></trkpt>
<trkpt lat="46.303631" lon="11.456233"><ele>1186.0</ele><time>2017-08-03T02:48:43Z</time></trkpt>
<trkpt lat="46.304321" lon="11.456548"><ele>1207.0</ele><time>2017-08-03T02:48:48Z</time></trkpt>
<trkpt lat="46.304605" lon="11.456637"><ele>1207.0</ele><time>2017-08-03T02:48:50Z</time></trkpt>
<trkpt lat="46.304865" lon="11.456656"><ele>1207.0</ele><time>2017-08-03T02:48:52Z</time></trkpt>
<trkpt lat="46.304981" lon="11.456717"><ele>1192.0</ele><time>2017-08-03T02:48:53Z</time></trkpt>
<trkpt lat="46.305055" lon="11.456783"><ele>1209.0</ele><time>2017-08-03T02:48:54Z</time></trkpt>
<trkpt lat="46.305109" lon="11.456904"><ele>1209.0</ele><time>2017-08-03T02:48:55Z</time></trkpt>
<trkpt lat="46.305205" lon="11.457497"><ele>1209.0</ele><time>2017-08-03T02:48:58Z</time></trkpt>
<trkpt lat="46.305242" lon="11.457722"><ele>1200.0</ele><time>2017-08-03T02:48:59Z</time></trkpt>
<trkpt lat="46.305047" lon="11.457918"><ele>1200.0</ele><time>2017-08-03T02:49:02Z</time></trkpt>
<trkpt lat="46.305" lon="11.458049"><ele>1200.0</ele><time>2017-08-03T02:49:03Z</time></trkpt>
<trkpt lat="46.304968" lon="11.458122"><ele>1189.0</ele><time>2017-08-03T02:49:05Z</time></trkpt>
<trkpt lat="46.305004" lon="11.458415"><ele>1199.0</ele><time>2017-08-03T02:49:08Z</time></trkpt>
<trkpt lat="46.304943" lon="11.458669"><ele>1189.0</ele><time>2017-08-03T02:49:10Z</time></trkpt>
<trkpt lat="46.30492" lon="11.458763"><ele>1189.0</ele><time>2017-08-03T02:49:11Z</time></trkpt>
<trkpt lat="46.305121" lon="11.459804"><ele>1200.0</ele><time>2017-08-03T02:49:21Z</time></trkpt>
<trkpt lat="46.305245" lon="11.460919"><ele>1200.0</ele><time>2017-08-03T02:49:30Z</time></trkpt>
<trkpt lat="46.305295" lon="11.461509"><ele>1200.0</ele><time>2017-08-03T02:49:35Z</time></trkpt>
<trkpt lat="46.305299" lon="11.461762"><ele>1201.0</ele><time>2017-08-03T02:49:38Z</time></trkpt>
<trkpt lat="46.305311" lon="11.462097"><ele>1201.0</ele><time>2017-08-03T02:49:41Z</time></trkpt>
<trkpt lat="46.305371" lon="11.462357"><ele>1201.0</ele><time>2017-08-03T02:49:44Z</time></trkpt>
<trkpt lat="46.305551" lon="11.462889"><ele>1199.0</ele><time>2017-08-03T02:49:50Z</time></trkpt>
<trkpt lat="46.305741" lon="11.463377"><ele>1200.0</ele><time>2017-08-03T02:49:56Z</time></trkpt>
<trkpt lat="46.305849" lon="11.463463"><ele>1214.0</ele><time>2017-08-03T02:49:58Z</time></trkpt>
<trkpt lat="46.306074" lon="11.463554"><ele>1214.0</ele><time>2017-08-03T02:50:02Z</time></trkpt>
<trkpt lat="46.306713" lon="11.463668"><ele>1229.0</ele><time>2017-08-03T02:50:11Z</time></trkpt>
<trkpt lat="46.30741" lon="11.463897"><ele>1229.0</ele><time>2017-08-03T02:50:22Z</time></trkpt>
<trkpt lat="46.307615" lon="11.464054"><ele>1241.0</ele><time>2017-08-03T02:50:26Z</time></trkpt>
<trkpt lat="46.307678" lon="11.464343"><ele>1231.0</ele><time>2017-08-03T02:50:29Z</time></trkpt>
<trkpt lat="46.307597" lon="11.464676"><ele>1231.0</ele><time>2017-08-03T02:50:33Z</time></trkpt>
<trkpt lat="46.307399" lon="11.464865"><ele>1221.0</ele><time>2017-08-03T02:50:37Z</time></trkpt>
<trkpt lat="46.307174" lon="11.464992"><ele>1221.0</ele><time>2017-08-03T02:50:40Z</time></trkpt>
<trkpt lat="46.306723" lon="11.465082"><ele>1224.0</ele><time>2017-08-03T02:50:47Z</time></trkpt>
<trkpt lat="46.306615" lon="11.465244"><ele>1211.0</ele><time>2017-08-03T02:50:50Z</time></trkpt>
<trkpt lat="46.306606" lon="11.465469"><ele>1211.0</ele><time>2017-08-03T02:50:52Z</time></trkpt>
<trkpt lat="46.306723" lon="11.465779"><ele>1224.0</ele><time>2017-08-03T02:50:56Z</time></trkpt>
<trkpt lat="46.306822" lon="11.466109"><ele>1219.0</ele><time>2017-08-03T02:51:00Z</time></trkpt>
<trkpt lat="46.307011" lon="11.466614"><ele>1219.0</ele><time>2017-08-03T02:51:06Z</time></trkpt>
<trkpt lat="46.307426" lon="11.467321"><ele>1224.0</ele><time>2017-08-03T02:51:15Z</time></trkpt>
<trkpt lat="46.3078" lon="11.467998"><ele>1246.0</ele><time>2017-08-03T02:51:24Z</time></trkpt>
<trkpt lat="46.30789" lon="11.468028"><ele>1246.0</ele><time>2017-08-03T02:51:26Z</time></trkpt>
<trkpt lat="46.30792" lon="11.468139"><ele>1246.0</ele><time>2017-08-03T02:51:27Z</time></trkpt>
<trkpt lat="46.30792" lon="11.468139"><ele>1246.0</ele><time>2017-08-03T02:51:27Z</time></trkpt>
<trkpt lat="46.30789" lon="11.468028"><ele>1246.0</ele><time>2017-08-03T02:51:28Z</time></trkpt>
<trkpt lat="46.3078" lon="11.467998"><ele>1246.0</ele><time>2017-08-03T02:51:30Z</time></trkpt>
<trkpt lat="46.307426" lon="11.467321"><ele>1224.0</ele><time>2017-08-03T02:51:39Z</time></trkpt>
<trkpt lat="46.307011" lon="11.466614"><ele>1219.0</ele><time>2017-08-03T02:51:48Z</time></trkpt>
<trkpt lat="46.306822" lon="11.466109"><ele>1219.0</ele><time>2017-08-03T02:51:53Z</time></trkpt>
<trkpt lat="46.306723" lon="11.465779"><ele>1224.0</ele><time>2017-08-03T02:51:57Z</time></trkpt>
<trkpt lat="46.306606" lon="11.465469"><ele>1211.0</ele><time>2017-08-03T02:52:01Z</time></trkpt>
<trkpt lat="46.306615" lon="11.465244"><ele>1211.0</ele><time>2017-08-03T02:52:03Z</time></trkpt>
<trkpt lat="46.306723" lon="11.465082"><ele>1224.0</ele><time>2017-08-03T02:52:06Z</time></trkpt>
<trkpt lat="46.307174" lon="11.464992"><ele>1221.0</ele><time>2017-08-03T02:52:12Z</time></trkpt>
<trkpt lat="46.307399" lon="11.464865"><ele>1221.0</ele><time>2017-08-03T02:52:16Z</time></trkpt>
<trkpt lat="46.307597" lon="11.464676"><ele>1231.0</ele><time>2017-08-03T02:52:19Z</time></trkpt>
<trkpt lat="46.307678" lon="11.464343"><ele>1231.0</ele><time>2017-08-03T02:52:23Z</time></trkpt>
<trkpt lat="46.307615" lon="11.464054"><ele>1241.0</ele><time>2017-08-03T02:52:26Z</time></trkpt>
<trkpt lat="46.30741" lon="11.463897"><ele>1229.0</ele><time>2017-08-03T02:52:30Z</time></trkpt>
<trkpt lat="46.306713" lon="11.463668"><ele>1229.0</ele><time>2017-08-03T02:52:40Z</time></trkpt>
<trkpt lat="46.306074" lon="11.463554"><ele>1214.0</ele><time>2017-08-03T02:52:49Z</time></trkpt>
<trkpt lat="46.305849" lon="11.463463"><ele>1214.0</ele><time>2017-08-03T02:52:53Z</time></trkpt>
<trkpt lat="46.305741" lon="11.463377"><ele>1200.0</ele><time>2017-08-03T02:52:55Z</time></trkpt>
<trkpt lat="46.305551" lon="11.462889"><ele>1199.0</ele><time>2017-08-03T02:53:01Z</time></trkpt>
<trkpt lat="46.305371" lon="11.462357"><ele>1201.0</ele><time>2017-08-03T02:53:07Z</time></trkpt>
<trkpt lat="46.305311" lon="11.462097"><ele>1201.0</ele><time>2017-08-03T02:53:09Z</time></trkpt>
<trkpt lat="46.305295" lon="11.461509"><ele>1200.0</ele><time>2017-08-03T02:53:15Z</time></trkpt>
<trkpt lat="46.305245" lon="11.460919"><ele>1200.0</ele><time>2017-08-03T02:53:21Z</time></trkpt>
<trkpt lat="46.305121" lon="11.459804"><ele>1200.0</ele><time>2017-08-03T02:53:32Z</time></trkpt>
<trkpt lat="46.305059" lon="11.459447"><ele>1200.0</ele><time>2017-08-03T02:53:36Z</time></trkpt>
<trkpt lat="46.30492" lon="11.458763"><ele>1189.0</ele><time>2017-08-03T02:53:43Z</time></trkpt>
<trkpt lat="46.304943" lon="11.458669"><ele>1189.0</ele><time>2017-08-03T02:53:44Z</time></trkpt>
<trkpt lat="46.305407" lon="11.458568"><ele>1199.0</ele><time>2017-08-03T02:53:50Z</time></trkpt>
<trkpt lat="46.305405" lon="11.458305"><ele>1200.0</ele><time>2017-08-03T02:53:52Z</time></trkpt>
<trkpt lat="46.305544" lon="11.458205"><ele>1200.0</ele><time>2017-08-03T02:53:54Z</time></trkpt>
<trkpt lat="46.305828" lon="11.45837"><ele>1199.0</ele><time>2017-08-03T02:53:56Z</time></trkpt>
<trkpt lat="46.306233" lon="11.458446"><ele>1208.0</ele><time>2017-08-03T02:53:58Z</time></trkpt>
<trkpt lat="46.306498" lon="11.458607"><ele>1208.0</ele><time>2017-08-03T02:53:59Z</time></trkpt>
<trkpt lat="46.307148" lon="11.459318"><ele>1225.0</ele><time>2017-08-03T02:54:04Z</time></trkpt>
<trkpt lat="46.307265" lon="11.459521"><ele>1225.0</ele><time>2017-08-03T02:54:04Z</time></trkpt>
<trkpt lat="46.307577" lon="11.459898"><ele>1252.0</ele><time>2017-08-03T02:54:07Z</time></trkpt>
<trkpt lat="46.307695" lon="11.460123"><ele>1240.0</ele><time>2017-08-03T02:54:08Z</time></trkpt>
<trkpt lat="46.307793" lon="11.460711"><ele>1240.0</ele><time>2017-08-03T02:54:10Z</time></trkpt>
<trkpt lat="46.307818" lon="11.46079"><ele>1240.0</ele><time>2017-08-03T02:54:10Z</time></trkpt>
<trkpt lat="46.307939" lon="11.460996"><ele>1237.0</ele><time>2017-08-03T02:54:11Z</time></trkpt>
<trkpt lat="46.308159" lon="11.461312"><ele>1237.0</ele><time>2017-08-03T02:54:13Z</time></trkpt>
<trkpt lat="46.308616" lon="11.461915"><ele>1251.0</ele><time>2017-08-03T02:54:16Z</time></trkpt>
<trkpt lat="46.308888" lon="11.462686"><ele>1258.0</ele><time>2017-08-03T02:54:19Z</time></trkpt>
<trkpt lat="46.308965" lon="11.462801"><ele>1258.0</ele><time>2017-08-03T02:54:20Z</time></trkpt>
<trkpt lat="46.309065" lon="11.462889"><ele>1258.0</ele><time>2017-08-03T02:54:20Z</time></trkpt>
<trkpt lat="46.309158" lon="11.462936"><ele>1258.0</ele><time>2017-08-03T02:54:21Z</time></trkpt>
<trkpt lat="46.309293" lon="11.46297"><ele>1270.0</ele><time>2017-08-03T02:54:22Z</time></trkpt>
<trkpt lat="46.309426" lon="11.462931"><ele>1270.0</ele><time>2017-08-03T02:54:22Z</time></trkpt>
<trkpt lat="46.309556" lon="11.462859"><ele>1270.0</ele><time>2017-08-03T02:54:23Z</time></trkpt>
<trkpt lat="46.30994" lon="11.462066"><ele>1264.0</ele><time>2017-08-03T02:54:27Z</time></trkpt>
<trkpt lat="46.310121" lon="11.461939"><ele>1282.0</ele><time>2017-08-03T02:54:28Z</time></trkpt>
<trkpt lat="46.310293" lon="11.461939"><ele>1282.0</ele><time>2017-08-03T02:54:29Z</time></trkpt>
<trkpt lat="46.310685" lon="11.462404"><ele>1282.0</ele><time>2017-08-03T02:54:31Z</time></trkpt>
<trkpt lat="46.310783" lon="11.462479"><ele>1282.0</ele><time>2017-08-03T02:54:32Z</time></trkpt>
<trkpt lat="46.310887" lon="11.462479"><ele>1301.0</ele><time>2017-08-03T02:54:33Z</time></trkpt>
<trkpt lat="46.31122" lon="11.462403"><ele>1301.0</ele><time>2017-08-03T02:54:35Z</time></trkpt>
<trkpt lat="46.311442" lon="11.462438"><ele>1301.0</ele><time>2017-08-03T02:54:36Z</time></trkpt>
<trkpt lat="46.311955" lon="11.46261"><ele>1314.0</ele><time>2017-08-03T02:54:38Z</time></trkpt>
<trkpt lat="46.312081" lon="11.462723"><ele>1314.0</ele><time>2017-08-03T02:54:39Z</time></trkpt>
<trkpt lat="46.312272" lon="11.462944"><ele>1314.0</ele><time>2017-08-03T02:54:40Z</time></trkpt>
<trkpt lat="46.312334" lon="11.463097"><ele>1314.0</ele><time>2017-08-03T02:54:41Z</time></trkpt>
<trkpt lat="46.312335" lon="11.46329"><ele>1314.0</ele><time>2017-08-03T02:54:42Z</time></trkpt>
<trkpt lat="46.312251" lon="11.463516"><ele>1309.0</ele><time>2017-08-03T02:54:43Z</time></trkpt>
<trkpt lat="46.311907" lon="11.464075"><ele>1309.0</ele><time>2017-08-03T02:54:45Z</time></trkpt>
<trkpt lat="46.311837" lon="11.464257"><ele>1318.0</ele><time>2017-08-03T02:54:46Z</time></trkpt>
<trkpt lat="46.311917" lon="11.465161"><ele>1332.0</ele><time>2017-08-03T02:54:49Z</time></trkpt>
<trkpt lat="46.311816" lon="11.466466"><ele>1347.0</ele><time>2017-08-03T02:54:54Z</time></trkpt>
<trkpt lat="46.311856" lon="11.466704"><ele>1347.0</ele><time>2017-08-03T02:54:55Z</time></trkpt>
<trkpt lat="46.31196" lon="11.466882"><ele>1347.0</ele><time>2017-08-03T02:54:56Z</time></trkpt>
<trkpt lat="46.312249" lon="11.467113"><ele>1347.0</ele><time>2017-08-03T02:54:57Z</time></trkpt>
<trkpt lat="46.312296" lon="11.467303"><ele>1347.0</ele><time>2017-08-03T02:54:58Z</time></trkpt>
<trkpt lat="46.312163" lon="11.468362"><ele>1347.0</ele><time>2017-08-03T02:55:02Z</time></trkpt>
<trkpt lat="46.31226" lon="11.468841"><ele>1347.0</ele><time>2017-08-03T02:55:04Z</time></trkpt>
<trkpt lat="46.312285" lon="11.46945"><ele>1346.0</ele><time>2017-08-03T02:55:06Z</time></trkpt>
<trkpt lat="46.312453" lon="11.469675"><ele>1346.0</ele><time>2017-08-03T02:55:07Z</time></trkpt>
<trkpt lat="46.3125" lon="11.469825"><ele>1361.0</ele><time>2017-08-03T02:55:08Z</time></trkpt>
<trkpt lat="46.312484" lon="11.470366"><ele>1353.0</ele><time>2017-08-03T02:55:10Z</time></trkpt>
<trkpt lat="46.312526" lon="11.470492"><ele>1369.0</ele><time>2017-08-03T02:55:11Z</time></trkpt>
<trkpt lat="46.312636" lon="11.470713"><ele>1369.0</ele><time>2017-08-03T02:55:11Z</time></trkpt>
<trkpt lat="46.312667" lon="11.470825"><ele>1369.0</ele><time>2017-08-03T02:55:12Z</time></trkpt>
<trkpt lat="46.312687" lon="11.471023"><ele>1371.0</ele><time>2017-08-03T02:55:13Z</time></trkpt>
<trkpt lat="46.312725" lon="11.471159"><ele>1371.0</ele><time>2017-08-03T02:55:13Z</time></trkpt>
<trkpt lat="46.312802" lon="11.471231"><ele>1371.0</ele><time>2017-08-03T02:55:14Z</time></trkpt>
<trkpt lat="46.312901" lon="11.471234"><ele>1371.0</ele><time>2017-08-03T02:55:14Z</time></trkpt>
<trkpt lat="46.313284" lon="11.470994"><ele>1371.0</ele><time>2017-08-03T02:55:16Z</time></trkpt>
<trkpt lat="46.313454" lon="11.47098"><ele>1375.0</ele><time>2017-08-03T02:55:17Z</time></trkpt>
<trkpt lat="46.314456" lon="11.471653"><ele>1381.0</ele><time>2017-08-03T02:55:23Z</time></trkpt>
<trkpt lat="46.314553" lon="11.471748"><ele>1379.0</ele><time>2017-08-03T02:55:23Z</time></trkpt>
<trkpt lat="46.314619" lon="11.471929"><ele>1379.0</ele><time>2017-08-03T02:55:24Z</time></trkpt>
<trkpt lat="46.314688" lon="11.472278"><ele>1379.0</ele><time>2017-08-03T02:55:25Z</time></trkpt>
<trkpt lat="46.314719" lon="11.472542"><ele>1381.0</ele><time>2017-08-03T02:55:26Z</time></trkpt>
<trkpt lat="46.314945" lon="11.473842"><ele>1384.0</ele><time>2017-08-03T02:55:31Z</time></trkpt>
<trkpt lat="46.31515" lon="11.474673"><ele>1394.0</ele><time>2017-08-03T02:55:34Z</time></trkpt>
<trkpt lat="46.31555" lon="11.475535"><ele>1379.0</ele><time>2017-08-03T02:55:38Z</time></trkpt>
<trkpt lat="46.316117" lon="11.476691"><ele>1391.0</ele><time>2017-08-03T02:55:43Z</time></trkpt>
<trkpt lat="46.316615" lon="11.47779"><ele>1392.0</ele><time>2017-08-03T02:55:47Z</time></trkpt>
<trkpt lat="46.316835" lon="11.478225"><ele>1416.0</ele><time>2017-08-03T02:55:49Z</time></trkpt>
<trkpt lat="46.317198" lon="11.479019"><ele>1408.0</ele><time>2017-08-03T02:55:53Z</time></trkpt>
<trkpt lat="46.317644" lon="11.479548"><ele>1417.0</ele><time>2017-08-03T02:55:56Z</time></trkpt>
<trkpt lat="46.318331" lon="11.480214"><ele>1408.0</ele><time>2017-08-03T02:56:00Z</time></trkpt>
<trkpt lat="46.318989" lon="11.481097"><ele>1413.0</ele><time>2017-08-03T02:56:05Z</time></trkpt>
<trkpt lat="46.319684" lon="11.482231"><ele>1434.0</ele><time>2017-08-03T02:56:10Z</time></trkpt>
<trkpt lat="46.320312" lon="11.483143"><ele>1453.0</ele><time>2017-08-03T02:56:15Z</time></trkpt>
<trkpt lat="46.320973" lon="11.483771"><ele>1446.0</ele><time>2017-08-03T02:56:19Z</time></trkpt>
<trkpt lat="46.322188" lon="11.484331"><ele>1436.0</ele><time>2017-08-03T02:56:25Z</time></trkpt>
<trkpt lat="46.322362" lon="11.48435"><ele>1436.0</ele><time>2017-08-03T02:56:26Z</time></trkpt>
<trkpt lat="46.322582" lon="11.484262"><ele>1443.0</ele><time>2017-08-03T02:56:27Z</time></trkpt>
<trkpt lat="46.322802" lon="11.484238"><ele>1443.0</ele><time>2017-08-03T02:56:28Z</time></trkpt>
<trkpt lat="46.323735" lon="11.484408"><ele>1448.0</ele><time>2017-08-03T02:56:33Z</time></trkpt>
<trkpt lat="46.324151" lon="11.484256"><ele>1448.0</ele><time>2017-08-03T02:56:35Z</time></trkpt>
<trkpt lat="46.325488" lon="11.484241"><ele>1455.0</ele><time>2017-08-03T02:56:42Z</time></trkpt>
<trkpt lat="46.326268" lon="11.483841"><ele>1470.0</ele><time>2017-08-03T02:56:46Z</time></trkpt>
<trkpt lat="46.326607" lon="11.48381"><ele>1470.0</ele><time>2017-08-03T02:56:48Z</time></trkpt>
<trkpt lat="46.327343" lon="11.483769"><ele>1468.0</ele><time>2017-08-03T02:56:52Z</time></trkpt>
<trkpt lat="46.3274" lon="11.483856"><ele>1468.0</ele><time>2017-08-03T02:56:53Z</time></trkpt>
<trkpt lat="46.327431" lon="11.483946"><ele>1468.0</ele><time>2017-08-03T02:56:53Z</time></trkpt>
<trkpt lat="46.327443" lon="11.484021"><ele>1468.0</ele><time>2017-08-03T02:56:53Z</time></trkpt>
<trkpt lat="46.327417" lon="11.484167"><ele>1461.0</ele><time>2017-08-03T02:56:54Z</time></trkpt>
<trkpt lat="46.327344" lon="11.484345"><ele>1461.0</ele><time>2017-08-03T02:56:55Z</time></trkpt>
<trkpt lat="46.327224" lon="11.484499"><ele>1461.0</ele><time>2017-08-03T02:56:56Z</time></trkpt>
<trkpt lat="46.326815" lon="11.484852"><ele>1461.0</ele><time>2017-08-03T02:56:58Z</time></trkpt>
<trkpt lat="46.326686" lon="11.48488"><ele>1461.0</ele><time>2017-08-03T02:56:59Z</time></trkpt>
<trkpt lat="46.326323" lon="11.484777"><ele>1453.0</ele><time>2017-08-03T02:57:01Z</time></trkpt>
<trkpt lat="46.326209" lon="11.484794"><ele>1453.0</ele><time>2017-08-03T02:57:01Z</time></trkpt>
<trkpt lat="46.325241" lon="11.485512"><ele>1464.0</ele><time>2017-08-03T02:57:07Z</time></trkpt>
<trkpt lat="46.325125" lon="11.485647"><ele>1464.0</ele><time>2017-08-03T02:57:08Z</time></trkpt>
<trkpt lat="46.324842" lon="11.485892"><ele>1467.0</ele><time>2017-08-03T02:57:09Z</time></trkpt>
<trkpt lat="46.324604" lon="11.48602"><ele>1467.0</ele><time>2017-08-03T02:57:11Z</time></trkpt>
<trkpt lat="46.323409" lon="11.486244"><ele>1454.0</ele><time>2017-08-03T02:57:17Z</time></trkpt>
<trkpt lat="46.32318" lon="11.486217"><ele>1449.0</ele><time>2017-08-03T02:57:18Z</time></trkpt>
<trkpt lat="46.322739" lon="11.486102"><ele>1449.0</ele><time>2017-08-03T02:57:21Z</time></trkpt>
<trkpt lat="46.322202" lon="11.486115"><ele>1453.0</ele><time>2017-08-03T02:57:23Z</time></trkpt>
<trkpt lat="46.320659" lon="11.486333"><ele>1459.0</ele><time>2017-08-03T02:57:31Z</time></trkpt>
<trkpt lat="46.320298" lon="11.486417"><ele>1459.0</ele><time>2017-08-03T02:57:33Z</time></trkpt>
<trkpt lat="46.319966" lon="11.486468"><ele>1450.0</ele><time>2017-08-03T02:57:35Z</time></trkpt>
<trkpt lat="46.319253" lon="11.486559"><ele>1450.0</ele><time>2017-08-03T02:57:39Z</time></trkpt>
<trkpt lat="46.319151" lon="11.486649"><ele>1453.0</ele><time>2017-08-03T02:57:39Z</time></trkpt>
<trkpt lat="46.319103" lon="11.486802"><ele>1447.0</ele><time>2017-08-03T02:57:40Z</time></trkpt>
<trkpt lat="46.318958" lon="11.487785"><ele>1448.0</ele><time>2017-08-03T02:57:44Z</time></trkpt>
<trkpt lat="46.318892" lon="11.488097"><ele>1448.0</ele><time>2017-08-03T02:57:45Z</time></trkpt>
<trkpt lat="46.318797" lon="11.488392"><ele>1454.0</ele><time>2017-08-03T02:57:46Z</time></trkpt>
<trkpt lat="46.31868" lon="11.488645"><ele>1454.0</ele><time>2017-08-03T02:57:47Z</time></trkpt>
<trkpt lat="46.318524" lon="11.488851"><ele>1454.0</ele><time>2017-08-03T02:57:48Z</time></trkpt>
<trkpt lat="46.318383" lon="11.488979"><ele>1454.0</ele><time>2017-08-03T02:57:49Z</time></trkpt>
<trkpt lat="46.318266" lon="11.489117"><ele>1446.0</ele><time>2017-08-03T02:57:50Z</time></trkpt>
<trkpt lat="46.318179" lon="11.489281"><ele>1444.0</ele><time>2017-08-03T02:57:51Z</time></trkpt>
<trkpt lat="46.318099" lon="11.489505"><ele>1444.0</ele><time>2017-08-03T02:57:51Z</time></trkpt>
<trkpt lat="46.317993" lon="11.489722"><ele>1444.0</ele><time>2017-08-03T02:57:52Z</time></trkpt>
<trkpt lat="46.31754" lon="11.490188"><ele>1444.0</ele><time>2017-08-03T02:57:55Z</time></trkpt>
<trkpt lat="46.31747" lon="11.49031"><ele>1442.0</ele><time>2017-08-03T02:57:56Z</time></trkpt>
<trkpt lat="46.317449" lon="11.490387"><ele>1442.0</ele><time>2017-08-03T02:57:56Z</time></trkpt>
<trkpt lat="46.317451" lon="11.490516"><ele>1442.0</ele><time>2017-08-03T02:57:57Z</time></trkpt>
<trkpt lat="46.317488" lon="11.490615"><ele>1442.0</ele><time>2017-08-03T02:57:57Z</time></trkpt>
<trkpt lat="46.317567" lon="11.490718"><ele>1444.0</ele><time>2017-08-03T02:57:58Z</time></trkpt>
<trkpt lat="46.317853" lon="11.490988"><ele>1431.0</ele><time>2017-08-03T02:57:59Z</time></trkpt>
<trkpt lat="46.317966" lon="11.49101"><ele>1431.0</ele><time>2017-08-03T02:58:00Z</time></trkpt>
<trkpt lat="46.318073" lon="11.490987"><ele>1431.0</ele><time>2017-08-03T02:58:01Z</time></trkpt>
<trkpt lat="46.318128" lon="11.490917"><ele>1431.0</ele><time>2017-08-03T02:58:01Z</time></trkpt>
<trkpt lat="46.318247" lon="11.490683"><ele>1444.0</ele><time>2017-08-03T02:58:02Z</time></trkpt>
<trkpt lat="46.318337" lon="11.490585"><ele>1453.0</ele><time>2017-08-03T02:58:03Z</time></trkpt>
<trkpt lat="46.31857" lon="11.490462"><ele>1453.0</ele><time>2017-08-03T02:58:04Z</time></trkpt>
<trkpt lat="46.318786" lon="11.490432"><ele>1453.0</ele><time>2017-08-03T02:58:05Z</time></trkpt>
<trkpt lat="46.319236" lon="11.490567"><ele>1450.0</ele><time>2017-08-03T02:58:08Z</time></trkpt>
<trkpt lat="46.319367" lon="11.490673"><ele>1450.0</ele><time>2017-08-03T02:58:08Z</time></trkpt>
<trkpt lat="46.319491" lon="11.490836"><ele>1426.0</ele><time>2017-08-03T02:58:10Z</time></trkpt>
<trkpt lat="46.319584" lon="11.490922"><ele>1426.0</ele><time>2017-08-03T02:58:10Z</time></trkpt>
<trkpt lat="46.319767" lon="11.490982"><ele>1426.0</ele><time>2017-08-03T02:58:11Z</time></trkpt>
<trkpt lat="46.319974" lon="11.490988"><ele>1426.0</ele><time>2017-08-03T02:58:12Z</time></trkpt>
<trkpt lat="46.320135" lon="11.490934"><ele>1417.0</ele><time>2017-08-03T02:58:13Z</time></trkpt>
<trkpt lat="46.320419" lon="11.490778"><ele>1439.0</ele><time>2017-08-03T02:58:15Z</time></trkpt>
<trkpt lat="46.320498" lon="11.490767"><ele>1439.0</ele><time>2017-08-03T02:58:16Z</time></trkpt>
<trkpt lat="46.320674" lon="11.490835"><ele>1417.0</ele><time>2017-08-03T02:58:17Z</time></trkpt>
<trkpt lat="46.320789" lon="11.490931"><ele>1417.0</ele><time>2017-08-03T02:58:18Z</time></trkpt>
<trkpt lat="46.320967" lon="11.491131"><ele>1424.0</ele><time>2017-08-03T02:58:19Z</time></trkpt>
<trkpt lat="46.32108" lon="11.491291"><ele>1424.0</ele><time>2017-08-03T02:58:20Z</time></trkpt>
<trkpt lat="46.321135" lon="11.491451"><ele>1424.0</ele><time>2017-08-03T02:58:20Z</time></trkpt>
<trkpt lat="46.321142" lon="11.491556"><ele>1424.0</ele><time>2017-08-03T02:58:21Z</time></trkpt>
<trkpt lat="46.321089" lon="11.492071"><ele>1407.0</ele><time>2017-08-03T02:58:23Z</time></trkpt>
<trkpt lat="46.32113" lon="11.492198"><ele>1407.0</ele><time>2017-08-03T02:58:23Z</time></trkpt>
<trkpt lat="46.321299" lon="11.492423"><ele>1407.0</ele><time>2017-08-03T02:58:24Z</time></trkpt>
<trkpt lat="46.321432" lon="11.49244"><ele>1407.0</ele><time>2017-08-03T02:58:25Z</time></trkpt>
<trkpt lat="46.321596" lon="11.492425"><ele>1407.0</ele><time>2017-08-03T02:58:26Z</time></trkpt>
<trkpt lat="46.321662" lon="11.492463"><ele>1407.0</ele><time>2017-08-03T02:58:26Z</time></trkpt>
<trkpt lat="46.321706" lon="11.492588"><ele>1412.0</ele><time>2017-08-03T02:58:27Z</time></trkpt>
<trkpt lat="46.321691" lon="11.49321"><ele>1412.0</ele><time>2017-08-03T02:58:29Z</time></trkpt>
<trkpt lat="46.321701" lon="11.493739"><ele>1397.0</ele><time>2017-08-03T02:58:31Z</time></trkpt>
<trkpt lat="46.321785" lon="11.494194"><ele>1383.0</ele><time>2017-08-03T02:58:33Z</time></trkpt>
<trkpt lat="46.321813" lon="11.494635"><ele>1383.0</ele><time>2017-08-03T02:58:35Z</time></trkpt>
<trkpt lat="46.321752" lon="11.495116"><ele>1381.0</ele><time>2017-08-03T02:58:36Z</time></trkpt>
<trkpt lat="46.321656" lon="11.495622"><ele>1370.0</ele><time>2017-08-03T02:58:38Z</time></trkpt>
<trkpt lat="46.321599" lon="11.497"><ele>1362.0</ele><time>2017-08-03T02:58:43Z</time></trkpt>
<trkpt lat="46.321563" lon="11.497215"><ele>1362.0</ele><time>2017-08-03T02:58:44Z</time></trkpt>
<trkpt lat="46.321521" lon="11.497307"><ele>1362.0</ele><time>2017-08-03T02:58:44Z</time></trkpt>
<trkpt lat="46.321444" lon="11.49734"><ele>1362.0</ele><time>2017-08-03T02:58:45Z</time></trkpt>
<trkpt lat="46.321384" lon="11.497301"><ele>1362.0</ele><time>2017-08-03T02:58:45Z</time></trkpt>
<trkpt lat="46.321345" lon="11.497238"><ele>1362.0</ele><time>2017-08-03T02:58:45Z</time></trkpt>
<trkpt lat="46.321286" lon="11.496928"><ele>1362.0</ele><time>2017-08-03T02:58:47Z</time></trkpt>
<trkpt lat="46.321174" lon="11.496631"><ele>1364.0</ele><time>2017-08-03T02:58:48Z</time></trkpt>
<trkpt lat="46.321057" lon="11.496556"><ele>1364.0</ele><time>2017-08-03T02:58:48Z</time></trkpt>
<trkpt lat="46.320779" lon="11.496497"><ele>1354.0</ele><time>2017-08-03T02:58:50Z</time></trkpt>
<trkpt lat="46.319881" lon="11.496495"><ele>1328.0</ele><time>2017-08-03T02:58:55Z</time></trkpt>
<trkpt lat="46.319763" lon="11.496543"><ele>1328.0</ele><time>2017-08-03T02:58:55Z</time></trkpt>
<trkpt lat="46.31971" lon="11.496677"><ele>1316.0</ele><time>2017-08-03T02:58:56Z</time></trkpt>
<trkpt lat="46.31971" lon="11.497096"><ele>1316.0</ele><time>2017-08-03T02:58:58Z</time></trkpt>
<trkpt lat="46.319735" lon="11.497282"><ele>1316.0</ele><time>2017-08-03T02:58:58Z</time></trkpt>
<trkpt lat="46.319803" lon="11.497506"><ele>1315.0</ele><time>2017-08-03T02:58:59Z</time></trkpt>
<trkpt lat="46.320019" lon="11.497984"><ele>1337.0</ele><time>2017-08-03T02:59:01Z</time></trkpt>
<trkpt lat="46.320039" lon="11.498143"><ele>1337.0</ele><time>2017-08-03T02:59:02Z</time></trkpt>
<trkpt lat="46.320021" lon="11.498684"><ele>1339.0</ele><time>2017-08-03T02:59:04Z</time></trkpt>
<trkpt lat="46.320051" lon="11.498837"><ele>1339.0</ele><time>2017-08-03T02:59:05Z</time></trkpt>
<trkpt lat="46.320331" lon="11.499397"><ele>1328.0</ele><time>2017-08-03T02:59:07Z</time></trkpt>
<trkpt lat="46.320567" lon="11.499794"><ele>1328.0</ele><time>2017-08-03T02:59:09Z</time></trkpt>
<trkpt lat="46.320715" lon="11.499946"><ele>1328.0</ele><time>2017-08-03T02:59:10Z</time></trkpt>
<trkpt lat="46.321158" lon="11.500333"><ele>1335.0</ele><time>2017-08-03T02:59:13Z</time></trkpt>
<trkpt lat="46.321251" lon="11.500467"><ele>1335.0</ele><time>2017-08-03T02:59:13Z</time></trkpt>
<trkpt lat="46.321278" lon="11.500542"><ele>1335.0</ele><time>2017-08-03T02:59:14Z</time></trkpt>
<trkpt lat="46.3213" lon="11.500863"><ele>1311.0</ele><time>2017-08-03T02:59:15Z</time></trkpt>
<trkpt lat="46.321248" lon="11.501008"><ele>1311.0</ele><time>2017-08-03T02:59:16Z</time></trkpt>
<trkpt lat="46.320828" lon="11.501679"><ele>1284.0</ele><time>2017-08-03T02:59:19Z</time></trkpt>
<trkpt lat="46.32074" lon="11.501758"><ele>1284.0</ele><time>2017-08-03T02:59:20Z</time></trkpt>
<trkpt lat="46.320648" lon="11.501777"><ele>1284.0</ele><time>2017-08-03T02:59:20Z</time></trkpt>
<trkpt lat="46.320469" lon="11.501755"><ele>1284.0</ele><time>2017-08-03T02:59:21Z</time></trkpt>
<trkpt lat="46.320196" lon="11.501664"><ele>1283.0</ele><time>2017-08-03T02:59:23Z</time></trkpt>
<trkpt lat="46.319324" lon="11.501476"><ele>1274.0</ele><time>2017-08-03T02:59:27Z</time></trkpt>
<trkpt lat="46.318946" lon="11.501427"><ele>1269.0</ele><time>2017-08-03T02:59:29Z</time></trkpt>
<trkpt lat="46.318704" lon="11.50145"><ele>1269.0</ele><time>2017-08-03T02:59:30Z</time></trkpt>
<trkpt lat="46.318412" lon="11.501524"><ele>1269.0</ele><time>2017-08-03T02:59:32Z</time></trkpt>
<trkpt lat="46.31806" lon="11.501677"><ele>1260.0</ele><time>2017-08-03T02:59:34Z</time></trkpt>
<trkpt lat="46.317439" lon="11.502007"><ele>1245.0</ele><time>2017-08-03T02:59:37Z</time></trkpt>
<trkpt lat="46.31722" lon="11.502161"><ele>1245.0</ele><time>2017-08-03T02:59:39Z</time></trkpt>
<trkpt lat="46.316458" lon="11.502974"><ele>1241.0</ele><time>2017-08-03T02:59:44Z</time></trkpt>
<trkpt lat="46.316036" lon="11.503267"><ele>1241.0</ele><time>2017-08-03T02:59:46Z</time></trkpt>
<trkpt lat="46.315863" lon="11.503355"><ele>1256.0</ele><time>2017-08-03T02:59:47Z</time></trkpt>
<trkpt lat="46.314056" lon="11.503922"><ele>1214.0</ele><time>2017-08-03T02:59:57Z</time></trkpt>
<trkpt lat="46.313351" lon="11.504313"><ele>1227.0</ele><time>2017-08-03T03:00:01Z</time></trkpt>
<trkpt lat="46.313008" lon="11.504462"><ele>1208.0</ele><time>2017-08-03T03:00:03Z</time></trkpt>
<trkpt lat="46.312732" lon="11.50455"><ele>1208.0</ele><time>2017-08-03T03:00:04Z</time></trkpt>
<trkpt lat="46.309758" lon="11.505136"><ele>1190.0</ele><time>2017-08-03T03:00:20Z</time></trkpt>
<trkpt lat="46.309508" lon="11.505209"><ele>1190.0</ele><time>2017-08-03T03:00:21Z</time></trkpt>
<trkpt lat="46.309036" lon="11.505397"><ele>1178.0</ele><time>2017-08-03T03:00:24Z</time></trkpt>
<trkpt lat="46.308929" lon="11.505412"><ele>1178.0</ele><time>2017-08-03T03:00:24Z</time></trkpt>
<trkpt lat="46.308544" lon="11.505382"><ele>1178.0</ele><time>2017-08-03T03:00:26Z</time></trkpt>
<trkpt lat="46.30803" lon="11.5052"><ele>1163.0</ele><time>2017-08-03T03:00:29Z</time></trkpt>
<trkpt lat="46.307633" lon="11.505093"><ele>1163.0</ele><time>2017-08-03T03:00:31Z</time></trkpt>
<trkpt lat="46.307157" lon="11.50504"><ele>1161.0</ele><time>2017-08-03T03:00:34Z</time></trkpt>
<trkpt lat="46.305317" lon="11.50495"><ele>1127.0</ele><time>2017-08-03T03:00:43Z</time></trkpt>
<trkpt lat="46.304975" lon="11.504915"><ele>1123.0</ele><time>2017-08-03T03:00:45Z</time></trkpt>
<trkpt lat="46.304561" lon="11.5048"><ele>1123.0</ele><time>2017-08-03T03:00:47Z</time></trkpt>
<trkpt lat="46.30436" lon="11.504773"><ele>1123.0</ele><time>2017-08-03T03:00:48Z</time></trkpt>
<trkpt lat="46.303485" lon="11.50489"><ele>1128.0</ele><time>2017-08-03T03:00:53Z</time></trkpt>
<trkpt lat="46.303205" lon="11.504954"><ele>1115.0</ele><time>2017-08-03T03:00:54Z</time></trkpt>
<trkpt lat="46.302147" lon="11.505271"><ele>1119.0</ele><time>2017-08-03T03:01:00Z</time></trkpt>
<trkpt lat="46.301647" lon="11.505452"><ele>1105.0</ele><time>2017-08-03T03:01:03Z</time></trkpt>
<trkpt lat="46.300967" lon="11.50577"><ele>1105.0</ele><time>2017-08-03T03:01:06Z</time></trkpt>
<trkpt lat="46.300788" lon="11.505799"><ele>1086.0</ele><time>2017-08-03T03:01:08Z</time></trkpt>
<trkpt lat="46.299964" lon="11.50582"><ele>1069.0</ele><time>2017-08-03T03:01:12Z</time></trkpt>
<trkpt lat="46.29982" lon="11.505841"><ele>1089.0</ele><time>2017-08-03T03:01:13Z</time></trkpt>
<trkpt lat="46.299307" lon="11.506012"><ele>1089.0</ele><time>2017-08-03T03:01:16Z</time></trkpt>
<trkpt lat="46.299005" lon="11.506074"><ele>1074.0</ele><time>2017-08-03T03:01:18Z</time></trkpt>
<trkpt lat="46.298053" lon="11.506212"><ele>1061.0</ele><time>2017-08-03T03:01:23Z</time></trkpt>
<trkpt lat="46.296961" lon="11.506132"><ele>1051.0</ele><time>2017-08-03T03:01:28Z</time></trkpt>
<trkpt lat="46.296547" lon="11.506248"><ele>1043.0</ele><time>2017-08-03T03:01:31Z</time></trkpt>
<trkpt lat="46.29642" lon="11.506129"><ele>1043.0</ele><time>2017-08-03T03:01:31Z</time></trkpt>
<trkpt lat="46.296375" lon="11.505988"><ele>1043.0</ele><time>2017-08-03T03:01:32Z</time></trkpt>
<trkpt lat="46.296395" lon="11.505793"><ele>1036.0</ele><time>2017-08-03T03:01:33Z</time></trkpt>
<trkpt lat="46.296459" lon="11.505664"><ele>1036.0</ele><time>2017-08-03T03:01:33Z</time></trkpt>
<trkpt lat="46.296748" lon="11.505208"><ele>1040.0</ele><time>2017-08-03T03:01:35Z</time></trkpt>
<trkpt lat="46.29681" lon="11.505017"><ele>1040.0</ele><time>2017-08-03T03:01:36Z</time></trkpt>
<trkpt lat="46.296826" lon="11.50483"><ele>1044.0</ele><time>2017-08-03T03:01:37Z</time></trkpt>
<trkpt lat="46.296786" lon="11.504664"><ele>1044.0</ele><time>2017-08-03T03:01:37Z</time></trkpt>
<trkpt lat="46.296717" lon="11.504513"><ele>1044.0</ele><time>2017-08-03T03:01:38Z</time></trkpt>
<trkpt lat="46.296591" lon="11.504401"><ele>1048.0</ele><time>2017-08-03T03:01:39Z</time></trkpt>
<trkpt lat="46.296406" lon="11.504347"><ele>1048.0</ele><time>2017-08-03T03:01:40Z</time></trkpt>
<trkpt lat="46.295728" lon="11.504474"><ele>1038.0</ele><time>2017-08-03T03:01:43Z</time></trkpt>
<trkpt lat="46.29552" lon="11.50454"><ele>1038.0</ele><time>2017-08-03T03:01:45Z</time></trkpt>
<trkpt lat="46.294876" lon="11.50505"><ele>1020.0</ele><time>2017-08-03T03:01:48Z</time></trkpt>
<trkpt lat="46.294723" lon="11.505105"><ele>1020.0</ele><time>2017-08-03T03:01:49Z</time></trkpt>
<trkpt lat="46.294564" lon="11.505112"><ele>1020.0</ele><time>2017-08-03T03:01:50Z</time></trkpt>
<trkpt lat="46.293589" lon="11.504908"><ele>1038.0</ele><time>2017-08-03T03:01:55Z</time></trkpt>
<trkpt lat="46.293405" lon="11.504891"><ele>1038.0</ele><time>2017-08-03T03:01:56Z</time></trkpt>
<trkpt lat="46.293177" lon="11.504915"><ele>1050.0</ele><time>2017-08-03T03:01:57Z</time></trkpt>
<trkpt lat="46.292846" lon="11.505034"><ele>1014.0</ele><time>2017-08-03T03:02:00Z</time></trkpt>
<trkpt lat="46.292623" lon="11.505161"><ele>1014.0</ele><time>2017-08-03T03:02:01Z</time></trkpt>
<trkpt lat="46.292403" lon="11.505337"><ele>1021.0</ele><time>2017-08-03T03:02:02Z</time></trkpt>
<trkpt lat="46.292177" lon="11.505618"><ele>1021.0</ele><time>2017-08-03T03:02:04Z</time></trkpt>
<trkpt lat="46.291385" lon="11.506756"><ele>996.0</ele><time>2017-08-03T03:02:10Z</time></trkpt>
<trkpt lat="46.291184" lon="11.506916"><ele>996.0</ele><time>2017-08-03T03:02:11Z</time></trkpt>
<trkpt lat="46.290965" lon="11.507026"><ele>996.0</ele><time>2017-08-03T03:02:12Z</time></trkpt>
<trkpt lat="46.29044" lon="11.507341"><ele>1000.0</ele><time>2017-08-03T03:02:15Z</time></trkpt>
<trkpt lat="46.290282" lon="11.507497"><ele>1000.0</ele><time>2017-08-03T03:02:16Z</time></trkpt>
<trkpt lat="46.290147" lon="11.50776"><ele>983.0</ele><time>2017-08-03T03:02:18Z</time></trkpt>
<trkpt lat="46.290035" lon="11.507856"><ele>983.0</ele><time>2017-08-03T03:02:18Z</time></trkpt>
<trkpt lat="46.289687" lon="11.507936"><ele>994.0</ele><time>2017-08-03T03:02:20Z</time></trkpt>
<trkpt lat="46.289603" lon="11.507955"><ele>994.0</ele><time>2017-08-03T03:02:23Z</time></trkpt>
<trkpt lat="46.289486" lon="11.509036"><ele>984.0</ele><time>2017-08-03T03:02:29Z</time></trkpt>
<trkpt lat="46.289425" lon="11.509737"><ele>992.0</ele><time>2017-08-03T03:02:34Z</time></trkpt>
<trkpt lat="46.289413" lon="11.510341"><ele>1001.0</ele><time>2017-08-03T03:02:37Z</time></trkpt>
<trkpt lat="46.289382" lon="11.510535"><ele>1001.0</ele><time>2017-08-03T03:02:39Z</time></trkpt>
<trkpt lat="46.289316" lon="11.510676"><ele>1001.0</ele><time>2017-08-03T03:02:40Z</time></trkpt>
<trkpt lat="46.289191" lon="11.51083"><ele>1001.0</ele><time>2017-08-03T03:02:41Z</time></trkpt>
<trkpt lat="46.288639" lon="11.511373"><ele>992.0</ele><time>2017-08-03T03:02:47Z</time></trkpt>
<trkpt lat="46.288426" lon="11.511683"><ele>998.0</ele><time>2017-08-03T03:02:50Z</time></trkpt>
<trkpt lat="46.288307" lon="11.511954"><ele>986.0</ele><time>2017-08-03T03:02:52Z</time></trkpt>
<trkpt lat="46.288153" lon="11.51238"><ele>986.0</ele><time>2017-08-03T03:02:55Z</time></trkpt>
<trkpt lat="46.287902" lon="11.513169"><ele>991.0</ele><time>2017-08-03T03:03:00Z</time></trkpt>
<trkpt lat="46.287885" lon="11.51324"><ele>991.0</ele><time>2017-08-03T03:03:01Z</time></trkpt>
<trkpt lat="46.287825" lon="11.513249"><ele>991.0</ele><time>2017-08-03T03:03:01Z</time></trkpt>
<trkpt lat="46.287789" lon="11.513291"><ele>991.0</ele><time>2017-08-03T03:03:02Z</time></trkpt>
<trkpt lat="46.287784" lon="11.513349"><ele>995.0</ele><time>2017-08-03T03:03:03Z</time></trkpt>
<trkpt lat="46.287812" lon="11.513495"><ele>995.0</ele><time>2017-08-03T03:03:03Z</time></trkpt>
<trkpt lat="46.28797" lon="11.513931"><ele>995.0</ele><time>2017-08-03T03:03:05Z</time></trkpt>
<trkpt lat="46.28799" lon="11.51403"><ele>995.0</ele><time>2017-08-03T03:03:06Z</time></trkpt>
<trkpt lat="46.287967" lon="11.514182"><ele>994.0</ele><time>2017-08-03T03:03:06Z</time></trkpt>
<trkpt lat="46.287922" lon="11.514262"><ele>994.0</ele><time>2017-08-03T03:03:07Z</time></trkpt>
<trkpt lat="46.287409" lon="11.514768"><ele>963.0</ele><time>2017-08-03T03:03:11Z</time></trkpt>
<trkpt lat="46.287203" lon="11.515066"><ele>978.0</ele><time>2017-08-03T03:03:13Z</time></trkpt>
<trkpt lat="46.287092" lon="11.51528"><ele>978.0</ele><time>2017-08-03T03:03:14Z</time></trkpt>
<trkpt lat="46.28692" lon="11.515673"><ele>978.0</ele><time>2017-08-03T03:03:16Z</time></trkpt>
<trkpt lat="46.28678" lon="11.516075"><ele>994.0</ele><time>2017-08-03T03:03:18Z</time></trkpt>
<trkpt lat="46.286593" lon="11.516788"><ele>953.0</ele><time>2017-08-03T03:03:22Z</time></trkpt>
<trkpt lat="46.286505" lon="11.517232"><ele>953.0</ele><time>2017-08-03T03:03:24Z</time></trkpt>
<trkpt lat="46.286424" lon="11.517921"><ele>957.0</ele><time>2017-08-03T03:03:28Z</time></trkpt>
<trkpt lat="46.286411" lon="11.518436"><ele>960.0</ele><time>2017-08-03T03:03:30Z</time></trkpt>
<trkpt lat="46.286436" lon="11.519812"><ele>968.0</ele><time>2017-08-03T03:03:36Z</time></trkpt>
<trkpt lat="46.286411" lon="11.520292"><ele>969.0</ele><time>2017-08-03T03:03:38Z</time></trkpt>
<trkpt lat="46.286358" lon="11.520882"><ele>963.0</ele><time>2017-08-03T03:03:40Z</time></trkpt>
<trkpt lat="46.286241" lon="11.521542"><ele>963.0</ele><time>2017-08-03T03:03:43Z</time></trkpt>
<trkpt lat="46.286215" lon="11.521872"><ele>953.0</ele><time>2017-08-03T03:03:45Z</time></trkpt>
<trkpt lat="46.286215" lon="11.52218"><ele>953.0</ele><time>2017-08-03T03:03:46Z</time></trkpt>
<trkpt lat="46.286261" lon="11.522809"><ele>951.0</ele><time>2017-08-03T03:03:49Z</time></trkpt>
<trkpt lat="46.286246" lon="11.523071"><ele>951.0</ele><time>2017-08-03T03:03:50Z</time></trkpt>
<trkpt lat="46.286128" lon="11.523634"><ele>943.0</ele><time>2017-08-03T03:03:53Z</time></trkpt>
<trkpt lat="46.286087" lon="11.523753"><ele>943.0</ele><time>2017-08-03T03:03:53Z</time></trkpt>
<trkpt lat="46.286036" lon="11.523828"><ele>943.0</ele><time>2017-08-03T03:03:54Z</time></trkpt>
<trkpt lat="46.285949" lon="11.523882"><ele>943.0</ele><time>2017-08-03T03:03:54Z</time></trkpt>
<trkpt lat="46.285768" lon="11.523916"><ele>901.0</ele><time>2017-08-03T03:03:57Z</time></trkpt>
<trkpt lat="46.285434" lon="11.523823"><ele>901.0</ele><time>2017-08-03T03:03:59Z</time></trkpt>
<trkpt lat="46.285215" lon="11.523651"><ele>901.0</ele><time>2017-08-03T03:04:02Z</time></trkpt>
<trkpt lat="46.285176" lon="11.52357"><ele>901.0</ele><time>2017-08-03T03:04:03Z</time></trkpt>
<trkpt lat="46.285097" lon="11.523527"><ele>901.0</ele><time>2017-08-03T03:04:03Z</time></trkpt>
<trkpt lat="46.285041" lon="11.523543"><ele>901.0</ele><time>2017-08-03T03:04:03Z</time></trkpt>
<trkpt lat="46.284976" lon="11.523639"><ele>895.0</ele><time>2017-08-03T03:04:04Z</time></trkpt>
<trkpt lat="46.284966" lon="11.523739"><ele>895.0</ele><time>2017-08-03T03:04:04Z</time></trkpt>
<trkpt lat="46.284999" lon="11.523841"><ele>895.0</ele><time>2017-08-03T03:04:05Z</time></trkpt>
<trkpt lat="46.284895" lon="11.524642"><ele>897.0</ele><time>2017-08-03T03:04:08Z</time></trkpt>
<trkpt lat="46.284757" lon="11.52508"><ele>897.0</ele><time>2017-08-03T03:04:10Z</time></trkpt>
<trkpt lat="46.283405" lon="11.528612"><ele>901.0</ele><time>2017-08-03T03:04:25Z</time></trkpt>
<trkpt lat="46.283296" lon="11.529287"><ele>903.0</ele><time>2017-08-03T03:04:28Z</time></trkpt>
<trkpt lat="46.283168" lon="11.531173"><ele>908.0</ele><time>2017-08-03T03:04:35Z</time></trkpt>
<trkpt lat="46.283089" lon="11.53166"><ele>908.0</ele><time>2017-08-03T03:04:37Z</time></trkpt>
<trkpt lat="46.282793" lon="11.532716"><ele>908.0</ele><time>2017-08-03T03:04:42Z</time></trkpt>
<trkpt lat="46.282581" lon="11.53366"><ele>908.0</ele><time>2017-08-03T03:04:45Z</time></trkpt>
<trkpt lat="46.282115" lon="11.536141"><ele>910.0</ele><time>2017-08-03T03:04:55Z</time></trkpt>
<trkpt lat="46.281892" lon="11.537808"><ele>912.0</ele><time>2017-08-03T03:05:02Z</time></trkpt>
<trkpt lat="46.281839" lon="11.538605"><ele>911.0</ele><time>2017-08-03T03:05:05Z</time></trkpt>
<trkpt lat="46.281851" lon="11.539365"><ele>910.0</ele><time>2017-08-03T03:05:08Z</time></trkpt>
<trkpt lat="46.282073" lon="11.540908"><ele>913.0</ele><time>2017-08-03T03:05:14Z</time></trkpt>
<trkpt lat="46.282101" lon="11.541346"><ele>913.0</ele><time>2017-08-03T03:05:16Z</time></trkpt>
<trkpt lat="46.282113" lon="11.542068"><ele>919.0</ele><time>2017-08-03T03:05:18Z</time></trkpt>
<trkpt lat="46.282093" lon="11.54235"><ele>919.0</ele><time>2017-08-03T03:05:19Z</time></trkpt>
<trkpt lat="46.282016" lon="11.542815"><ele>921.0</ele><time>2017-08-03T03:05:21Z</time></trkpt>
<trkpt lat="46.281248" lon="11.547146"><ele>928.0</ele><time>2017-08-03T03:05:38Z</time></trkpt>
<trkpt lat="46.28121" lon="11.547794"><ele>927.0</ele><time>2017-08-03T03:05:41Z</time></trkpt>
<trkpt lat="46.281234" lon="11.548372"><ele>925.0</ele><time>2017-08-03T03:05:43Z</time></trkpt>
<trkpt lat="46.281314" lon="11.548913"><ele>925.0</ele><time>2017-08-03T03:05:45Z</time></trkpt>
<trkpt lat="46.281429" lon="11.549424"><ele>926.0</ele><time>2017-08-03T03:05:47Z</time></trkpt>
<trkpt lat="46.281596" lon="11.549874"><ele>926.0</ele><time>2017-08-03T03:05:49Z</time></trkpt>
<trkpt lat="46.281832" lon="11.55032"><ele>928.0</ele><time>2017-08-03T03:05:51Z</time></trkpt>
<trkpt lat="46.282822" lon="11.551902"><ele>931.0</ele><time>2017-08-03T03:06:00Z</time></trkpt>
<trkpt lat="46.283122" lon="11.552228"><ele>931.0</ele><time>2017-08-03T03:06:02Z</time></trkpt>
<trkpt lat="46.283726" lon="11.552757"><ele>926.0</ele><time>2017-08-03T03:06:06Z</time></trkpt>
<trkpt lat="46.284043" lon="11.553072"><ele>926.0</ele><time>2017-08-03T03:06:08Z</time></trkpt>
<trkpt lat="46.284529" lon="11.553721"><ele>943.0</ele><time>2017-08-03T03:06:12Z</time></trkpt>
<trkpt lat="46.28477" lon="11.554162"><ele>943.0</ele><time>2017-08-03T03:06:14Z</time></trkpt>
<trkpt lat="46.284974" lon="11.554608"><ele>942.0</ele><time>2017-08-03T03:06:16Z</time></trkpt>
<trkpt lat="46.285164" lon="11.555146"><ele>974.0</ele><time>2017-08-03T03:06:19Z</time></trkpt>
<trkpt lat="46.285638" lon="11.556746"><ele>955.0</ele><time>2017-08-03T03:06:25Z</time></trkpt>
<trkpt lat="46.285769" lon="11.557103"><ele>955.0</ele><time>2017-08-03T03:06:27Z</time></trkpt>
<trkpt lat="46.292088" lon="11.569103"><ele>1102.0</ele><time>2017-08-03T03:07:25Z</time></trkpt>
<trkpt lat="46.293735" lon="11.574262"><ele>1053.0</ele><time>2017-08-03T03:07:47Z</time></trkpt>
<trkpt lat="46.295265" lon="11.579478"><ele>1035.0</ele><time>2017-08-03T03:08:09Z</time></trkpt>
<trkpt lat="46.295874" lon="11.581793"><ele>1021.0</ele><time>2017-08-03T03:08:19Z</time></trkpt>
<trkpt lat="46.295932" lon="11.582107"><ele>1021.0</ele><time>2017-08-03T03:08:20Z</time></trkpt>
<trkpt lat="46.295918" lon="11.582333"><ele>1021.0</ele><time>2017-08-03T03:08:21Z</time></trkpt>
<trkpt lat="46.295882" lon="11.582473"><ele>1021.0</ele><time>2017-08-03T03:08:21Z</time></trkpt>
<trkpt lat="46.295838" lon="11.582589"><ele>1008.0</ele><time>2017-08-03T03:08:22Z</time></trkpt>
<trkpt lat="46.295794" lon="11.58264"><ele>976.0</ele><time>2017-08-03T03:08:24Z</time></trkpt>
<trkpt lat="46.295735" lon="11.582786"><ele>976.0</ele><time>2017-08-03T03:08:25Z</time></trkpt>
<trkpt lat="46.295731" lon="11.582937"><ele>976.0</ele><time>2017-08-03T03:08:25Z</time></trkpt>
<trkpt lat="46.295771" lon="11.58307"><ele>976.0</ele><time>2017-08-03T03:08:26Z</time></trkpt>
<trkpt lat="46.29638" lon="11.584117"><ele>993.0</ele><time>2017-08-03T03:08:31Z</time></trkpt>
<trkpt lat="46.296784" lon="11.584737"><ele>1009.0</ele><time>2017-08-03T03:08:35Z</time></trkpt>
<trkpt lat="46.297142" lon="11.585131"><ele>985.0</ele><time>2017-08-03T03:08:38Z</time></trkpt>
<trkpt lat="46.29734" lon="11.585299"><ele>985.0</ele><time>2017-08-03T03:08:39Z</time></trkpt>
<trkpt lat="46.298322" lon="11.586244"><ele>993.0</ele><time>2017-08-03T03:08:46Z</time></trkpt>
<trkpt lat="46.298606" lon="11.586549"><ele>1020.0</ele><time>2017-08-03T03:08:49Z</time></trkpt>
<trkpt lat="46.300995" lon="11.589721"><ele>1020.0</ele><time>2017-08-03T03:09:08Z</time></trkpt>
<trkpt lat="46.301087" lon="11.589877"><ele>1020.0</ele><time>2017-08-03T03:09:08Z</time></trkpt>
<trkpt lat="46.3012" lon="11.590018"><ele>995.0</ele><time>2017-08-03T03:09:11Z</time></trkpt>
<trkpt lat="46.30142" lon="11.590332"><ele>995.0</ele><time>2017-08-03T03:09:13Z</time></trkpt>
<trkpt lat="46.302174" lon="11.591286"><ele>990.0</ele><time>2017-08-03T03:09:20Z</time></trkpt>
<trkpt lat="46.302494" lon="11.591724"><ele>989.0</ele><time>2017-08-03T03:09:23Z</time></trkpt>
<trkpt lat="46.302738" lon="11.592099"><ele>989.0</ele><time>2017-08-03T03:09:25Z</time></trkpt>
<trkpt lat="46.305938" lon="11.597711"><ele>1001.0</ele><time>2017-08-03T03:09:59Z</time></trkpt>
<trkpt lat="46.307703" lon="11.600843"><ele>1009.0</ele><time>2017-08-03T03:10:18Z</time></trkpt>
<trkpt lat="46.307787" lon="11.600962"><ele>1009.0</ele><time>2017-08-03T03:10:19Z</time></trkpt>
<trkpt lat="46.30789" lon="11.601056"><ele>1009.0</ele><time>2017-08-03T03:10:20Z</time></trkpt>
<trkpt lat="46.308034" lon="11.601146"><ele>1009.0</ele><time>2017-08-03T03:10:21Z</time></trkpt>
<trkpt lat="46.3087" lon="11.601475"><ele>1010.0</ele><time>2017-08-03T03:10:26Z</time></trkpt>
<trkpt lat="46.309242" lon="11.601711"><ele>1013.0</ele><time>2017-08-03T03:10:30Z</time></trkpt>
<trkpt lat="46.309236" lon="11.601743"><ele>1013.0</ele><time>2017-08-03T03:10:30Z</time></trkpt>
<trkpt lat="46.309261" lon="11.601831"><ele>1013.0</ele><time>2017-08-03T03:10:30Z</time></trkpt>
<trkpt lat="46.309281" lon="11.601847"><ele>1013.0</ele><time>2017-08-03T03:10:30Z</time></trkpt>
<trkpt lat="46.309244" lon="11.602644"><ele>1015.0</ele><time>2017-08-03T03:10:34Z</time></trkpt>
<trkpt lat="46.309252" lon="11.603187"><ele>1015.0</ele><time>2017-08-03T03:10:36Z</time></trkpt>
<trkpt lat="46.309372" lon="11.603828"><ele>1016.0</ele><time>2017-08-03T03:10:39Z</time></trkpt>
<trkpt lat="46.309817" lon="11.606589"><ele>1023.0</ele><time>2017-08-03T03:10:51Z</time></trkpt>
<trkpt lat="46.309963" lon="11.607155"><ele>1023.0</ele><time>2017-08-03T03:10:54Z</time></trkpt>
<trkpt lat="46.310476" lon="11.608949"><ele>1026.0</ele><time>2017-08-03T03:11:02Z</time></trkpt>
<trkpt lat="46.31074" lon="11.610028"><ele>1027.0</ele><time>2017-08-03T03:11:07Z</time></trkpt>
<trkpt lat="46.310978" lon="11.610743"><ele>1068.0</ele><time>2017-08-03T03:11:11Z</time></trkpt>
<trkpt lat="46.31125" lon="11.61141"><ele>1071.0</ele><time>2017-08-03T03:11:14Z</time></trkpt>
<trkpt lat="46.311307" lon="11.612637"><ele>1075.0</ele><time>2017-08-03T03:11:19Z</time></trkpt>
<trkpt lat="46.31142" lon="11.61357"><ele>1070.0</ele><time>2017-08-03T03:11:22Z</time></trkpt>
<trkpt lat="46.311467" lon="11.6146"><ele>1063.0</ele><time>2017-08-03T03:11:26Z</time></trkpt>
<trkpt lat="46.311502" lon="11.61648"><ele>1067.0</ele><time>2017-08-03T03:11:34Z</time></trkpt>
<trkpt lat="46.311081" lon="11.619541"><ele>1084.0</ele><time>2017-08-03T03:11:46Z</time></trkpt>
<trkpt lat="46.311059" lon="11.619879"><ele>1084.0</ele><time>2017-08-03T03:11:47Z</time></trkpt>
<trkpt lat="46.311067" lon="11.620027"><ele>1090.0</ele><time>2017-08-03T03:11:48Z</time></trkpt>
<trkpt lat="46.311363" lon="11.620958"><ele>1087.0</ele><time>2017-08-03T03:11:52Z</time></trkpt>
<trkpt lat="46.311545" lon="11.622028"><ele>1089.0</ele><time>2017-08-03T03:11:56Z</time></trkpt>
<trkpt lat="46.311585" lon="11.622401"><ele>1089.0</ele><time>2017-08-03T03:11:57Z</time></trkpt>
<trkpt lat="46.31159" lon="11.622761"><ele>1089.0</ele><time>2017-08-03T03:11:59Z</time></trkpt>
<trkpt lat="46.311464" lon="11.623555"><ele>1092.0</ele><time>2017-08-03T03:12:02Z</time></trkpt>
<trkpt lat="46.311445" lon="11.623902"><ele>1092.0</ele><time>2017-08-03T03:12:03Z</time></trkpt>
<trkpt lat="46.311482" lon="11.624468"><ele>1101.0</ele><time>2017-08-03T03:12:06Z</time></trkpt>
<trkpt lat="46.311506" lon="11.625392"><ele>1105.0</ele><time>2017-08-03T03:12:09Z</time></trkpt>
<trkpt lat="46.311561" lon="11.626541"><ele>1110.0</ele><time>2017-08-03T03:12:14Z</time></trkpt>
<trkpt lat="46.311514" lon="11.627233"><ele>1115.0</ele><time>2017-08-03T03:12:16Z</time></trkpt>
<trkpt lat="46.31152" lon="11.627728"><ele>1108.0</ele><time>2017-08-03T03:12:18Z</time></trkpt>
<trkpt lat="46.311624" lon="11.629142"><ele>1108.0</ele><time>2017-08-03T03:12:24Z</time></trkpt>
<trkpt lat="46.311701" lon="11.629811"><ele>1144.0</ele><time>2017-08-03T03:12:27Z</time></trkpt>
<trkpt lat="46.311763" lon="11.63003"><ele>1137.0</ele><time>2017-08-03T03:12:28Z</time></trkpt>
<trkpt lat="46.311828" lon="11.630175"><ele>1137.0</ele><time>2017-08-03T03:12:29Z</time></trkpt>
<trkpt lat="46.31195" lon="11.630336"><ele>1137.0</ele><time>2017-08-03T03:12:30Z</time></trkpt>
<trkpt lat="46.312185" lon="11.63057"><ele>1137.0</ele><time>2017-08-03T03:12:31Z</time></trkpt>
<trkpt lat="46.312229" lon="11.63063"><ele>1137.0</ele><time>2017-08-03T03:12:31Z</time></trkpt>
<trkpt lat="46.312342" lon="11.630864"><ele>1131.0</ele><time>2017-08-03T03:12:33Z</time></trkpt>
<trkpt lat="46.31238" lon="11.63104"><ele>1131.0</ele><time>2017-08-03T03:12:33Z</time></trkpt>
<trkpt lat="46.312564" lon="11.632872"><ele>1191.0</ele><time>2017-08-03T03:12:41Z</time></trkpt>
<trkpt lat="46.312487" lon="11.634005"><ele>1134.0</ele><time>2017-08-03T03:12:46Z</time></trkpt>
<trkpt lat="46.312511" lon="11.635193"><ele>1207.0</ele><time>2017-08-03T03:12:52Z</time></trkpt>
<trkpt lat="46.312426" lon="11.635652"><ele>1153.0</ele><time>2017-08-03T03:12:56Z</time></trkpt>
<trkpt lat="46.312409" lon="11.635927"><ele>1153.0</ele><time>2017-08-03T03:12:57Z</time></trkpt>
<trkpt lat="46.31245" lon="11.636425"><ele>1153.0</ele><time>2017-08-03T03:12:59Z</time></trkpt>
<trkpt lat="46.312446" lon="11.636603"><ele>1153.0</ele><time>2017-08-03T03:12:59Z</time></trkpt>
<trkpt lat="46.312436" lon="11.636693"><ele>1153.0</ele><time>2017-08-03T03:13:00Z</time></trkpt>
<trkpt lat="46.312314" lon="11.63721"><ele>1153.0</ele><time>2017-08-03T03:13:02Z</time></trkpt>
<trkpt lat="46.312305" lon="11.637484"><ele>1153.0</ele><time>2017-08-03T03:13:03Z</time></trkpt>
<trkpt lat="46.312367" lon="11.637776"><ele>1160.0</ele><time>2017-08-03T03:13:04Z</time></trkpt>
<trkpt lat="46.312646" lon="11.638274"><ele>1210.0</ele><time>2017-08-03T03:13:07Z</time></trkpt>
<trkpt lat="46.312709" lon="11.638496"><ele>1210.0</ele><time>2017-08-03T03:13:08Z</time></trkpt>
<trkpt lat="46.312726" lon="11.638812"><ele>1210.0</ele><time>2017-08-03T03:13:10Z</time></trkpt>
<trkpt lat="46.31273" lon="11.639648"><ele>1218.0</ele><time>2017-08-03T03:13:13Z</time></trkpt>
<trkpt lat="46.312763" lon="11.640269"><ele>1218.0</ele><time>2017-08-03T03:13:15Z</time></trkpt>
<trkpt lat="46.312769" lon="11.64093"><ele>1216.0</ele><time>2017-08-03T03:13:18Z</time></trkpt>
<trkpt lat="46.31282" lon="11.641922"><ele>1204.0</ele><time>2017-08-03T03:13:22Z</time></trkpt>
<trkpt lat="46.312912" lon="11.642291"><ele>1204.0</ele><time>2017-08-03T03:13:23Z</time></trkpt>
<trkpt lat="46.31301" lon="11.642503"><ele>1190.0</ele><time>2017-08-03T03:13:24Z</time></trkpt>
<trkpt lat="46.313607" lon="11.643422"><ele>1216.0</ele><time>2017-08-03T03:13:30Z</time></trkpt>
<trkpt lat="46.313692" lon="11.643583"><ele>1216.0</ele><time>2017-08-03T03:13:30Z</time></trkpt>
<trkpt lat="46.313826" lon="11.643894"><ele>1216.0</ele><time>2017-08-03T03:13:32Z</time></trkpt>
<trkpt lat="46.314172" lon="11.644793"><ele>1236.0</ele><time>2017-08-03T03:13:36Z</time></trkpt>
<trkpt lat="46.314241" lon="11.645049"><ele>1219.0</ele><time>2017-08-03T03:13:37Z</time></trkpt>
<trkpt lat="46.314257" lon="11.645186"><ele>1219.0</ele><time>2017-08-03T03:13:38Z</time></trkpt>
<trkpt lat="46.314216" lon="11.645833"><ele>1219.0</ele><time>2017-08-03T03:13:40Z</time></trkpt>
<trkpt lat="46.31423" lon="11.64597"><ele>1218.0</ele><time>2017-08-03T03:13:41Z</time></trkpt>
<trkpt lat="46.314287" lon="11.646275"><ele>1218.0</ele><time>2017-08-03T03:13:42Z</time></trkpt>
<trkpt lat="46.314384" lon="11.646508"><ele>1218.0</ele><time>2017-08-03T03:13:43Z</time></trkpt>
<trkpt lat="46.314485" lon="11.646683"><ele>1217.0</ele><time>2017-08-03T03:13:44Z</time></trkpt>
<trkpt lat="46.314553" lon="11.646918"><ele>1217.0</ele><time>2017-08-03T03:13:45Z</time></trkpt>
<trkpt lat="46.314573" lon="11.647165"><ele>1217.0</ele><time>2017-08-03T03:13:46Z</time></trkpt>
<trkpt lat="46.314492" lon="11.647742"><ele>1212.0</ele><time>2017-08-03T03:13:48Z</time></trkpt>
<trkpt lat="46.314519" lon="11.648756"><ele>1214.0</ele><time>2017-08-03T03:13:52Z</time></trkpt>
<trkpt lat="46.314484" lon="11.648926"><ele>1214.0</ele><time>2017-08-03T03:13:53Z</time></trkpt>
<trkpt lat="46.314404" lon="11.649082"><ele>1214.0</ele><time>2017-08-03T03:13:54Z</time></trkpt>
<trkpt lat="46.314241" lon="11.649299"><ele>1223.0</ele><time>2017-08-03T03:13:55Z</time></trkpt>
<trkpt lat="46.314213" lon="11.649473"><ele>1223.0</ele><time>2017-08-03T03:13:56Z</time></trkpt>
<trkpt lat="46.314277" lon="11.64957"><ele>1223.0</ele><time>2017-08-03T03:13:56Z</time></trkpt>
<trkpt lat="46.314385" lon="11.649555"><ele>1223.0</ele><time>2017-08-03T03:13:57Z</time></trkpt>
<trkpt lat="46.315134" lon="11.648806"><ele>1231.0</ele><time>2017-08-03T03:14:02Z</time></trkpt>
<trkpt lat="46.315648" lon="11.648338"><ele>1231.0</ele><time>2017-08-03T03:14:05Z</time></trkpt>
<trkpt lat="46.315796" lon="11.648174"><ele>1232.0</ele><time>2017-08-03T03:14:06Z</time></trkpt>
<trkpt lat="46.315964" lon="11.647872"><ele>1249.0</ele><time>2017-08-03T03:14:08Z</time></trkpt>
<trkpt lat="46.316149" lon="11.64749"><ele>1261.0</ele><time>2017-08-03T03:14:10Z</time></trkpt>
<trkpt lat="46.316194" lon="11.647469"><ele>1261.0</ele><time>2017-08-03T03:14:10Z</time></trkpt>
<trkpt lat="46.316236" lon="11.647478"><ele>1261.0</ele><time>2017-08-03T03:14:10Z</time></trkpt>
<trkpt lat="46.316278" lon="11.647575"><ele>1249.0</ele><time>2017-08-03T03:14:11Z</time></trkpt>
<trkpt lat="46.316122" lon="11.648064"><ele>1249.0</ele><time>2017-08-03T03:14:13Z</time></trkpt>
<trkpt lat="46.316116" lon="11.648144"><ele>1249.0</ele><time>2017-08-03T03:14:13Z</time></trkpt>
<trkpt lat="46.316124" lon="11.648237"><ele>1249.0</ele><time>2017-08-03T03:14:14Z</time></trkpt>
<trkpt lat="46.31625" lon="11.64883"><ele>1259.0</ele><time>2017-08-03T03:14:16Z</time></trkpt>
<trkpt lat="46.316256" lon="11.648912"><ele>1259.0</ele><time>2017-08-03T03:14:17Z</time></trkpt>
<trkpt lat="46.31623" lon="11.649094"><ele>1259.0</ele><time>2017-08-03T03:14:17Z</time></trkpt>
<trkpt lat="46.315955" lon="11.650264"><ele>1264.0</ele><time>2017-08-03T03:14:22Z</time></trkpt>
<trkpt lat="46.315928" lon="11.650454"><ele>1264.0</ele><time>2017-08-03T03:14:23Z</time></trkpt>
<trkpt lat="46.315924" lon="11.650648"><ele>1264.0</ele><time>2017-08-03T03:14:24Z</time></trkpt>
<trkpt lat="46.315975" lon="11.651336"><ele>1267.0</ele><time>2017-08-03T03:14:26Z</time></trkpt>
<trkpt lat="46.315999" lon="11.651388"><ele>1267.0</ele><time>2017-08-03T03:14:27Z</time></trkpt>
<trkpt lat="46.316036" lon="11.651416"><ele>1267.0</ele><time>2017-08-03T03:14:27Z</time></trkpt>
<trkpt lat="46.316115" lon="11.651402"><ele>1267.0</ele><time>2017-08-03T03:14:27Z</time></trkpt>
<trkpt lat="46.316141" lon="11.651356"><ele>1267.0</ele><time>2017-08-03T03:14:27Z</time></trkpt>
<trkpt lat="46.316211" lon="11.651004"><ele>1267.0</ele><time>2017-08-03T03:14:29Z</time></trkpt>
<trkpt lat="46.31625" lon="11.650886"><ele>1267.0</ele><time>2017-08-03T03:14:29Z</time></trkpt>
<trkpt lat="46.316357" lon="11.650732"><ele>1264.0</ele><time>2017-08-03T03:14:30Z</time></trkpt>
<trkpt lat="46.316661" lon="11.650486"><ele>1264.0</ele><time>2017-08-03T03:14:32Z</time></trkpt>
<trkpt lat="46.316792" lon="11.650342"><ele>1281.0</ele><time>2017-08-03T03:14:33Z</time></trkpt>
<trkpt lat="46.316923" lon="11.650127"><ele>1281.0</ele><time>2017-08-03T03:14:35Z</time></trkpt>
<trkpt lat="46.317063" lon="11.6497"><ele>1290.0</ele><time>2017-08-03T03:14:36Z</time></trkpt>
<trkpt lat="46.317112" lon="11.649489"><ele>1290.0</ele><time>2017-08-03T03:14:37Z</time></trkpt>
<trkpt lat="46.317188" lon="11.649349"><ele>1290.0</ele><time>2017-08-03T03:14:38Z</time></trkpt>
<trkpt lat="46.317296" lon="11.649345"><ele>1290.0</ele><time>2017-08-03T03:14:39Z</time></trkpt>
<trkpt lat="46.317349" lon="11.649486"><ele>1290.0</ele><time>2017-08-03T03:14:39Z</time></trkpt>
<trkpt lat="46.317257" lon="11.65148"><ele>1286.0</ele><time>2017-08-03T03:14:47Z</time></trkpt>
<trkpt lat="46.317207" lon="11.651741"><ele>1294.0</ele><time>2017-08-03T03:14:48Z</time></trkpt>
<trkpt lat="46.317078" lon="11.65219"><ele>1294.0</ele><time>2017-08-03T03:14:50Z</time></trkpt>
<trkpt lat="46.317035" lon="11.652492"><ele>1294.0</ele><time>2017-08-03T03:14:51Z</time></trkpt>
<trkpt lat="46.31706" lon="11.65314"><ele>1305.0</ele><time>2017-08-03T03:14:54Z</time></trkpt>
<trkpt lat="46.317038" lon="11.653364"><ele>1318.0</ele><time>2017-08-03T03:14:55Z</time></trkpt>
<trkpt lat="46.317003" lon="11.653498"><ele>1318.0</ele><time>2017-08-03T03:14:55Z</time></trkpt>
<trkpt lat="46.316938" lon="11.653644"><ele>1318.0</ele><time>2017-08-03T03:14:56Z</time></trkpt>
<trkpt lat="46.316201" lon="11.654781"><ele>1307.0</ele><time>2017-08-03T03:15:02Z</time></trkpt>
<trkpt lat="46.315839" lon="11.655385"><ele>1317.0</ele><time>2017-08-03T03:15:05Z</time></trkpt>
<trkpt lat="46.315212" lon="11.656901"><ele>1325.0</ele><time>2017-08-03T03:15:12Z</time></trkpt>
<trkpt lat="46.314884" lon="11.658168"><ele>1328.0</ele><time>2017-08-03T03:15:17Z</time></trkpt>
<trkpt lat="46.314773" lon="11.658437"><ele>1334.0</ele><time>2017-08-03T03:15:19Z</time></trkpt>
<trkpt lat="46.313949" lon="11.659717"><ele>1342.0</ele><time>2017-08-03T03:15:25Z</time></trkpt>
<trkpt lat="46.313844" lon="11.659974"><ele>1342.0</ele><time>2017-08-03T03:15:26Z</time></trkpt>
<trkpt lat="46.313652" lon="11.660617"><ele>1351.0</ele><time>2017-08-03T03:15:29Z</time></trkpt>
<trkpt lat="46.313132" lon="11.662234"><ele>1365.0</ele><time>2017-08-03T03:15:36Z</time></trkpt>
<trkpt lat="46.312896" lon="11.663055"><ele>1369.0</ele><time>2017-08-03T03:15:40Z</time></trkpt>
<trkpt lat="46.312307" lon="11.665773"><ele>1377.0</ele><time>2017-08-03T03:15:51Z</time></trkpt>
<trkpt lat="46.312229" lon="11.666393"><ele>1384.0</ele><time>2017-08-03T03:15:53Z</time></trkpt>
<trkpt lat="46.312195" lon="11.667567"><ele>1389.0</ele><time>2017-08-03T03:15:58Z</time></trkpt>
<trkpt lat="46.312173" lon="11.669203"><ele>1391.0</ele><time>2017-08-03T03:16:04Z</time></trkpt>
<trkpt lat="46.312119" lon="11.66943"><ele>1391.0</ele><time>2017-08-03T03:16:05Z</time></trkpt>
<trkpt lat="46.311697" lon="11.670483"><ele>1394.0</ele><time>2017-08-03T03:16:10Z</time></trkpt>
<trkpt lat="46.311455" lon="11.671046"><ele>1404.0</ele><time>2017-08-03T03:16:12Z</time></trkpt>
<trkpt lat="46.310993" lon="11.672821"><ele>1409.0</ele><time>2017-08-03T03:16:19Z</time></trkpt>
<trkpt lat="46.310924" lon="11.673143"><ele>1409.0</ele><time>2017-08-03T03:16:21Z</time></trkpt>
<trkpt lat="46.31098" lon="11.673769"><ele>1413.0</ele><time>2017-08-03T03:16:23Z</time></trkpt>
<trkpt lat="46.311118" lon="11.674607"><ele>1414.0</ele><time>2017-08-03T03:16:27Z</time></trkpt>
<trkpt lat="46.311218" lon="11.675075"><ele>1414.0</ele><time>2017-08-03T03:16:28Z</time></trkpt>
<trkpt lat="46.311573" lon="11.676052"><ele>1409.0</ele><time>2017-08-03T03:16:33Z</time></trkpt>
<trkpt lat="46.312347" lon="11.677999"><ele>1418.0</ele><time>2017-08-03T03:16:41Z</time></trkpt>
<trkpt lat="46.31247" lon="11.67825"><ele>1418.0</ele><time>2017-08-03T03:16:43Z</time></trkpt>
<trkpt lat="46.312617" lon="11.678462"><ele>1433.0</ele><time>2017-08-03T03:16:44Z</time></trkpt>
<trkpt lat="46.313268" lon="11.679042"><ele>1433.0</ele><time>2017-08-03T03:16:48Z</time></trkpt>
<trkpt lat="46.313332" lon="11.679141"><ele>1433.0</ele><time>2017-08-03T03:16:49Z</time></trkpt>
<trkpt lat="46.313346" lon="11.67925"><ele>1453.0</ele><time>2017-08-03T03:16:50Z</time></trkpt>
<trkpt lat="46.313168" lon="11.679548"><ele>1436.0</ele><time>2017-08-03T03:16:52Z</time></trkpt>
<trkpt lat="46.313101" lon="11.679583"><ele>1436.0</ele><time>2017-08-03T03:16:52Z</time></trkpt>
<trkpt lat="46.313003" lon="11.67954"><ele>1436.0</ele><time>2017-08-03T03:16:53Z</time></trkpt>
<trkpt lat="46.311479" lon="11.678625"><ele>1414.0</ele><time>2017-08-03T03:17:02Z</time></trkpt>
<trkpt lat="46.31133" lon="11.678623"><ele>1414.0</ele><time>2017-08-03T03:17:03Z</time></trkpt>
<trkpt lat="46.311171" lon="11.678669"><ele>1414.0</ele><time>2017-08-03T03:17:04Z</time></trkpt>
<trkpt lat="46.311078" lon="11.678759"><ele>1414.0</ele><time>2017-08-03T03:17:04Z</time></trkpt>
<trkpt lat="46.310921" lon="11.679198"><ele>1439.0</ele><time>2017-08-03T03:17:07Z</time></trkpt>
<trkpt lat="46.310781" lon="11.679671"><ele>1419.0</ele><time>2017-08-03T03:17:09Z</time></trkpt>
<trkpt lat="46.310716" lon="11.68005"><ele>1431.0</ele><time>2017-08-03T03:17:10Z</time></trkpt>
<trkpt lat="46.310428" lon="11.68083"><ele>1431.0</ele><time>2017-08-03T03:17:14Z</time></trkpt>
<trkpt lat="46.310258" lon="11.68112"><ele>1445.0</ele><time>2017-08-03T03:17:15Z</time></trkpt>
<trkpt lat="46.309267" lon="11.682459"><ele>1425.0</ele><time>2017-08-03T03:17:23Z</time></trkpt>
<trkpt lat="46.309184" lon="11.682597"><ele>1438.0</ele><time>2017-08-03T03:17:24Z</time></trkpt>
<trkpt lat="46.308925" lon="11.683311"><ele>1414.0</ele><time>2017-08-03T03:17:27Z</time></trkpt>
<trkpt lat="46.308757" lon="11.68388"><ele>1428.0</ele><time>2017-08-03T03:17:30Z</time></trkpt>
<trkpt lat="46.308393" lon="11.684632"><ele>1447.0</ele><time>2017-08-03T03:17:34Z</time></trkpt>
<trkpt lat="46.308336" lon="11.68589"><ele>1474.0</ele><time>2017-08-03T03:17:39Z</time></trkpt>
<trkpt lat="46.308151" lon="11.687041"><ele>1443.0</ele><time>2017-08-03T03:17:43Z</time></trkpt>
<trkpt lat="46.308137" lon="11.687367"><ele>1443.0</ele><time>2017-08-03T03:17:45Z</time></trkpt>
<trkpt lat="46.308236" lon="11.688159"><ele>1443.0</ele><time>2017-08-03T03:17:48Z</time></trkpt>
<trkpt lat="46.308552" lon="11.68927"><ele>1465.0</ele><time>2017-08-03T03:17:53Z</time></trkpt>
<trkpt lat="46.309022" lon="11.690399"><ele>1457.0</ele><time>2017-08-03T03:17:58Z</time></trkpt>
<trkpt lat="46.309107" lon="11.690707"><ele>1457.0</ele><time>2017-08-03T03:17:59Z</time></trkpt>
<trkpt lat="46.309333" lon="11.692172"><ele>1472.0</ele><time>2017-08-03T03:18:05Z</time></trkpt>
<trkpt lat="46.309351" lon="11.692335"><ele>1472.0</ele><time>2017-08-03T03:18:06Z</time></trkpt>
<trkpt lat="46.30934" lon="11.692487"><ele>1472.0</ele><time>2017-08-03T03:18:06Z</time></trkpt>
<trkpt lat="46.309185" lon="11.692901"><ele>1474.0</ele><time>2017-08-03T03:18:08Z</time></trkpt>
<trkpt lat="46.309043" lon="11.693167"><ele>1447.0</ele><time>2017-08-03T03:18:10Z</time></trkpt>
<trkpt lat="46.307832" lon="11.694296"><ele>1459.0</ele><time>2017-08-03T03:18:18Z</time></trkpt>
<trkpt lat="46.307188" lon="11.695769"><ele>1465.0</ele><time>2017-08-03T03:18:25Z</time></trkpt>
<trkpt lat="46.306984" lon="11.697442"><ele>1486.0</ele><time>2017-08-03T03:18:31Z</time></trkpt>
<trkpt lat="46.306991" lon="11.697679"><ele>1482.0</ele><time>2017-08-03T03:18:32Z</time></trkpt>
<trkpt lat="46.307048" lon="11.697874"><ele>1482.0</ele><time>2017-08-03T03:18:33Z</time></trkpt>
<trkpt lat="46.307349" lon="11.698164"><ele>1482.0</ele><time>2017-08-03T03:18:35Z</time></trkpt>
<trkpt lat="46.307363" lon="11.698348"><ele>1469.0</ele><time>2017-08-03T03:18:36Z</time></trkpt>
<trkpt lat="46.307236" lon="11.699052"><ele>1469.0</ele><time>2017-08-03T03:18:39Z</time></trkpt>
<trkpt lat="46.307175" lon="11.699914"><ele>1466.0</ele><time>2017-08-03T03:18:42Z</time></trkpt>
<trkpt lat="46.306885" lon="11.701375"><ele>1485.0</ele><time>2017-08-03T03:18:48Z</time></trkpt>
<trkpt lat="46.306661" lon="11.70238"><ele>1485.0</ele><time>2017-08-03T03:18:52Z</time></trkpt>
<trkpt lat="46.3063" lon="11.703844"><ele>1487.0</ele><time>2017-08-03T03:18:58Z</time></trkpt>
<trkpt lat="46.3061" lon="11.704575"><ele>1503.0</ele><time>2017-08-03T03:19:01Z</time></trkpt>
<trkpt lat="46.306067" lon="11.705401"><ele>1516.0</ele><time>2017-08-03T03:19:05Z</time></trkpt>
<trkpt lat="46.305698" lon="11.70823"><ele>1492.0</ele><time>2017-08-03T03:19:16Z</time></trkpt>
<trkpt lat="46.305424" lon="11.709491"><ele>1497.0</ele><time>2017-08-03T03:19:21Z</time></trkpt>
<trkpt lat="46.305298" lon="11.709851"><ele>1497.0</ele><time>2017-08-03T03:19:23Z</time></trkpt>
<trkpt lat="46.305012" lon="11.710357"><ele>1528.0</ele><time>2017-08-03T03:19:25Z</time></trkpt>
<trkpt lat="46.304506" lon="11.711005"><ele>1502.0</ele><time>2017-08-03T03:19:29Z</time></trkpt>
<trkpt lat="46.303951" lon="11.711448"><ele>1453.0</ele><time>2017-08-03T03:19:34Z</time></trkpt>
<trkpt lat="46.30372" lon="11.711737"><ele>1486.0</ele><time>2017-08-03T03:19:36Z</time></trkpt>
<trkpt lat="46.303198" lon="11.71305"><ele>1464.0</ele><time>2017-08-03T03:19:42Z</time></trkpt>
<trkpt lat="46.303049" lon="11.713267"><ele>1464.0</ele><time>2017-08-03T03:19:43Z</time></trkpt>
<trkpt lat="46.302155" lon="11.714117"><ele>1457.0</ele><time>2017-08-03T03:19:49Z</time></trkpt>
<trkpt lat="46.301831" lon="11.714496"><ele>1485.0</ele><time>2017-08-03T03:19:52Z</time></trkpt>
<trkpt lat="46.301749" lon="11.714628"><ele>1485.0</ele><time>2017-08-03T03:19:53Z</time></trkpt>
<trkpt lat="46.301628" lon="11.714905"><ele>1450.0</ele><time>2017-08-03T03:19:55Z</time></trkpt>
<trkpt lat="46.301458" lon="11.715501"><ele>1472.0</ele><time>2017-08-03T03:19:58Z</time></trkpt>
<trkpt lat="46.301388" lon="11.7158"><ele>1472.0</ele><time>2017-08-03T03:19:59Z</time></trkpt>
<trkpt lat="46.301086" lon="11.716481"><ele>1489.0</ele><time>2017-08-03T03:20:02Z</time></trkpt>
<trkpt lat="46.300838" lon="11.717352"><ele>1512.0</ele><time>2017-08-03T03:20:06Z</time></trkpt>
<trkpt lat="46.300737" lon="11.71812"><ele>1468.0</ele><time>2017-08-03T03:20:10Z</time></trkpt>
<trkpt lat="46.30057" lon="11.718591"><ele>1485.0</ele><time>2017-08-03T03:20:12Z</time></trkpt>
<trkpt lat="46.300421" lon="11.719077"><ele>1485.0</ele><time>2017-08-03T03:20:14Z</time></trkpt>
<trkpt lat="46.300357" lon="11.719584"><ele>1488.0</ele><time>2017-08-03T03:20:16Z</time></trkpt>
<trkpt lat="46.300417" lon="11.720114"><ele>1508.0</ele><time>2017-08-03T03:20:18Z</time></trkpt>
<trkpt lat="46.300251" lon="11.721469"><ele>1517.0</ele><time>2017-08-03T03:20:24Z</time></trkpt>
<trkpt lat="46.300236" lon="11.723115"><ele>1528.0</ele><time>2017-08-03T03:20:30Z</time></trkpt>
<trkpt lat="46.300277" lon="11.723802"><ele>1529.0</ele><time>2017-08-03T03:20:33Z</time></trkpt>
<trkpt lat="46.300381" lon="11.724592"><ele>1528.0</ele><time>2017-08-03T03:20:36Z</time></trkpt>
<trkpt lat="46.300483" lon="11.72604"><ele>1495.0</ele><time>2017-08-03T03:20:42Z</time></trkpt>
<trkpt lat="46.300654" lon="11.727162"><ele>1502.0</ele><time>2017-08-03T03:20:46Z</time></trkpt>
<trkpt lat="46.300726" lon="11.727539"><ele>1489.0</ele><time>2017-08-03T03:20:48Z</time></trkpt>
<trkpt lat="46.301" lon="11.72807"><ele>1559.0</ele><time>2017-08-03T03:20:52Z</time></trkpt>
<trkpt lat="46.301391" lon="11.72922"><ele>1511.0</ele><time>2017-08-03T03:20:58Z</time></trkpt>
<trkpt lat="46.301495" lon="11.729394"><ele>1511.0</ele><time>2017-08-03T03:20:58Z</time></trkpt>
<trkpt lat="46.301853" lon="11.729726"><ele>1571.0</ele><time>2017-08-03T03:21:02Z</time></trkpt>
<trkpt lat="46.30211" lon="11.729902"><ele>1571.0</ele><time>2017-08-03T03:21:04Z</time></trkpt>
<trkpt lat="46.302291" lon="11.73006"><ele>1520.0</ele><time>2017-08-03T03:21:07Z</time></trkpt>
<trkpt lat="46.302491" lon="11.73037"><ele>1520.0</ele><time>2017-08-03T03:21:08Z</time></trkpt>
<trkpt lat="46.302898" lon="11.730904"><ele>1534.0</ele><time>2017-08-03T03:21:12Z</time></trkpt>
<trkpt lat="46.303031" lon="11.731161"><ele>1534.0</ele><time>2017-08-03T03:21:13Z</time></trkpt>
<trkpt lat="46.303333" lon="11.732231"><ele>1512.0</ele><time>2017-08-03T03:21:17Z</time></trkpt>
<trkpt lat="46.303447" lon="11.732527"><ele>1526.0</ele><time>2017-08-03T03:21:19Z</time></trkpt>
<trkpt lat="46.303567" lon="11.73272"><ele>1526.0</ele><time>2017-08-03T03:21:20Z</time></trkpt>
<trkpt lat="46.303791" lon="11.732981"><ele>1526.0</ele><time>2017-08-03T03:21:21Z</time></trkpt>
<trkpt lat="46.304154" lon="11.7332"><ele>1526.0</ele><time>2017-08-03T03:21:24Z</time></trkpt>
<trkpt lat="46.304246" lon="11.733268"><ele>1556.0</ele><time>2017-08-03T03:21:25Z</time></trkpt>
<trkpt lat="46.304323" lon="11.733353"><ele>1544.0</ele><time>2017-08-03T03:21:26Z</time></trkpt>
<trkpt lat="46.304781" lon="11.734527"><ele>1525.0</ele><time>2017-08-03T03:21:31Z</time></trkpt>
<trkpt lat="46.304947" lon="11.735208"><ele>1516.0</ele><time>2017-08-03T03:21:34Z</time></trkpt>
<trkpt lat="46.304967" lon="11.735337"><ele>1516.0</ele><time>2017-08-03T03:21:35Z</time></trkpt>
<trkpt lat="46.305186" lon="11.735894"><ele>1522.0</ele><time>2017-08-03T03:21:37Z</time></trkpt>
<trkpt lat="46.305255" lon="11.73611"><ele>1522.0</ele><time>2017-08-03T03:21:38Z</time></trkpt>
<trkpt lat="46.305357" lon="11.736283"><ele>1522.0</ele><time>2017-08-03T03:21:39Z</time></trkpt>
<trkpt lat="46.305561" lon="11.736426"><ele>1522.0</ele><time>2017-08-03T03:21:40Z</time></trkpt>
<trkpt lat="46.30574" lon="11.736246"><ele>1522.0</ele><time>2017-08-03T03:21:42Z</time></trkpt>
<trkpt lat="46.305921" lon="11.736196"><ele>1516.0</ele><time>2017-08-03T03:21:43Z</time></trkpt>
<trkpt lat="46.306132" lon="11.736387"><ele>1516.0</ele><time>2017-08-03T03:21:44Z</time></trkpt>
<trkpt lat="46.306197" lon="11.736481"><ele>1516.0</ele><time>2017-08-03T03:21:44Z</time></trkpt>
<trkpt lat="46.306249" lon="11.736603"><ele>1516.0</ele><time>2017-08-03T03:21:45Z</time></trkpt>
<trkpt lat="46.306308" lon="11.736897"><ele>1516.0</ele><time>2017-08-03T03:21:46Z</time></trkpt>
<trkpt lat="46.306544" lon="11.738662"><ele>1512.0</ele><time>2017-08-03T03:21:53Z</time></trkpt>
<trkpt lat="46.306681" lon="11.739172"><ele>1526.0</ele><time>2017-08-03T03:21:55Z</time></trkpt>
<trkpt lat="46.306839" lon="11.739642"><ele>1526.0</ele><time>2017-08-03T03:21:57Z</time></trkpt>
<trkpt lat="46.307129" lon="11.74032"><ele>1525.0</ele><time>2017-08-03T03:22:01Z</time></trkpt>
<trkpt lat="46.307464" lon="11.740921"><ele>1518.0</ele><time>2017-08-03T03:22:04Z</time></trkpt>
<trkpt lat="46.307546" lon="11.741169"><ele>1537.0</ele><time>2017-08-03T03:22:05Z</time></trkpt>
<trkpt lat="46.307563" lon="11.74131"><ele>1537.0</ele><time>2017-08-03T03:22:06Z</time></trkpt>
<trkpt lat="46.307516" lon="11.741904"><ele>1540.0</ele><time>2017-08-03T03:22:08Z</time></trkpt>
<trkpt lat="46.307563" lon="11.742582"><ele>1539.0</ele><time>2017-08-03T03:22:10Z</time></trkpt>
<trkpt lat="46.307668" lon="11.743478"><ele>1535.0</ele><time>2017-08-03T03:22:14Z</time></trkpt>
<trkpt lat="46.307771" lon="11.744159"><ele>1535.0</ele><time>2017-08-03T03:22:17Z</time></trkpt>
<trkpt lat="46.308141" lon="11.745418"><ele>1529.0</ele><time>2017-08-03T03:22:22Z</time></trkpt>
<trkpt lat="46.308203" lon="11.745541"><ele>1529.0</ele><time>2017-08-03T03:22:23Z</time></trkpt>
<trkpt lat="46.308269" lon="11.745648"><ele>1529.0</ele><time>2017-08-03T03:22:23Z</time></trkpt>
<trkpt lat="46.308559" lon="11.745819"><ele>1554.0</ele><time>2017-08-03T03:22:25Z</time></trkpt>
<trkpt lat="46.308751" lon="11.745974"><ele>1546.0</ele><time>2017-08-03T03:22:27Z</time></trkpt>
<trkpt lat="46.30892" lon="11.746169"><ele>1546.0</ele><time>2017-08-03T03:22:28Z</time></trkpt>
<trkpt lat="46.309062" lon="11.746395"><ele>1546.0</ele><time>2017-08-03T03:22:29Z</time></trkpt>
<trkpt lat="46.309157" lon="11.746678"><ele>1540.0</ele><time>2017-08-03T03:22:30Z</time></trkpt>
<trkpt lat="46.309203" lon="11.747148"><ele>1563.0</ele><time>2017-08-03T03:22:32Z</time></trkpt>
<trkpt lat="46.3096" lon="11.748167"><ele>1560.0</ele><time>2017-08-03T03:22:37Z</time></trkpt>
<trkpt lat="46.309614" lon="11.748369"><ele>1558.0</ele><time>2017-08-03T03:22:38Z</time></trkpt>
<trkpt lat="46.309563" lon="11.748565"><ele>1558.0</ele><time>2017-08-03T03:22:38Z</time></trkpt>
<trkpt lat="46.309213" lon="11.748973"><ele>1558.0</ele><time>2017-08-03T03:22:41Z</time></trkpt>
<trkpt lat="46.308974" lon="11.749205"><ele>1555.0</ele><time>2017-08-03T03:22:43Z</time></trkpt>
<trkpt lat="46.30891" lon="11.749316"><ele>1555.0</ele><time>2017-08-03T03:22:43Z</time></trkpt>
<trkpt lat="46.308753" lon="11.749738"><ele>1555.0</ele><time>2017-08-03T03:22:45Z</time></trkpt>
<trkpt lat="46.308523" lon="11.750723"><ele>1567.0</ele><time>2017-08-03T03:22:49Z</time></trkpt>
<trkpt lat="46.308516" lon="11.751211"><ele>1575.0</ele><time>2017-08-03T03:22:51Z</time></trkpt>
<trkpt lat="46.308577" lon="11.751563"><ele>1575.0</ele><time>2017-08-03T03:22:52Z</time></trkpt>
<trkpt lat="46.308748" lon="11.752193"><ele>1575.0</ele><time>2017-08-03T03:23:04Z</time></trkpt>
<trkpt lat="46.309337" lon="11.753123"><ele>1589.0</ele><time>2017-08-03T03:23:09Z</time></trkpt>
<trkpt lat="46.309907" lon="11.753976"><ele>1590.0</ele><time>2017-08-03T03:23:13Z</time></trkpt>
<trkpt lat="46.310274" lon="11.754483"><ele>1601.0</ele><time>2017-08-03T03:23:15Z</time></trkpt>
<trkpt lat="46.310997" lon="11.755003"><ele>1598.0</ele><time>2017-08-03T03:23:19Z</time></trkpt>
<trkpt lat="46.311303" lon="11.755122"><ele>1598.0</ele><time>2017-08-03T03:23:21Z</time></trkpt>
<trkpt lat="46.311945" lon="11.75526"><ele>1621.0</ele><time>2017-08-03T03:23:24Z</time></trkpt>
<trkpt lat="46.31209" lon="11.755352"><ele>1621.0</ele><time>2017-08-03T03:23:25Z</time></trkpt>
<trkpt lat="46.312144" lon="11.755439"><ele>1621.0</ele><time>2017-08-03T03:23:26Z</time></trkpt>
<trkpt lat="46.312135" lon="11.755945"><ele>1621.0</ele><time>2017-08-03T03:23:27Z</time></trkpt>
<trkpt lat="46.312146" lon="11.756708"><ele>1622.0</ele><time>2017-08-03T03:23:30Z</time></trkpt>
<trkpt lat="46.312284" lon="11.756875"><ele>1622.0</ele><time>2017-08-03T03:23:31Z</time></trkpt>
<trkpt lat="46.312465" lon="11.756958"><ele>1622.0</ele><time>2017-08-03T03:23:32Z</time></trkpt>
<trkpt lat="46.312879" lon="11.757094"><ele>1629.0</ele><time>2017-08-03T03:23:34Z</time></trkpt>
<trkpt lat="46.313109" lon="11.757259"><ele>1629.0</ele><time>2017-08-03T03:23:35Z</time></trkpt>
<trkpt lat="46.313625" lon="11.757343"><ele>1642.0</ele><time>2017-08-03T03:23:38Z</time></trkpt>
<trkpt lat="46.314072" lon="11.757533"><ele>1631.0</ele><time>2017-08-03T03:23:40Z</time></trkpt>
<trkpt lat="46.314169" lon="11.757621"><ele>1654.0</ele><time>2017-08-03T03:23:42Z</time></trkpt>
<trkpt lat="46.314359" lon="11.757989"><ele>1654.0</ele><time>2017-08-03T03:23:43Z</time></trkpt>
<trkpt lat="46.314479" lon="11.758261"><ele>1654.0</ele><time>2017-08-03T03:23:44Z</time></trkpt>
<trkpt lat="46.314672" lon="11.75842"><ele>1637.0</ele><time>2017-08-03T03:23:46Z</time></trkpt>
<trkpt lat="46.315095" lon="11.758688"><ele>1651.0</ele><time>2017-08-03T03:23:48Z</time></trkpt>
<trkpt lat="46.315255" lon="11.758685"><ele>1651.0</ele><time>2017-08-03T03:23:49Z</time></trkpt>
<trkpt lat="46.315464" lon="11.758613"><ele>1651.0</ele><time>2017-08-03T03:23:50Z</time></trkpt>
<trkpt lat="46.315584" lon="11.758658"><ele>1651.0</ele><time>2017-08-03T03:23:50Z</time></trkpt>
<trkpt lat="46.315655" lon="11.758707"><ele>1651.0</ele><time>2017-08-03T03:23:51Z</time></trkpt>
<trkpt lat="46.315745" lon="11.758811"><ele>1651.0</ele><time>2017-08-03T03:23:51Z</time></trkpt>
<trkpt lat="46.316341" lon="11.760013"><ele>1643.0</ele><time>2017-08-03T03:23:57Z</time></trkpt>
<trkpt lat="46.316652" lon="11.760492"><ele>1643.0</ele><time>2017-08-03T03:23:59Z</time></trkpt>
<trkpt lat="46.316861" lon="11.760995"><ele>1650.0</ele><time>2017-08-03T03:24:01Z</time></trkpt>
<trkpt lat="46.31736" lon="11.761593"><ele>1650.0</ele><time>2017-08-03T03:24:04Z</time></trkpt>
<trkpt lat="46.317652" lon="11.761747"><ele>1657.0</ele><time>2017-08-03T03:24:06Z</time></trkpt>
<trkpt lat="46.317904" lon="11.76195"><ele>1657.0</ele><time>2017-08-03T03:24:07Z</time></trkpt>
<trkpt lat="46.318244" lon="11.762318"><ele>1657.0</ele><time>2017-08-03T03:24:09Z</time></trkpt>
<trkpt lat="46.318346" lon="11.762675"><ele>1673.0</ele><time>2017-08-03T03:24:11Z</time></trkpt>
<trkpt lat="46.318503" lon="11.763561"><ele>1666.0</ele><time>2017-08-03T03:24:14Z</time></trkpt>
<trkpt lat="46.318595" lon="11.763864"><ele>1666.0</ele><time>2017-08-03T03:24:15Z</time></trkpt>
<trkpt lat="46.318749" lon="11.764091"><ele>1666.0</ele><time>2017-08-03T03:24:16Z</time></trkpt>
<trkpt lat="46.318838" lon="11.764342"><ele>1661.0</ele><time>2017-08-03T03:24:17Z</time></trkpt>
<trkpt lat="46.318918" lon="11.764969"><ele>1661.0</ele><time>2017-08-03T03:24:19Z</time></trkpt>
<trkpt lat="46.319057" lon="11.765692"><ele>1663.0</ele><time>2017-08-03T03:24:22Z</time></trkpt>
<trkpt lat="46.319082" lon="11.765927"><ele>1661.0</ele><time>2017-08-03T03:24:23Z</time></trkpt>
<trkpt lat="46.31922" lon="11.766241"><ele>1683.0</ele><time>2017-08-03T03:24:24Z</time></trkpt>
<trkpt lat="46.319302" lon="11.766382"><ele>1683.0</ele><time>2017-08-03T03:24:25Z</time></trkpt>
<trkpt lat="46.319347" lon="11.766538"><ele>1683.0</ele><time>2017-08-03T03:24:26Z</time></trkpt>
<trkpt lat="46.319369" lon="11.766689"><ele>1676.0</ele><time>2017-08-03T03:24:26Z</time></trkpt>
<trkpt lat="46.319365" lon="11.766861"><ele>1676.0</ele><time>2017-08-03T03:24:27Z</time></trkpt>
<trkpt lat="46.31924" lon="11.767615"><ele>1675.0</ele><time>2017-08-03T03:24:30Z</time></trkpt>
<trkpt lat="46.319174" lon="11.767824"><ele>1675.0</ele><time>2017-08-03T03:24:30Z</time></trkpt>
<trkpt lat="46.319188" lon="11.767988"><ele>1675.0</ele><time>2017-08-03T03:24:31Z</time></trkpt>
<trkpt lat="46.319508" lon="11.768632"><ele>1674.0</ele><time>2017-08-03T03:24:34Z</time></trkpt>
<trkpt lat="46.319589" lon="11.769001"><ele>1674.0</ele><time>2017-08-03T03:24:35Z</time></trkpt>
<trkpt lat="46.31962" lon="11.769498"><ele>1671.0</ele><time>2017-08-03T03:24:37Z</time></trkpt>
<trkpt lat="46.319674" lon="11.770002"><ele>1664.0</ele><time>2017-08-03T03:24:39Z</time></trkpt>
<trkpt lat="46.319635" lon="11.770627"><ele>1664.0</ele><time>2017-08-03T03:24:41Z</time></trkpt>
<trkpt lat="46.319316" lon="11.77194"><ele>1676.0</ele><time>2017-08-03T03:24:46Z</time></trkpt>
<trkpt lat="46.319206" lon="11.772509"><ele>1682.0</ele><time>2017-08-03T03:24:48Z</time></trkpt>
<trkpt lat="46.319214" lon="11.772728"><ele>1682.0</ele><time>2017-08-03T03:24:48Z</time></trkpt>
<trkpt lat="46.319576" lon="11.774181"><ele>1684.0</ele><time>2017-08-03T03:24:54Z</time></trkpt>
<trkpt lat="46.319807" lon="11.774713"><ele>1684.0</ele><time>2017-08-03T03:24:56Z</time></trkpt>
<trkpt lat="46.320027" lon="11.775168"><ele>1700.0</ele><time>2017-08-03T03:24:58Z</time></trkpt>
<trkpt lat="46.320526" lon="11.776562"><ele>1688.0</ele><time>2017-08-03T03:25:03Z</time></trkpt>
<trkpt lat="46.320637" lon="11.776807"><ele>1681.0</ele><time>2017-08-03T03:25:04Z</time></trkpt>
<trkpt lat="46.321191" lon="11.777764"><ele>1695.0</ele><time>2017-08-03T03:25:09Z</time></trkpt>
<trkpt lat="46.32136" lon="11.77794"><ele>1695.0</ele><time>2017-08-03T03:25:10Z</time></trkpt>
<trkpt lat="46.321909" lon="11.778316"><ele>1701.0</ele><time>2017-08-03T03:25:13Z</time></trkpt>
<trkpt lat="46.322681" lon="11.778558"><ele>1703.0</ele><time>2017-08-03T03:25:17Z</time></trkpt>
<trkpt lat="46.322884" lon="11.77867"><ele>1703.0</ele><time>2017-08-03T03:25:18Z</time></trkpt>
<trkpt lat="46.32299" lon="11.77866"><ele>1703.0</ele><time>2017-08-03T03:25:18Z</time></trkpt>
<trkpt lat="46.323064" lon="11.778588"><ele>1703.0</ele><time>2017-08-03T03:25:19Z</time></trkpt>
<trkpt lat="46.323088" lon="11.778482"><ele>1703.0</ele><time>2017-08-03T03:25:19Z</time></trkpt>
<trkpt lat="46.32305" lon="11.778347"><ele>1703.0</ele><time>2017-08-03T03:25:20Z</time></trkpt>
<trkpt lat="46.322639" lon="11.777653"><ele>1722.0</ele><time>2017-08-03T03:25:23Z</time></trkpt>
<trkpt lat="46.322609" lon="11.777544"><ele>1722.0</ele><time>2017-08-03T03:25:23Z</time></trkpt>
<trkpt lat="46.322663" lon="11.777474"><ele>1744.0</ele><time>2017-08-03T03:25:25Z</time></trkpt>
<trkpt lat="46.322759" lon="11.777546"><ele>1722.0</ele><time>2017-08-03T03:25:26Z</time></trkpt>
<trkpt lat="46.322938" lon="11.777832"><ele>1722.0</ele><time>2017-08-03T03:25:27Z</time></trkpt>
<trkpt lat="46.323276" lon="11.778144"><ele>1722.0</ele><time>2017-08-03T03:25:29Z</time></trkpt>
<trkpt lat="46.323561" lon="11.778526"><ele>1744.0</ele><time>2017-08-03T03:25:31Z</time></trkpt>
<trkpt lat="46.323788" lon="11.778908"><ele>1744.0</ele><time>2017-08-03T03:25:33Z</time></trkpt>
<trkpt lat="46.32436" lon="11.77964"><ele>1773.0</ele><time>2017-08-03T03:25:37Z</time></trkpt>
<trkpt lat="46.324539" lon="11.780191"><ele>1760.0</ele><time>2017-08-03T03:25:39Z</time></trkpt>
<trkpt lat="46.324883" lon="11.780691"><ele>1760.0</ele><time>2017-08-03T03:25:42Z</time></trkpt>
<trkpt lat="46.325375" lon="11.781191"><ele>1772.0</ele><time>2017-08-03T03:25:45Z</time></trkpt>
<trkpt lat="46.325735" lon="11.781722"><ele>1750.0</ele><time>2017-08-03T03:25:47Z</time></trkpt>
<trkpt lat="46.32609" lon="11.782043"><ele>1786.0</ele><time>2017-08-03T03:25:50Z</time></trkpt>
<trkpt lat="46.32618" lon="11.78225"><ele>1786.0</ele><time>2017-08-03T03:25:51Z</time></trkpt>
<trkpt lat="46.326339" lon="11.782412"><ele>1786.0</ele><time>2017-08-03T03:25:52Z</time></trkpt>
<trkpt lat="46.326622" lon="11.782568"><ele>1763.0</ele><time>2017-08-03T03:25:54Z</time></trkpt>
<trkpt lat="46.326987" lon="11.783144"><ele>1796.0</ele><time>2017-08-03T03:25:57Z</time></trkpt>
<trkpt lat="46.327269" lon="11.783454"><ele>1776.0</ele><time>2017-08-03T03:25:59Z</time></trkpt>
<trkpt lat="46.327413" lon="11.783662"><ele>1776.0</ele><time>2017-08-03T03:26:00Z</time></trkpt>
<trkpt lat="46.327583" lon="11.784004"><ele>1802.0</ele><time>2017-08-03T03:26:02Z</time></trkpt>
<trkpt lat="46.32811" lon="11.784915"><ele>1792.0</ele><time>2017-08-03T03:26:06Z</time></trkpt>
<trkpt lat="46.328269" lon="11.785279"><ele>1783.0</ele><time>2017-08-03T03:26:07Z</time></trkpt>
<trkpt lat="46.328509" lon="11.785673"><ele>1821.0</ele><time>2017-08-03T03:26:10Z</time></trkpt>
<trkpt lat="46.32956" lon="11.787131"><ele>1825.0</ele><time>2017-08-03T03:26:17Z</time></trkpt>
<trkpt lat="46.33023" lon="11.787774"><ele>1829.0</ele><time>2017-08-03T03:26:21Z</time></trkpt>
<trkpt lat="46.330503" lon="11.787967"><ele>1829.0</ele><time>2017-08-03T03:26:23Z</time></trkpt>
<trkpt lat="46.330718" lon="11.788027"><ele>1829.0</ele><time>2017-08-03T03:26:24Z</time></trkpt>
<trkpt lat="46.330917" lon="11.788135"><ele>1854.0</ele><time>2017-08-03T03:26:25Z</time></trkpt>
<trkpt lat="46.331115" lon="11.788357"><ele>1833.0</ele><time>2017-08-03T03:26:27Z</time></trkpt>
<trkpt lat="46.331279" lon="11.788467"><ele>1833.0</ele><time>2017-08-03T03:26:28Z</time></trkpt>
<trkpt lat="46.332033" lon="11.788831"><ele>1867.0</ele><time>2017-08-03T03:26:32Z</time></trkpt>
<trkpt lat="46.332292" lon="11.788902"><ele>1867.0</ele><time>2017-08-03T03:26:33Z</time></trkpt>
<trkpt lat="46.332479" lon="11.788984"><ele>1867.0</ele><time>2017-08-03T03:26:34Z</time></trkpt>
<trkpt lat="46.333269" lon="11.789372"><ele>1863.0</ele><time>2017-08-03T03:26:38Z</time></trkpt>
<trkpt lat="46.334304" lon="11.789708"><ele>1917.0</ele><time>2017-08-03T03:26:44Z</time></trkpt>
<trkpt lat="46.334868" lon="11.790024"><ele>1869.0</ele><time>2017-08-03T03:26:48Z</time></trkpt>
<trkpt lat="46.335788" lon="11.790343"><ele>1893.0</ele><time>2017-08-03T03:26:53Z</time></trkpt>
<trkpt lat="46.336354" lon="11.790584"><ele>1908.0</ele><time>2017-08-03T03:26:56Z</time></trkpt>
<trkpt lat="46.336889" lon="11.79066"><ele>1923.0</ele><time>2017-08-03T03:26:59Z</time></trkpt>
<trkpt lat="46.337559" lon="11.790969"><ele>1911.0</ele><time>2017-08-03T03:27:02Z</time></trkpt>
<trkpt lat="46.337982" lon="11.791056"><ele>1911.0</ele><time>2017-08-03T03:27:04Z</time></trkpt>
<trkpt lat="46.338278" lon="11.791198"><ele>1911.0</ele><time>2017-08-03T03:27:06Z</time></trkpt>
<trkpt lat="46.338476" lon="11.791708"><ele>1910.0</ele><time>2017-08-03T03:27:08Z</time></trkpt>
<trkpt lat="46.338547" lon="11.791836"><ele>1910.0</ele><time>2017-08-03T03:27:09Z</time></trkpt>
<trkpt lat="46.33898" lon="11.792008"><ele>1910.0</ele><time>2017-08-03T03:27:11Z</time></trkpt>
<trkpt lat="46.339106" lon="11.792119"><ele>1910.0</ele><time>2017-08-03T03:27:12Z</time></trkpt>
<trkpt lat="46.33916" lon="11.792197"><ele>1910.0</ele><time>2017-08-03T03:27:12Z</time></trkpt>
<trkpt lat="46.339337" lon="11.792666"><ele>1925.0</ele><time>2017-08-03T03:27:14Z</time></trkpt>
<trkpt lat="46.33941" lon="11.792729"><ele>1925.0</ele><time>2017-08-03T03:27:14Z</time></trkpt>
<trkpt lat="46.339644" lon="11.792722"><ele>1925.0</ele><time>2017-08-03T03:27:15Z</time></trkpt>
<trkpt lat="46.339753" lon="11.792668"><ele>1925.0</ele><time>2017-08-03T03:27:16Z</time></trkpt>
<trkpt lat="46.339862" lon="11.79256"><ele>1925.0</ele><time>2017-08-03T03:27:17Z</time></trkpt>
<trkpt lat="46.340534" lon="11.791646"><ele>1933.0</ele><time>2017-08-03T03:27:21Z</time></trkpt>
<trkpt lat="46.340628" lon="11.791483"><ele>1933.0</ele><time>2017-08-03T03:27:22Z</time></trkpt>
<trkpt lat="46.340776" lon="11.791107"><ele>1933.0</ele><time>2017-08-03T03:27:24Z</time></trkpt>
<trkpt lat="46.340839" lon="11.790674"><ele>1948.0</ele><time>2017-08-03T03:27:25Z</time></trkpt>
<trkpt lat="46.340857" lon="11.790594"><ele>1948.0</ele><time>2017-08-03T03:27:26Z</time></trkpt>
<trkpt lat="46.340888" lon="11.790535"><ele>1948.0</ele><time>2017-08-03T03:27:26Z</time></trkpt>
<trkpt lat="46.340993" lon="11.790451"><ele>1948.0</ele><time>2017-08-03T03:27:26Z</time></trkpt>
<trkpt lat="46.341148" lon="11.790445"><ele>1948.0</ele><time>2017-08-03T03:27:27Z</time></trkpt>
<trkpt lat="46.34124" lon="11.790577"><ele>1948.0</ele><time>2017-08-03T03:27:28Z</time></trkpt>
<trkpt lat="46.341273" lon="11.790656"><ele>1948.0</ele><time>2017-08-03T03:27:28Z</time></trkpt>
<trkpt lat="46.341337" lon="11.791016"><ele>1952.0</ele><time>2017-08-03T03:27:29Z</time></trkpt>
<trkpt lat="46.341339" lon="11.791301"><ele>1952.0</ele><time>2017-08-03T03:27:30Z</time></trkpt>
<trkpt lat="46.341281" lon="11.791806"><ele>1954.0</ele><time>2017-08-03T03:27:32Z</time></trkpt>
<trkpt lat="46.341292" lon="11.792377"><ele>1954.0</ele><time>2017-08-03T03:27:34Z</time></trkpt>
<trkpt lat="46.341354" lon="11.792573"><ele>1956.0</ele><time>2017-08-03T03:27:35Z</time></trkpt>
<trkpt lat="46.341558" lon="11.792913"><ele>1956.0</ele><time>2017-08-03T03:27:36Z</time></trkpt>
<trkpt lat="46.341557" lon="11.793069"><ele>1956.0</ele><time>2017-08-03T03:27:37Z</time></trkpt>
<trkpt lat="46.341408" lon="11.793305"><ele>1956.0</ele><time>2017-08-03T03:27:38Z</time></trkpt>
<trkpt lat="46.341349" lon="11.793497"><ele>1959.0</ele><time>2017-08-03T03:27:39Z</time></trkpt>
<trkpt lat="46.341331" lon="11.793725"><ele>1959.0</ele><time>2017-08-03T03:27:40Z</time></trkpt>
<trkpt lat="46.341567" lon="11.79473"><ele>1966.0</ele><time>2017-08-03T03:27:43Z</time></trkpt>
<trkpt lat="46.341577" lon="11.794852"><ele>1966.0</ele><time>2017-08-03T03:27:44Z</time></trkpt>
<trkpt lat="46.341565" lon="11.795059"><ele>1972.0</ele><time>2017-08-03T03:27:45Z</time></trkpt>
<trkpt lat="46.341539" lon="11.795155"><ele>1972.0</ele><time>2017-08-03T03:27:45Z</time></trkpt>
<trkpt lat="46.341464" lon="11.795279"><ele>1972.0</ele><time>2017-08-03T03:27:45Z</time></trkpt>
<trkpt lat="46.341253" lon="11.795415"><ele>1972.0</ele><time>2017-08-03T03:27:47Z</time></trkpt>
<trkpt lat="46.341165" lon="11.795513"><ele>1972.0</ele><time>2017-08-03T03:27:47Z</time></trkpt>
<trkpt lat="46.341134" lon="11.79558"><ele>1972.0</ele><time>2017-08-03T03:27:47Z</time></trkpt>
<trkpt lat="46.341073" lon="11.795834"><ele>1980.0</ele><time>2017-08-03T03:27:48Z</time></trkpt>
<trkpt lat="46.341091" lon="11.796021"><ele>1980.0</ele><time>2017-08-03T03:27:49Z</time></trkpt>
<trkpt lat="46.341147" lon="11.79619"><ele>1980.0</ele><time>2017-08-03T03:27:50Z</time></trkpt>
<trkpt lat="46.341203" lon="11.796282"><ele>1980.0</ele><time>2017-08-03T03:27:50Z</time></trkpt>
<trkpt lat="46.341403" lon="11.796523"><ele>1980.0</ele><time>2017-08-03T03:27:51Z</time></trkpt>
<trkpt lat="46.341546" lon="11.79676"><ele>1984.0</ele><time>2017-08-03T03:27:53Z</time></trkpt>
<trkpt lat="46.341581" lon="11.796871"><ele>1984.0</ele><time>2017-08-03T03:27:53Z</time></trkpt>
<trkpt lat="46.341584" lon="11.796933"><ele>1984.0</ele><time>2017-08-03T03:27:53Z</time></trkpt>
<trkpt lat="46.341558" lon="11.797102"><ele>1984.0</ele><time>2017-08-03T03:27:54Z</time></trkpt>
<trkpt lat="46.341492" lon="11.797202"><ele>1984.0</ele><time>2017-08-03T03:27:54Z</time></trkpt>
<trkpt lat="46.341228" lon="11.797393"><ele>1984.0</ele><time>2017-08-03T03:27:56Z</time></trkpt>
<trkpt lat="46.3405" lon="11.798016"><ele>1994.0</ele><time>2017-08-03T03:28:00Z</time></trkpt>
<trkpt lat="46.340457" lon="11.798113"><ele>1994.0</ele><time>2017-08-03T03:28:00Z</time></trkpt>
<trkpt lat="46.340409" lon="11.798441"><ele>2016.0</ele><time>2017-08-03T03:28:02Z</time></trkpt>
<trkpt lat="46.34039" lon="11.798489"><ele>2016.0</ele><time>2017-08-03T03:28:02Z</time></trkpt>
<trkpt lat="46.340329" lon="11.798547"><ele>2016.0</ele><time>2017-08-03T03:28:02Z</time></trkpt>
<trkpt lat="46.340251" lon="11.798553"><ele>2016.0</ele><time>2017-08-03T03:28:03Z</time></trkpt>
<trkpt lat="46.340036" lon="11.798437"><ele>2016.0</ele><time>2017-08-03T03:28:04Z</time></trkpt>
<trkpt lat="46.339904" lon="11.798436"><ele>2007.0</ele><time>2017-08-03T03:28:05Z</time></trkpt>
<trkpt lat="46.339823" lon="11.798458"><ele>2007.0</ele><time>2017-08-03T03:28:05Z</time></trkpt>
<trkpt lat="46.339478" lon="11.798629"><ele>2007.0</ele><time>2017-08-03T03:28:07Z</time></trkpt>
<trkpt lat="46.338979" lon="11.79873"><ele>2010.0</ele><time>2017-08-03T03:28:10Z</time></trkpt>
<trkpt lat="46.338889" lon="11.798778"><ele>2010.0</ele><time>2017-08-03T03:28:10Z</time></trkpt>
<trkpt lat="46.338813" lon="11.798892"><ele>2010.0</ele><time>2017-08-03T03:28:11Z</time></trkpt>
<trkpt lat="46.338624" lon="11.799528"><ele>2029.0</ele><time>2017-08-03T03:28:13Z</time></trkpt>
<trkpt lat="46.338606" lon="11.799713"><ele>2029.0</ele><time>2017-08-03T03:28:14Z</time></trkpt>
<trkpt lat="46.338595" lon="11.80046"><ele>2042.0</ele><time>2017-08-03T03:28:16Z</time></trkpt>
<trkpt lat="46.338624" lon="11.80116"><ele>2042.0</ele><time>2017-08-03T03:28:19Z</time></trkpt>
<trkpt lat="46.338621" lon="11.801536"><ele>2042.0</ele><time>2017-08-03T03:28:20Z</time></trkpt>
<trkpt lat="46.338605" lon="11.80174"><ele>2036.0</ele><time>2017-08-03T03:28:21Z</time></trkpt>
<trkpt lat="46.338427" lon="11.803057"><ele>2029.0</ele><time>2017-08-03T03:28:26Z</time></trkpt>
<trkpt lat="46.338433" lon="11.803176"><ele>2029.0</ele><time>2017-08-03T03:28:26Z</time></trkpt>
<trkpt lat="46.338481" lon="11.803372"><ele>2015.0</ele><time>2017-08-03T03:28:27Z</time></trkpt>
<trkpt lat="46.338531" lon="11.803448"><ele>2015.0</ele><time>2017-08-03T03:28:27Z</time></trkpt>
<trkpt lat="46.338589" lon="11.803499"><ele>2015.0</ele><time>2017-08-03T03:28:28Z</time></trkpt>
<trkpt lat="46.338735" lon="11.803569"><ele>2015.0</ele><time>2017-08-03T03:28:28Z</time></trkpt>
<trkpt lat="46.339832" lon="11.803636"><ele>2015.0</ele><time>2017-08-03T03:28:34Z</time></trkpt>
<trkpt lat="46.339938" lon="11.80367"><ele>2015.0</ele><time>2017-08-03T03:28:34Z</time></trkpt>
<trkpt lat="46.340056" lon="11.803749"><ele>2019.0</ele><time>2017-08-03T03:28:35Z</time></trkpt>
<trkpt lat="46.340216" lon="11.803949"><ele>2019.0</ele><time>2017-08-03T03:28:36Z</time></trkpt>
<trkpt lat="46.340272" lon="11.804076"><ele>2019.0</ele><time>2017-08-03T03:28:37Z</time></trkpt>
<trkpt lat="46.340312" lon="11.804248"><ele>2013.0</ele><time>2017-08-03T03:28:37Z</time></trkpt>
<trkpt lat="46.340322" lon="11.804552"><ele>2013.0</ele><time>2017-08-03T03:28:38Z</time></trkpt>
<trkpt lat="46.340255" lon="11.806034"><ele>2003.0</ele><time>2017-08-03T03:28:44Z</time></trkpt>
<trkpt lat="46.340262" lon="11.806188"><ele>2003.0</ele><time>2017-08-03T03:28:44Z</time></trkpt>
<trkpt lat="46.340314" lon="11.80642"><ele>2003.0</ele><time>2017-08-03T03:28:45Z</time></trkpt>
<trkpt lat="46.340372" lon="11.806545"><ele>2003.0</ele><time>2017-08-03T03:28:45Z</time></trkpt>
<trkpt lat="46.340555" lon="11.806796"><ele>1993.0</ele><time>2017-08-03T03:28:47Z</time></trkpt>
<trkpt lat="46.34062" lon="11.806919"><ele>1993.0</ele><time>2017-08-03T03:28:47Z</time></trkpt>
<trkpt lat="46.34066" lon="11.807059"><ele>1993.0</ele><time>2017-08-03T03:28:48Z</time></trkpt>
<trkpt lat="46.340774" lon="11.808016"><ele>1981.0</ele><time>2017-08-03T03:28:51Z</time></trkpt>
<trkpt lat="46.340874" lon="11.808591"><ele>2015.0</ele><time>2017-08-03T03:28:54Z</time></trkpt>
<trkpt lat="46.340959" lon="11.809373"><ele>2000.0</ele><time>2017-08-03T03:28:57Z</time></trkpt>
<trkpt lat="46.340934" lon="11.810329"><ele>1991.0</ele><time>2017-08-03T03:29:00Z</time></trkpt>
<trkpt lat="46.340962" lon="11.810493"><ele>1991.0</ele><time>2017-08-03T03:29:01Z</time></trkpt>
<trkpt lat="46.341133" lon="11.811056"><ele>1980.0</ele><time>2017-08-03T03:29:03Z</time></trkpt>
<trkpt lat="46.341149" lon="11.811216"><ele>1980.0</ele><time>2017-08-03T03:29:03Z</time></trkpt>
<trkpt lat="46.341121" lon="11.811672"><ele>1971.0</ele><time>2017-08-03T03:29:05Z</time></trkpt>
<trkpt lat="46.340994" lon="11.812671"><ele>1966.0</ele><time>2017-08-03T03:29:08Z</time></trkpt>
<trkpt lat="46.34094" lon="11.812977"><ele>1966.0</ele><time>2017-08-03T03:29:09Z</time></trkpt>
<trkpt lat="46.340775" lon="11.813697"><ele>1923.0</ele><time>2017-08-03T03:29:13Z</time></trkpt>
<trkpt lat="46.340764" lon="11.813839"><ele>1923.0</ele><time>2017-08-03T03:29:13Z</time></trkpt>
<trkpt lat="46.340773" lon="11.814067"><ele>1923.0</ele><time>2017-08-03T03:29:14Z</time></trkpt>
<trkpt lat="46.34082" lon="11.814345"><ele>1920.0</ele><time>2017-08-03T03:29:15Z</time></trkpt>
<trkpt lat="46.340858" lon="11.814481"><ele>1950.0</ele><time>2017-08-03T03:29:16Z</time></trkpt>
<trkpt lat="46.341182" lon="11.815105"><ele>1939.0</ele><time>2017-08-03T03:29:19Z</time></trkpt>
<trkpt lat="46.341216" lon="11.81523"><ele>1939.0</ele><time>2017-08-03T03:29:20Z</time></trkpt>
<trkpt lat="46.34129" lon="11.815844"><ele>1932.0</ele><time>2017-08-03T03:29:22Z</time></trkpt>
<trkpt lat="46.341384" lon="11.816244"><ele>1932.0</ele><time>2017-08-03T03:29:23Z</time></trkpt>
<trkpt lat="46.341509" lon="11.816588"><ele>1932.0</ele><time>2017-08-03T03:29:25Z</time></trkpt>
<trkpt lat="46.341692" lon="11.816875"><ele>1958.0</ele><time>2017-08-03T03:29:26Z</time></trkpt>
<trkpt lat="46.341752" lon="11.817033"><ele>1958.0</ele><time>2017-08-03T03:29:27Z</time></trkpt>
<trkpt lat="46.341795" lon="11.817634"><ele>1948.0</ele><time>2017-08-03T03:29:29Z</time></trkpt>
<trkpt lat="46.341858" lon="11.818031"><ele>1948.0</ele><time>2017-08-03T03:29:31Z</time></trkpt>
<trkpt lat="46.341978" lon="11.818586"><ele>1933.0</ele><time>2017-08-03T03:29:33Z</time></trkpt>
<trkpt lat="46.342276" lon="11.819327"><ele>1916.0</ele><time>2017-08-03T03:29:36Z</time></trkpt>
<trkpt lat="46.342644" lon="11.819938"><ele>1943.0</ele><time>2017-08-03T03:29:39Z</time></trkpt>
<trkpt lat="46.342728" lon="11.82012"><ele>1925.0</ele><time>2017-08-03T03:29:40Z</time></trkpt>
<trkpt lat="46.342784" lon="11.820302"><ele>1925.0</ele><time>2017-08-03T03:29:41Z</time></trkpt>
<trkpt lat="46.34279" lon="11.821475"><ele>1918.0</ele><time>2017-08-03T03:29:45Z</time></trkpt>
<trkpt lat="46.342928" lon="11.822677"><ele>1898.0</ele><time>2017-08-03T03:29:49Z</time></trkpt>
<trkpt lat="46.342922" lon="11.823052"><ele>1898.0</ele><time>2017-08-03T03:29:50Z</time></trkpt>
<trkpt lat="46.342864" lon="11.823548"><ele>1893.0</ele><time>2017-08-03T03:29:52Z</time></trkpt>
<trkpt lat="46.342859" lon="11.823873"><ele>1893.0</ele><time>2017-08-03T03:29:53Z</time></trkpt>
<trkpt lat="46.342891" lon="11.824092"><ele>1893.0</ele><time>2017-08-03T03:29:54Z</time></trkpt>
<trkpt lat="46.34294" lon="11.824265"><ele>1887.0</ele><time>2017-08-03T03:29:55Z</time></trkpt>
<trkpt lat="46.343334" lon="11.825065"><ele>1888.0</ele><time>2017-08-03T03:29:58Z</time></trkpt>
<trkpt lat="46.34347" lon="11.825436"><ele>1888.0</ele><time>2017-08-03T03:30:00Z</time></trkpt>
<trkpt lat="46.3437" lon="11.826298"><ele>1881.0</ele><time>2017-08-03T03:30:03Z</time></trkpt>
<trkpt lat="46.343954" lon="11.827335"><ele>1877.0</ele><time>2017-08-03T03:30:07Z</time></trkpt>
<trkpt lat="46.343981" lon="11.827514"><ele>1867.0</ele><time>2017-08-03T03:30:07Z</time></trkpt>
<trkpt lat="46.344002" lon="11.827968"><ele>1867.0</ele><time>2017-08-03T03:30:09Z</time></trkpt>
<trkpt lat="46.343946" lon="11.830036"><ele>1851.0</ele><time>2017-08-03T03:30:16Z</time></trkpt>
<trkpt lat="46.343958" lon="11.830322"><ele>1851.0</ele><time>2017-08-03T03:30:17Z</time></trkpt>
<trkpt lat="46.343989" lon="11.830634"><ele>1851.0</ele><time>2017-08-03T03:30:18Z</time></trkpt>
<trkpt lat="46.344306" lon="11.831857"><ele>1864.0</ele><time>2017-08-03T03:30:23Z</time></trkpt>
<trkpt lat="46.34439" lon="11.83224"><ele>1864.0</ele><time>2017-08-03T03:30:24Z</time></trkpt>
<trkpt lat="46.344418" lon="11.832509"><ele>1852.0</ele><time>2017-08-03T03:30:25Z</time></trkpt>
<trkpt lat="46.344414" lon="11.832777"><ele>1852.0</ele><time>2017-08-03T03:30:26Z</time></trkpt>
<trkpt lat="46.344474" lon="11.833173"><ele>1852.0</ele><time>2017-08-03T03:30:27Z</time></trkpt>
<trkpt lat="46.344501" lon="11.833251"><ele>1852.0</ele><time>2017-08-03T03:30:28Z</time></trkpt>
<trkpt lat="46.344613" lon="11.833453"><ele>1834.0</ele><time>2017-08-03T03:30:29Z</time></trkpt>
<trkpt lat="46.344617" lon="11.833511"><ele>1834.0</ele><time>2017-08-03T03:30:29Z</time></trkpt>
<trkpt lat="46.344607" lon="11.833565"><ele>1834.0</ele><time>2017-08-03T03:30:29Z</time></trkpt>
<trkpt lat="46.344568" lon="11.833615"><ele>1834.0</ele><time>2017-08-03T03:30:30Z</time></trkpt>
<trkpt lat="46.344518" lon="11.833638"><ele>1834.0</ele><time>2017-08-03T03:30:30Z</time></trkpt>
<trkpt lat="46.344472" lon="11.833624"><ele>1834.0</ele><time>2017-08-03T03:30:30Z</time></trkpt>
<trkpt lat="46.344441" lon="11.833583"><ele>1834.0</ele><time>2017-08-03T03:30:30Z</time></trkpt>
<trkpt lat="46.344361" lon="11.833218"><ele>1852.0</ele><time>2017-08-03T03:30:32Z</time></trkpt>
<trkpt lat="46.343624" lon="11.831453"><ele>1845.0</ele><time>2017-08-03T03:30:39Z</time></trkpt>
<trkpt lat="46.342182" lon="11.828554"><ele>1787.0</ele><time>2017-08-03T03:30:52Z</time></trkpt>
<trkpt lat="46.342097" lon="11.828419"><ele>1787.0</ele><time>2017-08-03T03:30:52Z</time></trkpt>
<trkpt lat="46.34201" lon="11.82833"><ele>1809.0</ele><time>2017-08-03T03:30:53Z</time></trkpt>
<trkpt lat="46.341702" lon="11.828132"><ele>1809.0</ele><time>2017-08-03T03:30:55Z</time></trkpt>
<trkpt lat="46.341468" lon="11.827886"><ele>1774.0</ele><time>2017-08-03T03:30:57Z</time></trkpt>
<trkpt lat="46.341409" lon="11.827871"><ele>1774.0</ele><time>2017-08-03T03:30:58Z</time></trkpt>
<trkpt lat="46.341386" lon="11.827885"><ele>1774.0</ele><time>2017-08-03T03:30:58Z</time></trkpt>
<trkpt lat="46.341366" lon="11.827934"><ele>1774.0</ele><time>2017-08-03T03:30:58Z</time></trkpt>
<trkpt lat="46.341366" lon="11.828036"><ele>1774.0</ele><time>2017-08-03T03:30:58Z</time></trkpt>
<trkpt lat="46.34162" lon="11.828407"><ele>1752.0</ele><time>2017-08-03T03:31:00Z</time></trkpt>
<trkpt lat="46.341694" lon="11.828584"><ele>1787.0</ele><time>2017-08-03T03:31:02Z</time></trkpt>
<trkpt lat="46.341739" lon="11.828746"><ele>1787.0</ele><time>2017-08-03T03:31:03Z</time></trkpt>
<trkpt lat="46.34199" lon="11.830323"><ele>1761.0</ele><time>2017-08-03T03:31:08Z</time></trkpt>
<trkpt lat="46.342129" lon="11.831054"><ele>1751.0</ele><time>2017-08-03T03:31:11Z</time></trkpt>
<trkpt lat="46.342217" lon="11.831912"><ele>1742.0</ele><time>2017-08-03T03:31:14Z</time></trkpt>
<trkpt lat="46.342508" lon="11.833252"><ele>1764.0</ele><time>2017-08-03T03:31:19Z</time></trkpt>
<trkpt lat="46.342577" lon="11.83343"><ele>1752.0</ele><time>2017-08-03T03:31:20Z</time></trkpt>
<trkpt lat="46.343174" lon="11.834626"><ele>1728.0</ele><time>2017-08-03T03:31:25Z</time></trkpt>
<trkpt lat="46.343574" lon="11.835802"><ele>1737.0</ele><time>2017-08-03T03:31:30Z</time></trkpt>
<trkpt lat="46.344073" lon="11.837008"><ele>1699.0</ele><time>2017-08-03T03:31:35Z</time></trkpt>
<trkpt lat="46.344959" lon="11.838671"><ele>1685.0</ele><time>2017-08-03T03:31:42Z</time></trkpt>
<trkpt lat="46.345444" lon="11.840095"><ele>1681.0</ele><time>2017-08-03T03:31:48Z</time></trkpt>
<trkpt lat="46.345547" lon="11.84034"><ele>1681.0</ele><time>2017-08-03T03:31:48Z</time></trkpt>
<trkpt lat="46.345756" lon="11.840747"><ele>1681.0</ele><time>2017-08-03T03:31:50Z</time></trkpt>
<trkpt lat="46.346605" lon="11.842168"><ele>1655.0</ele><time>2017-08-03T03:31:57Z</time></trkpt>
<trkpt lat="46.346985" lon="11.842739"><ele>1656.0</ele><time>2017-08-03T03:32:00Z</time></trkpt>
<trkpt lat="46.347192" lon="11.842946"><ele>1656.0</ele><time>2017-08-03T03:32:01Z</time></trkpt>
<trkpt lat="46.347343" lon="11.843035"><ele>1656.0</ele><time>2017-08-03T03:32:02Z</time></trkpt>
<trkpt lat="46.347673" lon="11.843141"><ele>1668.0</ele><time>2017-08-03T03:32:03Z</time></trkpt>
<trkpt lat="46.347861" lon="11.843245"><ele>1668.0</ele><time>2017-08-03T03:32:04Z</time></trkpt>
<trkpt lat="46.348066" lon="11.843477"><ele>1638.0</ele><time>2017-08-03T03:32:06Z</time></trkpt>
<trkpt lat="46.348914" lon="11.844573"><ele>1630.0</ele><time>2017-08-03T03:32:12Z</time></trkpt>
<trkpt lat="46.350023" lon="11.84584"><ele>1621.0</ele><time>2017-08-03T03:32:19Z</time></trkpt>
<trkpt lat="46.35053" lon="11.846363"><ele>1621.0</ele><time>2017-08-03T03:32:22Z</time></trkpt>
<trkpt lat="46.350978" lon="11.846676"><ele>1595.0</ele><time>2017-08-03T03:32:25Z</time></trkpt>
<trkpt lat="46.351135" lon="11.846725"><ele>1595.0</ele><time>2017-08-03T03:32:26Z</time></trkpt>
<trkpt lat="46.351299" lon="11.846725"><ele>1595.0</ele><time>2017-08-03T03:32:27Z</time></trkpt>
<trkpt lat="46.351646" lon="11.846682"><ele>1595.0</ele><time>2017-08-03T03:32:28Z</time></trkpt>
<trkpt lat="46.351703" lon="11.846739"><ele>1596.0</ele><time>2017-08-03T03:32:29Z</time></trkpt>
<trkpt lat="46.351709" lon="11.84681"><ele>1596.0</ele><time>2017-08-03T03:32:29Z</time></trkpt>
<trkpt lat="46.351697" lon="11.846865"><ele>1596.0</ele><time>2017-08-03T03:32:29Z</time></trkpt>
<trkpt lat="46.351663" lon="11.846902"><ele>1595.0</ele><time>2017-08-03T03:32:29Z</time></trkpt>
<trkpt lat="46.351305" lon="11.846891"><ele>1595.0</ele><time>2017-08-03T03:32:31Z</time></trkpt>
<trkpt lat="46.351166" lon="11.846915"><ele>1595.0</ele><time>2017-08-03T03:32:32Z</time></trkpt>
<trkpt lat="46.35046" lon="11.84714"><ele>1592.0</ele><time>2017-08-03T03:32:35Z</time></trkpt>
<trkpt lat="46.349465" lon="11.847631"><ele>1577.0</ele><time>2017-08-03T03:32:41Z</time></trkpt>
<trkpt lat="46.34941" lon="11.847675"><ele>1577.0</ele><time>2017-08-03T03:32:41Z</time></trkpt>
<trkpt lat="46.349374" lon="11.847732"><ele>1577.0</ele><time>2017-08-03T03:32:41Z</time></trkpt>
<trkpt lat="46.349362" lon="11.847793"><ele>1577.0</ele><time>2017-08-03T03:32:42Z</time></trkpt>
<trkpt lat="46.349382" lon="11.847955"><ele>1577.0</ele><time>2017-08-03T03:32:42Z</time></trkpt>
<trkpt lat="46.349687" lon="11.848349"><ele>1553.0</ele><time>2017-08-03T03:32:44Z</time></trkpt>
<trkpt lat="46.350092" lon="11.848784"><ele>1555.0</ele><time>2017-08-03T03:32:47Z</time></trkpt>
<trkpt lat="46.351281" lon="11.849189"><ele>1533.0</ele><time>2017-08-03T03:32:53Z</time></trkpt>
<trkpt lat="46.351481" lon="11.849187"><ele>1533.0</ele><time>2017-08-03T03:32:54Z</time></trkpt>
<trkpt lat="46.351551" lon="11.849151"><ele>1545.0</ele><time>2017-08-03T03:32:55Z</time></trkpt>
<trkpt lat="46.351852" lon="11.848902"><ele>1534.0</ele><time>2017-08-03T03:32:57Z</time></trkpt>
<trkpt lat="46.351969" lon="11.848772"><ele>1534.0</ele><time>2017-08-03T03:32:57Z</time></trkpt>
<trkpt lat="46.352211" lon="11.848445"><ele>1534.0</ele><time>2017-08-03T03:32:59Z</time></trkpt>
<trkpt lat="46.352292" lon="11.848405"><ele>1534.0</ele><time>2017-08-03T03:32:59Z</time></trkpt>
<trkpt lat="46.35243" lon="11.848389"><ele>1534.0</ele><time>2017-08-03T03:33:00Z</time></trkpt>
<trkpt lat="46.352529" lon="11.848423"><ele>1517.0</ele><time>2017-08-03T03:33:01Z</time></trkpt>
<trkpt lat="46.352614" lon="11.848485"><ele>1517.0</ele><time>2017-08-03T03:33:02Z</time></trkpt>
<trkpt lat="46.352745" lon="11.848626"><ele>1517.0</ele><time>2017-08-03T03:33:02Z</time></trkpt>
<trkpt lat="46.352819" lon="11.848674"><ele>1517.0</ele><time>2017-08-03T03:33:03Z</time></trkpt>
<trkpt lat="46.352909" lon="11.848688"><ele>1517.0</ele><time>2017-08-03T03:33:03Z</time></trkpt>
<trkpt lat="46.352994" lon="11.848668"><ele>1517.0</ele><time>2017-08-03T03:33:04Z</time></trkpt>
<trkpt lat="46.353364" lon="11.8485"><ele>1510.0</ele><time>2017-08-03T03:33:06Z</time></trkpt>
<trkpt lat="46.353409" lon="11.848455"><ele>1510.0</ele><time>2017-08-03T03:33:06Z</time></trkpt>
<trkpt lat="46.353603" lon="11.848085"><ele>1551.0</ele><time>2017-08-03T03:33:08Z</time></trkpt>
<trkpt lat="46.353645" lon="11.848038"><ele>1551.0</ele><time>2017-08-03T03:33:09Z</time></trkpt>
<trkpt lat="46.353733" lon="11.84802"><ele>1551.0</ele><time>2017-08-03T03:33:09Z</time></trkpt>
<trkpt lat="46.354177" lon="11.84838"><ele>1528.0</ele><time>2017-08-03T03:33:12Z</time></trkpt>
<trkpt lat="46.354246" lon="11.848472"><ele>1528.0</ele><time>2017-08-03T03:33:12Z</time></trkpt>
<trkpt lat="46.354292" lon="11.84859"><ele>1528.0</ele><time>2017-08-03T03:33:13Z</time></trkpt>
<trkpt lat="46.354427" lon="11.848806"><ele>1528.0</ele><time>2017-08-03T03:33:14Z</time></trkpt>
<trkpt lat="46.354853" lon="11.849205"><ele>1492.0</ele><time>2017-08-03T03:33:17Z</time></trkpt>
<trkpt lat="46.354977" lon="11.849273"><ele>1492.0</ele><time>2017-08-03T03:33:17Z</time></trkpt>
<trkpt lat="46.355073" lon="11.849284"><ele>1467.0</ele><time>2017-08-03T03:33:19Z</time></trkpt>
<trkpt lat="46.355195" lon="11.849245"><ele>1467.0</ele><time>2017-08-03T03:33:19Z</time></trkpt>
<trkpt lat="46.355405" lon="11.849136"><ele>1496.0</ele><time>2017-08-03T03:33:21Z</time></trkpt>
<trkpt lat="46.356091" lon="11.848588"><ele>1453.0</ele><time>2017-08-03T03:33:25Z</time></trkpt>
<trkpt lat="46.356637" lon="11.847875"><ele>1477.0</ele><time>2017-08-03T03:33:29Z</time></trkpt>
<trkpt lat="46.356794" lon="11.847718"><ele>1443.0</ele><time>2017-08-03T03:33:31Z</time></trkpt>
<trkpt lat="46.357067" lon="11.847517"><ele>1443.0</ele><time>2017-08-03T03:33:32Z</time></trkpt>
<trkpt lat="46.357166" lon="11.847415"><ele>1459.0</ele><time>2017-08-03T03:33:33Z</time></trkpt>
<trkpt lat="46.357577" lon="11.846739"><ele>1438.0</ele><time>2017-08-03T03:33:37Z</time></trkpt>
<trkpt lat="46.357945" lon="11.846316"><ele>1456.0</ele><time>2017-08-03T03:33:39Z</time></trkpt>
<trkpt lat="46.358004" lon="11.846268"><ele>1456.0</ele><time>2017-08-03T03:33:40Z</time></trkpt>
<trkpt lat="46.358126" lon="11.846256"><ele>1456.0</ele><time>2017-08-03T03:33:40Z</time></trkpt>
<trkpt lat="46.358304" lon="11.846377"><ele>1456.0</ele><time>2017-08-03T03:33:41Z</time></trkpt>
<trkpt lat="46.358417" lon="11.846397"><ele>1435.0</ele><time>2017-08-03T03:33:42Z</time></trkpt>
<trkpt lat="46.35863" lon="11.846222"><ele>1435.0</ele><time>2017-08-03T03:33:43Z</time></trkpt>
<trkpt lat="46.35895" lon="11.846137"><ele>1435.0</ele><time>2017-08-03T03:33:45Z</time></trkpt>
<trkpt lat="46.359002" lon="11.846081"><ele>1435.0</ele><time>2017-08-03T03:33:45Z</time></trkpt>
<trkpt lat="46.359063" lon="11.845958"><ele>1435.0</ele><time>2017-08-03T03:33:46Z</time></trkpt>
<trkpt lat="46.359154" lon="11.845652"><ele>1454.0</ele><time>2017-08-03T03:33:47Z</time></trkpt>
<trkpt lat="46.359259" lon="11.845477"><ele>1413.0</ele><time>2017-08-03T03:33:49Z</time></trkpt>
<trkpt lat="46.359521" lon="11.845324"><ele>1413.0</ele><time>2017-08-03T03:33:51Z</time></trkpt>
<trkpt lat="46.359663" lon="11.84521"><ele>1413.0</ele><time>2017-08-03T03:33:52Z</time></trkpt>
<trkpt lat="46.359909" lon="11.84493"><ele>1429.0</ele><time>2017-08-03T03:33:53Z</time></trkpt>
<trkpt lat="46.360217" lon="11.844628"><ele>1405.0</ele><time>2017-08-03T03:34:03Z</time></trkpt>
<trkpt lat="46.360211" lon="11.844619"><ele>1405.0</ele><time>2017-08-03T03:34:03Z</time></trkpt>
<trkpt lat="46.360211" lon="11.844619"><ele>1405.0</ele><time>2017-08-03T03:34:03Z</time></trkpt>
<trkpt lat="46.360188" lon="11.844588"><ele>1405.0</ele><time>2017-08-03T03:34:03Z</time></trkpt>
<trkpt lat="46.360174" lon="11.84448"><ele>1405.0</ele><time>2017-08-03T03:34:03Z</time></trkpt>
<trkpt lat="46.360191" lon="11.844416"><ele>1405.0</ele><time>2017-08-03T03:34:04Z</time></trkpt>
<trkpt lat="46.360435" lon="11.844044"><ele>1429.0</ele><time>2017-08-03T03:34:06Z</time></trkpt>
<trkpt lat="46.360547" lon="11.843796"><ele>1429.0</ele><time>2017-08-03T03:34:07Z</time></trkpt>
<trkpt lat="46.360691" lon="11.843251"><ele>1457.0</ele><time>2017-08-03T03:34:10Z</time></trkpt>
<trkpt lat="46.360826" lon="11.843091"><ele>1457.0</ele><time>2017-08-03T03:34:11Z</time></trkpt>
<trkpt lat="46.360981" lon="11.843003"><ele>1434.0</ele><time>2017-08-03T03:34:12Z</time></trkpt>
<trkpt lat="46.361061" lon="11.842905"><ele>1434.0</ele><time>2017-08-03T03:34:13Z</time></trkpt>
<trkpt lat="46.361204" lon="11.842674"><ele>1434.0</ele><time>2017-08-03T03:34:14Z</time></trkpt>
<trkpt lat="46.361971" lon="11.840955"><ele>1450.0</ele><time>2017-08-03T03:34:22Z</time></trkpt>
<trkpt lat="46.361978" lon="11.840891"><ele>1450.0</ele><time>2017-08-03T03:34:22Z</time></trkpt>
<trkpt lat="46.361955" lon="11.840782"><ele>1466.0</ele><time>2017-08-03T03:34:23Z</time></trkpt>
<trkpt lat="46.361893" lon="11.840736"><ele>1466.0</ele><time>2017-08-03T03:34:23Z</time></trkpt>
<trkpt lat="46.361851" lon="11.840748"><ele>1466.0</ele><time>2017-08-03T03:34:24Z</time></trkpt>
<trkpt lat="46.36158" lon="11.841167"><ele>1461.0</ele><time>2017-08-03T03:34:26Z</time></trkpt>
<trkpt lat="46.361532" lon="11.841205"><ele>1461.0</ele><time>2017-08-03T03:34:26Z</time></trkpt>
<trkpt lat="46.361497" lon="11.841207"><ele>1461.0</ele><time>2017-08-03T03:34:26Z</time></trkpt>
<trkpt lat="46.36147" lon="11.84118"><ele>1461.0</ele><time>2017-08-03T03:34:27Z</time></trkpt>
<trkpt lat="46.361452" lon="11.841087"><ele>1461.0</ele><time>2017-08-03T03:34:27Z</time></trkpt>
<trkpt lat="46.361471" lon="11.841028"><ele>1461.0</ele><time>2017-08-03T03:34:27Z</time></trkpt>
<trkpt lat="46.36156" lon="11.84092"><ele>1461.0</ele><time>2017-08-03T03:34:28Z</time></trkpt>
<trkpt lat="46.361654" lon="11.840706"><ele>1479.0</ele><time>2017-08-03T03:34:29Z</time></trkpt>
<trkpt lat="46.36168" lon="11.840596"><ele>1466.0</ele><time>2017-08-03T03:34:30Z</time></trkpt>
<trkpt lat="46.361685" lon="11.840495"><ele>1466.0</ele><time>2017-08-03T03:34:30Z</time></trkpt>
<trkpt lat="46.361668" lon="11.840392"><ele>1466.0</ele><time>2017-08-03T03:34:31Z</time></trkpt>
<trkpt lat="46.361594" lon="11.840107"><ele>1479.0</ele><time>2017-08-03T03:34:32Z</time></trkpt>
<trkpt lat="46.361625" lon="11.839979"><ele>1502.0</ele><time>2017-08-03T03:34:33Z</time></trkpt>
<trkpt lat="46.361658" lon="11.839956"><ele>1502.0</ele><time>2017-08-03T03:34:34Z</time></trkpt>
<trkpt lat="46.361828" lon="11.839965"><ele>1482.0</ele><time>2017-08-03T03:34:35Z</time></trkpt>
<trkpt lat="46.361873" lon="11.839942"><ele>1482.0</ele><time>2017-08-03T03:34:35Z</time></trkpt>
<trkpt lat="46.36191" lon="11.839889"><ele>1482.0</ele><time>2017-08-03T03:34:35Z</time></trkpt>
<trkpt lat="46.362003" lon="11.83967"><ele>1482.0</ele><time>2017-08-03T03:34:36Z</time></trkpt>
<trkpt lat="46.362252" lon="11.83935"><ele>1482.0</ele><time>2017-08-03T03:34:38Z</time></trkpt>
<trkpt lat="46.362406" lon="11.839038"><ele>1502.0</ele><time>2017-08-03T03:34:40Z</time></trkpt>
<trkpt lat="46.362579" lon="11.838589"><ele>1492.0</ele><time>2017-08-03T03:34:42Z</time></trkpt>
<trkpt lat="46.362619" lon="11.83852"><ele>1492.0</ele><time>2017-08-03T03:34:42Z</time></trkpt>
<trkpt lat="46.362673" lon="11.838463"><ele>1492.0</ele><time>2017-08-03T03:34:43Z</time></trkpt>
<trkpt lat="46.362731" lon="11.838432"><ele>1492.0</ele><time>2017-08-03T03:34:43Z</time></trkpt>
<trkpt lat="46.362938" lon="11.838428"><ele>1492.0</ele><time>2017-08-03T03:34:44Z</time></trkpt>
<trkpt lat="46.363106" lon="11.83837"><ele>1492.0</ele><time>2017-08-03T03:34:45Z</time></trkpt>
<trkpt lat="46.363273" lon="11.838207"><ele>1513.0</ele><time>2017-08-03T03:34:47Z</time></trkpt>
<trkpt lat="46.363361" lon="11.838073"><ele>1508.0</ele><time>2017-08-03T03:34:48Z</time></trkpt>
<trkpt lat="46.363372" lon="11.837993"><ele>1508.0</ele><time>2017-08-03T03:34:48Z</time></trkpt>
<trkpt lat="46.36333" lon="11.837907"><ele>1513.0</ele><time>2017-08-03T03:34:48Z</time></trkpt>
<trkpt lat="46.363075" lon="11.837861"><ele>1513.0</ele><time>2017-08-03T03:34:50Z</time></trkpt>
<trkpt lat="46.36299" lon="11.837796"><ele>1513.0</ele><time>2017-08-03T03:34:50Z</time></trkpt>
<trkpt lat="46.362962" lon="11.837704"><ele>1513.0</ele><time>2017-08-03T03:34:51Z</time></trkpt>
<trkpt lat="46.362981" lon="11.837592"><ele>1513.0</ele><time>2017-08-03T03:34:51Z</time></trkpt>
<trkpt lat="46.363012" lon="11.837558"><ele>1513.0</ele><time>2017-08-03T03:34:51Z</time></trkpt>
<trkpt lat="46.363222" lon="11.837498"><ele>1532.0</ele><time>2017-08-03T03:34:53Z</time></trkpt>
<trkpt lat="46.36379" lon="11.837131"><ele>1527.0</ele><time>2017-08-03T03:34:56Z</time></trkpt>
<trkpt lat="46.363857" lon="11.837051"><ele>1527.0</ele><time>2017-08-03T03:34:57Z</time></trkpt>
<trkpt lat="46.363863" lon="11.836971"><ele>1527.0</ele><time>2017-08-03T03:34:57Z</time></trkpt>
<trkpt lat="46.363829" lon="11.836914"><ele>1527.0</ele><time>2017-08-03T03:34:57Z</time></trkpt>
<trkpt lat="46.363611" lon="11.836856"><ele>1527.0</ele><time>2017-08-03T03:34:59Z</time></trkpt>
<trkpt lat="46.363501" lon="11.836789"><ele>1527.0</ele><time>2017-08-03T03:34:59Z</time></trkpt>
<trkpt lat="46.363266" lon="11.836533"><ele>1551.0</ele><time>2017-08-03T03:35:01Z</time></trkpt>
<trkpt lat="46.363191" lon="11.836421"><ele>1551.0</ele><time>2017-08-03T03:35:02Z</time></trkpt>
<trkpt lat="46.363165" lon="11.836339"><ele>1551.0</ele><time>2017-08-03T03:35:02Z</time></trkpt>
<trkpt lat="46.363163" lon="11.836248"><ele>1551.0</ele><time>2017-08-03T03:35:03Z</time></trkpt>
<trkpt lat="46.363184" lon="11.836149"><ele>1551.0</ele><time>2017-08-03T03:35:03Z</time></trkpt>
<trkpt lat="46.363234" lon="11.836074"><ele>1551.0</ele><time>2017-08-03T03:35:03Z</time></trkpt>
<trkpt lat="46.363299" lon="11.836032"><ele>1551.0</ele><time>2017-08-03T03:35:04Z</time></trkpt>
<trkpt lat="46.363519" lon="11.835983"><ele>1544.0</ele><time>2017-08-03T03:35:05Z</time></trkpt>
<trkpt lat="46.363586" lon="11.835943"><ele>1544.0</ele><time>2017-08-03T03:35:06Z</time></trkpt>
<trkpt lat="46.363716" lon="11.835736"><ele>1557.0</ele><time>2017-08-03T03:35:07Z</time></trkpt>
<trkpt lat="46.363897" lon="11.835256"><ele>1557.0</ele><time>2017-08-03T03:35:09Z</time></trkpt>
<trkpt lat="46.363944" lon="11.835183"><ele>1557.0</ele><time>2017-08-03T03:35:09Z</time></trkpt>
<trkpt lat="46.364011" lon="11.835119"><ele>1557.0</ele><time>2017-08-03T03:35:10Z</time></trkpt>
<trkpt lat="46.364411" lon="11.834925"><ele>1567.0</ele><time>2017-08-03T03:35:12Z</time></trkpt>
<trkpt lat="46.364537" lon="11.834819"><ele>1567.0</ele><time>2017-08-03T03:35:13Z</time></trkpt>
<trkpt lat="46.364651" lon="11.834697"><ele>1567.0</ele><time>2017-08-03T03:35:14Z</time></trkpt>
<trkpt lat="46.365255" lon="11.833899"><ele>1559.0</ele><time>2017-08-03T03:35:18Z</time></trkpt>
<trkpt lat="46.365287" lon="11.833851"><ele>1559.0</ele><time>2017-08-03T03:35:19Z</time></trkpt>
<trkpt lat="46.365304" lon="11.833787"><ele>1559.0</ele><time>2017-08-03T03:35:19Z</time></trkpt>
<trkpt lat="46.3653" lon="11.833726"><ele>1559.0</ele><time>2017-08-03T03:35:19Z</time></trkpt>
<trkpt lat="46.365276" lon="11.83368"><ele>1559.0</ele><time>2017-08-03T03:35:19Z</time></trkpt>
<trkpt lat="46.365234" lon="11.833663"><ele>1559.0</ele><time>2017-08-03T03:35:20Z</time></trkpt>
<trkpt lat="46.365195" lon="11.833677"><ele>1559.0</ele><time>2017-08-03T03:35:20Z</time></trkpt>
<trkpt lat="46.364873" lon="11.833941"><ele>1586.0</ele><time>2017-08-03T03:35:22Z</time></trkpt>
<trkpt lat="46.36478" lon="11.833955"><ele>1586.0</ele><time>2017-08-03T03:35:23Z</time></trkpt>
<trkpt lat="46.364755" lon="11.833925"><ele>1586.0</ele><time>2017-08-03T03:35:23Z</time></trkpt>
<trkpt lat="46.364744" lon="11.833875"><ele>1586.0</ele><time>2017-08-03T03:35:23Z</time></trkpt>
<trkpt lat="46.364754" lon="11.833824"><ele>1586.0</ele><time>2017-08-03T03:35:23Z</time></trkpt>
<trkpt lat="46.364871" lon="11.833702"><ele>1586.0</ele><time>2017-08-03T03:35:24Z</time></trkpt>
<trkpt lat="46.365124" lon="11.833353"><ele>1559.0</ele><time>2017-08-03T03:35:26Z</time></trkpt>
<trkpt lat="46.365206" lon="11.833212"><ele>1583.0</ele><time>2017-08-03T03:35:28Z</time></trkpt>
<trkpt lat="46.365665" lon="11.832159"><ele>1600.0</ele><time>2017-08-03T03:35:33Z</time></trkpt>
<trkpt lat="46.365903" lon="11.831776"><ele>1589.0</ele><time>2017-08-03T03:35:35Z</time></trkpt>
<trkpt lat="46.366201" lon="11.831356"><ele>1603.0</ele><time>2017-08-03T03:35:37Z</time></trkpt>
<trkpt lat="46.366488" lon="11.8308"><ele>1626.0</ele><time>2017-08-03T03:35:40Z</time></trkpt>
<trkpt lat="46.366691" lon="11.830459"><ele>1622.0</ele><time>2017-08-03T03:35:42Z</time></trkpt>
<trkpt lat="46.367286" lon="11.829766"><ele>1646.0</ele><time>2017-08-03T03:35:46Z</time></trkpt>
<trkpt lat="46.367419" lon="11.829722"><ele>1646.0</ele><time>2017-08-03T03:35:47Z</time></trkpt>
<trkpt lat="46.367625" lon="11.8297"><ele>1642.0</ele><time>2017-08-03T03:35:48Z</time></trkpt>
<trkpt lat="46.367669" lon="11.829672"><ele>1642.0</ele><time>2017-08-03T03:35:48Z</time></trkpt>
<trkpt lat="46.367696" lon="11.829626"><ele>1642.0</ele><time>2017-08-03T03:35:49Z</time></trkpt>
<trkpt lat="46.367707" lon="11.829514"><ele>1642.0</ele><time>2017-08-03T03:35:49Z</time></trkpt>
<trkpt lat="46.367689" lon="11.829464"><ele>1642.0</ele><time>2017-08-03T03:35:49Z</time></trkpt>
<trkpt lat="46.367661" lon="11.829441"><ele>1642.0</ele><time>2017-08-03T03:35:49Z</time></trkpt>
<trkpt lat="46.367328" lon="11.829307"><ele>1646.0</ele><time>2017-08-03T03:35:51Z</time></trkpt>
<trkpt lat="46.367123" lon="11.82928"><ele>1646.0</ele><time>2017-08-03T03:35:53Z</time></trkpt>
<trkpt lat="46.367063" lon="11.82921"><ele>1646.0</ele><time>2017-08-03T03:35:53Z</time></trkpt>
<trkpt lat="46.367072" lon="11.82912"><ele>1670.0</ele><time>2017-08-03T03:35:54Z</time></trkpt>
<trkpt lat="46.3671" lon="11.829085"><ele>1670.0</ele><time>2017-08-03T03:35:54Z</time></trkpt>
<trkpt lat="46.367503" lon="11.828974"><ele>1656.0</ele><time>2017-08-03T03:35:57Z</time></trkpt>
<trkpt lat="46.367648" lon="11.828907"><ele>1656.0</ele><time>2017-08-03T03:35:58Z</time></trkpt>
<trkpt lat="46.367771" lon="11.828828"><ele>1656.0</ele><time>2017-08-03T03:35:58Z</time></trkpt>
<trkpt lat="46.367956" lon="11.82866"><ele>1656.0</ele><time>2017-08-03T03:36:00Z</time></trkpt>
<trkpt lat="46.368186" lon="11.82842"><ele>1656.0</ele><time>2017-08-03T03:36:01Z</time></trkpt>
<trkpt lat="46.368981" lon="11.82737"><ele>1686.0</ele><time>2017-08-03T03:36:07Z</time></trkpt>
<trkpt lat="46.36961" lon="11.826657"><ele>1694.0</ele><time>2017-08-03T03:36:12Z</time></trkpt>
<trkpt lat="46.369774" lon="11.826502"><ele>1694.0</ele><time>2017-08-03T03:36:13Z</time></trkpt>
<trkpt lat="46.370144" lon="11.826233"><ele>1686.0</ele><time>2017-08-03T03:36:15Z</time></trkpt>
<trkpt lat="46.370237" lon="11.8261"><ele>1686.0</ele><time>2017-08-03T03:36:16Z</time></trkpt>
<trkpt lat="46.370857" lon="11.824969"><ele>1708.0</ele><time>2017-08-03T03:36:22Z</time></trkpt>
<trkpt lat="46.370951" lon="11.824815"><ele>1708.0</ele><time>2017-08-03T03:36:22Z</time></trkpt>
<trkpt lat="46.371044" lon="11.824708"><ele>1708.0</ele><time>2017-08-03T03:36:23Z</time></trkpt>
<trkpt lat="46.371203" lon="11.824612"><ele>1708.0</ele><time>2017-08-03T03:36:24Z</time></trkpt>
<trkpt lat="46.371535" lon="11.824472"><ele>1708.0</ele><time>2017-08-03T03:36:26Z</time></trkpt>
<trkpt lat="46.371783" lon="11.824302"><ele>1709.0</ele><time>2017-08-03T03:36:27Z</time></trkpt>
<trkpt lat="46.371992" lon="11.824062"><ele>1721.0</ele><time>2017-08-03T03:36:29Z</time></trkpt>
<trkpt lat="46.372561" lon="11.823334"><ele>1719.0</ele><time>2017-08-03T03:36:33Z</time></trkpt>
<trkpt lat="46.372967" lon="11.823014"><ele>1732.0</ele><time>2017-08-03T03:36:36Z</time></trkpt>
<trkpt lat="46.373393" lon="11.82256"><ele>1726.0</ele><time>2017-08-03T03:36:39Z</time></trkpt>
<trkpt lat="46.373571" lon="11.82243"><ele>1737.0</ele><time>2017-08-03T03:36:40Z</time></trkpt>
<trkpt lat="46.374316" lon="11.822055"><ele>1735.0</ele><time>2017-08-03T03:36:45Z</time></trkpt>
<trkpt lat="46.374655" lon="11.821748"><ele>1735.0</ele><time>2017-08-03T03:36:47Z</time></trkpt>
<trkpt lat="46.375016" lon="11.821552"><ele>1749.0</ele><time>2017-08-03T03:36:49Z</time></trkpt>
<trkpt lat="46.375354" lon="11.821332"><ele>1749.0</ele><time>2017-08-03T03:36:51Z</time></trkpt>
<trkpt lat="46.375761" lon="11.820916"><ele>1749.0</ele><time>2017-08-03T03:36:54Z</time></trkpt>
<trkpt lat="46.376404" lon="11.820427"><ele>1752.0</ele><time>2017-08-03T03:36:58Z</time></trkpt>
<trkpt lat="46.376837" lon="11.820253"><ele>1751.0</ele><time>2017-08-03T03:37:00Z</time></trkpt>
<trkpt lat="46.377592" lon="11.820029"><ele>1758.0</ele><time>2017-08-03T03:37:05Z</time></trkpt>
<trkpt lat="46.377729" lon="11.819944"><ele>1755.0</ele><time>2017-08-03T03:37:06Z</time></trkpt>
<trkpt lat="46.377895" lon="11.819799"><ele>1755.0</ele><time>2017-08-03T03:37:07Z</time></trkpt>
<trkpt lat="46.378062" lon="11.819622"><ele>1755.0</ele><time>2017-08-03T03:37:08Z</time></trkpt>
<trkpt lat="46.378176" lon="11.819449"><ele>1755.0</ele><time>2017-08-03T03:37:09Z</time></trkpt>
<trkpt lat="46.378399" lon="11.819001"><ele>1782.0</ele><time>2017-08-03T03:37:11Z</time></trkpt>
<trkpt lat="46.378557" lon="11.818637"><ele>1782.0</ele><time>2017-08-03T03:37:13Z</time></trkpt>
<trkpt lat="46.37864" lon="11.818336"><ele>1782.0</ele><time>2017-08-03T03:37:14Z</time></trkpt>
<trkpt lat="46.378807" lon="11.817426"><ele>1784.0</ele><time>2017-08-03T03:37:18Z</time></trkpt>
<trkpt lat="46.378849" lon="11.817047"><ele>1784.0</ele><time>2017-08-03T03:37:19Z</time></trkpt>
<trkpt lat="46.378885" lon="11.816309"><ele>1789.0</ele><time>2017-08-03T03:37:22Z</time></trkpt>
<trkpt lat="46.378894" lon="11.815412"><ele>1796.0</ele><time>2017-08-03T03:37:25Z</time></trkpt>
<trkpt lat="46.378832" lon="11.812442"><ele>1828.0</ele><time>2017-08-03T03:37:37Z</time></trkpt>
<trkpt lat="46.378913" lon="11.811046"><ele>1831.0</ele><time>2017-08-03T03:37:42Z</time></trkpt>
<trkpt lat="46.378921" lon="11.810386"><ele>1834.0</ele><time>2017-08-03T03:37:45Z</time></trkpt>
<trkpt lat="46.378934" lon="11.81021"><ele>1834.0</ele><time>2017-08-03T03:37:46Z</time></trkpt>
<trkpt lat="46.379312" lon="11.807969"><ele>1873.0</ele><time>2017-08-03T03:37:55Z</time></trkpt>
<trkpt lat="46.37928" lon="11.805489"><ele>1893.0</ele><time>2017-08-03T03:38:04Z</time></trkpt>
<trkpt lat="46.379104" lon="11.803712"><ele>1872.0</ele><time>2017-08-03T03:38:11Z</time></trkpt>
<trkpt lat="46.379097" lon="11.803392"><ele>1872.0</ele><time>2017-08-03T03:38:12Z</time></trkpt>
<trkpt lat="46.37917" lon="11.802194"><ele>1910.0</ele><time>2017-08-03T03:38:17Z</time></trkpt>
<trkpt lat="46.379174" lon="11.801959"><ele>1910.0</ele><time>2017-08-03T03:38:18Z</time></trkpt>
<trkpt lat="46.379133" lon="11.80162"><ele>1893.0</ele><time>2017-08-03T03:38:20Z</time></trkpt>
<trkpt lat="46.378427" lon="11.798815"><ele>1915.0</ele><time>2017-08-03T03:38:31Z</time></trkpt>
<trkpt lat="46.378367" lon="11.798505"><ele>1915.0</ele><time>2017-08-03T03:38:33Z</time></trkpt>
<trkpt lat="46.378344" lon="11.798237"><ele>1920.0</ele><time>2017-08-03T03:38:34Z</time></trkpt>
<trkpt lat="46.378348" lon="11.797897"><ele>1920.0</ele><time>2017-08-03T03:38:35Z</time></trkpt>
<trkpt lat="46.37846" lon="11.796859"><ele>1918.0</ele><time>2017-08-03T03:38:39Z</time></trkpt>
<trkpt lat="46.378473" lon="11.79663"><ele>1916.0</ele><time>2017-08-03T03:38:40Z</time></trkpt>
<trkpt lat="46.378428" lon="11.794741"><ele>1916.0</ele><time>2017-08-03T03:38:47Z</time></trkpt>
<trkpt lat="46.378409" lon="11.794535"><ele>1916.0</ele><time>2017-08-03T03:38:48Z</time></trkpt>
<trkpt lat="46.378277" lon="11.793646"><ele>1913.0</ele><time>2017-08-03T03:38:51Z</time></trkpt>
<trkpt lat="46.378264" lon="11.793427"><ele>1913.0</ele><time>2017-08-03T03:38:52Z</time></trkpt>
<trkpt lat="46.378262" lon="11.79323"><ele>1917.0</ele><time>2017-08-03T03:38:53Z</time></trkpt>
<trkpt lat="46.378357" lon="11.79172"><ele>1927.0</ele><time>2017-08-03T03:38:59Z</time></trkpt>
<trkpt lat="46.378357" lon="11.791128"><ele>1928.0</ele><time>2017-08-03T03:39:01Z</time></trkpt>
<trkpt lat="46.378318" lon="11.790699"><ele>1921.0</ele><time>2017-08-03T03:39:03Z</time></trkpt>
<trkpt lat="46.378041" lon="11.788797"><ele>1914.0</ele><time>2017-08-03T03:39:10Z</time></trkpt>
<trkpt lat="46.378035" lon="11.788591"><ele>1914.0</ele><time>2017-08-03T03:39:11Z</time></trkpt>
<trkpt lat="46.37809" lon="11.788187"><ele>1909.0</ele><time>2017-08-03T03:39:13Z</time></trkpt>
<trkpt lat="46.378324" lon="11.787191"><ele>1904.0</ele><time>2017-08-03T03:39:17Z</time></trkpt>
<trkpt lat="46.378467" lon="11.786841"><ele>1914.0</ele><time>2017-08-03T03:39:18Z</time></trkpt>
<trkpt lat="46.37888" lon="11.785984"><ele>1910.0</ele><time>2017-08-03T03:39:22Z</time></trkpt>
<trkpt lat="46.378915" lon="11.785798"><ele>1904.0</ele><time>2017-08-03T03:39:23Z</time></trkpt>
<trkpt lat="46.37892" lon="11.785572"><ele>1904.0</ele><time>2017-08-03T03:39:24Z</time></trkpt>
<trkpt lat="46.37846" lon="11.781471"><ele>1898.0</ele><time>2017-08-03T03:39:40Z</time></trkpt>
<trkpt lat="46.37841" lon="11.781115"><ele>1898.0</ele><time>2017-08-03T03:39:41Z</time></trkpt>
<trkpt lat="46.378349" lon="11.780871"><ele>1898.0</ele><time>2017-08-03T03:39:42Z</time></trkpt>
<trkpt lat="46.377868" lon="11.779363"><ele>1884.0</ele><time>2017-08-03T03:39:49Z</time></trkpt>
<trkpt lat="46.377767" lon="11.778857"><ele>1879.0</ele><time>2017-08-03T03:39:51Z</time></trkpt>
<trkpt lat="46.37774" lon="11.778621"><ele>1879.0</ele><time>2017-08-03T03:39:52Z</time></trkpt>
<trkpt lat="46.377718" lon="11.778176"><ele>1876.0</ele><time>2017-08-03T03:39:53Z</time></trkpt>
<trkpt lat="46.377763" lon="11.777063"><ele>1874.0</ele><time>2017-08-03T03:39:58Z</time></trkpt>
<trkpt lat="46.378081" lon="11.771461"><ele>1837.0</ele><time>2017-08-03T03:40:19Z</time></trkpt>
<trkpt lat="46.378091" lon="11.77004"><ele>1834.0</ele><time>2017-08-03T03:40:25Z</time></trkpt>
<trkpt lat="46.378032" lon="11.767462"><ele>1824.0</ele><time>2017-08-03T03:40:35Z</time></trkpt>
<trkpt lat="46.378085" lon="11.76658"><ele>1826.0</ele><time>2017-08-03T03:40:38Z</time></trkpt>
<trkpt lat="46.37807" lon="11.766106"><ele>1826.0</ele><time>2017-08-03T03:40:40Z</time></trkpt>
<trkpt lat="46.378027" lon="11.765684"><ele>1828.0</ele><time>2017-08-03T03:40:42Z</time></trkpt>
<trkpt lat="46.377521" lon="11.762572"><ele>1831.0</ele><time>2017-08-03T03:40:54Z</time></trkpt>
<trkpt lat="46.377367" lon="11.76193"><ele>1809.0</ele><time>2017-08-03T03:40:57Z</time></trkpt>
<trkpt lat="46.377018" lon="11.760687"><ele>1818.0</ele><time>2017-08-03T03:41:02Z</time></trkpt>
<trkpt lat="46.376979" lon="11.760458"><ele>1818.0</ele><time>2017-08-03T03:41:03Z</time></trkpt>
<trkpt lat="46.376745" lon="11.758581"><ele>1817.0</ele><time>2017-08-03T03:41:10Z</time></trkpt>
<trkpt lat="46.376627" lon="11.758244"><ele>1802.0</ele><time>2017-08-03T03:41:12Z</time></trkpt>
<trkpt lat="46.376464" lon="11.757975"><ele>1802.0</ele><time>2017-08-03T03:41:13Z</time></trkpt>
<trkpt lat="46.375966" lon="11.757444"><ele>1809.0</ele><time>2017-08-03T03:41:17Z</time></trkpt>
<trkpt lat="46.375757" lon="11.756971"><ele>1797.0</ele><time>2017-08-03T03:41:19Z</time></trkpt>
<trkpt lat="46.375313" lon="11.755407"><ele>1801.0</ele><time>2017-08-03T03:41:25Z</time></trkpt>
<trkpt lat="46.375026" lon="11.753735"><ele>1799.0</ele><time>2017-08-03T03:41:32Z</time></trkpt>
<trkpt lat="46.374754" lon="11.751985"><ele>1768.0</ele><time>2017-08-03T03:41:39Z</time></trkpt>
<trkpt lat="46.374557" lon="11.750518"><ele>1765.0</ele><time>2017-08-03T03:41:45Z</time></trkpt>
<trkpt lat="46.374323" lon="11.748943"><ele>1761.0</ele><time>2017-08-03T03:41:51Z</time></trkpt>
<trkpt lat="46.374305" lon="11.747327"><ele>1748.0</ele><time>2017-08-03T03:41:57Z</time></trkpt>
<trkpt lat="46.374286" lon="11.746954"><ele>1748.0</ele><time>2017-08-03T03:41:59Z</time></trkpt>
<trkpt lat="46.374242" lon="11.746671"><ele>1748.0</ele><time>2017-08-03T03:42:00Z</time></trkpt>
<trkpt lat="46.374162" lon="11.746332"><ele>1731.0</ele><time>2017-08-03T03:42:01Z</time></trkpt>
<trkpt lat="46.374057" lon="11.746011"><ele>1731.0</ele><time>2017-08-03T03:42:03Z</time></trkpt>
<trkpt lat="46.373078" lon="11.743526"><ele>1719.0</ele><time>2017-08-03T03:42:14Z</time></trkpt>
<trkpt lat="46.37291" lon="11.742965"><ele>1719.0</ele><time>2017-08-03T03:42:16Z</time></trkpt>
<trkpt lat="46.372778" lon="11.742322"><ele>1714.0</ele><time>2017-08-03T03:42:19Z</time></trkpt>
<trkpt lat="46.372544" lon="11.740601"><ele>1713.0</ele><time>2017-08-03T03:42:25Z</time></trkpt>
<trkpt lat="46.372351" lon="11.73995"><ele>1697.0</ele><time>2017-08-03T03:42:28Z</time></trkpt>
<trkpt lat="46.372116" lon="11.739535"><ele>1697.0</ele><time>2017-08-03T03:42:30Z</time></trkpt>
<trkpt lat="46.370996" lon="11.737938"><ele>1697.0</ele><time>2017-08-03T03:42:39Z</time></trkpt>
<trkpt lat="46.370587" lon="11.737064"><ele>1688.0</ele><time>2017-08-03T03:42:43Z</time></trkpt>
<trkpt lat="46.370298" lon="11.736181"><ele>1691.0</ele><time>2017-08-03T03:42:47Z</time></trkpt>
<trkpt lat="46.369624" lon="11.733355"><ele>1668.0</ele><time>2017-08-03T03:42:58Z</time></trkpt>
<trkpt lat="46.369476" lon="11.731592"><ele>1655.0</ele><time>2017-08-03T03:43:05Z</time></trkpt>
<trkpt lat="46.369422" lon="11.729837"><ele>1667.0</ele><time>2017-08-03T03:43:12Z</time></trkpt>
<trkpt lat="46.369383" lon="11.72958"><ele>1667.0</ele><time>2017-08-03T03:43:13Z</time></trkpt>
<trkpt lat="46.36929" lon="11.729259"><ele>1667.0</ele><time>2017-08-03T03:43:14Z</time></trkpt>
<trkpt lat="46.369105" lon="11.728898"><ele>1652.0</ele><time>2017-08-03T03:43:16Z</time></trkpt>
<trkpt lat="46.368514" lon="11.728216"><ele>1664.0</ele><time>2017-08-03T03:43:20Z</time></trkpt>
<trkpt lat="46.367939" lon="11.727469"><ele>1651.0</ele><time>2017-08-03T03:43:25Z</time></trkpt>
<trkpt lat="46.367649" lon="11.726963"><ele>1651.0</ele><time>2017-08-03T03:43:27Z</time></trkpt>
<trkpt lat="46.367518" lon="11.726665"><ele>1655.0</ele><time>2017-08-03T03:43:29Z</time></trkpt>
<trkpt lat="46.367063" lon="11.725041"><ele>1646.0</ele><time>2017-08-03T03:43:35Z</time></trkpt>
<trkpt lat="46.367001" lon="11.724492"><ele>1640.0</ele><time>2017-08-03T03:43:37Z</time></trkpt>
<trkpt lat="46.367009" lon="11.724145"><ele>1636.0</ele><time>2017-08-03T03:43:39Z</time></trkpt>
<trkpt lat="46.367057" lon="11.723732"><ele>1636.0</ele><time>2017-08-03T03:43:40Z</time></trkpt>
<trkpt lat="46.367022" lon="11.723447"><ele>1636.0</ele><time>2017-08-03T03:43:42Z</time></trkpt>
<trkpt lat="46.366705" lon="11.722327"><ele>1624.0</ele><time>2017-08-03T03:43:46Z</time></trkpt>
<trkpt lat="46.36663" lon="11.721899"><ele>1605.0</ele><time>2017-08-03T03:43:48Z</time></trkpt>
<trkpt lat="46.366613" lon="11.720687"><ele>1592.0</ele><time>2017-08-03T03:43:53Z</time></trkpt>
<trkpt lat="46.366639" lon="11.720495"><ele>1592.0</ele><time>2017-08-03T03:43:54Z</time></trkpt>
<trkpt lat="46.366697" lon="11.720313"><ele>1632.0</ele><time>2017-08-03T03:43:56Z</time></trkpt>
<trkpt lat="46.366864" lon="11.719926"><ele>1632.0</ele><time>2017-08-03T03:43:57Z</time></trkpt>
<trkpt lat="46.366918" lon="11.719696"><ele>1632.0</ele><time>2017-08-03T03:43:58Z</time></trkpt>
<trkpt lat="46.366921" lon="11.719485"><ele>1632.0</ele><time>2017-08-03T03:43:59Z</time></trkpt>
<trkpt lat="46.366779" lon="11.718486"><ele>1634.0</ele><time>2017-08-03T03:44:03Z</time></trkpt>
<trkpt lat="46.366619" lon="11.717974"><ele>1585.0</ele><time>2017-08-03T03:44:06Z</time></trkpt>
<trkpt lat="46.366599" lon="11.717819"><ele>1585.0</ele><time>2017-08-03T03:44:07Z</time></trkpt>
<trkpt lat="46.366599" lon="11.716646"><ele>1578.0</ele><time>2017-08-03T03:44:12Z</time></trkpt>
<trkpt lat="46.366544" lon="11.716177"><ele>1578.0</ele><time>2017-08-03T03:44:13Z</time></trkpt>
<trkpt lat="46.366535" lon="11.714448"><ele>1569.0</ele><time>2017-08-03T03:44:20Z</time></trkpt>
<trkpt lat="46.366629" lon="11.713815"><ele>1563.0</ele><time>2017-08-03T03:44:22Z</time></trkpt>
<trkpt lat="46.366632" lon="11.713577"><ele>1563.0</ele><time>2017-08-03T03:44:23Z</time></trkpt>
<trkpt lat="46.366554" lon="11.712402"><ele>1557.0</ele><time>2017-08-03T03:44:28Z</time></trkpt>
<trkpt lat="46.366496" lon="11.712159"><ele>1557.0</ele><time>2017-08-03T03:44:29Z</time></trkpt>
<trkpt lat="46.366331" lon="11.711787"><ele>1557.0</ele><time>2017-08-03T03:44:31Z</time></trkpt>
<trkpt lat="46.366013" lon="11.711244"><ele>1563.0</ele><time>2017-08-03T03:44:33Z</time></trkpt>
<trkpt lat="46.365888" lon="11.710939"><ele>1563.0</ele><time>2017-08-03T03:44:35Z</time></trkpt>
<trkpt lat="46.365516" lon="11.709396"><ele>1536.0</ele><time>2017-08-03T03:44:41Z</time></trkpt>
<trkpt lat="46.365498" lon="11.708956"><ele>1526.0</ele><time>2017-08-03T03:44:43Z</time></trkpt>
<trkpt lat="46.365521" lon="11.708622"><ele>1526.0</ele><time>2017-08-03T03:44:44Z</time></trkpt>
<trkpt lat="46.365701" lon="11.707627"><ele>1514.0</ele><time>2017-08-03T03:44:48Z</time></trkpt>
<trkpt lat="46.365996" lon="11.706862"><ele>1535.0</ele><time>2017-08-03T03:44:52Z</time></trkpt>
<trkpt lat="46.366074" lon="11.706519"><ele>1531.0</ele><time>2017-08-03T03:44:53Z</time></trkpt>
<trkpt lat="46.366043" lon="11.705923"><ele>1531.0</ele><time>2017-08-03T03:44:55Z</time></trkpt>
<trkpt lat="46.366156" lon="11.705106"><ele>1520.0</ele><time>2017-08-03T03:44:59Z</time></trkpt>
<trkpt lat="46.366371" lon="11.702889"><ele>1488.0</ele><time>2017-08-03T03:45:07Z</time></trkpt>
<trkpt lat="46.366299" lon="11.702278"><ele>1478.0</ele><time>2017-08-03T03:45:10Z</time></trkpt>
<trkpt lat="46.366175" lon="11.701566"><ele>1471.0</ele><time>2017-08-03T03:45:13Z</time></trkpt>
<trkpt lat="46.366146" lon="11.701162"><ele>1471.0</ele><time>2017-08-03T03:45:14Z</time></trkpt>
<trkpt lat="46.366169" lon="11.700742"><ele>1462.0</ele><time>2017-08-03T03:45:16Z</time></trkpt>
<trkpt lat="46.366382" lon="11.700081"><ele>1462.0</ele><time>2017-08-03T03:45:19Z</time></trkpt>
<trkpt lat="46.366449" lon="11.699756"><ele>1451.0</ele><time>2017-08-03T03:45:20Z</time></trkpt>
<trkpt lat="46.366425" lon="11.699258"><ele>1451.0</ele><time>2017-08-03T03:45:22Z</time></trkpt>
<trkpt lat="46.366133" lon="11.697608"><ele>1451.0</ele><time>2017-08-03T03:45:29Z</time></trkpt>
<trkpt lat="46.366036" lon="11.696251"><ele>1444.0</ele><time>2017-08-03T03:45:34Z</time></trkpt>
<trkpt lat="46.366022" lon="11.695268"><ele>1436.0</ele><time>2017-08-03T03:45:38Z</time></trkpt>
<trkpt lat="46.36597" lon="11.695125"><ele>1436.0</ele><time>2017-08-03T03:45:38Z</time></trkpt>
<trkpt lat="46.36586" lon="11.695014"><ele>1436.0</ele><time>2017-08-03T03:45:39Z</time></trkpt>
<trkpt lat="46.365612" lon="11.694922"><ele>1419.0</ele><time>2017-08-03T03:45:41Z</time></trkpt>
<trkpt lat="46.365476" lon="11.694844"><ele>1419.0</ele><time>2017-08-03T03:45:41Z</time></trkpt>
<trkpt lat="46.365425" lon="11.694732"><ele>1419.0</ele><time>2017-08-03T03:45:42Z</time></trkpt>
<trkpt lat="46.365389" lon="11.694579"><ele>1419.0</ele><time>2017-08-03T03:45:43Z</time></trkpt>
<trkpt lat="46.365428" lon="11.694187"><ele>1419.0</ele><time>2017-08-03T03:45:44Z</time></trkpt>
<trkpt lat="46.365413" lon="11.693772"><ele>1416.0</ele><time>2017-08-03T03:45:46Z</time></trkpt>
<trkpt lat="46.365512" lon="11.692905"><ele>1413.0</ele><time>2017-08-03T03:45:49Z</time></trkpt>
<trkpt lat="46.365548" lon="11.692084"><ele>1418.0</ele><time>2017-08-03T03:45:52Z</time></trkpt>
<trkpt lat="46.365631" lon="11.691749"><ele>1418.0</ele><time>2017-08-03T03:45:54Z</time></trkpt>
<trkpt lat="46.365707" lon="11.691526"><ele>1425.0</ele><time>2017-08-03T03:45:55Z</time></trkpt>
<trkpt lat="46.36599" lon="11.69127"><ele>1401.0</ele><time>2017-08-03T03:45:57Z</time></trkpt>
<trkpt lat="46.36644" lon="11.690942"><ele>1401.0</ele><time>2017-08-03T03:46:00Z</time></trkpt>
<trkpt lat="46.366781" lon="11.690652"><ele>1393.0</ele><time>2017-08-03T03:46:02Z</time></trkpt>
<trkpt lat="46.366852" lon="11.690518"><ele>1393.0</ele><time>2017-08-03T03:46:02Z</time></trkpt>
<trkpt lat="46.366912" lon="11.690345"><ele>1393.0</ele><time>2017-08-03T03:46:03Z</time></trkpt>
<trkpt lat="46.36696" lon="11.690021"><ele>1393.0</ele><time>2017-08-03T03:46:05Z</time></trkpt>
<trkpt lat="46.366964" lon="11.689031"><ele>1370.0</ele><time>2017-08-03T03:46:08Z</time></trkpt>
<trkpt lat="46.367071" lon="11.687913"><ele>1367.0</ele><time>2017-08-03T03:46:13Z</time></trkpt>
<trkpt lat="46.367196" lon="11.687265"><ele>1368.0</ele><time>2017-08-03T03:46:15Z</time></trkpt>
<trkpt lat="46.36725" lon="11.687093"><ele>1368.0</ele><time>2017-08-03T03:46:16Z</time></trkpt>
<trkpt lat="46.367669" lon="11.686349"><ele>1355.0</ele><time>2017-08-03T03:46:20Z</time></trkpt>
<trkpt lat="46.368538" lon="11.68499"><ele>1347.0</ele><time>2017-08-03T03:46:27Z</time></trkpt>
<trkpt lat="46.368666" lon="11.684604"><ele>1347.0</ele><time>2017-08-03T03:46:29Z</time></trkpt>
<trkpt lat="46.368663" lon="11.683987"><ele>1340.0</ele><time>2017-08-03T03:46:31Z</time></trkpt>
<trkpt lat="46.368718" lon="11.683323"><ele>1339.0</ele><time>2017-08-03T03:46:34Z</time></trkpt>
<trkpt lat="46.36926" lon="11.68168"><ele>1335.0</ele><time>2017-08-03T03:46:41Z</time></trkpt>
<trkpt lat="46.369672" lon="11.68035"><ele>1329.0</ele><time>2017-08-03T03:46:46Z</time></trkpt>
<trkpt lat="46.37023" lon="11.679359"><ele>1321.0</ele><time>2017-08-03T03:46:51Z</time></trkpt>
<trkpt lat="46.371629" lon="11.677934"><ele>1318.0</ele><time>2017-08-03T03:47:01Z</time></trkpt>
<trkpt lat="46.371739" lon="11.677654"><ele>1299.0</ele><time>2017-08-03T03:47:02Z</time></trkpt>
<trkpt lat="46.371848" lon="11.67723"><ele>1297.0</ele><time>2017-08-03T03:47:04Z</time></trkpt>
<trkpt lat="46.372215" lon="11.6764"><ele>1302.0</ele><time>2017-08-03T03:47:08Z</time></trkpt>
<trkpt lat="46.372369" lon="11.675887"><ele>1302.0</ele><time>2017-08-03T03:47:10Z</time></trkpt>
<trkpt lat="46.372843" lon="11.673473"><ele>1290.0</ele><time>2017-08-03T03:47:19Z</time></trkpt>
<trkpt lat="46.373019" lon="11.672827"><ele>1288.0</ele><time>2017-08-03T03:47:22Z</time></trkpt>
<trkpt lat="46.373038" lon="11.672161"><ele>1298.0</ele><time>2017-08-03T03:47:25Z</time></trkpt>
<trkpt lat="46.373147" lon="11.671388"><ele>1304.0</ele><time>2017-08-03T03:47:28Z</time></trkpt>
<trkpt lat="46.373399" lon="11.670801"><ele>1270.0</ele><time>2017-08-03T03:47:31Z</time></trkpt>
<trkpt lat="46.37357" lon="11.670104"><ele>1270.0</ele><time>2017-08-03T03:47:34Z</time></trkpt>
<trkpt lat="46.373882" lon="11.668714"><ele>1270.0</ele><time>2017-08-03T03:47:39Z</time></trkpt>
<trkpt lat="46.373885" lon="11.66836"><ele>1270.0</ele><time>2017-08-03T03:47:41Z</time></trkpt>
<trkpt lat="46.373753" lon="11.667685"><ele>1260.0</ele><time>2017-08-03T03:47:43Z</time></trkpt>
<trkpt lat="46.37374" lon="11.667428"><ele>1257.0</ele><time>2017-08-03T03:47:44Z</time></trkpt>
<trkpt lat="46.373797" lon="11.66673"><ele>1257.0</ele><time>2017-08-03T03:47:47Z</time></trkpt>
<trkpt lat="46.373786" lon="11.66556"><ele>1246.0</ele><time>2017-08-03T03:47:52Z</time></trkpt>
<trkpt lat="46.373766" lon="11.665387"><ele>1246.0</ele><time>2017-08-03T03:47:52Z</time></trkpt>
<trkpt lat="46.373596" lon="11.66497"><ele>1235.0</ele><time>2017-08-03T03:47:54Z</time></trkpt>
<trkpt lat="46.373572" lon="11.664864"><ele>1235.0</ele><time>2017-08-03T03:47:55Z</time></trkpt>
<trkpt lat="46.373576" lon="11.664788"><ele>1235.0</ele><time>2017-08-03T03:47:55Z</time></trkpt>
<trkpt lat="46.3736" lon="11.664739"><ele>1235.0</ele><time>2017-08-03T03:47:55Z</time></trkpt>
<trkpt lat="46.373661" lon="11.664709"><ele>1235.0</ele><time>2017-08-03T03:47:56Z</time></trkpt>
<trkpt lat="46.373755" lon="11.664764"><ele>1235.0</ele><time>2017-08-03T03:47:56Z</time></trkpt>
<trkpt lat="46.374199" lon="11.665223"><ele>1227.0</ele><time>2017-08-03T03:47:59Z</time></trkpt>
<trkpt lat="46.37428" lon="11.66525"><ele>1227.0</ele><time>2017-08-03T03:48:00Z</time></trkpt>
<trkpt lat="46.374411" lon="11.665225"><ele>1227.0</ele><time>2017-08-03T03:48:00Z</time></trkpt>
<trkpt lat="46.374502" lon="11.665257"><ele>1227.0</ele><time>2017-08-03T03:48:01Z</time></trkpt>
<trkpt lat="46.374599" lon="11.665372"><ele>1227.0</ele><time>2017-08-03T03:48:02Z</time></trkpt>
<trkpt lat="46.374614" lon="11.665431"><ele>1227.0</ele><time>2017-08-03T03:48:02Z</time></trkpt>
<trkpt lat="46.374622" lon="11.665662"><ele>1227.0</ele><time>2017-08-03T03:48:03Z</time></trkpt>
<trkpt lat="46.374597" lon="11.665926"><ele>1225.0</ele><time>2017-08-03T03:48:04Z</time></trkpt>
<trkpt lat="46.37456" lon="11.666088"><ele>1225.0</ele><time>2017-08-03T03:48:04Z</time></trkpt>
<trkpt lat="46.374444" lon="11.666247"><ele>1225.0</ele><time>2017-08-03T03:48:05Z</time></trkpt>
<trkpt lat="46.374398" lon="11.666281"><ele>1225.0</ele><time>2017-08-03T03:48:09Z</time></trkpt>
<trkpt lat="46.374331" lon="11.666284"><ele>1225.0</ele><time>2017-08-03T03:48:10Z</time></trkpt>
<trkpt lat="46.374239" lon="11.666346"><ele>1225.0</ele><time>2017-08-03T03:48:10Z</time></trkpt>
<trkpt lat="46.374185" lon="11.666459"><ele>1225.0</ele><time>2017-08-03T03:48:11Z</time></trkpt>
<trkpt lat="46.374178" lon="11.666591"><ele>1225.0</ele><time>2017-08-03T03:48:12Z</time></trkpt>
<trkpt lat="46.374199" lon="11.666679"><ele>1219.0</ele><time>2017-08-03T03:48:12Z</time></trkpt>
<trkpt lat="46.374242" lon="11.666752"><ele>1219.0</ele><time>2017-08-03T03:48:12Z</time></trkpt>
<trkpt lat="46.374297" lon="11.666797"><ele>1219.0</ele><time>2017-08-03T03:48:13Z</time></trkpt>
<trkpt lat="46.374407" lon="11.667011"><ele>1219.0</ele><time>2017-08-03T03:48:14Z</time></trkpt>
<trkpt lat="46.374425" lon="11.667112"><ele>1219.0</ele><time>2017-08-03T03:48:14Z</time></trkpt>
<trkpt lat="46.374416" lon="11.667484"><ele>1219.0</ele><time>2017-08-03T03:48:16Z</time></trkpt>
<trkpt lat="46.374338" lon="11.668642"><ele>1220.0</ele><time>2017-08-03T03:48:20Z</time></trkpt>
<trkpt lat="46.37434" lon="11.668977"><ele>1220.0</ele><time>2017-08-03T03:48:22Z</time></trkpt>
<trkpt lat="46.374403" lon="11.669463"><ele>1229.0</ele><time>2017-08-03T03:48:24Z</time></trkpt>
<trkpt lat="46.374515" lon="11.669908"><ele>1229.0</ele><time>2017-08-03T03:48:25Z</time></trkpt>
<trkpt lat="46.374663" lon="11.670256"><ele>1234.0</ele><time>2017-08-03T03:48:27Z</time></trkpt>
<trkpt lat="46.37479" lon="11.670484"><ele>1234.0</ele><time>2017-08-03T03:48:28Z</time></trkpt>
<trkpt lat="46.374952" lon="11.670709"><ele>1234.0</ele><time>2017-08-03T03:48:30Z</time></trkpt>
<trkpt lat="46.375124" lon="11.670902"><ele>1263.0</ele><time>2017-08-03T03:48:32Z</time></trkpt>
<trkpt lat="46.375261" lon="11.671014"><ele>1263.0</ele><time>2017-08-03T03:48:32Z</time></trkpt>
<trkpt lat="46.37589" lon="11.671381"><ele>1285.0</ele><time>2017-08-03T03:48:36Z</time></trkpt>
<trkpt lat="46.376283" lon="11.671558"><ele>1285.0</ele><time>2017-08-03T03:48:39Z</time></trkpt>
<trkpt lat="46.376644" lon="11.671666"><ele>1285.0</ele><time>2017-08-03T03:48:41Z</time></trkpt>
<trkpt lat="46.377023" lon="11.671684"><ele>1318.0</ele><time>2017-08-03T03:48:44Z</time></trkpt>
<trkpt lat="46.377364" lon="11.671639"><ele>1305.0</ele><time>2017-08-03T03:48:46Z</time></trkpt>
<trkpt lat="46.378455" lon="11.671339"><ele>1366.0</ele><time>2017-08-03T03:48:53Z</time></trkpt>
<trkpt lat="46.384933" lon="11.668697"><ele>1224.0</ele><time>2017-08-03T03:49:32Z</time></trkpt>
<trkpt lat="46.385361" lon="11.668604"><ele>1212.0</ele><time>2017-08-03T03:49:35Z</time></trkpt>
<trkpt lat="46.385371" lon="11.668693"><ele>1212.0</ele><time>2017-08-03T03:49:35Z</time></trkpt>
<trkpt lat="46.385406" lon="11.66876"><ele>1212.0</ele><time>2017-08-03T03:49:36Z</time></trkpt>
<trkpt lat="46.385464" lon="11.668794"><ele>1212.0</ele><time>2017-08-03T03:49:36Z</time></trkpt>
<trkpt lat="46.385539" lon="11.66877"><ele>1212.0</ele><time>2017-08-03T03:49:37Z</time></trkpt>
<trkpt lat="46.385588" lon="11.66869"><ele>1212.0</ele><time>2017-08-03T03:49:37Z</time></trkpt>
<trkpt lat="46.385597" lon="11.668632"><ele>1212.0</ele><time>2017-08-03T03:49:37Z</time></trkpt>
<trkpt lat="46.385647" lon="11.668562"><ele>1212.0</ele><time>2017-08-03T03:49:38Z</time></trkpt>
<trkpt lat="46.38616" lon="11.668277"><ele>1207.0</ele><time>2017-08-03T03:49:42Z</time></trkpt>
<trkpt lat="46.387229" lon="11.667147"><ele>1203.0</ele><time>2017-08-03T03:49:52Z</time></trkpt>
<trkpt lat="46.387515" lon="11.667047"><ele>1206.0</ele><time>2017-08-03T03:49:54Z</time></trkpt>
<trkpt lat="46.387648" lon="11.667048"><ele>1206.0</ele><time>2017-08-03T03:49:55Z</time></trkpt>
<trkpt lat="46.387891" lon="11.667137"><ele>1206.0</ele><time>2017-08-03T03:49:57Z</time></trkpt>
<trkpt lat="46.38801" lon="11.667243"><ele>1206.0</ele><time>2017-08-03T03:49:58Z</time></trkpt>
<trkpt lat="46.388218" lon="11.667368"><ele>1206.0</ele><time>2017-08-03T03:50:00Z</time></trkpt>
<trkpt lat="46.38874" lon="11.667538"><ele>1221.0</ele><time>2017-08-03T03:50:04Z</time></trkpt>
<trkpt lat="46.389471" lon="11.6677"><ele>1215.0</ele><time>2017-08-03T03:50:09Z</time></trkpt>
<trkpt lat="46.389639" lon="11.667655"><ele>1215.0</ele><time>2017-08-03T03:50:11Z</time></trkpt>
<trkpt lat="46.390777" lon="11.666907"><ele>1205.0</ele><time>2017-08-03T03:50:20Z</time></trkpt>
<trkpt lat="46.391002" lon="11.666804"><ele>1206.0</ele><time>2017-08-03T03:50:22Z</time></trkpt>
<trkpt lat="46.391246" lon="11.666755"><ele>1206.0</ele><time>2017-08-03T03:50:24Z</time></trkpt>
<trkpt lat="46.391571" lon="11.666735"><ele>1206.0</ele><time>2017-08-03T03:50:26Z</time></trkpt>
<trkpt lat="46.392143" lon="11.666735"><ele>1206.0</ele><time>2017-08-03T03:50:30Z</time></trkpt>
<trkpt lat="46.392954" lon="11.666703"><ele>1207.0</ele><time>2017-08-03T03:50:36Z</time></trkpt>
<trkpt lat="46.393115" lon="11.666637"><ele>1206.0</ele><time>2017-08-03T03:50:37Z</time></trkpt>
<trkpt lat="46.393509" lon="11.666384"><ele>1209.0</ele><time>2017-08-03T03:50:41Z</time></trkpt>
<trkpt lat="46.393647" lon="11.66633"><ele>1209.0</ele><time>2017-08-03T03:50:42Z</time></trkpt>
<trkpt lat="46.393808" lon="11.666321"><ele>1209.0</ele><time>2017-08-03T03:50:43Z</time></trkpt>
<trkpt lat="46.393924" lon="11.666338"><ele>1209.0</ele><time>2017-08-03T03:50:44Z</time></trkpt>
<trkpt lat="46.394089" lon="11.666425"><ele>1209.0</ele><time>2017-08-03T03:50:45Z</time></trkpt>
<trkpt lat="46.394769" lon="11.666977"><ele>1211.0</ele><time>2017-08-03T03:50:51Z</time></trkpt>
<trkpt lat="46.394895" lon="11.667059"><ele>1211.0</ele><time>2017-08-03T03:50:52Z</time></trkpt>
<trkpt lat="46.395496" lon="11.667599"><ele>1213.0</ele><time>2017-08-03T03:50:57Z</time></trkpt>
<trkpt lat="46.395678" lon="11.667884"><ele>1213.0</ele><time>2017-08-03T03:50:59Z</time></trkpt>
<trkpt lat="46.395709" lon="11.667964"><ele>1213.0</ele><time>2017-08-03T03:51:00Z</time></trkpt>
<trkpt lat="46.395828" lon="11.668455"><ele>1215.0</ele><time>2017-08-03T03:51:02Z</time></trkpt>
<trkpt lat="46.395922" lon="11.668642"><ele>1220.0</ele><time>2017-08-03T03:51:04Z</time></trkpt>
<trkpt lat="46.396211" lon="11.669067"><ele>1220.0</ele><time>2017-08-03T03:51:07Z</time></trkpt>
<trkpt lat="46.396364" lon="11.669222"><ele>1216.0</ele><time>2017-08-03T03:51:08Z</time></trkpt>
<trkpt lat="46.396553" lon="11.669372"><ele>1216.0</ele><time>2017-08-03T03:51:10Z</time></trkpt>
<trkpt lat="46.396796" lon="11.669448"><ele>1219.0</ele><time>2017-08-03T03:51:12Z</time></trkpt>
<trkpt lat="46.396963" lon="11.669426"><ele>1219.0</ele><time>2017-08-03T03:51:13Z</time></trkpt>
<trkpt lat="46.397071" lon="11.669388"><ele>1219.0</ele><time>2017-08-03T03:51:14Z</time></trkpt>
<trkpt lat="46.397148" lon="11.669362"><ele>1219.0</ele><time>2017-08-03T03:51:15Z</time></trkpt>
<trkpt lat="46.397143" lon="11.669108"><ele>1227.0</ele><time>2017-08-03T03:51:18Z</time></trkpt>
<trkpt lat="46.397177" lon="11.668752"><ele>1227.0</ele><time>2017-08-03T03:51:22Z</time></trkpt>
<trkpt lat="46.397189" lon="11.66868"><ele>1227.0</ele><time>2017-08-03T03:51:23Z</time></trkpt>
<trkpt lat="46.39746" lon="11.668278"><ele>1232.0</ele><time>2017-08-03T03:51:27Z</time></trkpt>
<trkpt lat="46.397735" lon="11.667985"><ele>1238.0</ele><time>2017-08-03T03:51:31Z</time></trkpt>
<trkpt lat="46.397892" lon="11.667757"><ele>1238.0</ele><time>2017-08-03T03:51:34Z</time></trkpt>
<trkpt lat="46.397964" lon="11.667575"><ele>1238.0</ele><time>2017-08-03T03:51:35Z</time></trkpt>
<trkpt lat="46.39803" lon="11.667492"><ele>1243.0</ele><time>2017-08-03T03:51:36Z</time></trkpt>
<trkpt lat="46.398149" lon="11.667427"><ele>1243.0</ele><time>2017-08-03T03:51:38Z</time></trkpt>
<trkpt lat="46.398324" lon="11.667255"><ele>1243.0</ele><time>2017-08-03T03:51:40Z</time></trkpt>
<trkpt lat="46.398374" lon="11.667155"><ele>1254.0</ele><time>2017-08-03T03:51:42Z</time></trkpt>
<trkpt lat="46.398599" lon="11.666857"><ele>1254.0</ele><time>2017-08-03T03:51:47Z</time></trkpt>
<trkpt lat="46.398732" lon="11.666741"><ele>1254.0</ele><time>2017-08-03T03:51:49Z</time></trkpt>
<trkpt lat="46.398734" lon="11.666677"><ele>1254.0</ele><time>2017-08-03T03:51:50Z</time></trkpt>
<trkpt lat="46.398679" lon="11.666565"><ele>1256.0</ele><time>2017-08-03T03:51:52Z</time></trkpt>
<trkpt lat="46.398847" lon="11.666511"><ele>1256.0</ele><time>2017-08-03T03:51:57Z</time></trkpt>
<trkpt lat="46.398969" lon="11.666531"><ele>1256.0</ele><time>2017-08-03T03:52:01Z</time></trkpt>
<trkpt lat="46.399078" lon="11.666583"><ele>1256.0</ele><time>2017-08-03T03:52:04Z</time></trkpt>
<trkpt lat="46.399139" lon="11.666647"><ele>1256.0</ele><time>2017-08-03T03:52:06Z</time></trkpt>
<trkpt lat="46.399182" lon="11.666635"><ele>1272.0</ele><time>2017-08-03T03:52:11Z</time></trkpt>
<trkpt lat="46.399457" lon="11.666233"><ele>1272.0</ele><time>2017-08-03T03:52:23Z</time></trkpt>
<trkpt lat="46.399744" lon="11.665729"><ele>1272.0</ele><time>2017-08-03T03:52:36Z</time></trkpt>
<trkpt lat="46.399796" lon="11.665677"><ele>1272.0</ele><time>2017-08-03T03:52:38Z</time></trkpt>
<trkpt lat="46.399822" lon="11.665675"><ele>1272.0</ele><time>2017-08-03T03:52:39Z</time></trkpt>
<trkpt lat="46.399845" lon="11.665693"><ele>1272.0</ele><time>2017-08-03T03:52:40Z</time></trkpt>
<trkpt lat="46.399858" lon="11.665737"><ele>1272.0</ele><time>2017-08-03T03:52:41Z</time></trkpt>
<trkpt lat="46.399808" lon="11.666099"><ele>1272.0</ele><time>2017-08-03T03:52:49Z</time></trkpt>
<trkpt lat="46.399821" lon="11.666176"><ele>1272.0</ele><time>2017-08-03T03:52:50Z</time></trkpt>
<trkpt lat="46.399858" lon="11.66622"><ele>1272.0</ele><time>2017-08-03T03:52:52Z</time></trkpt>
<trkpt lat="46.399904" lon="11.666225"><ele>1272.0</ele><time>2017-08-03T03:52:53Z</time></trkpt>
<trkpt lat="46.399941" lon="11.666183"><ele>1272.0</ele><time>2017-08-03T03:52:55Z</time></trkpt>
<trkpt lat="46.399963" lon="11.666003"><ele>1272.0</ele><time>2017-08-03T03:52:58Z</time></trkpt>
<trkpt lat="46.4" lon="11.665931"><ele>1294.0</ele><time>2017-08-03T03:53:05Z</time></trkpt>
<trkpt lat="46.400051" lon="11.665897"><ele>1294.0</ele><time>2017-08-03T03:53:06Z</time></trkpt>
<trkpt lat="46.40043" lon="11.665811"><ele>1292.0</ele><time>2017-08-03T03:53:18Z</time></trkpt>
<trkpt lat="46.400711" lon="11.665879"><ele>1294.0</ele><time>2017-08-03T03:53:27Z</time></trkpt>
<trkpt lat="46.400909" lon="11.666014"><ele>1328.0</ele><time>2017-08-03T03:53:38Z</time></trkpt>
<trkpt lat="46.40094" lon="11.66607"><ele>1328.0</ele><time>2017-08-03T03:53:40Z</time></trkpt>
<trkpt lat="46.400963" lon="11.666321"><ele>1328.0</ele><time>2017-08-03T03:53:45Z</time></trkpt>
<trkpt lat="46.401002" lon="11.666423"><ele>1328.0</ele><time>2017-08-03T03:53:47Z</time></trkpt>
<trkpt lat="46.401068" lon="11.666514"><ele>1328.0</ele><time>2017-08-03T03:53:50Z</time></trkpt>
<trkpt lat="46.401412" lon="11.666753"><ele>1327.0</ele><time>2017-08-03T03:54:02Z</time></trkpt>
<trkpt lat="46.401489" lon="11.666759"><ele>1327.0</ele><time>2017-08-03T03:54:04Z</time></trkpt>
<trkpt lat="46.401545" lon="11.666738"><ele>1327.0</ele><time>2017-08-03T03:54:06Z</time></trkpt>
<trkpt lat="46.401778" lon="11.666573"><ele>1363.0</ele><time>2017-08-03T03:54:18Z</time></trkpt>
<trkpt lat="46.401956" lon="11.666385"><ele>1363.0</ele><time>2017-08-03T03:54:25Z</time></trkpt>
<trkpt lat="46.402081" lon="11.666218"><ele>1363.0</ele><time>2017-08-03T03:54:30Z</time></trkpt>
<trkpt lat="46.402222" lon="11.666113"><ele>1363.0</ele><time>2017-08-03T03:54:35Z</time></trkpt>
<trkpt lat="46.402368" lon="11.665853"><ele>1363.0</ele><time>2017-08-03T03:54:42Z</time></trkpt>
<trkpt lat="46.402505" lon="11.665722"><ele>1392.0</ele><time>2017-08-03T03:54:51Z</time></trkpt>
<trkpt lat="46.402612" lon="11.665701"><ele>1392.0</ele><time>2017-08-03T03:54:55Z</time></trkpt>
<trkpt lat="46.402818" lon="11.665745"><ele>1392.0</ele><time>2017-08-03T03:55:01Z</time></trkpt>
<trkpt lat="46.40325" lon="11.665974"><ele>1393.0</ele><time>2017-08-03T03:55:15Z</time></trkpt>
<trkpt lat="46.403364" lon="11.666007"><ele>1413.0</ele><time>2017-08-03T03:55:21Z</time></trkpt>
<trkpt lat="46.40369" lon="11.66603"><ele>1413.0</ele><time>2017-08-03T03:55:31Z</time></trkpt>
<trkpt lat="46.403801" lon="11.666084"><ele>1413.0</ele><time>2017-08-03T03:55:35Z</time></trkpt>
<trkpt lat="46.404004" lon="11.666249"><ele>1413.0</ele><time>2017-08-03T03:55:42Z</time></trkpt>
<trkpt lat="46.404064" lon="11.666276"><ele>1413.0</ele><time>2017-08-03T03:55:44Z</time></trkpt>
<trkpt lat="46.404191" lon="11.666273"><ele>1428.0</ele><time>2017-08-03T03:55:49Z</time></trkpt>
<trkpt lat="46.404502" lon="11.666355"><ele>1428.0</ele><time>2017-08-03T03:55:59Z</time></trkpt>
<trkpt lat="46.404612" lon="11.66636"><ele>1428.0</ele><time>2017-08-03T03:56:02Z</time></trkpt>
<trkpt lat="46.404667" lon="11.666349"><ele>1428.0</ele><time>2017-08-03T03:56:04Z</time></trkpt>
<trkpt lat="46.404737" lon="11.666282"><ele>1428.0</ele><time>2017-08-03T03:56:07Z</time></trkpt>
<trkpt lat="46.404897" lon="11.665985"><ele>1428.0</ele><time>2017-08-03T03:56:14Z</time></trkpt>
<trkpt lat="46.405101" lon="11.665369"><ele>1445.0</ele><time>2017-08-03T03:56:30Z</time></trkpt>
<trkpt lat="46.405197" lon="11.665157"><ele>1445.0</ele><time>2017-08-03T03:56:35Z</time></trkpt>
<trkpt lat="46.405311" lon="11.664992"><ele>1460.0</ele><time>2017-08-03T03:56:41Z</time></trkpt>
<trkpt lat="46.405411" lon="11.664911"><ele>1460.0</ele><time>2017-08-03T03:56:45Z</time></trkpt>
<trkpt lat="46.405523" lon="11.664841"><ele>1460.0</ele><time>2017-08-03T03:56:48Z</time></trkpt>
<trkpt lat="46.405684" lon="11.664819"><ele>1460.0</ele><time>2017-08-03T03:56:53Z</time></trkpt>
<trkpt lat="46.405952" lon="11.664641"><ele>1465.0</ele><time>2017-08-03T03:57:02Z</time></trkpt>
<trkpt lat="46.406006" lon="11.664534"><ele>1465.0</ele><time>2017-08-03T03:57:05Z</time></trkpt>
<trkpt lat="46.406075" lon="11.664336"><ele>1465.0</ele><time>2017-08-03T03:57:10Z</time></trkpt>
<trkpt lat="46.406139" lon="11.664027"><ele>1476.0</ele><time>2017-08-03T03:57:17Z</time></trkpt>
<trkpt lat="46.406168" lon="11.663727"><ele>1476.0</ele><time>2017-08-03T03:57:23Z</time></trkpt>
<trkpt lat="46.406174" lon="11.663468"><ele>1476.0</ele><time>2017-08-03T03:57:29Z</time></trkpt>
<trkpt lat="46.406099" lon="11.663065"><ele>1482.0</ele><time>2017-08-03T03:57:38Z</time></trkpt>
<trkpt lat="46.406051" lon="11.662424"><ele>1488.0</ele><time>2017-08-03T03:57:51Z</time></trkpt>
<trkpt lat="46.406093" lon="11.662199"><ele>1488.0</ele><time>2017-08-03T03:57:56Z</time></trkpt>
<trkpt lat="46.406219" lon="11.661886"><ele>1488.0</ele><time>2017-08-03T03:58:04Z</time></trkpt>
<trkpt lat="46.406268" lon="11.661714"><ele>1488.0</ele><time>2017-08-03T03:58:08Z</time></trkpt>
<trkpt lat="46.406316" lon="11.661452"><ele>1505.0</ele><time>2017-08-03T03:58:15Z</time></trkpt>
<trkpt lat="46.40639" lon="11.660608"><ele>1517.0</ele><time>2017-08-03T03:58:33Z</time></trkpt>
<trkpt lat="46.406452" lon="11.66043"><ele>1517.0</ele><time>2017-08-03T03:58:37Z</time></trkpt>
<trkpt lat="46.406474" lon="11.660316"><ele>1517.0</ele><time>2017-08-03T03:58:40Z</time></trkpt>
<trkpt lat="46.406485" lon="11.660141"><ele>1517.0</ele><time>2017-08-03T03:58:43Z</time></trkpt>
<trkpt lat="46.406462" lon="11.659853"><ele>1531.0</ele><time>2017-08-03T03:58:51Z</time></trkpt>
<trkpt lat="46.406401" lon="11.659648"><ele>1531.0</ele><time>2017-08-03T03:58:55Z</time></trkpt>
<trkpt lat="46.406252" lon="11.659302"><ele>1531.0</ele><time>2017-08-03T03:59:04Z</time></trkpt>
<trkpt lat="46.406227" lon="11.659166"><ele>1538.0</ele><time>2017-08-03T03:59:07Z</time></trkpt>
<trkpt lat="46.406235" lon="11.659038"><ele>1538.0</ele><time>2017-08-03T03:59:10Z</time></trkpt>
<trkpt lat="46.406271" lon="11.658921"><ele>1538.0</ele><time>2017-08-03T03:59:13Z</time></trkpt>
<trkpt lat="46.406369" lon="11.658761"><ele>1538.0</ele><time>2017-08-03T03:59:17Z</time></trkpt>
<trkpt lat="46.406419" lon="11.658632"><ele>1538.0</ele><time>2017-08-03T03:59:20Z</time></trkpt>
<trkpt lat="46.406448" lon="11.658461"><ele>1538.0</ele><time>2017-08-03T03:59:24Z</time></trkpt>
<trkpt lat="46.406453" lon="11.65826"><ele>1546.0</ele><time>2017-08-03T03:59:29Z</time></trkpt>
<trkpt lat="46.40649" lon="11.657979"><ele>1546.0</ele><time>2017-08-03T03:59:35Z</time></trkpt>
<trkpt lat="46.406551" lon="11.657755"><ele>1546.0</ele><time>2017-08-03T03:59:40Z</time></trkpt>
<trkpt lat="46.406572" lon="11.657643"><ele>1546.0</ele><time>2017-08-03T03:59:51Z</time></trkpt>
<trkpt lat="46.406883" lon="11.65747"><ele>1540.0</ele><time>2017-08-03T03:59:55Z</time></trkpt>
<trkpt lat="46.406978" lon="11.657317"><ele>1540.0</ele><time>2017-08-03T03:59:57Z</time></trkpt>
<trkpt lat="46.407149" lon="11.656646"><ele>1552.0</ele><time>2017-08-03T04:00:03Z</time></trkpt>
<trkpt lat="46.407191" lon="11.656287"><ele>1552.0</ele><time>2017-08-03T04:00:06Z</time></trkpt>
<trkpt lat="46.40719" lon="11.655608"><ele>1556.0</ele><time>2017-08-03T04:00:12Z</time></trkpt>
<trkpt lat="46.407383" lon="11.653992"><ele>1569.0</ele><time>2017-08-03T04:00:26Z</time></trkpt>
<trkpt lat="46.407376" lon="11.653739"><ele>1569.0</ele><time>2017-08-03T04:00:28Z</time></trkpt>
<trkpt lat="46.407275" lon="11.652662"><ele>1585.0</ele><time>2017-08-03T04:00:38Z</time></trkpt>
<trkpt lat="46.407355" lon="11.652585"><ele>1585.0</ele><time>2017-08-03T04:00:39Z</time></trkpt>
<trkpt lat="46.407439" lon="11.652589"><ele>1585.0</ele><time>2017-08-03T04:00:40Z</time></trkpt>
<trkpt lat="46.407708" lon="11.65298"><ele>1596.0</ele><time>2017-08-03T04:00:45Z</time></trkpt>
<trkpt lat="46.408177" lon="11.653502"><ele>1577.0</ele><time>2017-08-03T04:00:53Z</time></trkpt>
<trkpt lat="46.408404" lon="11.653874"><ele>1593.0</ele><time>2017-08-03T04:00:57Z</time></trkpt>
<trkpt lat="46.408804" lon="11.653861"><ele>1593.0</ele><time>2017-08-03T04:01:02Z</time></trkpt>
<trkpt lat="46.408977" lon="11.653819"><ele>1593.0</ele><time>2017-08-03T04:01:05Z</time></trkpt>
<trkpt lat="46.409141" lon="11.653716"><ele>1593.0</ele><time>2017-08-03T04:01:07Z</time></trkpt>
<trkpt lat="46.409269" lon="11.653719"><ele>1594.0</ele><time>2017-08-03T04:01:08Z</time></trkpt>
<trkpt lat="46.409772" lon="11.653892"><ele>1594.0</ele><time>2017-08-03T04:01:15Z</time></trkpt>
<trkpt lat="46.409947" lon="11.6539"><ele>1594.0</ele><time>2017-08-03T04:01:17Z</time></trkpt>
<trkpt lat="46.410124" lon="11.653836"><ele>1568.0</ele><time>2017-08-03T04:01:21Z</time></trkpt>
<trkpt lat="46.410533" lon="11.653426"><ele>1568.0</ele><time>2017-08-03T04:01:27Z</time></trkpt>
<trkpt lat="46.410582" lon="11.653181"><ele>1592.0</ele><time>2017-08-03T04:01:31Z</time></trkpt>
<trkpt lat="46.410244" lon="11.653533"><ele>1568.0</ele><time>2017-08-03T04:01:34Z</time></trkpt>
<trkpt lat="46.410134" lon="11.653594"><ele>1568.0</ele><time>2017-08-03T04:01:35Z</time></trkpt>
<trkpt lat="46.410028" lon="11.653611"><ele>1568.0</ele><time>2017-08-03T04:01:36Z</time></trkpt>
<trkpt lat="46.409885" lon="11.65359"><ele>1594.0</ele><time>2017-08-03T04:01:37Z</time></trkpt>
<trkpt lat="46.409258" lon="11.65322"><ele>1609.0</ele><time>2017-08-03T04:01:41Z</time></trkpt>
<trkpt lat="46.409105" lon="11.65308"><ele>1605.0</ele><time>2017-08-03T04:01:42Z</time></trkpt>
<trkpt lat="46.408934" lon="11.652868"><ele>1605.0</ele><time>2017-08-03T04:01:44Z</time></trkpt>
<trkpt lat="46.408188" lon="11.651479"><ele>1622.0</ele><time>2017-08-03T04:01:51Z</time></trkpt>
<trkpt lat="46.408102" lon="11.651284"><ele>1622.0</ele><time>2017-08-03T04:01:52Z</time></trkpt>
<trkpt lat="46.40809" lon="11.651167"><ele>1622.0</ele><time>2017-08-03T04:01:52Z</time></trkpt>
<trkpt lat="46.4081" lon="11.651008"><ele>1622.0</ele><time>2017-08-03T04:01:53Z</time></trkpt>
<trkpt lat="46.408161" lon="11.650831"><ele>1634.0</ele><time>2017-08-03T04:01:54Z</time></trkpt>
<trkpt lat="46.408298" lon="11.650239"><ele>1634.0</ele><time>2017-08-03T04:01:56Z</time></trkpt>
<trkpt lat="46.408261" lon="11.650138"><ele>1634.0</ele><time>2017-08-03T04:01:57Z</time></trkpt>
<trkpt lat="46.408142" lon="11.650028"><ele>1634.0</ele><time>2017-08-03T04:01:58Z</time></trkpt>
<trkpt lat="46.407421" lon="11.649621"><ele>1651.0</ele><time>2017-08-03T04:02:02Z</time></trkpt>
<trkpt lat="46.407346" lon="11.649654"><ele>1651.0</ele><time>2017-08-03T04:02:03Z</time></trkpt>
<trkpt lat="46.407272" lon="11.649723"><ele>1651.0</ele><time>2017-08-03T04:02:03Z</time></trkpt>
<trkpt lat="46.407122" lon="11.649928"><ele>1651.0</ele><time>2017-08-03T04:02:04Z</time></trkpt>
<trkpt lat="46.406855" lon="11.650352"><ele>1625.0</ele><time>2017-08-03T04:02:07Z</time></trkpt>
<trkpt lat="46.406773" lon="11.650419"><ele>1625.0</ele><time>2017-08-03T04:02:08Z</time></trkpt>
<trkpt lat="46.406648" lon="11.650462"><ele>1641.0</ele><time>2017-08-03T04:02:09Z</time></trkpt>
<trkpt lat="46.406547" lon="11.65044"><ele>1641.0</ele><time>2017-08-03T04:02:09Z</time></trkpt>
<trkpt lat="46.405984" lon="11.649986"><ele>1654.0</ele><time>2017-08-03T04:02:13Z</time></trkpt>
<trkpt lat="46.405903" lon="11.649826"><ele>1654.0</ele><time>2017-08-03T04:02:14Z</time></trkpt>
<trkpt lat="46.405853" lon="11.649671"><ele>1654.0</ele><time>2017-08-03T04:02:15Z</time></trkpt>
<trkpt lat="46.40569" lon="11.648244"><ele>1649.0</ele><time>2017-08-03T04:02:21Z</time></trkpt>
<trkpt lat="46.405671" lon="11.647888"><ele>1649.0</ele><time>2017-08-03T04:02:22Z</time></trkpt>
<trkpt lat="46.405709" lon="11.64766"><ele>1649.0</ele><time>2017-08-03T04:02:23Z</time></trkpt>
<trkpt lat="46.405852" lon="11.647337"><ele>1688.0</ele><time>2017-08-03T04:02:25Z</time></trkpt>
<trkpt lat="46.406088" lon="11.64704"><ele>1688.0</ele><time>2017-08-03T04:02:27Z</time></trkpt>
<trkpt lat="46.406132" lon="11.646885"><ele>1688.0</ele><time>2017-08-03T04:02:28Z</time></trkpt>
<trkpt lat="46.406132" lon="11.646403"><ele>1695.0</ele><time>2017-08-03T04:02:30Z</time></trkpt>
<trkpt lat="46.406202" lon="11.644914"><ele>1695.0</ele><time>2017-08-03T04:02:36Z</time></trkpt>
<trkpt lat="46.406293" lon="11.644646"><ele>1695.0</ele><time>2017-08-03T04:02:37Z</time></trkpt>
<trkpt lat="46.406392" lon="11.644426"><ele>1695.0</ele><time>2017-08-03T04:02:38Z</time></trkpt>
<trkpt lat="46.406441" lon="11.644251"><ele>1695.0</ele><time>2017-08-03T04:02:39Z</time></trkpt>
<trkpt lat="46.406429" lon="11.644133"><ele>1697.0</ele><time>2017-08-03T04:02:39Z</time></trkpt>
<trkpt lat="46.406285" lon="11.643821"><ele>1697.0</ele><time>2017-08-03T04:02:41Z</time></trkpt>
<trkpt lat="46.406306" lon="11.643612"><ele>1697.0</ele><time>2017-08-03T04:02:42Z</time></trkpt>
<trkpt lat="46.406504" lon="11.643066"><ele>1700.0</ele><time>2017-08-03T04:02:44Z</time></trkpt>
<trkpt lat="46.40651" lon="11.642889"><ele>1700.0</ele><time>2017-08-03T04:02:45Z</time></trkpt>
<trkpt lat="46.406376" lon="11.642551"><ele>1700.0</ele><time>2017-08-03T04:02:47Z</time></trkpt>
<trkpt lat="46.406214" lon="11.642448"><ele>1720.0</ele><time>2017-08-03T04:02:48Z</time></trkpt>
<trkpt lat="46.40599" lon="11.642514"><ele>1700.0</ele><time>2017-08-03T04:02:50Z</time></trkpt>
<trkpt lat="46.405821" lon="11.642635"><ele>1714.0</ele><time>2017-08-03T04:02:51Z</time></trkpt>
<trkpt lat="46.405206" lon="11.643502"><ele>1686.0</ele><time>2017-08-03T04:02:56Z</time></trkpt>
<trkpt lat="46.405145" lon="11.643506"><ele>1686.0</ele><time>2017-08-03T04:02:57Z</time></trkpt>
<trkpt lat="46.405069" lon="11.643555"><ele>1686.0</ele><time>2017-08-03T04:02:57Z</time></trkpt>
<trkpt lat="46.404407" lon="11.643402"><ele>1708.0</ele><time>2017-08-03T04:03:01Z</time></trkpt>
<trkpt lat="46.404053" lon="11.64322"><ele>1722.0</ele><time>2017-08-03T04:03:04Z</time></trkpt>
<trkpt lat="46.403708" lon="11.642844"><ele>1722.0</ele><time>2017-08-03T04:03:06Z</time></trkpt>
<trkpt lat="46.403655" lon="11.642641"><ele>1722.0</ele><time>2017-08-03T04:03:07Z</time></trkpt>
<trkpt lat="46.403675" lon="11.642434"><ele>1721.0</ele><time>2017-08-03T04:03:08Z</time></trkpt>
<trkpt lat="46.403778" lon="11.641992"><ele>1721.0</ele><time>2017-08-03T04:03:10Z</time></trkpt>
<trkpt lat="46.403962" lon="11.641595"><ele>1700.0</ele><time>2017-08-03T04:03:12Z</time></trkpt>
<trkpt lat="46.404246" lon="11.641233"><ele>1719.0</ele><time>2017-08-03T04:03:14Z</time></trkpt>
<trkpt lat="46.404485" lon="11.640989"><ele>1719.0</ele><time>2017-08-03T04:03:16Z</time></trkpt>
<trkpt lat="46.404902" lon="11.640831"><ele>1689.0</ele><time>2017-08-03T04:03:19Z</time></trkpt>
<trkpt lat="46.40511" lon="11.640813"><ele>1695.0</ele><time>2017-08-03T04:03:20Z</time></trkpt>
<trkpt lat="46.405235" lon="11.640876"><ele>1716.0</ele><time>2017-08-03T04:03:22Z</time></trkpt>
<trkpt lat="46.405448" lon="11.641122"><ele>1716.0</ele><time>2017-08-03T04:03:23Z</time></trkpt>
<trkpt lat="46.405686" lon="11.64119"><ele>1716.0</ele><time>2017-08-03T04:03:25Z</time></trkpt>
<trkpt lat="46.405987" lon="11.64117"><ele>1721.0</ele><time>2017-08-03T04:03:26Z</time></trkpt>
<trkpt lat="46.406135" lon="11.641183"><ele>1721.0</ele><time>2017-08-03T04:03:27Z</time></trkpt>
<trkpt lat="46.407027" lon="11.641579"><ele>1749.0</ele><time>2017-08-03T04:03:33Z</time></trkpt>
<trkpt lat="46.40715" lon="11.641597"><ele>1749.0</ele><time>2017-08-03T04:03:34Z</time></trkpt>
<trkpt lat="46.407288" lon="11.641493"><ele>1749.0</ele><time>2017-08-03T04:03:35Z</time></trkpt>
<trkpt lat="46.407343" lon="11.641326"><ele>1749.0</ele><time>2017-08-03T04:03:35Z</time></trkpt>
<trkpt lat="46.407331" lon="11.641097"><ele>1749.0</ele><time>2017-08-03T04:03:36Z</time></trkpt>
<trkpt lat="46.407173" lon="11.640095"><ele>1746.0</ele><time>2017-08-03T04:03:40Z</time></trkpt>
<trkpt lat="46.407212" lon="11.639832"><ele>1733.0</ele><time>2017-08-03T04:03:42Z</time></trkpt>
<trkpt lat="46.407832" lon="11.638581"><ele>1770.0</ele><time>2017-08-03T04:03:48Z</time></trkpt>
<trkpt lat="46.407838" lon="11.638263"><ele>1777.0</ele><time>2017-08-03T04:03:50Z</time></trkpt>
<trkpt lat="46.407781" lon="11.637865"><ele>1777.0</ele><time>2017-08-03T04:03:51Z</time></trkpt>
<trkpt lat="46.407669" lon="11.637679"><ele>1777.0</ele><time>2017-08-03T04:03:52Z</time></trkpt>
<trkpt lat="46.40717" lon="11.63758"><ele>1753.0</ele><time>2017-08-03T04:03:55Z</time></trkpt>
<trkpt lat="46.406818" lon="11.637537"><ele>1753.0</ele><time>2017-08-03T04:03:57Z</time></trkpt>
<trkpt lat="46.406689" lon="11.637441"><ele>1779.0</ele><time>2017-08-03T04:03:59Z</time></trkpt>
<trkpt lat="46.406628" lon="11.63733"><ele>1745.0</ele><time>2017-08-03T04:04:01Z</time></trkpt>
<trkpt lat="46.406588" lon="11.63716"><ele>1745.0</ele><time>2017-08-03T04:04:02Z</time></trkpt>
<trkpt lat="46.406625" lon="11.636982"><ele>1745.0</ele><time>2017-08-03T04:04:02Z</time></trkpt>
<trkpt lat="46.40683" lon="11.636408"><ele>1786.0</ele><time>2017-08-03T04:04:06Z</time></trkpt>
<trkpt lat="46.406814" lon="11.636182"><ele>1786.0</ele><time>2017-08-03T04:04:07Z</time></trkpt>
<trkpt lat="46.406761" lon="11.636063"><ele>1786.0</ele><time>2017-08-03T04:04:07Z</time></trkpt>
<trkpt lat="46.406592" lon="11.635957"><ele>1760.0</ele><time>2017-08-03T04:04:09Z</time></trkpt>
<trkpt lat="46.405802" lon="11.635861"><ele>1754.0</ele><time>2017-08-03T04:04:14Z</time></trkpt>
<trkpt lat="46.405131" lon="11.636197"><ele>1754.0</ele><time>2017-08-03T04:04:18Z</time></trkpt>
<trkpt lat="46.404954" lon="11.63624"><ele>1749.0</ele><time>2017-08-03T04:04:19Z</time></trkpt>
<trkpt lat="46.403972" lon="11.635741"><ele>1754.0</ele><time>2017-08-03T04:04:25Z</time></trkpt>
<trkpt lat="46.40363" lon="11.635531"><ele>1754.0</ele><time>2017-08-03T04:04:27Z</time></trkpt>
<trkpt lat="46.403476" lon="11.63532"><ele>1754.0</ele><time>2017-08-03T04:04:28Z</time></trkpt>
<trkpt lat="46.403358" lon="11.634917"><ele>1761.0</ele><time>2017-08-03T04:04:30Z</time></trkpt>
<trkpt lat="46.403343" lon="11.634561"><ele>1761.0</ele><time>2017-08-03T04:04:32Z</time></trkpt>
<trkpt lat="46.403462" lon="11.633726"><ele>1776.0</ele><time>2017-08-03T04:04:35Z</time></trkpt>
<trkpt lat="46.403482" lon="11.633465"><ele>1776.0</ele><time>2017-08-03T04:04:36Z</time></trkpt>
<trkpt lat="46.403424" lon="11.633127"><ele>1793.0</ele><time>2017-08-03T04:04:38Z</time></trkpt>
<trkpt lat="46.403345" lon="11.632936"><ele>1793.0</ele><time>2017-08-03T04:04:39Z</time></trkpt>
<trkpt lat="46.402204" lon="11.631238"><ele>1762.0</ele><time>2017-08-03T04:04:48Z</time></trkpt>
<trkpt lat="46.402115" lon="11.630977"><ele>1762.0</ele><time>2017-08-03T04:04:50Z</time></trkpt>
<trkpt lat="46.402041" lon="11.630441"><ele>1763.0</ele><time>2017-08-03T04:04:52Z</time></trkpt>
<trkpt lat="46.402036" lon="11.630175"><ele>1763.0</ele><time>2017-08-03T04:04:53Z</time></trkpt>
<trkpt lat="46.402516" lon="11.628947"><ele>1764.0</ele><time>2017-08-03T04:04:59Z</time></trkpt>
<trkpt lat="46.402649" lon="11.62868"><ele>1764.0</ele><time>2017-08-03T04:05:00Z</time></trkpt>
<trkpt lat="46.402937" lon="11.628343"><ele>1764.0</ele><time>2017-08-03T04:05:02Z</time></trkpt>
<trkpt lat="46.403" lon="11.628217"><ele>1761.0</ele><time>2017-08-03T04:05:03Z</time></trkpt>
<trkpt lat="46.403044" lon="11.628009"><ele>1761.0</ele><time>2017-08-03T04:05:04Z</time></trkpt>
<trkpt lat="46.403088" lon="11.626856"><ele>1759.0</ele><time>2017-08-03T04:05:08Z</time></trkpt>
<trkpt lat="46.40304" lon="11.626723"><ele>1759.0</ele><time>2017-08-03T04:05:09Z</time></trkpt>
<trkpt lat="46.40293" lon="11.626603"><ele>1767.0</ele><time>2017-08-03T04:05:10Z</time></trkpt>
<trkpt lat="46.402757" lon="11.626591"><ele>1767.0</ele><time>2017-08-03T04:05:11Z</time></trkpt>
<trkpt lat="46.402313" lon="11.626658"><ele>1752.0</ele><time>2017-08-03T04:05:14Z</time></trkpt>
<trkpt lat="46.402155" lon="11.626601"><ele>1752.0</ele><time>2017-08-03T04:05:14Z</time></trkpt>
<trkpt lat="46.402004" lon="11.626425"><ele>1752.0</ele><time>2017-08-03T04:05:16Z</time></trkpt>
<trkpt lat="46.401959" lon="11.626325"><ele>1752.0</ele><time>2017-08-03T04:05:16Z</time></trkpt>
<trkpt lat="46.401947" lon="11.626061"><ele>1752.0</ele><time>2017-08-03T04:05:17Z</time></trkpt>
<trkpt lat="46.402291" lon="11.623941"><ele>1735.0</ele><time>2017-08-03T04:05:26Z</time></trkpt>
<trkpt lat="46.402355" lon="11.62378"><ele>1735.0</ele><time>2017-08-03T04:05:27Z</time></trkpt>
<trkpt lat="46.402475" lon="11.623666"><ele>1735.0</ele><time>2017-08-03T04:05:28Z</time></trkpt>
<trkpt lat="46.402716" lon="11.623525"><ele>1763.0</ele><time>2017-08-03T04:05:30Z</time></trkpt>
<trkpt lat="46.402822" lon="11.623419"><ele>1763.0</ele><time>2017-08-03T04:05:30Z</time></trkpt>
<trkpt lat="46.403001" lon="11.623145"><ele>1735.0</ele><time>2017-08-03T04:05:33Z</time></trkpt>
<trkpt lat="46.403107" lon="11.623013"><ele>1735.0</ele><time>2017-08-03T04:05:33Z</time></trkpt>
<trkpt lat="46.403745" lon="11.622637"><ele>1773.0</ele><time>2017-08-03T04:05:38Z</time></trkpt>
<trkpt lat="46.403907" lon="11.622431"><ele>1763.0</ele><time>2017-08-03T04:05:39Z</time></trkpt>
<trkpt lat="46.403995" lon="11.622191"><ele>1763.0</ele><time>2017-08-03T04:05:40Z</time></trkpt>
<trkpt lat="46.403996" lon="11.62185"><ele>1763.0</ele><time>2017-08-03T04:05:42Z</time></trkpt>
<trkpt lat="46.403928" lon="11.621357"><ele>1764.0</ele><time>2017-08-03T04:05:44Z</time></trkpt>
<trkpt lat="46.403836" lon="11.621084"><ele>1764.0</ele><time>2017-08-03T04:05:45Z</time></trkpt>
<trkpt lat="46.403649" lon="11.62076"><ele>1784.0</ele><time>2017-08-03T04:05:47Z</time></trkpt>
<trkpt lat="46.40345" lon="11.620596"><ele>1784.0</ele><time>2017-08-03T04:05:48Z</time></trkpt>
<trkpt lat="46.402771" lon="11.620535"><ele>1770.0</ele><time>2017-08-03T04:05:52Z</time></trkpt>
<trkpt lat="46.402677" lon="11.620499"><ele>1770.0</ele><time>2017-08-03T04:05:53Z</time></trkpt>
<trkpt lat="46.402589" lon="11.620394"><ele>1770.0</ele><time>2017-08-03T04:05:54Z</time></trkpt>
<trkpt lat="46.402531" lon="11.620232"><ele>1770.0</ele><time>2017-08-03T04:05:54Z</time></trkpt>
<trkpt lat="46.402524" lon="11.62"><ele>1773.0</ele><time>2017-08-03T04:05:55Z</time></trkpt>
<trkpt lat="46.402729" lon="11.617075"><ele>1764.0</ele><time>2017-08-03T04:06:07Z</time></trkpt>
<trkpt lat="46.402791" lon="11.616853"><ele>1764.0</ele><time>2017-08-03T04:06:08Z</time></trkpt>
<trkpt lat="46.402905" lon="11.616716"><ele>1764.0</ele><time>2017-08-03T04:06:09Z</time></trkpt>
<trkpt lat="46.404206" lon="11.615657"><ele>1770.0</ele><time>2017-08-03T04:06:18Z</time></trkpt>
<trkpt lat="46.404393" lon="11.615448"><ele>1770.0</ele><time>2017-08-03T04:06:19Z</time></trkpt>
<trkpt lat="46.404525" lon="11.615223"><ele>1770.0</ele><time>2017-08-03T04:06:20Z</time></trkpt>
<trkpt lat="46.40462" lon="11.614931"><ele>1763.0</ele><time>2017-08-03T04:06:22Z</time></trkpt>
<trkpt lat="46.404627" lon="11.614659"><ele>1763.0</ele><time>2017-08-03T04:06:23Z</time></trkpt>
<trkpt lat="46.404592" lon="11.614392"><ele>1763.0</ele><time>2017-08-03T04:06:24Z</time></trkpt>
<trkpt lat="46.404121" lon="11.612862"><ele>1750.0</ele><time>2017-08-03T04:06:31Z</time></trkpt>
<trkpt lat="46.404013" lon="11.612432"><ele>1751.0</ele><time>2017-08-03T04:06:32Z</time></trkpt>
<trkpt lat="46.404006" lon="11.612273"><ele>1751.0</ele><time>2017-08-03T04:06:33Z</time></trkpt>
<trkpt lat="46.404142" lon="11.610469"><ele>1753.0</ele><time>2017-08-03T04:06:40Z</time></trkpt>
<trkpt lat="46.404254" lon="11.609134"><ele>1752.0</ele><time>2017-08-03T04:06:46Z</time></trkpt>
<trkpt lat="46.40428" lon="11.60899"><ele>1752.0</ele><time>2017-08-03T04:06:46Z</time></trkpt>
<trkpt lat="46.404477" lon="11.608477"><ele>1752.0</ele><time>2017-08-03T04:06:49Z</time></trkpt>
<trkpt lat="46.404587" lon="11.608238"><ele>1750.0</ele><time>2017-08-03T04:06:50Z</time></trkpt>
<trkpt lat="46.404987" lon="11.607516"><ele>1750.0</ele><time>2017-08-03T04:06:54Z</time></trkpt>
<trkpt lat="46.405153" lon="11.607327"><ele>1744.0</ele><time>2017-08-03T04:06:55Z</time></trkpt>
<trkpt lat="46.40563" lon="11.606975"><ele>1744.0</ele><time>2017-08-03T04:06:58Z</time></trkpt>
<trkpt lat="46.405748" lon="11.606787"><ele>1744.0</ele><time>2017-08-03T04:06:59Z</time></trkpt>
<trkpt lat="46.406015" lon="11.606174"><ele>1736.0</ele><time>2017-08-03T04:07:02Z</time></trkpt>
<trkpt lat="46.406144" lon="11.605988"><ele>1736.0</ele><time>2017-08-03T04:07:03Z</time></trkpt>
<trkpt lat="46.406744" lon="11.6056"><ele>1732.0</ele><time>2017-08-03T04:07:07Z</time></trkpt>
<trkpt lat="46.406865" lon="11.605501"><ele>1732.0</ele><time>2017-08-03T04:07:08Z</time></trkpt>
<trkpt lat="46.406917" lon="11.605388"><ele>1732.0</ele><time>2017-08-03T04:07:08Z</time></trkpt>
<trkpt lat="46.406955" lon="11.605244"><ele>1732.0</ele><time>2017-08-03T04:07:09Z</time></trkpt>
<trkpt lat="46.406962" lon="11.605101"><ele>1732.0</ele><time>2017-08-03T04:07:10Z</time></trkpt>
<trkpt lat="46.406911" lon="11.604927"><ele>1719.0</ele><time>2017-08-03T04:07:11Z</time></trkpt>
<trkpt lat="46.406826" lon="11.604829"><ele>1719.0</ele><time>2017-08-03T04:07:11Z</time></trkpt>
<trkpt lat="46.406403" lon="11.604473"><ele>1722.0</ele><time>2017-08-03T04:07:14Z</time></trkpt>
<trkpt lat="46.406319" lon="11.604351"><ele>1722.0</ele><time>2017-08-03T04:07:15Z</time></trkpt>
<trkpt lat="46.406271" lon="11.604184"><ele>1722.0</ele><time>2017-08-03T04:07:15Z</time></trkpt>
<trkpt lat="46.406275" lon="11.604039"><ele>1716.0</ele><time>2017-08-03T04:07:16Z</time></trkpt>
<trkpt lat="46.406321" lon="11.603897"><ele>1716.0</ele><time>2017-08-03T04:07:17Z</time></trkpt>
<trkpt lat="46.406423" lon="11.603794"><ele>1716.0</ele><time>2017-08-03T04:07:18Z</time></trkpt>
<trkpt lat="46.407345" lon="11.603189"><ele>1703.0</ele><time>2017-08-03T04:07:23Z</time></trkpt>
<trkpt lat="46.407435" lon="11.603077"><ele>1703.0</ele><time>2017-08-03T04:07:24Z</time></trkpt>
<trkpt lat="46.407504" lon="11.60293"><ele>1712.0</ele><time>2017-08-03T04:07:27Z</time></trkpt>
<trkpt lat="46.407554" lon="11.602936"><ele>1712.0</ele><time>2017-08-03T04:07:28Z</time></trkpt>
<trkpt lat="46.407651" lon="11.602866"><ele>1712.0</ele><time>2017-08-03T04:07:28Z</time></trkpt>
<trkpt lat="46.407799" lon="11.602659"><ele>1712.0</ele><time>2017-08-03T04:07:30Z</time></trkpt>
<trkpt lat="46.408316" lon="11.601741"><ele>1706.0</ele><time>2017-08-03T04:07:34Z</time></trkpt>
<trkpt lat="46.408449" lon="11.601586"><ele>1708.0</ele><time>2017-08-03T04:07:35Z</time></trkpt>
<trkpt lat="46.408609" lon="11.601463"><ele>1708.0</ele><time>2017-08-03T04:07:37Z</time></trkpt>
<trkpt lat="46.408839" lon="11.601347"><ele>1708.0</ele><time>2017-08-03T04:07:38Z</time></trkpt>
<trkpt lat="46.40981" lon="11.601006"><ele>1721.0</ele><time>2017-08-03T04:07:44Z</time></trkpt>
<trkpt lat="46.409905" lon="11.600909"><ele>1721.0</ele><time>2017-08-03T04:07:45Z</time></trkpt>
<trkpt lat="46.410013" lon="11.600759"><ele>1726.0</ele><time>2017-08-03T04:07:46Z</time></trkpt>
<trkpt lat="46.410385" lon="11.600013"><ele>1726.0</ele><time>2017-08-03T04:07:50Z</time></trkpt>
<trkpt lat="46.410505" lon="11.599861"><ele>1714.0</ele><time>2017-08-03T04:07:51Z</time></trkpt>
<trkpt lat="46.410615" lon="11.599787"><ele>1714.0</ele><time>2017-08-03T04:07:51Z</time></trkpt>
<trkpt lat="46.411033" lon="11.599623"><ele>1726.0</ele><time>2017-08-03T04:07:54Z</time></trkpt>
<trkpt lat="46.411206" lon="11.599472"><ele>1726.0</ele><time>2017-08-03T04:07:55Z</time></trkpt>
<trkpt lat="46.411781" lon="11.59855"><ele>1728.0</ele><time>2017-08-03T04:08:00Z</time></trkpt>
<trkpt lat="46.412048" lon="11.598183"><ele>1721.0</ele><time>2017-08-03T04:08:03Z</time></trkpt>
<trkpt lat="46.412398" lon="11.597865"><ele>1721.0</ele><time>2017-08-03T04:08:05Z</time></trkpt>
<trkpt lat="46.412788" lon="11.597663"><ele>1725.0</ele><time>2017-08-03T04:08:08Z</time></trkpt>
<trkpt lat="46.413163" lon="11.597589"><ele>1725.0</ele><time>2017-08-03T04:08:10Z</time></trkpt>
<trkpt lat="46.413353" lon="11.597586"><ele>1723.0</ele><time>2017-08-03T04:08:11Z</time></trkpt>
<trkpt lat="46.413547" lon="11.597644"><ele>1723.0</ele><time>2017-08-03T04:08:12Z</time></trkpt>
<trkpt lat="46.413691" lon="11.597825"><ele>1723.0</ele><time>2017-08-03T04:08:13Z</time></trkpt>
<trkpt lat="46.414126" lon="11.598541"><ele>1729.0</ele><time>2017-08-03T04:08:17Z</time></trkpt>
<trkpt lat="46.414255" lon="11.598712"><ele>1722.0</ele><time>2017-08-03T04:08:19Z</time></trkpt>
<trkpt lat="46.414443" lon="11.598942"><ele>1722.0</ele><time>2017-08-03T04:08:20Z</time></trkpt>
<trkpt lat="46.415109" lon="11.599621"><ele>1740.0</ele><time>2017-08-03T04:08:25Z</time></trkpt>
<trkpt lat="46.415224" lon="11.599704"><ele>1740.0</ele><time>2017-08-03T04:08:26Z</time></trkpt>
<trkpt lat="46.415353" lon="11.599732"><ele>1740.0</ele><time>2017-08-03T04:08:27Z</time></trkpt>
<trkpt lat="46.415455" lon="11.599628"><ele>1740.0</ele><time>2017-08-03T04:08:27Z</time></trkpt>
<trkpt lat="46.415621" lon="11.599276"><ele>1740.0</ele><time>2017-08-03T04:08:29Z</time></trkpt>
<trkpt lat="46.41572" lon="11.599216"><ele>1740.0</ele><time>2017-08-03T04:08:30Z</time></trkpt>
<trkpt lat="46.415961" lon="11.599301"><ele>1734.0</ele><time>2017-08-03T04:08:31Z</time></trkpt>
<trkpt lat="46.416333" lon="11.59967"><ele>1734.0</ele><time>2017-08-03T04:08:34Z</time></trkpt>
<trkpt lat="46.416495" lon="11.599933"><ele>1734.0</ele><time>2017-08-03T04:08:35Z</time></trkpt>
<trkpt lat="46.416548" lon="11.600148"><ele>1745.0</ele><time>2017-08-03T04:08:37Z</time></trkpt>
<trkpt lat="46.416591" lon="11.600579"><ele>1745.0</ele><time>2017-08-03T04:08:38Z</time></trkpt>
<trkpt lat="46.416645" lon="11.600697"><ele>1745.0</ele><time>2017-08-03T04:08:39Z</time></trkpt>
<trkpt lat="46.416707" lon="11.60074"><ele>1734.0</ele><time>2017-08-03T04:08:40Z</time></trkpt>
<trkpt lat="46.416855" lon="11.600771"><ele>1734.0</ele><time>2017-08-03T04:08:41Z</time></trkpt>
<trkpt lat="46.417303" lon="11.600501"><ele>1734.0</ele><time>2017-08-03T04:08:43Z</time></trkpt>
<trkpt lat="46.417436" lon="11.600537"><ele>1734.0</ele><time>2017-08-03T04:08:44Z</time></trkpt>
<trkpt lat="46.4177" lon="11.60066"><ele>1732.0</ele><time>2017-08-03T04:08:46Z</time></trkpt>
<trkpt lat="46.418082" lon="11.600879"><ele>1746.0</ele><time>2017-08-03T04:08:49Z</time></trkpt>
<trkpt lat="46.418288" lon="11.60089"><ele>1746.0</ele><time>2017-08-03T04:08:50Z</time></trkpt>
<trkpt lat="46.418811" lon="11.600735"><ele>1734.0</ele><time>2017-08-03T04:08:53Z</time></trkpt>
<trkpt lat="46.419052" lon="11.600695"><ele>1734.0</ele><time>2017-08-03T04:08:54Z</time></trkpt>
<trkpt lat="46.419323" lon="11.600702"><ele>1736.0</ele><time>2017-08-03T04:08:56Z</time></trkpt>
<trkpt lat="46.419455" lon="11.600839"><ele>1746.0</ele><time>2017-08-03T04:08:57Z</time></trkpt>
<trkpt lat="46.419711" lon="11.601311"><ele>1746.0</ele><time>2017-08-03T04:09:00Z</time></trkpt>
<trkpt lat="46.419858" lon="11.601371"><ele>1746.0</ele><time>2017-08-03T04:09:01Z</time></trkpt>
<trkpt lat="46.420046" lon="11.601272"><ele>1763.0</ele><time>2017-08-03T04:09:02Z</time></trkpt>
<trkpt lat="46.420306" lon="11.600869"><ele>1763.0</ele><time>2017-08-03T04:09:04Z</time></trkpt>
<trkpt lat="46.420414" lon="11.600546"><ele>1746.0</ele><time>2017-08-03T04:09:06Z</time></trkpt>
<trkpt lat="46.42049" lon="11.600372"><ele>1746.0</ele><time>2017-08-03T04:09:07Z</time></trkpt>
<trkpt lat="46.420596" lon="11.600307"><ele>1746.0</ele><time>2017-08-03T04:09:08Z</time></trkpt>
<trkpt lat="46.420732" lon="11.600323"><ele>1746.0</ele><time>2017-08-03T04:09:09Z</time></trkpt>
<trkpt lat="46.420923" lon="11.600403"><ele>1770.0</ele><time>2017-08-03T04:09:10Z</time></trkpt>
<trkpt lat="46.421021" lon="11.600394"><ele>1770.0</ele><time>2017-08-03T04:09:11Z</time></trkpt>
<trkpt lat="46.421124" lon="11.60027"><ele>1770.0</ele><time>2017-08-03T04:09:12Z</time></trkpt>
<trkpt lat="46.421216" lon="11.599761"><ele>1751.0</ele><time>2017-08-03T04:09:14Z</time></trkpt>
<trkpt lat="46.421292" lon="11.599562"><ele>1751.0</ele><time>2017-08-03T04:09:15Z</time></trkpt>
<trkpt lat="46.421411" lon="11.599498"><ele>1751.0</ele><time>2017-08-03T04:09:16Z</time></trkpt>
<trkpt lat="46.42157" lon="11.599491"><ele>1751.0</ele><time>2017-08-03T04:09:17Z</time></trkpt>
<trkpt lat="46.421745" lon="11.599434"><ele>1771.0</ele><time>2017-08-03T04:09:18Z</time></trkpt>
<trkpt lat="46.422061" lon="11.598996"><ele>1736.0</ele><time>2017-08-03T04:09:22Z</time></trkpt>
<trkpt lat="46.422233" lon="11.598924"><ele>1736.0</ele><time>2017-08-03T04:09:23Z</time></trkpt>
<trkpt lat="46.423048" lon="11.598745"><ele>1756.0</ele><time>2017-08-03T04:09:28Z</time></trkpt>
<trkpt lat="46.423266" lon="11.598604"><ele>1756.0</ele><time>2017-08-03T04:09:29Z</time></trkpt>
<trkpt lat="46.423752" lon="11.597983"><ele>1774.0</ele><time>2017-08-03T04:09:33Z</time></trkpt>
<trkpt lat="46.423845" lon="11.597703"><ele>1774.0</ele><time>2017-08-03T04:09:34Z</time></trkpt>
<trkpt lat="46.423908" lon="11.597435"><ele>1763.0</ele><time>2017-08-03T04:09:36Z</time></trkpt>
<trkpt lat="46.423965" lon="11.59658"><ele>1749.0</ele><time>2017-08-03T04:09:39Z</time></trkpt>
<trkpt lat="46.424043" lon="11.596442"><ele>1749.0</ele><time>2017-08-03T04:09:40Z</time></trkpt>
<trkpt lat="46.424168" lon="11.596317"><ele>1745.0</ele><time>2017-08-03T04:09:41Z</time></trkpt>
<trkpt lat="46.424287" lon="11.596306"><ele>1745.0</ele><time>2017-08-03T04:09:42Z</time></trkpt>
<trkpt lat="46.426216" lon="11.59751"><ele>1768.0</ele><time>2017-08-03T04:09:54Z</time></trkpt>
<trkpt lat="46.426451" lon="11.597581"><ele>1768.0</ele><time>2017-08-03T04:09:56Z</time></trkpt>
<trkpt lat="46.427307" lon="11.597547"><ele>1767.0</ele><time>2017-08-03T04:10:01Z</time></trkpt>
<trkpt lat="46.427556" lon="11.597695"><ele>1755.0</ele><time>2017-08-03T04:10:03Z</time></trkpt>
<trkpt lat="46.427834" lon="11.598129"><ele>1755.0</ele><time>2017-08-03T04:10:05Z</time></trkpt>
<trkpt lat="46.427922" lon="11.598416"><ele>1775.0</ele><time>2017-08-03T04:10:07Z</time></trkpt>
<trkpt lat="46.427995" lon="11.598522"><ele>1775.0</ele><time>2017-08-03T04:10:08Z</time></trkpt>
<trkpt lat="46.428386" lon="11.598698"><ele>1770.0</ele><time>2017-08-03T04:10:10Z</time></trkpt>
<trkpt lat="46.42877" lon="11.59875"><ele>1770.0</ele><time>2017-08-03T04:10:12Z</time></trkpt>
<trkpt lat="46.429177" lon="11.598587"><ele>1771.0</ele><time>2017-08-03T04:10:15Z</time></trkpt>
<trkpt lat="46.429454" lon="11.598524"><ele>1771.0</ele><time>2017-08-03T04:10:17Z</time></trkpt>
<trkpt lat="46.429894" lon="11.59863"><ele>1771.0</ele><time>2017-08-03T04:10:19Z</time></trkpt>
<trkpt lat="46.430377" lon="11.598813"><ele>1776.0</ele><time>2017-08-03T04:10:22Z</time></trkpt>
<trkpt lat="46.430558" lon="11.59875"><ele>1776.0</ele><time>2017-08-03T04:10:23Z</time></trkpt>
<trkpt lat="46.431017" lon="11.598372"><ele>1782.0</ele><time>2017-08-03T04:10:27Z</time></trkpt>
<trkpt lat="46.431709" lon="11.597975"><ele>1778.0</ele><time>2017-08-03T04:10:31Z</time></trkpt>
<trkpt lat="46.431881" lon="11.597797"><ele>1778.0</ele><time>2017-08-03T04:10:32Z</time></trkpt>
<trkpt lat="46.432413" lon="11.596866"><ele>1766.0</ele><time>2017-08-03T04:10:37Z</time></trkpt>
<trkpt lat="46.432632" lon="11.596651"><ele>1764.0</ele><time>2017-08-03T04:10:39Z</time></trkpt>
<trkpt lat="46.433559" lon="11.595915"><ele>1785.0</ele><time>2017-08-03T04:10:45Z</time></trkpt>
<trkpt lat="46.433695" lon="11.595757"><ele>1794.0</ele><time>2017-08-03T04:10:47Z</time></trkpt>
<trkpt lat="46.433728" lon="11.595662"><ele>1794.0</ele><time>2017-08-03T04:10:47Z</time></trkpt>
<trkpt lat="46.433747" lon="11.595555"><ele>1794.0</ele><time>2017-08-03T04:10:47Z</time></trkpt>
<trkpt lat="46.433726" lon="11.595338"><ele>1794.0</ele><time>2017-08-03T04:10:48Z</time></trkpt>
<trkpt lat="46.43335" lon="11.594047"><ele>1818.0</ele><time>2017-08-03T04:10:54Z</time></trkpt>
<trkpt lat="46.432814" lon="11.592736"><ele>1795.0</ele><time>2017-08-03T04:11:01Z</time></trkpt>
<trkpt lat="46.432676" lon="11.592286"><ele>1796.0</ele><time>2017-08-03T04:11:03Z</time></trkpt>
<trkpt lat="46.432396" lon="11.590946"><ele>1773.0</ele><time>2017-08-03T04:11:09Z</time></trkpt>
<trkpt lat="46.43239" lon="11.590664"><ele>1770.0</ele><time>2017-08-03T04:11:10Z</time></trkpt>
<trkpt lat="46.432403" lon="11.590511"><ele>1770.0</ele><time>2017-08-03T04:11:11Z</time></trkpt>
<trkpt lat="46.432488" lon="11.589927"><ele>1760.0</ele><time>2017-08-03T04:11:13Z</time></trkpt>
<trkpt lat="46.432551" lon="11.589716"><ele>1773.0</ele><time>2017-08-03T04:11:14Z</time></trkpt>
<trkpt lat="46.432597" lon="11.589618"><ele>1773.0</ele><time>2017-08-03T04:11:15Z</time></trkpt>
<trkpt lat="46.432739" lon="11.589401"><ele>1773.0</ele><time>2017-08-03T04:11:16Z</time></trkpt>
<trkpt lat="46.432925" lon="11.589248"><ele>1773.0</ele><time>2017-08-03T04:11:17Z</time></trkpt>
<trkpt lat="46.43308" lon="11.589198"><ele>1773.0</ele><time>2017-08-03T04:11:18Z</time></trkpt>
<trkpt lat="46.433262" lon="11.589176"><ele>1773.0</ele><time>2017-08-03T04:11:19Z</time></trkpt>
<trkpt lat="46.433928" lon="11.589118"><ele>1758.0</ele><time>2017-08-03T04:11:23Z</time></trkpt>
<trkpt lat="46.434318" lon="11.589115"><ele>1746.0</ele><time>2017-08-03T04:11:26Z</time></trkpt>
<trkpt lat="46.434557" lon="11.589241"><ele>1767.0</ele><time>2017-08-03T04:11:28Z</time></trkpt>
<trkpt lat="46.434861" lon="11.589676"><ele>1767.0</ele><time>2017-08-03T04:11:30Z</time></trkpt>
<trkpt lat="46.43495" lon="11.589696"><ele>1767.0</ele><time>2017-08-03T04:11:31Z</time></trkpt>
<trkpt lat="46.435045" lon="11.589671"><ele>1758.0</ele><time>2017-08-03T04:11:32Z</time></trkpt>
<trkpt lat="46.435237" lon="11.589495"><ele>1758.0</ele><time>2017-08-03T04:11:33Z</time></trkpt>
<trkpt lat="46.435323" lon="11.589466"><ele>1758.0</ele><time>2017-08-03T04:11:34Z</time></trkpt>
<trkpt lat="46.435445" lon="11.589515"><ele>1758.0</ele><time>2017-08-03T04:11:34Z</time></trkpt>
<trkpt lat="46.43576" lon="11.590078"><ele>1779.0</ele><time>2017-08-03T04:11:37Z</time></trkpt>
<trkpt lat="46.435893" lon="11.590137"><ele>1797.0</ele><time>2017-08-03T04:11:39Z</time></trkpt>
<trkpt lat="46.43597" lon="11.590122"><ele>1797.0</ele><time>2017-08-03T04:11:39Z</time></trkpt>
<trkpt lat="46.436055" lon="11.590024"><ele>1797.0</ele><time>2017-08-03T04:11:40Z</time></trkpt>
<trkpt lat="46.436804" lon="11.588926"><ele>1777.0</ele><time>2017-08-03T04:11:46Z</time></trkpt>
<trkpt lat="46.436934" lon="11.588712"><ele>1777.0</ele><time>2017-08-03T04:11:48Z</time></trkpt>
<trkpt lat="46.437268" lon="11.587974"><ele>1759.0</ele><time>2017-08-03T04:11:51Z</time></trkpt>
<trkpt lat="46.437385" lon="11.587822"><ele>1759.0</ele><time>2017-08-03T04:11:52Z</time></trkpt>
<trkpt lat="46.437536" lon="11.587772"><ele>1751.0</ele><time>2017-08-03T04:11:53Z</time></trkpt>
<trkpt lat="46.437647" lon="11.587794"><ele>1751.0</ele><time>2017-08-03T04:11:54Z</time></trkpt>
<trkpt lat="46.437753" lon="11.587882"><ele>1751.0</ele><time>2017-08-03T04:11:55Z</time></trkpt>
<trkpt lat="46.437969" lon="11.587979"><ele>1751.0</ele><time>2017-08-03T04:11:56Z</time></trkpt>
<trkpt lat="46.438262" lon="11.587938"><ele>1751.0</ele><time>2017-08-03T04:11:58Z</time></trkpt>
<trkpt lat="46.438331" lon="11.587944"><ele>1751.0</ele><time>2017-08-03T04:11:58Z</time></trkpt>
<trkpt lat="46.438456" lon="11.588009"><ele>1736.0</ele><time>2017-08-03T04:11:59Z</time></trkpt>
<trkpt lat="46.438979" lon="11.588634"><ele>1749.0</ele><time>2017-08-03T04:12:04Z</time></trkpt>
<trkpt lat="46.439032" lon="11.588718"><ele>1749.0</ele><time>2017-08-03T04:12:04Z</time></trkpt>
<trkpt lat="46.439077" lon="11.588825"><ele>1749.0</ele><time>2017-08-03T04:12:05Z</time></trkpt>
<trkpt lat="46.439158" lon="11.589222"><ele>1770.0</ele><time>2017-08-03T04:12:07Z</time></trkpt>
<trkpt lat="46.439207" lon="11.589366"><ele>1754.0</ele><time>2017-08-03T04:12:08Z</time></trkpt>
<trkpt lat="46.439302" lon="11.589512"><ele>1754.0</ele><time>2017-08-03T04:12:08Z</time></trkpt>
<trkpt lat="46.439385" lon="11.589594"><ele>1754.0</ele><time>2017-08-03T04:12:09Z</time></trkpt>
<trkpt lat="46.439545" lon="11.589672"><ele>1754.0</ele><time>2017-08-03T04:12:10Z</time></trkpt>
<trkpt lat="46.439763" lon="11.589663"><ele>1754.0</ele><time>2017-08-03T04:12:11Z</time></trkpt>
<trkpt lat="46.439834" lon="11.589634"><ele>1754.0</ele><time>2017-08-03T04:12:12Z</time></trkpt>
<trkpt lat="46.439962" lon="11.589531"><ele>1754.0</ele><time>2017-08-03T04:12:13Z</time></trkpt>
<trkpt lat="46.440351" lon="11.5891"><ele>1733.0</ele><time>2017-08-03T04:12:16Z</time></trkpt>
<trkpt lat="46.440497" lon="11.589039"><ele>1733.0</ele><time>2017-08-03T04:12:17Z</time></trkpt>
<trkpt lat="46.440628" lon="11.589085"><ele>1733.0</ele><time>2017-08-03T04:12:18Z</time></trkpt>
<trkpt lat="46.440694" lon="11.589158"><ele>1733.0</ele><time>2017-08-03T04:12:18Z</time></trkpt>
<trkpt lat="46.440767" lon="11.589336"><ele>1753.0</ele><time>2017-08-03T04:12:19Z</time></trkpt>
<trkpt lat="46.440806" lon="11.589554"><ele>1753.0</ele><time>2017-08-03T04:12:20Z</time></trkpt>
<trkpt lat="46.440876" lon="11.589801"><ele>1736.0</ele><time>2017-08-03T04:12:22Z</time></trkpt>
<trkpt lat="46.44096" lon="11.58992"><ele>1736.0</ele><time>2017-08-03T04:12:23Z</time></trkpt>
<trkpt lat="46.441029" lon="11.589964"><ele>1736.0</ele><time>2017-08-03T04:12:23Z</time></trkpt>
<trkpt lat="46.441257" lon="11.58999"><ele>1736.0</ele><time>2017-08-03T04:12:24Z</time></trkpt>
<trkpt lat="46.441603" lon="11.589987"><ele>1736.0</ele><time>2017-08-03T04:12:26Z</time></trkpt>
<trkpt lat="46.441783" lon="11.589922"><ele>1739.0</ele><time>2017-08-03T04:12:28Z</time></trkpt>
<trkpt lat="46.442041" lon="11.589726"><ele>1739.0</ele><time>2017-08-03T04:12:29Z</time></trkpt>
<trkpt lat="46.443514" lon="11.588861"><ele>1736.0</ele><time>2017-08-03T04:12:39Z</time></trkpt>
<trkpt lat="46.443686" lon="11.588746"><ele>1736.0</ele><time>2017-08-03T04:12:40Z</time></trkpt>
<trkpt lat="46.444004" lon="11.588493"><ele>1736.0</ele><time>2017-08-03T04:12:42Z</time></trkpt>
<trkpt lat="46.444239" lon="11.588369"><ele>1740.0</ele><time>2017-08-03T04:12:44Z</time></trkpt>
<trkpt lat="46.444387" lon="11.588331"><ele>1730.0</ele><time>2017-08-03T04:12:45Z</time></trkpt>
<trkpt lat="46.445024" lon="11.588252"><ele>1732.0</ele><time>2017-08-03T04:12:49Z</time></trkpt>
<trkpt lat="46.445158" lon="11.588253"><ele>1732.0</ele><time>2017-08-03T04:12:49Z</time></trkpt>
<trkpt lat="46.445254" lon="11.588293"><ele>1732.0</ele><time>2017-08-03T04:12:50Z</time></trkpt>
<trkpt lat="46.445395" lon="11.588427"><ele>1738.0</ele><time>2017-08-03T04:12:51Z</time></trkpt>
<trkpt lat="46.445675" lon="11.5889"><ele>1738.0</ele><time>2017-08-03T04:12:54Z</time></trkpt>
<trkpt lat="46.445837" lon="11.589133"><ele>1729.0</ele><time>2017-08-03T04:12:55Z</time></trkpt>
<trkpt lat="46.445965" lon="11.589233"><ele>1738.0</ele><time>2017-08-03T04:12:56Z</time></trkpt>
<trkpt lat="46.4462" lon="11.589305"><ele>1738.0</ele><time>2017-08-03T04:12:58Z</time></trkpt>
<trkpt lat="46.446313" lon="11.589409"><ele>1738.0</ele><time>2017-08-03T04:12:58Z</time></trkpt>
<trkpt lat="46.446392" lon="11.589558"><ele>1738.0</ele><time>2017-08-03T04:12:59Z</time></trkpt>
<trkpt lat="46.446518" lon="11.589942"><ele>1738.0</ele><time>2017-08-03T04:13:01Z</time></trkpt>
<trkpt lat="46.44665" lon="11.590039"><ele>1751.0</ele><time>2017-08-03T04:13:02Z</time></trkpt>
<trkpt lat="46.446723" lon="11.590038"><ele>1771.0</ele><time>2017-08-03T04:13:03Z</time></trkpt>
<trkpt lat="46.446763" lon="11.59002"><ele>1771.0</ele><time>2017-08-03T04:13:03Z</time></trkpt>
<trkpt lat="46.446856" lon="11.589894"><ele>1757.0</ele><time>2017-08-03T04:13:05Z</time></trkpt>
<trkpt lat="46.446966" lon="11.589238"><ele>1757.0</ele><time>2017-08-03T04:13:07Z</time></trkpt>
<trkpt lat="46.446974" lon="11.588903"><ele>1742.0</ele><time>2017-08-03T04:13:09Z</time></trkpt>
<trkpt lat="46.446936" lon="11.588528"><ele>1742.0</ele><time>2017-08-03T04:13:11Z</time></trkpt>
<trkpt lat="46.446938" lon="11.588417"><ele>1742.0</ele><time>2017-08-03T04:13:11Z</time></trkpt>
<trkpt lat="46.44697" lon="11.588237"><ele>1731.0</ele><time>2017-08-03T04:13:12Z</time></trkpt>
<trkpt lat="46.447025" lon="11.58809"><ele>1731.0</ele><time>2017-08-03T04:13:13Z</time></trkpt>
<trkpt lat="46.447767" lon="11.586891"><ele>1729.0</ele><time>2017-08-03T04:13:19Z</time></trkpt>
<trkpt lat="46.447829" lon="11.586819"><ele>1729.0</ele><time>2017-08-03T04:13:20Z</time></trkpt>
<trkpt lat="46.447997" lon="11.586681"><ele>1729.0</ele><time>2017-08-03T04:13:21Z</time></trkpt>
<trkpt lat="46.448561" lon="11.586299"><ele>1714.0</ele><time>2017-08-03T04:13:25Z</time></trkpt>
<trkpt lat="46.448693" lon="11.58627"><ele>1714.0</ele><time>2017-08-03T04:13:26Z</time></trkpt>
<trkpt lat="46.448776" lon="11.586295"><ele>1714.0</ele><time>2017-08-03T04:13:26Z</time></trkpt>
<trkpt lat="46.448859" lon="11.586361"><ele>1714.0</ele><time>2017-08-03T04:13:27Z</time></trkpt>
<trkpt lat="46.44894" lon="11.586495"><ele>1714.0</ele><time>2017-08-03T04:13:27Z</time></trkpt>
<trkpt lat="46.449103" lon="11.586857"><ele>1723.0</ele><time>2017-08-03T04:13:29Z</time></trkpt>
<trkpt lat="46.44915" lon="11.586924"><ele>1723.0</ele><time>2017-08-03T04:13:30Z</time></trkpt>
<trkpt lat="46.449257" lon="11.586991"><ele>1725.0</ele><time>2017-08-03T04:13:30Z</time></trkpt>
<trkpt lat="46.449342" lon="11.586997"><ele>1725.0</ele><time>2017-08-03T04:13:31Z</time></trkpt>
<trkpt lat="46.449441" lon="11.586938"><ele>1725.0</ele><time>2017-08-03T04:13:32Z</time></trkpt>
<trkpt lat="46.449654" lon="11.586675"><ele>1725.0</ele><time>2017-08-03T04:13:33Z</time></trkpt>
<trkpt lat="46.449758" lon="11.586589"><ele>1712.0</ele><time>2017-08-03T04:13:34Z</time></trkpt>
<trkpt lat="46.449874" lon="11.586535"><ele>1712.0</ele><time>2017-08-03T04:13:35Z</time></trkpt>
<trkpt lat="46.449993" lon="11.586513"><ele>1712.0</ele><time>2017-08-03T04:13:36Z</time></trkpt>
<trkpt lat="46.450184" lon="11.586566"><ele>1719.0</ele><time>2017-08-03T04:13:37Z</time></trkpt>
<trkpt lat="46.450687" lon="11.586907"><ele>1726.0</ele><time>2017-08-03T04:13:40Z</time></trkpt>
<trkpt lat="46.450777" lon="11.586949"><ele>1726.0</ele><time>2017-08-03T04:13:41Z</time></trkpt>
<trkpt lat="46.45128" lon="11.587008"><ele>1720.0</ele><time>2017-08-03T04:13:44Z</time></trkpt>
<trkpt lat="46.45159" lon="11.587026"><ele>1720.0</ele><time>2017-08-03T04:13:46Z</time></trkpt>
<trkpt lat="46.451717" lon="11.587014"><ele>1733.0</ele><time>2017-08-03T04:13:47Z</time></trkpt>
<trkpt lat="46.45188" lon="11.586925"><ele>1733.0</ele><time>2017-08-03T04:13:48Z</time></trkpt>
<trkpt lat="46.451989" lon="11.586805"><ele>1733.0</ele><time>2017-08-03T04:13:49Z</time></trkpt>
<trkpt lat="46.452934" lon="11.585427"><ele>1700.0</ele><time>2017-08-03T04:13:57Z</time></trkpt>
<trkpt lat="46.453066" lon="11.585271"><ele>1700.0</ele><time>2017-08-03T04:13:58Z</time></trkpt>
<trkpt lat="46.453209" lon="11.585143"><ele>1700.0</ele><time>2017-08-03T04:13:59Z</time></trkpt>
<trkpt lat="46.453377" lon="11.585057"><ele>1698.0</ele><time>2017-08-03T04:14:00Z</time></trkpt>
<trkpt lat="46.453535" lon="11.585018"><ele>1698.0</ele><time>2017-08-03T04:14:01Z</time></trkpt>
<trkpt lat="46.453725" lon="11.585015"><ele>1698.0</ele><time>2017-08-03T04:14:02Z</time></trkpt>
<trkpt lat="46.454604" lon="11.585167"><ele>1694.0</ele><time>2017-08-03T04:14:07Z</time></trkpt>
<trkpt lat="46.454826" lon="11.585235"><ele>1694.0</ele><time>2017-08-03T04:14:09Z</time></trkpt>
<trkpt lat="46.454936" lon="11.585339"><ele>1694.0</ele><time>2017-08-03T04:14:10Z</time></trkpt>
<trkpt lat="46.455071" lon="11.585569"><ele>1700.0</ele><time>2017-08-03T04:14:11Z</time></trkpt>
<trkpt lat="46.455147" lon="11.585732"><ele>1700.0</ele><time>2017-08-03T04:14:12Z</time></trkpt>
<trkpt lat="46.455245" lon="11.585866"><ele>1691.0</ele><time>2017-08-03T04:14:13Z</time></trkpt>
<trkpt lat="46.455328" lon="11.585916"><ele>1691.0</ele><time>2017-08-03T04:14:13Z</time></trkpt>
<trkpt lat="46.455394" lon="11.585932"><ele>1691.0</ele><time>2017-08-03T04:14:14Z</time></trkpt>
<trkpt lat="46.455485" lon="11.585909"><ele>1691.0</ele><time>2017-08-03T04:14:14Z</time></trkpt>
<trkpt lat="46.45564" lon="11.585775"><ele>1700.0</ele><time>2017-08-03T04:14:15Z</time></trkpt>
<trkpt lat="46.455772" lon="11.585712"><ele>1700.0</ele><time>2017-08-03T04:14:16Z</time></trkpt>
<trkpt lat="46.455874" lon="11.585744"><ele>1705.0</ele><time>2017-08-03T04:14:17Z</time></trkpt>
<trkpt lat="46.455952" lon="11.585818"><ele>1705.0</ele><time>2017-08-03T04:14:17Z</time></trkpt>
<trkpt lat="46.455994" lon="11.585915"><ele>1691.0</ele><time>2017-08-03T04:14:18Z</time></trkpt>
<trkpt lat="46.456016" lon="11.586086"><ele>1691.0</ele><time>2017-08-03T04:14:19Z</time></trkpt>
<trkpt lat="46.45595" lon="11.586254"><ele>1691.0</ele><time>2017-08-03T04:14:20Z</time></trkpt>
<trkpt lat="46.455485" lon="11.586629"><ele>1691.0</ele><time>2017-08-03T04:14:23Z</time></trkpt>
<trkpt lat="46.455372" lon="11.586801"><ele>1685.0</ele><time>2017-08-03T04:14:24Z</time></trkpt>
<trkpt lat="46.455207" lon="11.587143"><ele>1685.0</ele><time>2017-08-03T04:14:26Z</time></trkpt>
<trkpt lat="46.455097" lon="11.587491"><ele>1685.0</ele><time>2017-08-03T04:14:27Z</time></trkpt>
<trkpt lat="46.455035" lon="11.587763"><ele>1669.0</ele><time>2017-08-03T04:14:29Z</time></trkpt>
<trkpt lat="46.454952" lon="11.588193"><ele>1703.0</ele><time>2017-08-03T04:14:31Z</time></trkpt>
<trkpt lat="46.454926" lon="11.588407"><ele>1689.0</ele><time>2017-08-03T04:14:33Z</time></trkpt>
<trkpt lat="46.454851" lon="11.589363"><ele>1680.0</ele><time>2017-08-03T04:14:37Z</time></trkpt>
<trkpt lat="46.454858" lon="11.589501"><ele>1680.0</ele><time>2017-08-03T04:14:37Z</time></trkpt>
<trkpt lat="46.454904" lon="11.589701"><ele>1680.0</ele><time>2017-08-03T04:14:38Z</time></trkpt>
<trkpt lat="46.455124" lon="11.590349"><ele>1641.0</ele><time>2017-08-03T04:14:42Z</time></trkpt>
<trkpt lat="46.455163" lon="11.590553"><ele>1641.0</ele><time>2017-08-03T04:14:43Z</time></trkpt>
<trkpt lat="46.455157" lon="11.590656"><ele>1641.0</ele><time>2017-08-03T04:14:43Z</time></trkpt>
<trkpt lat="46.455073" lon="11.590898"><ele>1647.0</ele><time>2017-08-03T04:14:44Z</time></trkpt>
<trkpt lat="46.45501" lon="11.591017"><ele>1647.0</ele><time>2017-08-03T04:14:45Z</time></trkpt>
<trkpt lat="46.454842" lon="11.591235"><ele>1671.0</ele><time>2017-08-03T04:14:47Z</time></trkpt>
<trkpt lat="46.454821" lon="11.591372"><ele>1671.0</ele><time>2017-08-03T04:14:47Z</time></trkpt>
<trkpt lat="46.454834" lon="11.591436"><ele>1671.0</ele><time>2017-08-03T04:14:48Z</time></trkpt>
<trkpt lat="46.454921" lon="11.591521"><ele>1671.0</ele><time>2017-08-03T04:14:48Z</time></trkpt>
<trkpt lat="46.455219" lon="11.591478"><ele>1647.0</ele><time>2017-08-03T04:14:50Z</time></trkpt>
<trkpt lat="46.455391" lon="11.591387"><ele>1647.0</ele><time>2017-08-03T04:14:51Z</time></trkpt>
<trkpt lat="46.455973" lon="11.590934"><ele>1642.0</ele><time>2017-08-03T04:14:55Z</time></trkpt>
<trkpt lat="46.456282" lon="11.590773"><ele>1621.0</ele><time>2017-08-03T04:14:58Z</time></trkpt>
<trkpt lat="46.456475" lon="11.590719"><ele>1621.0</ele><time>2017-08-03T04:14:59Z</time></trkpt>
<trkpt lat="46.456599" lon="11.590764"><ele>1621.0</ele><time>2017-08-03T04:15:00Z</time></trkpt>
<trkpt lat="46.456682" lon="11.59087"><ele>1620.0</ele><time>2017-08-03T04:15:00Z</time></trkpt>
<trkpt lat="46.457025" lon="11.591696"><ele>1620.0</ele><time>2017-08-03T04:15:04Z</time></trkpt>
<trkpt lat="46.457056" lon="11.59183"><ele>1620.0</ele><time>2017-08-03T04:15:05Z</time></trkpt>
<trkpt lat="46.457133" lon="11.592629"><ele>1615.0</ele><time>2017-08-03T04:15:08Z</time></trkpt>
<trkpt lat="46.457287" lon="11.593417"><ele>1610.0</ele><time>2017-08-03T04:15:12Z</time></trkpt>
<trkpt lat="46.457303" lon="11.593575"><ele>1610.0</ele><time>2017-08-03T04:15:12Z</time></trkpt>
<trkpt lat="46.457234" lon="11.594762"><ele>1610.0</ele><time>2017-08-03T04:15:17Z</time></trkpt>
<trkpt lat="46.457253" lon="11.595004"><ele>1609.0</ele><time>2017-08-03T04:15:18Z</time></trkpt>
<trkpt lat="46.457296" lon="11.595135"><ele>1609.0</ele><time>2017-08-03T04:15:19Z</time></trkpt>
<trkpt lat="46.457352" lon="11.595202"><ele>1609.0</ele><time>2017-08-03T04:15:19Z</time></trkpt>
<trkpt lat="46.457547" lon="11.595325"><ele>1613.0</ele><time>2017-08-03T04:15:21Z</time></trkpt>
<trkpt lat="46.457659" lon="11.595345"><ele>1613.0</ele><time>2017-08-03T04:15:21Z</time></trkpt>
<trkpt lat="46.457774" lon="11.595291"><ele>1613.0</ele><time>2017-08-03T04:15:22Z</time></trkpt>
<trkpt lat="46.458367" lon="11.594388"><ele>1597.0</ele><time>2017-08-03T04:15:27Z</time></trkpt>
<trkpt lat="46.458543" lon="11.594205"><ele>1597.0</ele><time>2017-08-03T04:15:29Z</time></trkpt>
<trkpt lat="46.458733" lon="11.594069"><ele>1586.0</ele><time>2017-08-03T04:15:30Z</time></trkpt>
<trkpt lat="46.458844" lon="11.593963"><ele>1586.0</ele><time>2017-08-03T04:15:31Z</time></trkpt>
<trkpt lat="46.45925" lon="11.593327"><ele>1566.0</ele><time>2017-08-03T04:15:35Z</time></trkpt>
<trkpt lat="46.459322" lon="11.593266"><ele>1566.0</ele><time>2017-08-03T04:15:35Z</time></trkpt>
<trkpt lat="46.459443" lon="11.593223"><ele>1566.0</ele><time>2017-08-03T04:15:36Z</time></trkpt>
<trkpt lat="46.459557" lon="11.593213"><ele>1566.0</ele><time>2017-08-03T04:15:36Z</time></trkpt>
<trkpt lat="46.460024" lon="11.593317"><ele>1550.0</ele><time>2017-08-03T04:15:39Z</time></trkpt>
<trkpt lat="46.460096" lon="11.593369"><ele>1564.0</ele><time>2017-08-03T04:15:40Z</time></trkpt>
<trkpt lat="46.460134" lon="11.593423"><ele>1564.0</ele><time>2017-08-03T04:15:41Z</time></trkpt>
<trkpt lat="46.460181" lon="11.593565"><ele>1564.0</ele><time>2017-08-03T04:15:41Z</time></trkpt>
<trkpt lat="46.460194" lon="11.593654"><ele>1564.0</ele><time>2017-08-03T04:15:42Z</time></trkpt>
<trkpt lat="46.460188" lon="11.593738"><ele>1564.0</ele><time>2017-08-03T04:15:42Z</time></trkpt>
<trkpt lat="46.460147" lon="11.593892"><ele>1564.0</ele><time>2017-08-03T04:15:43Z</time></trkpt>
<trkpt lat="46.459708" lon="11.594736"><ele>1585.0</ele><time>2017-08-03T04:15:47Z</time></trkpt>
<trkpt lat="46.459706" lon="11.594912"><ele>1585.0</ele><time>2017-08-03T04:15:48Z</time></trkpt>
<trkpt lat="46.459758" lon="11.595115"><ele>1590.0</ele><time>2017-08-03T04:15:49Z</time></trkpt>
<trkpt lat="46.459792" lon="11.595146"><ele>1590.0</ele><time>2017-08-03T04:15:49Z</time></trkpt>
<trkpt lat="46.460035" lon="11.595094"><ele>1605.0</ele><time>2017-08-03T04:15:51Z</time></trkpt>
<trkpt lat="46.460346" lon="11.594939"><ele>1580.0</ele><time>2017-08-03T04:15:53Z</time></trkpt>
<trkpt lat="46.460579" lon="11.594777"><ele>1580.0</ele><time>2017-08-03T04:15:55Z</time></trkpt>
<trkpt lat="46.460741" lon="11.594634"><ele>1580.0</ele><time>2017-08-03T04:15:56Z</time></trkpt>
<trkpt lat="46.460893" lon="11.594439"><ele>1620.0</ele><time>2017-08-03T04:15:58Z</time></trkpt>
<trkpt lat="46.460985" lon="11.594215"><ele>1620.0</ele><time>2017-08-03T04:15:59Z</time></trkpt>
<trkpt lat="46.461056" lon="11.593816"><ele>1594.0</ele><time>2017-08-03T04:16:02Z</time></trkpt>
<trkpt lat="46.461464" lon="11.592684"><ele>1562.0</ele><time>2017-08-03T04:16:07Z</time></trkpt>
<trkpt lat="46.461552" lon="11.592512"><ele>1562.0</ele><time>2017-08-03T04:16:08Z</time></trkpt>
<trkpt lat="46.461737" lon="11.592301"><ele>1555.0</ele><time>2017-08-03T04:16:10Z</time></trkpt>
<trkpt lat="46.461834" lon="11.592098"><ele>1555.0</ele><time>2017-08-03T04:16:11Z</time></trkpt>
<trkpt lat="46.461941" lon="11.59195"><ele>1555.0</ele><time>2017-08-03T04:16:12Z</time></trkpt>
<trkpt lat="46.461985" lon="11.591918"><ele>1555.0</ele><time>2017-08-03T04:16:12Z</time></trkpt>
<trkpt lat="46.462305" lon="11.591812"><ele>1555.0</ele><time>2017-08-03T04:16:14Z</time></trkpt>
<trkpt lat="46.462515" lon="11.591668"><ele>1574.0</ele><time>2017-08-03T04:16:16Z</time></trkpt>
<trkpt lat="46.462766" lon="11.591431"><ele>1544.0</ele><time>2017-08-03T04:16:18Z</time></trkpt>
<trkpt lat="46.46327" lon="11.590872"><ele>1544.0</ele><time>2017-08-03T04:16:22Z</time></trkpt>
<trkpt lat="46.463401" lon="11.590768"><ele>1515.0</ele><time>2017-08-03T04:16:24Z</time></trkpt>
<trkpt lat="46.46357" lon="11.590765"><ele>1515.0</ele><time>2017-08-03T04:16:25Z</time></trkpt>
<trkpt lat="46.463853" lon="11.590851"><ele>1536.0</ele><time>2017-08-03T04:16:27Z</time></trkpt>
<trkpt lat="46.46401" lon="11.590952"><ele>1536.0</ele><time>2017-08-03T04:16:28Z</time></trkpt>
<trkpt lat="46.464268" lon="11.591212"><ele>1514.0</ele><time>2017-08-03T04:16:30Z</time></trkpt>
<trkpt lat="46.464367" lon="11.591222"><ele>1514.0</ele><time>2017-08-03T04:16:31Z</time></trkpt>
<trkpt lat="46.464418" lon="11.59117"><ele>1514.0</ele><time>2017-08-03T04:16:31Z</time></trkpt>
<trkpt lat="46.464425" lon="11.591114"><ele>1514.0</ele><time>2017-08-03T04:16:31Z</time></trkpt>
<trkpt lat="46.464386" lon="11.590953"><ele>1514.0</ele><time>2017-08-03T04:16:32Z</time></trkpt>
<trkpt lat="46.464342" lon="11.590892"><ele>1514.0</ele><time>2017-08-03T04:16:32Z</time></trkpt>
<trkpt lat="46.464238" lon="11.590811"><ele>1504.0</ele><time>2017-08-03T04:16:33Z</time></trkpt>
<trkpt lat="46.463808" lon="11.590562"><ele>1515.0</ele><time>2017-08-03T04:16:36Z</time></trkpt>
<trkpt lat="46.463427" lon="11.590501"><ele>1515.0</ele><time>2017-08-03T04:16:38Z</time></trkpt>
<trkpt lat="46.463327" lon="11.590421"><ele>1519.0</ele><time>2017-08-03T04:16:39Z</time></trkpt>
<trkpt lat="46.463317" lon="11.590365"><ele>1519.0</ele><time>2017-08-03T04:16:39Z</time></trkpt>
<trkpt lat="46.463326" lon="11.59031"><ele>1519.0</ele><time>2017-08-03T04:16:39Z</time></trkpt>
<trkpt lat="46.463424" lon="11.590244"><ele>1515.0</ele><time>2017-08-03T04:16:40Z</time></trkpt>
<trkpt lat="46.463808" lon="11.5904"><ele>1515.0</ele><time>2017-08-03T04:16:42Z</time></trkpt>
<trkpt lat="46.464417" lon="11.590429"><ele>1504.0</ele><time>2017-08-03T04:16:46Z</time></trkpt>
<trkpt lat="46.464547" lon="11.59048"><ele>1504.0</ele><time>2017-08-03T04:16:47Z</time></trkpt>
<trkpt lat="46.464592" lon="11.590522"><ele>1504.0</ele><time>2017-08-03T04:16:47Z</time></trkpt>
<trkpt lat="46.464654" lon="11.590643"><ele>1504.0</ele><time>2017-08-03T04:16:48Z</time></trkpt>
<trkpt lat="46.46468" lon="11.590771"><ele>1504.0</ele><time>2017-08-03T04:16:49Z</time></trkpt>
<trkpt lat="46.464755" lon="11.591482"><ele>1514.0</ele><time>2017-08-03T04:16:52Z</time></trkpt>
<trkpt lat="46.464788" lon="11.591628"><ele>1514.0</ele><time>2017-08-03T04:16:52Z</time></trkpt>
<trkpt lat="46.46486" lon="11.591804"><ele>1524.0</ele><time>2017-08-03T04:16:53Z</time></trkpt>
<trkpt lat="46.464901" lon="11.591847"><ele>1524.0</ele><time>2017-08-03T04:16:53Z</time></trkpt>
<trkpt lat="46.464956" lon="11.591863"><ele>1524.0</ele><time>2017-08-03T04:16:54Z</time></trkpt>
<trkpt lat="46.465012" lon="11.591849"><ele>1547.0</ele><time>2017-08-03T04:16:55Z</time></trkpt>
<trkpt lat="46.465094" lon="11.591785"><ele>1547.0</ele><time>2017-08-03T04:16:56Z</time></trkpt>
<trkpt lat="46.465569" lon="11.591155"><ele>1524.0</ele><time>2017-08-03T04:17:00Z</time></trkpt>
<trkpt lat="46.465679" lon="11.590976"><ele>1524.0</ele><time>2017-08-03T04:17:01Z</time></trkpt>
<trkpt lat="46.465954" lon="11.5897"><ele>1518.0</ele><time>2017-08-03T04:17:06Z</time></trkpt>
<trkpt lat="46.466194" lon="11.588801"><ele>1497.0</ele><time>2017-08-03T04:17:10Z</time></trkpt>
<trkpt lat="46.466298" lon="11.588493"><ele>1497.0</ele><time>2017-08-03T04:17:12Z</time></trkpt>
<trkpt lat="46.466402" lon="11.58833"><ele>1478.0</ele><time>2017-08-03T04:17:13Z</time></trkpt>
<trkpt lat="46.466744" lon="11.587987"><ele>1502.0</ele><time>2017-08-03T04:17:16Z</time></trkpt>
<trkpt lat="46.466894" lon="11.587795"><ele>1502.0</ele><time>2017-08-03T04:17:17Z</time></trkpt>
<trkpt lat="46.467097" lon="11.587401"><ele>1493.0</ele><time>2017-08-03T04:17:19Z</time></trkpt>
<trkpt lat="46.467172" lon="11.587177"><ele>1493.0</ele><time>2017-08-03T04:17:20Z</time></trkpt>
<trkpt lat="46.467239" lon="11.586884"><ele>1493.0</ele><time>2017-08-03T04:17:22Z</time></trkpt>
<trkpt lat="46.467285" lon="11.58626"><ele>1486.0</ele><time>2017-08-03T04:17:24Z</time></trkpt>
<trkpt lat="46.467332" lon="11.585958"><ele>1486.0</ele><time>2017-08-03T04:17:26Z</time></trkpt>
<trkpt lat="46.467455" lon="11.585379"><ele>1466.0</ele><time>2017-08-03T04:17:28Z</time></trkpt>
<trkpt lat="46.467612" lon="11.584953"><ele>1459.0</ele><time>2017-08-03T04:17:30Z</time></trkpt>
<trkpt lat="46.467793" lon="11.584608"><ele>1459.0</ele><time>2017-08-03T04:17:32Z</time></trkpt>
<trkpt lat="46.467988" lon="11.584365"><ele>1459.0</ele><time>2017-08-03T04:17:34Z</time></trkpt>
<trkpt lat="46.468139" lon="11.584251"><ele>1459.0</ele><time>2017-08-03T04:17:35Z</time></trkpt>
<trkpt lat="46.468305" lon="11.584219"><ele>1459.0</ele><time>2017-08-03T04:17:36Z</time></trkpt>
<trkpt lat="46.468691" lon="11.584287"><ele>1431.0</ele><time>2017-08-03T04:17:38Z</time></trkpt>
<trkpt lat="46.468844" lon="11.584429"><ele>1431.0</ele><time>2017-08-03T04:17:40Z</time></trkpt>
<trkpt lat="46.468986" lon="11.584754"><ele>1431.0</ele><time>2017-08-03T04:17:41Z</time></trkpt>
<trkpt lat="46.469056" lon="11.585065"><ele>1447.0</ele><time>2017-08-03T04:17:43Z</time></trkpt>
<trkpt lat="46.469095" lon="11.585464"><ele>1447.0</ele><time>2017-08-03T04:17:44Z</time></trkpt>
<trkpt lat="46.46913" lon="11.585526"><ele>1447.0</ele><time>2017-08-03T04:17:45Z</time></trkpt>
<trkpt lat="46.469177" lon="11.585557"><ele>1415.0</ele><time>2017-08-03T04:17:47Z</time></trkpt>
<trkpt lat="46.469254" lon="11.585507"><ele>1415.0</ele><time>2017-08-03T04:17:47Z</time></trkpt>
<trkpt lat="46.469276" lon="11.585447"><ele>1415.0</ele><time>2017-08-03T04:17:47Z</time></trkpt>
<trkpt lat="46.469277" lon="11.585377"><ele>1415.0</ele><time>2017-08-03T04:17:48Z</time></trkpt>
<trkpt lat="46.469206" lon="11.58498"><ele>1405.0</ele><time>2017-08-03T04:17:49Z</time></trkpt>
<trkpt lat="46.469117" lon="11.584214"><ele>1431.0</ele><time>2017-08-03T04:17:53Z</time></trkpt>
<trkpt lat="46.469012" lon="11.583956"><ele>1402.0</ele><time>2017-08-03T04:17:55Z</time></trkpt>
<trkpt lat="46.468916" lon="11.583839"><ele>1402.0</ele><time>2017-08-03T04:17:56Z</time></trkpt>
<trkpt lat="46.468395" lon="11.583457"><ele>1402.0</ele><time>2017-08-03T04:17:59Z</time></trkpt>
<trkpt lat="46.468295" lon="11.583365"><ele>1429.0</ele><time>2017-08-03T04:18:01Z</time></trkpt>
<trkpt lat="46.46792" lon="11.582815"><ele>1403.0</ele><time>2017-08-03T04:18:04Z</time></trkpt>
<trkpt lat="46.467784" lon="11.582739"><ele>1403.0</ele><time>2017-08-03T04:18:05Z</time></trkpt>
<trkpt lat="46.46768" lon="11.582726"><ele>1403.0</ele><time>2017-08-03T04:18:06Z</time></trkpt>
<trkpt lat="46.467399" lon="11.582754"><ele>1403.0</ele><time>2017-08-03T04:18:07Z</time></trkpt>
<trkpt lat="46.467242" lon="11.582842"><ele>1403.0</ele><time>2017-08-03T04:18:08Z</time></trkpt>
<trkpt lat="46.46692" lon="11.583139"><ele>1403.0</ele><time>2017-08-03T04:18:11Z</time></trkpt>
<trkpt lat="46.466778" lon="11.583319"><ele>1403.0</ele><time>2017-08-03T04:18:12Z</time></trkpt>
<trkpt lat="46.46673" lon="11.58334"><ele>1423.0</ele><time>2017-08-03T04:18:13Z</time></trkpt>
<trkpt lat="46.466689" lon="11.583333"><ele>1403.0</ele><time>2017-08-03T04:18:14Z</time></trkpt>
<trkpt lat="46.466657" lon="11.583294"><ele>1390.0</ele><time>2017-08-03T04:18:15Z</time></trkpt>
<trkpt lat="46.466645" lon="11.583179"><ele>1390.0</ele><time>2017-08-03T04:18:15Z</time></trkpt>
<trkpt lat="46.466671" lon="11.583127"><ele>1403.0</ele><time>2017-08-03T04:18:16Z</time></trkpt>
<trkpt lat="46.466921" lon="11.582856"><ele>1403.0</ele><time>2017-08-03T04:18:18Z</time></trkpt>
<trkpt lat="46.467225" lon="11.582271"><ele>1385.0</ele><time>2017-08-03T04:18:21Z</time></trkpt>
<trkpt lat="46.467367" lon="11.581935"><ele>1385.0</ele><time>2017-08-03T04:18:23Z</time></trkpt>
<trkpt lat="46.467528" lon="11.581164"><ele>1367.0</ele><time>2017-08-03T04:18:26Z</time></trkpt>
<trkpt lat="46.467614" lon="11.580993"><ele>1367.0</ele><time>2017-08-03T04:18:27Z</time></trkpt>
<trkpt lat="46.467734" lon="11.58091"><ele>1367.0</ele><time>2017-08-03T04:18:28Z</time></trkpt>
<trkpt lat="46.467905" lon="11.580921"><ele>1367.0</ele><time>2017-08-03T04:18:29Z</time></trkpt>
<trkpt lat="46.468041" lon="11.581004"><ele>1367.0</ele><time>2017-08-03T04:18:30Z</time></trkpt>
<trkpt lat="46.468097" lon="11.581067"><ele>1367.0</ele><time>2017-08-03T04:18:30Z</time></trkpt>
<trkpt lat="46.468159" lon="11.581191"><ele>1367.0</ele><time>2017-08-03T04:18:31Z</time></trkpt>
<trkpt lat="46.468304" lon="11.581591"><ele>1367.0</ele><time>2017-08-03T04:18:33Z</time></trkpt>
<trkpt lat="46.468507" lon="11.581971"><ele>1381.0</ele><time>2017-08-03T04:18:35Z</time></trkpt>
<trkpt lat="46.468594" lon="11.582106"><ele>1381.0</ele><time>2017-08-03T04:18:36Z</time></trkpt>
<trkpt lat="46.468688" lon="11.582213"><ele>1381.0</ele><time>2017-08-03T04:18:36Z</time></trkpt>
<trkpt lat="46.468784" lon="11.58226"><ele>1381.0</ele><time>2017-08-03T04:18:37Z</time></trkpt>
<trkpt lat="46.468834" lon="11.582244"><ele>1381.0</ele><time>2017-08-03T04:18:37Z</time></trkpt>
<trkpt lat="46.46913" lon="11.582021"><ele>1381.0</ele><time>2017-08-03T04:18:39Z</time></trkpt>
<trkpt lat="46.469151" lon="11.581973"><ele>1381.0</ele><time>2017-08-03T04:18:40Z</time></trkpt>
<trkpt lat="46.469125" lon="11.581788"><ele>1381.0</ele><time>2017-08-03T04:18:40Z</time></trkpt>
<trkpt lat="46.469045" lon="11.581545"><ele>1365.0</ele><time>2017-08-03T04:18:42Z</time></trkpt>
<trkpt lat="46.469033" lon="11.581357"><ele>1365.0</ele><time>2017-08-03T04:18:43Z</time></trkpt>
<trkpt lat="46.469253" lon="11.580736"><ele>1438.0</ele><time>2017-08-03T04:18:47Z</time></trkpt>
<trkpt lat="46.469231" lon="11.579966"><ele>1444.0</ele><time>2017-08-03T04:18:51Z</time></trkpt>
<trkpt lat="46.469162" lon="11.579824"><ele>1389.0</ele><time>2017-08-03T04:18:54Z</time></trkpt>
<trkpt lat="46.468977" lon="11.57961"><ele>1389.0</ele><time>2017-08-03T04:18:55Z</time></trkpt>
<trkpt lat="46.468893" lon="11.579518"><ele>1389.0</ele><time>2017-08-03T04:18:56Z</time></trkpt>
<trkpt lat="46.468728" lon="11.579395"><ele>1389.0</ele><time>2017-08-03T04:18:57Z</time></trkpt>
<trkpt lat="46.46865" lon="11.579242"><ele>1389.0</ele><time>2017-08-03T04:18:58Z</time></trkpt>
<trkpt lat="46.468633" lon="11.579147"><ele>1394.0</ele><time>2017-08-03T04:18:58Z</time></trkpt>
<trkpt lat="46.468621" lon="11.578891"><ele>1394.0</ele><time>2017-08-03T04:18:59Z</time></trkpt>
<trkpt lat="46.468524" lon="11.578405"><ele>1394.0</ele><time>2017-08-03T04:19:01Z</time></trkpt>
<trkpt lat="46.468531" lon="11.57804"><ele>1381.0</ele><time>2017-08-03T04:19:03Z</time></trkpt>
<trkpt lat="46.468606" lon="11.577471"><ele>1372.0</ele><time>2017-08-03T04:19:05Z</time></trkpt>
<trkpt lat="46.46871" lon="11.577031"><ele>1372.0</ele><time>2017-08-03T04:19:07Z</time></trkpt>
<trkpt lat="46.46876" lon="11.576332"><ele>1363.0</ele><time>2017-08-03T04:19:10Z</time></trkpt>
<trkpt lat="46.468751" lon="11.576208"><ele>1363.0</ele><time>2017-08-03T04:19:11Z</time></trkpt>
<trkpt lat="46.468729" lon="11.57613"><ele>1363.0</ele><time>2017-08-03T04:19:11Z</time></trkpt>
<trkpt lat="46.46852" lon="11.57579"><ele>1354.0</ele><time>2017-08-03T04:19:13Z</time></trkpt>
<trkpt lat="46.468469" lon="11.575605"><ele>1354.0</ele><time>2017-08-03T04:19:14Z</time></trkpt>
<trkpt lat="46.468489" lon="11.57533"><ele>1354.0</ele><time>2017-08-03T04:19:15Z</time></trkpt>
<trkpt lat="46.468519" lon="11.57523"><ele>1354.0</ele><time>2017-08-03T04:19:16Z</time></trkpt>
<trkpt lat="46.469117" lon="11.573802"><ele>1312.0</ele><time>2017-08-03T04:19:23Z</time></trkpt>
<trkpt lat="46.469264" lon="11.573532"><ele>1319.0</ele><time>2017-08-03T04:19:24Z</time></trkpt>
<trkpt lat="46.469327" lon="11.573447"><ele>1319.0</ele><time>2017-08-03T04:19:25Z</time></trkpt>
<trkpt lat="46.469457" lon="11.573296"><ele>1295.0</ele><time>2017-08-03T04:19:26Z</time></trkpt>
<trkpt lat="46.469586" lon="11.573186"><ele>1295.0</ele><time>2017-08-03T04:19:27Z</time></trkpt>
<trkpt lat="46.46979" lon="11.573088"><ele>1295.0</ele><time>2017-08-03T04:19:29Z</time></trkpt>
<trkpt lat="46.470067" lon="11.573034"><ele>1282.0</ele><time>2017-08-03T04:19:30Z</time></trkpt>
<trkpt lat="46.470353" lon="11.573016"><ele>1282.0</ele><time>2017-08-03T04:19:32Z</time></trkpt>
<trkpt lat="46.470566" lon="11.573074"><ele>1282.0</ele><time>2017-08-03T04:19:33Z</time></trkpt>
<trkpt lat="46.470746" lon="11.57318"><ele>1282.0</ele><time>2017-08-03T04:19:35Z</time></trkpt>
<trkpt lat="46.470841" lon="11.573269"><ele>1270.0</ele><time>2017-08-03T04:19:36Z</time></trkpt>
<trkpt lat="46.471097" lon="11.573617"><ele>1288.0</ele><time>2017-08-03T04:19:38Z</time></trkpt>
<trkpt lat="46.471152" lon="11.57366"><ele>1288.0</ele><time>2017-08-03T04:19:38Z</time></trkpt>
<trkpt lat="46.471194" lon="11.573664"><ele>1288.0</ele><time>2017-08-03T04:19:39Z</time></trkpt>
<trkpt lat="46.471238" lon="11.573636"><ele>1288.0</ele><time>2017-08-03T04:19:39Z</time></trkpt>
<trkpt lat="46.471286" lon="11.573552"><ele>1288.0</ele><time>2017-08-03T04:19:39Z</time></trkpt>
<trkpt lat="46.471288" lon="11.573484"><ele>1288.0</ele><time>2017-08-03T04:19:40Z</time></trkpt>
<trkpt lat="46.471275" lon="11.573421"><ele>1288.0</ele><time>2017-08-03T04:19:40Z</time></trkpt>
<trkpt lat="46.470371" lon="11.571071"><ele>1246.0</ele><time>2017-08-03T04:19:51Z</time></trkpt>
<trkpt lat="46.470301" lon="11.570789"><ele>1232.0</ele><time>2017-08-03T04:19:53Z</time></trkpt>
<trkpt lat="46.470206" lon="11.570117"><ele>1232.0</ele><time>2017-08-03T04:19:55Z</time></trkpt>
<trkpt lat="46.470126" lon="11.569894"><ele>1218.0</ele><time>2017-08-03T04:19:57Z</time></trkpt>
<trkpt lat="46.469877" lon="11.569469"><ele>1231.0</ele><time>2017-08-03T04:19:59Z</time></trkpt>
<trkpt lat="46.469805" lon="11.569393"><ele>1231.0</ele><time>2017-08-03T04:20:00Z</time></trkpt>
<trkpt lat="46.469735" lon="11.569351"><ele>1231.0</ele><time>2017-08-03T04:20:00Z</time></trkpt>
<trkpt lat="46.469646" lon="11.569308"><ele>1231.0</ele><time>2017-08-03T04:20:01Z</time></trkpt>
<trkpt lat="46.469504" lon="11.569306"><ele>1231.0</ele><time>2017-08-03T04:20:02Z</time></trkpt>
<trkpt lat="46.469156" lon="11.569471"><ele>1221.0</ele><time>2017-08-03T04:20:04Z</time></trkpt>
<trkpt lat="46.469112" lon="11.569452"><ele>1221.0</ele><time>2017-08-03T04:20:04Z</time></trkpt>
<trkpt lat="46.469083" lon="11.569411"><ele>1221.0</ele><time>2017-08-03T04:20:04Z</time></trkpt>
<trkpt lat="46.469064" lon="11.569357"><ele>1221.0</ele><time>2017-08-03T04:20:05Z</time></trkpt>
<trkpt lat="46.469064" lon="11.569302"><ele>1221.0</ele><time>2017-08-03T04:20:05Z</time></trkpt>
<trkpt lat="46.469119" lon="11.569159"><ele>1200.0</ele><time>2017-08-03T04:20:06Z</time></trkpt>
<trkpt lat="46.469246" lon="11.568959"><ele>1214.0</ele><time>2017-08-03T04:20:08Z</time></trkpt>
<trkpt lat="46.469362" lon="11.568847"><ele>1214.0</ele><time>2017-08-03T04:20:08Z</time></trkpt>
<trkpt lat="46.469986" lon="11.568514"><ele>1214.0</ele><time>2017-08-03T04:20:12Z</time></trkpt>
<trkpt lat="46.470151" lon="11.568458"><ele>1205.0</ele><time>2017-08-03T04:20:13Z</time></trkpt>
<trkpt lat="46.470316" lon="11.56847"><ele>1205.0</ele><time>2017-08-03T04:20:14Z</time></trkpt>
<trkpt lat="46.470521" lon="11.56856"><ele>1205.0</ele><time>2017-08-03T04:20:16Z</time></trkpt>
<trkpt lat="46.470909" lon="11.568799"><ele>1205.0</ele><time>2017-08-03T04:20:18Z</time></trkpt>
<trkpt lat="46.471366" lon="11.569119"><ele>1205.0</ele><time>2017-08-03T04:20:21Z</time></trkpt>
<trkpt lat="46.471409" lon="11.569136"><ele>1205.0</ele><time>2017-08-03T04:20:22Z</time></trkpt>
<trkpt lat="46.471473" lon="11.569108"><ele>1205.0</ele><time>2017-08-03T04:20:22Z</time></trkpt>
<trkpt lat="46.471501" lon="11.569061"><ele>1205.0</ele><time>2017-08-03T04:20:22Z</time></trkpt>
<trkpt lat="46.471515" lon="11.568947"><ele>1205.0</ele><time>2017-08-03T04:20:23Z</time></trkpt>
<trkpt lat="46.471328" lon="11.567961"><ele>1196.0</ele><time>2017-08-03T04:20:27Z</time></trkpt>
<trkpt lat="46.470967" lon="11.566843"><ele>1189.0</ele><time>2017-08-03T04:20:32Z</time></trkpt>
<trkpt lat="46.47089" lon="11.56669"><ele>1189.0</ele><time>2017-08-03T04:20:33Z</time></trkpt>
<trkpt lat="46.470629" lon="11.566381"><ele>1172.0</ele><time>2017-08-03T04:20:35Z</time></trkpt>
<trkpt lat="46.470562" lon="11.566228"><ele>1172.0</ele><time>2017-08-03T04:20:36Z</time></trkpt>
<trkpt lat="46.47053" lon="11.566055"><ele>1172.0</ele><time>2017-08-03T04:20:37Z</time></trkpt>
<trkpt lat="46.470625" lon="11.564823"><ele>1159.0</ele><time>2017-08-03T04:20:42Z</time></trkpt>
<trkpt lat="46.470607" lon="11.562112"><ele>1139.0</ele><time>2017-08-03T04:20:53Z</time></trkpt>
<trkpt lat="46.470628" lon="11.561901"><ele>1139.0</ele><time>2017-08-03T04:20:54Z</time></trkpt>
<trkpt lat="46.470661" lon="11.561746"><ele>1139.0</ele><time>2017-08-03T04:20:55Z</time></trkpt>
<trkpt lat="46.470791" lon="11.561359"><ele>1130.0</ele><time>2017-08-03T04:20:56Z</time></trkpt>
<trkpt lat="46.471122" lon="11.560706"><ele>1122.0</ele><time>2017-08-03T04:21:00Z</time></trkpt>
<trkpt lat="46.47117" lon="11.560545"><ele>1122.0</ele><time>2017-08-03T04:21:01Z</time></trkpt>
<trkpt lat="46.471332" lon="11.559617"><ele>1117.0</ele><time>2017-08-03T04:21:05Z</time></trkpt>
<trkpt lat="46.471328" lon="11.559455"><ele>1117.0</ele><time>2017-08-03T04:21:05Z</time></trkpt>
<trkpt lat="46.471287" lon="11.559339"><ele>1117.0</ele><time>2017-08-03T04:21:06Z</time></trkpt>
<trkpt lat="46.471078" lon="11.559009"><ele>1104.0</ele><time>2017-08-03T04:21:08Z</time></trkpt>
<trkpt lat="46.471046" lon="11.558922"><ele>1104.0</ele><time>2017-08-03T04:21:08Z</time></trkpt>
<trkpt lat="46.470909" lon="11.558324"><ele>1095.0</ele><time>2017-08-03T04:21:11Z</time></trkpt>
<trkpt lat="46.470898" lon="11.558225"><ele>1095.0</ele><time>2017-08-03T04:21:11Z</time></trkpt>
<trkpt lat="46.470919" lon="11.557932"><ele>1095.0</ele><time>2017-08-03T04:21:12Z</time></trkpt>
<trkpt lat="46.470996" lon="11.557532"><ele>1095.0</ele><time>2017-08-03T04:21:14Z</time></trkpt>
<trkpt lat="46.47103" lon="11.557424"><ele>1081.0</ele><time>2017-08-03T04:21:15Z</time></trkpt>
<trkpt lat="46.471068" lon="11.557375"><ele>1081.0</ele><time>2017-08-03T04:21:15Z</time></trkpt>
<trkpt lat="46.471174" lon="11.557308"><ele>1081.0</ele><time>2017-08-03T04:21:16Z</time></trkpt>
<trkpt lat="46.471249" lon="11.557335"><ele>1081.0</ele><time>2017-08-03T04:21:17Z</time></trkpt>
<trkpt lat="46.471297" lon="11.557387"><ele>1081.0</ele><time>2017-08-03T04:21:17Z</time></trkpt>
<trkpt lat="46.471387" lon="11.557561"><ele>1095.0</ele><time>2017-08-03T04:21:18Z</time></trkpt>
<trkpt lat="46.471449" lon="11.557616"><ele>1095.0</ele><time>2017-08-03T04:21:19Z</time></trkpt>
<trkpt lat="46.471734" lon="11.557616"><ele>1091.0</ele><time>2017-08-03T04:21:20Z</time></trkpt>
<trkpt lat="46.471786" lon="11.557601"><ele>1091.0</ele><time>2017-08-03T04:21:21Z</time></trkpt>
<trkpt lat="46.471861" lon="11.557538"><ele>1091.0</ele><time>2017-08-03T04:21:21Z</time></trkpt>
<trkpt lat="46.471902" lon="11.557413"><ele>1090.0</ele><time>2017-08-03T04:21:22Z</time></trkpt>
<trkpt lat="46.471878" lon="11.557253"><ele>1090.0</ele><time>2017-08-03T04:21:22Z</time></trkpt>
<trkpt lat="46.471843" lon="11.55717"><ele>1090.0</ele><time>2017-08-03T04:21:23Z</time></trkpt>
<trkpt lat="46.471664" lon="11.556896"><ele>1081.0</ele><time>2017-08-03T04:21:24Z</time></trkpt>
<trkpt lat="46.471607" lon="11.556723"><ele>1081.0</ele><time>2017-08-03T04:21:25Z</time></trkpt>
<trkpt lat="46.47163" lon="11.55655"><ele>1071.0</ele><time>2017-08-03T04:21:26Z</time></trkpt>
<trkpt lat="46.471766" lon="11.556339"><ele>1094.0</ele><time>2017-08-03T04:21:28Z</time></trkpt>
<trkpt lat="46.471775" lon="11.556222"><ele>1094.0</ele><time>2017-08-03T04:21:28Z</time></trkpt>
<trkpt lat="46.471616" lon="11.555351"><ele>1072.0</ele><time>2017-08-03T04:21:32Z</time></trkpt>
<trkpt lat="46.471469" lon="11.554972"><ele>1082.0</ele><time>2017-08-03T04:21:34Z</time></trkpt>
<trkpt lat="46.471414" lon="11.554792"><ele>1082.0</ele><time>2017-08-03T04:21:35Z</time></trkpt>
<trkpt lat="46.471103" lon="11.553258"><ele>1105.0</ele><time>2017-08-03T04:21:42Z</time></trkpt>
<trkpt lat="46.470817" lon="11.552088"><ele>1084.0</ele><time>2017-08-03T04:21:47Z</time></trkpt>
<trkpt lat="46.470693" lon="11.55184"><ele>1084.0</ele><time>2017-08-03T04:21:48Z</time></trkpt>
<trkpt lat="46.470611" lon="11.551732"><ele>1084.0</ele><time>2017-08-03T04:21:49Z</time></trkpt>
<trkpt lat="46.470158" lon="11.551243"><ele>1110.0</ele><time>2017-08-03T04:21:53Z</time></trkpt>
<trkpt lat="46.469962" lon="11.550937"><ele>1087.0</ele><time>2017-08-03T04:21:55Z</time></trkpt>
<trkpt lat="46.469706" lon="11.550478"><ele>1105.0</ele><time>2017-08-03T04:21:57Z</time></trkpt>
<trkpt lat="46.46939" lon="11.550046"><ele>1105.0</ele><time>2017-08-03T04:22:00Z</time></trkpt>
<trkpt lat="46.469236" lon="11.549783"><ele>1116.0</ele><time>2017-08-03T04:22:01Z</time></trkpt>
<trkpt lat="46.468889" lon="11.548879"><ele>1086.0</ele><time>2017-08-03T04:22:06Z</time></trkpt>
<trkpt lat="46.468809" lon="11.548608"><ele>1086.0</ele><time>2017-08-03T04:22:07Z</time></trkpt>
<trkpt lat="46.468628" lon="11.547744"><ele>1088.0</ele><time>2017-08-03T04:22:11Z</time></trkpt>
<trkpt lat="46.468431" lon="11.546479"><ele>1105.0</ele><time>2017-08-03T04:22:16Z</time></trkpt>
<trkpt lat="46.468327" lon="11.546228"><ele>1068.0</ele><time>2017-08-03T04:22:19Z</time></trkpt>
<trkpt lat="46.467899" lon="11.545465"><ele>1079.0</ele><time>2017-08-03T04:22:23Z</time></trkpt>
<trkpt lat="46.467631" lon="11.544821"><ele>1093.0</ele><time>2017-08-03T04:22:26Z</time></trkpt>
<trkpt lat="46.467381" lon="11.544306"><ele>1058.0</ele><time>2017-08-03T04:22:29Z</time></trkpt>
<trkpt lat="46.467111" lon="11.54382"><ele>1072.0</ele><time>2017-08-03T04:22:32Z</time></trkpt>
<trkpt lat="46.466812" lon="11.543328"><ele>1081.0</ele><time>2017-08-03T04:22:35Z</time></trkpt>
<trkpt lat="46.466637" lon="11.542967"><ele>1056.0</ele><time>2017-08-03T04:22:37Z</time></trkpt>
<trkpt lat="46.466283" lon="11.541967"><ele>1065.0</ele><time>2017-08-03T04:22:42Z</time></trkpt>
<trkpt lat="46.465987" lon="11.541428"><ele>1074.0</ele><time>2017-08-03T04:22:45Z</time></trkpt>
<trkpt lat="46.465827" lon="11.541168"><ele>1046.0</ele><time>2017-08-03T04:22:47Z</time></trkpt>
<trkpt lat="46.465639" lon="11.540885"><ele>1046.0</ele><time>2017-08-03T04:22:48Z</time></trkpt>
<trkpt lat="46.465361" lon="11.540542"><ele>1053.0</ele><time>2017-08-03T04:22:51Z</time></trkpt>
<trkpt lat="46.465228" lon="11.540203"><ele>1053.0</ele><time>2017-08-03T04:22:52Z</time></trkpt>
<trkpt lat="46.465185" lon="11.53985"><ele>1057.0</ele><time>2017-08-03T04:22:54Z</time></trkpt>
<trkpt lat="46.465167" lon="11.538904"><ele>1062.0</ele><time>2017-08-03T04:22:58Z</time></trkpt>
<trkpt lat="46.465027" lon="11.537557"><ele>1069.0</ele><time>2017-08-03T04:23:03Z</time></trkpt>
<trkpt lat="46.464993" lon="11.536807"><ele>1031.0</ele><time>2017-08-03T04:23:07Z</time></trkpt>
<trkpt lat="46.465041" lon="11.536052"><ele>1057.0</ele><time>2017-08-03T04:23:10Z</time></trkpt>
<trkpt lat="46.465184" lon="11.534889"><ele>1049.0</ele><time>2017-08-03T04:23:15Z</time></trkpt>
<trkpt lat="46.465211" lon="11.534075"><ele>1042.0</ele><time>2017-08-03T04:23:19Z</time></trkpt>
<trkpt lat="46.465264" lon="11.533802"><ele>1042.0</ele><time>2017-08-03T04:23:20Z</time></trkpt>
<trkpt lat="46.465385" lon="11.533453"><ele>1042.0</ele><time>2017-08-03T04:23:21Z</time></trkpt>
<trkpt lat="46.465465" lon="11.533127"><ele>1035.0</ele><time>2017-08-03T04:23:23Z</time></trkpt>
<trkpt lat="46.465536" lon="11.53263"><ele>1035.0</ele><time>2017-08-03T04:23:25Z</time></trkpt>
<trkpt lat="46.465587" lon="11.532417"><ele>1025.0</ele><time>2017-08-03T04:23:26Z</time></trkpt>
<trkpt lat="46.465686" lon="11.532116"><ele>1025.0</ele><time>2017-08-03T04:23:28Z</time></trkpt>
<trkpt lat="46.4659" lon="11.531681"><ele>1049.0</ele><time>2017-08-03T04:23:30Z</time></trkpt>
<trkpt lat="46.46598" lon="11.531397"><ele>1040.0</ele><time>2017-08-03T04:23:31Z</time></trkpt>
<trkpt lat="46.466061" lon="11.531001"><ele>1040.0</ele><time>2017-08-03T04:23:33Z</time></trkpt>
<trkpt lat="46.466115" lon="11.530646"><ele>1031.0</ele><time>2017-08-03T04:23:35Z</time></trkpt>
<trkpt lat="46.466314" lon="11.529675"><ele>1023.0</ele><time>2017-08-03T04:23:39Z</time></trkpt>
<trkpt lat="46.466514" lon="11.529086"><ele>1014.0</ele><time>2017-08-03T04:23:42Z</time></trkpt>
<trkpt lat="46.466638" lon="11.52885"><ele>1014.0</ele><time>2017-08-03T04:23:43Z</time></trkpt>
<trkpt lat="46.46672" lon="11.528744"><ele>1029.0</ele><time>2017-08-03T04:23:44Z</time></trkpt>
<trkpt lat="46.466981" lon="11.528485"><ele>1029.0</ele><time>2017-08-03T04:23:46Z</time></trkpt>
<trkpt lat="46.467031" lon="11.528389"><ele>1029.0</ele><time>2017-08-03T04:23:46Z</time></trkpt>
<trkpt lat="46.467049" lon="11.528281"><ele>1023.0</ele><time>2017-08-03T04:23:47Z</time></trkpt>
<trkpt lat="46.467043" lon="11.527798"><ele>1023.0</ele><time>2017-08-03T04:23:49Z</time></trkpt>
<trkpt lat="46.467061" lon="11.527649"><ele>1023.0</ele><time>2017-08-03T04:23:50Z</time></trkpt>
<trkpt lat="46.467115" lon="11.527438"><ele>1012.0</ele><time>2017-08-03T04:23:51Z</time></trkpt>
<trkpt lat="46.46719" lon="11.527269"><ele>1012.0</ele><time>2017-08-03T04:23:52Z</time></trkpt>
<trkpt lat="46.467411" lon="11.527"><ele>1012.0</ele><time>2017-08-03T04:23:53Z</time></trkpt>
<trkpt lat="46.467559" lon="11.526928"><ele>1022.0</ele><time>2017-08-03T04:23:54Z</time></trkpt>
<trkpt lat="46.467964" lon="11.527111"><ele>1022.0</ele><time>2017-08-03T04:23:57Z</time></trkpt>
<trkpt lat="46.468145" lon="11.527168"><ele>1022.0</ele><time>2017-08-03T04:23:58Z</time></trkpt>
<trkpt lat="46.468283" lon="11.527078"><ele>1022.0</ele><time>2017-08-03T04:23:59Z</time></trkpt>
<trkpt lat="46.468362" lon="11.52697"><ele>1039.0</ele><time>2017-08-03T04:24:00Z</time></trkpt>
<trkpt lat="46.468404" lon="11.526813"><ele>1039.0</ele><time>2017-08-03T04:24:01Z</time></trkpt>
<trkpt lat="46.468394" lon="11.526365"><ele>1033.0</ele><time>2017-08-03T04:24:03Z</time></trkpt>
<trkpt lat="46.468417" lon="11.526173"><ele>1033.0</ele><time>2017-08-03T04:24:03Z</time></trkpt>
<trkpt lat="46.468502" lon="11.525903"><ele>1033.0</ele><time>2017-08-03T04:24:05Z</time></trkpt>
<trkpt lat="46.468551" lon="11.525659"><ele>1027.0</ele><time>2017-08-03T04:24:06Z</time></trkpt>
<trkpt lat="46.468553" lon="11.525185"><ele>1027.0</ele><time>2017-08-03T04:24:08Z</time></trkpt>
<trkpt lat="46.468593" lon="11.524999"><ele>1009.0</ele><time>2017-08-03T04:24:09Z</time></trkpt>
<trkpt lat="46.468927" lon="11.524076"><ele>995.0</ele><time>2017-08-03T04:24:13Z</time></trkpt>
<trkpt lat="46.468984" lon="11.52398"><ele>995.0</ele><time>2017-08-03T04:24:14Z</time></trkpt>
<trkpt lat="46.469208" lon="11.523748"><ele>1014.0</ele><time>2017-08-03T04:24:16Z</time></trkpt>
<trkpt lat="46.469332" lon="11.523424"><ele>1014.0</ele><time>2017-08-03T04:24:17Z</time></trkpt>
<trkpt lat="46.469341" lon="11.522906"><ele>1006.0</ele><time>2017-08-03T04:24:20Z</time></trkpt>
<trkpt lat="46.46938" lon="11.522402"><ele>1000.0</ele><time>2017-08-03T04:24:22Z</time></trkpt>
<trkpt lat="46.469723" lon="11.519877"><ele>977.0</ele><time>2017-08-03T04:24:32Z</time></trkpt>
<trkpt lat="46.469805" lon="11.519528"><ele>977.0</ele><time>2017-08-03T04:24:34Z</time></trkpt>
<trkpt lat="46.470216" lon="11.518176"><ele>973.0</ele><time>2017-08-03T04:24:40Z</time></trkpt>
<trkpt lat="46.470293" lon="11.51803"><ele>973.0</ele><time>2017-08-03T04:24:41Z</time></trkpt>
<trkpt lat="46.470333" lon="11.518002"><ele>973.0</ele><time>2017-08-03T04:24:41Z</time></trkpt>
<trkpt lat="46.470741" lon="11.517905"><ele>973.0</ele><time>2017-08-03T04:24:44Z</time></trkpt>
<trkpt lat="46.470834" lon="11.51781"><ele>997.0</ele><time>2017-08-03T04:24:45Z</time></trkpt>
<trkpt lat="46.470859" lon="11.517731"><ele>997.0</ele><time>2017-08-03T04:24:45Z</time></trkpt>
<trkpt lat="46.470866" lon="11.517639"><ele>997.0</ele><time>2017-08-03T04:24:46Z</time></trkpt>
<trkpt lat="46.470842" lon="11.517465"><ele>994.0</ele><time>2017-08-03T04:24:47Z</time></trkpt>
<trkpt lat="46.470812" lon="11.517374"><ele>974.0</ele><time>2017-08-03T04:24:48Z</time></trkpt>
<trkpt lat="46.47069" lon="11.517162"><ele>974.0</ele><time>2017-08-03T04:24:49Z</time></trkpt>
<trkpt lat="46.470464" lon="11.516894"><ele>974.0</ele><time>2017-08-03T04:24:51Z</time></trkpt>
<trkpt lat="46.470411" lon="11.516748"><ele>974.0</ele><time>2017-08-03T04:24:51Z</time></trkpt>
<trkpt lat="46.470402" lon="11.516676"><ele>974.0</ele><time>2017-08-03T04:24:52Z</time></trkpt>
<trkpt lat="46.470394" lon="11.516539"><ele>971.0</ele><time>2017-08-03T04:24:52Z</time></trkpt>
<trkpt lat="46.470419" lon="11.516265"><ele>971.0</ele><time>2017-08-03T04:24:53Z</time></trkpt>
<trkpt lat="46.470625" lon="11.515369"><ele>962.0</ele><time>2017-08-03T04:24:57Z</time></trkpt>
<trkpt lat="46.470709" lon="11.515173"><ele>962.0</ele><time>2017-08-03T04:24:58Z</time></trkpt>
<trkpt lat="46.470811" lon="11.515067"><ele>962.0</ele><time>2017-08-03T04:24:59Z</time></trkpt>
<trkpt lat="46.470896" lon="11.515021"><ele>977.0</ele><time>2017-08-03T04:25:00Z</time></trkpt>
<trkpt lat="46.471552" lon="11.514792"><ele>958.0</ele><time>2017-08-03T04:25:04Z</time></trkpt>
<trkpt lat="46.471788" lon="11.514645"><ele>993.0</ele><time>2017-08-03T04:25:07Z</time></trkpt>
<trkpt lat="46.471818" lon="11.514622"><ele>993.0</ele><time>2017-08-03T04:25:35Z</time></trkpt>
<trkpt lat="46.471823" lon="11.514507"><ele>993.0</ele><time>2017-08-03T04:25:36Z</time></trkpt>
<trkpt lat="46.471844" lon="11.514444"><ele>993.0</ele><time>2017-08-03T04:25:37Z</time></trkpt>
<trkpt lat="46.472018" lon="11.514311"><ele>993.0</ele><time>2017-08-03T04:25:39Z</time></trkpt>
<trkpt lat="46.472134" lon="11.514146"><ele>989.0</ele><time>2017-08-03T04:25:41Z</time></trkpt>
<trkpt lat="46.472205" lon="11.514017"><ele>989.0</ele><time>2017-08-03T04:25:43Z</time></trkpt>
<trkpt lat="46.472222" lon="11.513942"><ele>989.0</ele><time>2017-08-03T04:25:43Z</time></trkpt>
<trkpt lat="46.472199" lon="11.513846"><ele>989.0</ele><time>2017-08-03T04:25:44Z</time></trkpt>
<trkpt lat="46.472167" lon="11.513796"><ele>989.0</ele><time>2017-08-03T04:25:45Z</time></trkpt>
<trkpt lat="46.47191" lon="11.513539"><ele>989.0</ele><time>2017-08-03T04:25:49Z</time></trkpt>
<trkpt lat="46.471857" lon="11.513466"><ele>989.0</ele><time>2017-08-03T04:25:50Z</time></trkpt>
<trkpt lat="46.47183" lon="11.513394"><ele>989.0</ele><time>2017-08-03T04:25:50Z</time></trkpt>
<trkpt lat="46.47177" lon="11.51286"><ele>981.0</ele><time>2017-08-03T04:25:55Z</time></trkpt>
<trkpt lat="46.471689" lon="11.512604"><ele>981.0</ele><time>2017-08-03T04:25:58Z</time></trkpt>
<trkpt lat="46.47157" lon="11.512329"><ele>920.0</ele><time>2017-08-03T04:26:05Z</time></trkpt>
<trkpt lat="46.471549" lon="11.512229"><ele>920.0</ele><time>2017-08-03T04:26:06Z</time></trkpt>
<trkpt lat="46.471546" lon="11.512105"><ele>920.0</ele><time>2017-08-03T04:26:07Z</time></trkpt>
<trkpt lat="46.471583" lon="11.511851"><ele>920.0</ele><time>2017-08-03T04:26:09Z</time></trkpt>
<trkpt lat="46.471648" lon="11.511666"><ele>915.0</ele><time>2017-08-03T04:26:11Z</time></trkpt>
<trkpt lat="46.471697" lon="11.511602"><ele>952.0</ele><time>2017-08-03T04:26:15Z</time></trkpt>
<trkpt lat="46.471827" lon="11.511534"><ele>952.0</ele><time>2017-08-03T04:26:17Z</time></trkpt>
<trkpt lat="46.471846" lon="11.511489"><ele>952.0</ele><time>2017-08-03T04:26:17Z</time></trkpt>
<trkpt lat="46.471844" lon="11.511434"><ele>952.0</ele><time>2017-08-03T04:26:18Z</time></trkpt>
<trkpt lat="46.471802" lon="11.511272"><ele>952.0</ele><time>2017-08-03T04:26:19Z</time></trkpt>
<trkpt lat="46.471532" lon="11.510539"><ele>904.0</ele><time>2017-08-03T04:26:28Z</time></trkpt>
<trkpt lat="46.471412" lon="11.510312"><ele>904.0</ele><time>2017-08-03T04:26:31Z</time></trkpt>
<trkpt lat="46.4713" lon="11.510131"><ele>904.0</ele><time>2017-08-03T04:26:35Z</time></trkpt>
<trkpt lat="46.471255" lon="11.510187"><ele>904.0</ele><time>2017-08-03T04:26:37Z</time></trkpt>
<trkpt lat="46.471248" lon="11.510249"><ele>904.0</ele><time>2017-08-03T04:26:38Z</time></trkpt>
<trkpt lat="46.4713" lon="11.510454"><ele>904.0</ele><time>2017-08-03T04:26:42Z</time></trkpt>
<trkpt lat="46.47132" lon="11.510616"><ele>904.0</ele><time>2017-08-03T04:26:45Z</time></trkpt>
<trkpt lat="46.471321" lon="11.51078"><ele>904.0</ele><time>2017-08-03T04:26:47Z</time></trkpt>
<trkpt lat="46.471289" lon="11.510926"><ele>915.0</ele><time>2017-08-03T04:26:51Z</time></trkpt>
<trkpt lat="46.471235" lon="11.510992"><ele>915.0</ele><time>2017-08-03T04:26:53Z</time></trkpt>
<trkpt lat="46.471187" lon="11.511014"><ele>915.0</ele><time>2017-08-03T04:26:54Z</time></trkpt>
<trkpt lat="46.47113" lon="11.511013"><ele>915.0</ele><time>2017-08-03T04:26:55Z</time></trkpt>
<trkpt lat="46.471083" lon="11.510984"><ele>915.0</ele><time>2017-08-03T04:26:57Z</time></trkpt>
<trkpt lat="46.471047" lon="11.510923"><ele>915.0</ele><time>2017-08-03T04:26:58Z</time></trkpt>
<trkpt lat="46.471047" lon="11.510923"><ele>915.0</ele><time>2017-08-03T04:26:58Z</time></trkpt>
<trkpt lat="46.471083" lon="11.510984"><ele>915.0</ele><time>2017-08-03T04:26:59Z</time></trkpt>
<trkpt lat="46.47113" lon="11.511013"><ele>915.0</ele><time>2017-08-03T04:27:01Z</time></trkpt>
<trkpt lat="46.471235" lon="11.510992"><ele>915.0</ele><time>2017-08-03T04:27:03Z</time></trkpt>
<trkpt lat="46.471289" lon="11.510926"><ele>915.0</ele><time>2017-08-03T04:27:05Z</time></trkpt>
<trkpt lat="46.471321" lon="11.51078"><ele>904.0</ele><time>2017-08-03T04:27:09Z</time></trkpt>
<trkpt lat="46.47132" lon="11.510616"><ele>904.0</ele><time>2017-08-03T04:27:12Z</time></trkpt>
<trkpt lat="46.4713" lon="11.510454"><ele>904.0</ele><time>2017-08-03T04:27:14Z</time></trkpt>
<trkpt lat="46.471248" lon="11.510249"><ele>904.0</ele><time>2017-08-03T04:27:18Z</time></trkpt>
<trkpt lat="46.471255" lon="11.510187"><ele>904.0</ele><time>2017-08-03T04:27:19Z</time></trkpt>
<trkpt lat="46.4713" lon="11.510131"><ele>904.0</ele><time>2017-08-03T04:27:21Z</time></trkpt>
<trkpt lat="46.471174" lon="11.509764"><ele>900.0</ele><time>2017-08-03T04:27:24Z</time></trkpt>
<trkpt lat="46.471185" lon="11.509502"><ele>900.0</ele><time>2017-08-03T04:27:27Z</time></trkpt>
<trkpt lat="46.47114" lon="11.509277"><ele>900.0</ele><time>2017-08-03T04:27:29Z</time></trkpt>
<trkpt lat="46.471146" lon="11.509019"><ele>893.0</ele><time>2017-08-03T04:27:31Z</time></trkpt>
<trkpt lat="46.471135" lon="11.50892"><ele>893.0</ele><time>2017-08-03T04:27:32Z</time></trkpt>
<trkpt lat="46.471058" lon="11.508682"><ele>893.0</ele><time>2017-08-03T04:27:34Z</time></trkpt>
<trkpt lat="46.471056" lon="11.508576"><ele>893.0</ele><time>2017-08-03T04:27:35Z</time></trkpt>
<trkpt lat="46.471077" lon="11.508407"><ele>893.0</ele><time>2017-08-03T04:27:37Z</time></trkpt>
<trkpt lat="46.471173" lon="11.508191"><ele>881.0</ele><time>2017-08-03T04:27:39Z</time></trkpt>
<trkpt lat="46.471203" lon="11.507979"><ele>881.0</ele><time>2017-08-03T04:27:41Z</time></trkpt>
<trkpt lat="46.471206" lon="11.507545"><ele>881.0</ele><time>2017-08-03T04:27:45Z</time></trkpt>
<trkpt lat="46.471235" lon="11.507399"><ele>864.0</ele><time>2017-08-03T04:27:47Z</time></trkpt>
<trkpt lat="46.471359" lon="11.507144"><ele>864.0</ele><time>2017-08-03T04:27:50Z</time></trkpt>
<trkpt lat="46.471375" lon="11.507062"><ele>864.0</ele><time>2017-08-03T04:27:50Z</time></trkpt>
<trkpt lat="46.471371" lon="11.50697"><ele>864.0</ele><time>2017-08-03T04:27:51Z</time></trkpt>
<trkpt lat="46.47121" lon="11.506613"><ele>852.0</ele><time>2017-08-03T04:27:55Z</time></trkpt>
<trkpt lat="46.471186" lon="11.506517"><ele>852.0</ele><time>2017-08-03T04:27:56Z</time></trkpt>
<trkpt lat="46.471189" lon="11.506375"><ele>852.0</ele><time>2017-08-03T04:27:57Z</time></trkpt>
<trkpt lat="46.471289" lon="11.506107"><ele>852.0</ele><time>2017-08-03T04:28:00Z</time></trkpt>
<trkpt lat="46.471311" lon="11.505941"><ele>852.0</ele><time>2017-08-03T04:28:01Z</time></trkpt>
<trkpt lat="46.471319" lon="11.50563"><ele>832.0</ele><time>2017-08-03T04:28:05Z</time></trkpt>
<trkpt lat="46.47134" lon="11.505545"><ele>832.0</ele><time>2017-08-03T04:28:06Z</time></trkpt>
<trkpt lat="46.471364" lon="11.505476"><ele>832.0</ele><time>2017-08-03T04:28:06Z</time></trkpt>
<trkpt lat="46.471517" lon="11.505202"><ele>832.0</ele><time>2017-08-03T04:28:09Z</time></trkpt>
<trkpt lat="46.471446" lon="11.504487"><ele>816.0</ele><time>2017-08-03T04:28:16Z</time></trkpt>
<trkpt lat="46.471523" lon="11.504276"><ele>816.0</ele><time>2017-08-03T04:28:18Z</time></trkpt>
<trkpt lat="46.471581" lon="11.504197"><ele>816.0</ele><time>2017-08-03T04:28:19Z</time></trkpt>
<trkpt lat="46.471725" lon="11.5041"><ele>840.0</ele><time>2017-08-03T04:28:22Z</time></trkpt>
<trkpt lat="46.471744" lon="11.50396"><ele>840.0</ele><time>2017-08-03T04:28:23Z</time></trkpt>
<trkpt lat="46.471725" lon="11.503585"><ele>840.0</ele><time>2017-08-03T04:28:27Z</time></trkpt>
<trkpt lat="46.471742" lon="11.503409"><ele>840.0</ele><time>2017-08-03T04:28:28Z</time></trkpt>
<trkpt lat="46.471831" lon="11.503106"><ele>815.0</ele><time>2017-08-03T04:28:32Z</time></trkpt>
<trkpt lat="46.471912" lon="11.502941"><ele>815.0</ele><time>2017-08-03T04:28:34Z</time></trkpt>
<trkpt lat="46.472147" lon="11.502683"><ele>815.0</ele><time>2017-08-03T04:28:38Z</time></trkpt>
<trkpt lat="46.472208" lon="11.502495"><ele>786.0</ele><time>2017-08-03T04:28:41Z</time></trkpt>
<trkpt lat="46.472207" lon="11.502286"><ele>786.0</ele><time>2017-08-03T04:28:43Z</time></trkpt>
<trkpt lat="46.472232" lon="11.502204"><ele>786.0</ele><time>2017-08-03T04:28:44Z</time></trkpt>
<trkpt lat="46.472461" lon="11.501833"><ele>786.0</ele><time>2017-08-03T04:28:48Z</time></trkpt>
<trkpt lat="46.472501" lon="11.501738"><ele>826.0</ele><time>2017-08-03T04:28:53Z</time></trkpt>
<trkpt lat="46.472535" lon="11.501553"><ele>803.0</ele><time>2017-08-03T04:28:56Z</time></trkpt>
<trkpt lat="46.472714" lon="11.501035"><ele>803.0</ele><time>2017-08-03T04:29:01Z</time></trkpt>
<trkpt lat="46.472748" lon="11.500816"><ele>782.0</ele><time>2017-08-03T04:29:04Z</time></trkpt>
<trkpt lat="46.472789" lon="11.500347"><ele>782.0</ele><time>2017-08-03T04:29:08Z</time></trkpt>
<trkpt lat="46.472955" lon="11.499992"><ele>758.0</ele><time>2017-08-03T04:29:13Z</time></trkpt>
<trkpt lat="46.473065" lon="11.499842"><ele>758.0</ele><time>2017-08-03T04:29:14Z</time></trkpt>
<trkpt lat="46.473103" lon="11.499764"><ele>758.0</ele><time>2017-08-03T04:29:15Z</time></trkpt>
<trkpt lat="46.473109" lon="11.499301"><ele>758.0</ele><time>2017-08-03T04:29:19Z</time></trkpt>
<trkpt lat="46.473136" lon="11.498976"><ele>736.0</ele><time>2017-08-03T04:29:23Z</time></trkpt>
<trkpt lat="46.473172" lon="11.498748"><ele>736.0</ele><time>2017-08-03T04:29:25Z</time></trkpt>
<trkpt lat="46.473217" lon="11.498619"><ele>736.0</ele><time>2017-08-03T04:29:26Z</time></trkpt>
<trkpt lat="46.473686" lon="11.497906"><ele>739.0</ele><time>2017-08-03T04:29:35Z</time></trkpt>
<trkpt lat="46.473883" lon="11.497447"><ele>724.0</ele><time>2017-08-03T04:29:40Z</time></trkpt>
<trkpt lat="46.474092" lon="11.496619"><ele>710.0</ele><time>2017-08-03T04:29:48Z</time></trkpt>
<trkpt lat="46.474144" lon="11.496504"><ele>710.0</ele><time>2017-08-03T04:29:49Z</time></trkpt>
<trkpt lat="46.474238" lon="11.49644"><ele>726.0</ele><time>2017-08-03T04:29:51Z</time></trkpt>
<trkpt lat="46.474282" lon="11.496439"><ele>726.0</ele><time>2017-08-03T04:29:51Z</time></trkpt>
<trkpt lat="46.474452" lon="11.496531"><ele>726.0</ele><time>2017-08-03T04:29:54Z</time></trkpt>
<trkpt lat="46.47449" lon="11.496558"><ele>726.0</ele><time>2017-08-03T04:29:57Z</time></trkpt>
<trkpt lat="46.474697" lon="11.496935"><ele>729.0</ele><time>2017-08-03T04:30:01Z</time></trkpt>
<trkpt lat="46.47499" lon="11.497354"><ele>729.0</ele><time>2017-08-03T04:30:06Z</time></trkpt>
<trkpt lat="46.475141" lon="11.497612"><ele>754.0</ele><time>2017-08-03T04:30:10Z</time></trkpt>
<trkpt lat="46.475193" lon="11.497738"><ele>754.0</ele><time>2017-08-03T04:30:11Z</time></trkpt>
<trkpt lat="46.475266" lon="11.498216"><ele>754.0</ele><time>2017-08-03T04:30:16Z</time></trkpt>
<trkpt lat="46.475323" lon="11.49843"><ele>755.0</ele><time>2017-08-03T04:30:18Z</time></trkpt>
<trkpt lat="46.47542" lon="11.498693"><ele>755.0</ele><time>2017-08-03T04:30:20Z</time></trkpt>
<trkpt lat="46.475794" lon="11.499274"><ele>773.0</ele><time>2017-08-03T04:30:27Z</time></trkpt>
<trkpt lat="46.476006" lon="11.499544"><ele>774.0</ele><time>2017-08-03T04:30:31Z</time></trkpt>
<trkpt lat="46.476134" lon="11.499675"><ele>774.0</ele><time>2017-08-03T04:30:33Z</time></trkpt>
<trkpt lat="46.476307" lon="11.499788"><ele>774.0</ele><time>2017-08-03T04:30:35Z</time></trkpt>
<trkpt lat="46.476378" lon="11.499861"><ele>774.0</ele><time>2017-08-03T04:30:36Z</time></trkpt>
<trkpt lat="46.476565" lon="11.500166"><ele>787.0</ele><time>2017-08-03T04:30:40Z</time></trkpt>
<trkpt lat="46.47662" lon="11.50033"><ele>787.0</ele><time>2017-08-03T04:30:42Z</time></trkpt>
<trkpt lat="46.476699" lon="11.500716"><ele>805.0</ele><time>2017-08-03T04:30:46Z</time></trkpt>
<trkpt lat="46.477001" lon="11.501363"><ele>798.0</ele><time>2017-08-03T04:30:52Z</time></trkpt>
<trkpt lat="46.477211" lon="11.501739"><ele>801.0</ele><time>2017-08-03T04:30:57Z</time></trkpt>
<trkpt lat="46.477316" lon="11.502211"><ele>801.0</ele><time>2017-08-03T04:31:01Z</time></trkpt>
<trkpt lat="46.477436" lon="11.50243"><ele>801.0</ele><time>2017-08-03T04:31:03Z</time></trkpt>
<trkpt lat="46.477439" lon="11.502501"><ele>814.0</ele><time>2017-08-03T04:31:05Z</time></trkpt>
<trkpt lat="46.477412" lon="11.502691"><ele>814.0</ele><time>2017-08-03T04:31:06Z</time></trkpt>
<trkpt lat="46.477419" lon="11.502804"><ele>814.0</ele><time>2017-08-03T04:31:07Z</time></trkpt>
<trkpt lat="46.477587" lon="11.503004"><ele>829.0</ele><time>2017-08-03T04:31:11Z</time></trkpt>
<trkpt lat="46.477974" lon="11.503321"><ele>829.0</ele><time>2017-08-03T04:31:16Z</time></trkpt>
<trkpt lat="46.478037" lon="11.503308"><ele>829.0</ele><time>2017-08-03T04:31:17Z</time></trkpt>
<trkpt lat="46.478167" lon="11.503222"><ele>829.0</ele><time>2017-08-03T04:31:19Z</time></trkpt>
<trkpt lat="46.478186" lon="11.503124"><ele>829.0</ele><time>2017-08-03T04:31:20Z</time></trkpt>
<trkpt lat="46.478166" lon="11.502932"><ele>829.0</ele><time>2017-08-03T04:31:21Z</time></trkpt>
<trkpt lat="46.478169" lon="11.502582"><ele>829.0</ele><time>2017-08-03T04:31:24Z</time></trkpt>
<trkpt lat="46.478225" lon="11.502393"><ele>819.0</ele><time>2017-08-03T04:31:26Z</time></trkpt>
<trkpt lat="46.478241" lon="11.502156"><ele>819.0</ele><time>2017-08-03T04:31:29Z</time></trkpt>
<trkpt lat="46.478293" lon="11.501969"><ele>819.0</ele><time>2017-08-03T04:31:30Z</time></trkpt>
<trkpt lat="46.478383" lon="11.501838"><ele>852.0</ele><time>2017-08-03T04:31:34Z</time></trkpt>
<trkpt lat="46.47841" lon="11.501719"><ele>852.0</ele><time>2017-08-03T04:31:35Z</time></trkpt>
<trkpt lat="46.478424" lon="11.501555"><ele>853.0</ele><time>2017-08-03T04:31:37Z</time></trkpt>
<trkpt lat="46.47842" lon="11.501171"><ele>853.0</ele><time>2017-08-03T04:31:40Z</time></trkpt>
<trkpt lat="46.478452" lon="11.501115"><ele>853.0</ele><time>2017-08-03T04:31:41Z</time></trkpt>
<trkpt lat="46.478507" lon="11.501105"><ele>853.0</ele><time>2017-08-03T04:31:41Z</time></trkpt>
<trkpt lat="46.478712" lon="11.501427"><ele>853.0</ele><time>2017-08-03T04:31:45Z</time></trkpt>
<trkpt lat="46.478797" lon="11.501504"><ele>853.0</ele><time>2017-08-03T04:31:46Z</time></trkpt>
<trkpt lat="46.478854" lon="11.5015"><ele>853.0</ele><time>2017-08-03T04:31:47Z</time></trkpt>
<trkpt lat="46.478913" lon="11.501458"><ele>853.0</ele><time>2017-08-03T04:31:48Z</time></trkpt>
<trkpt lat="46.478953" lon="11.501362"><ele>853.0</ele><time>2017-08-03T04:31:49Z</time></trkpt>
<trkpt lat="46.478987" lon="11.501179"><ele>853.0</ele><time>2017-08-03T04:31:51Z</time></trkpt>
<trkpt lat="46.478896" lon="11.500343"><ele>859.0</ele><time>2017-08-03T04:31:58Z</time></trkpt>
<trkpt lat="46.478912" lon="11.500099"><ele>859.0</ele><time>2017-08-03T04:32:00Z</time></trkpt>
<trkpt lat="46.478905" lon="11.499936"><ele>868.0</ele><time>2017-08-03T04:32:02Z</time></trkpt>
<trkpt lat="46.47889" lon="11.499807"><ele>868.0</ele><time>2017-08-03T04:32:03Z</time></trkpt>
<trkpt lat="46.478788" lon="11.499425"><ele>868.0</ele><time>2017-08-03T04:32:06Z</time></trkpt>
<trkpt lat="46.478765" lon="11.49927"><ele>868.0</ele><time>2017-08-03T04:32:08Z</time></trkpt>
<trkpt lat="46.47877" lon="11.498937"><ele>869.0</ele><time>2017-08-03T04:32:11Z</time></trkpt>
<trkpt lat="46.478793" lon="11.498812"><ele>869.0</ele><time>2017-08-03T04:32:12Z</time></trkpt>
<trkpt lat="46.478835" lon="11.498705"><ele>869.0</ele><time>2017-08-03T04:32:13Z</time></trkpt>
<trkpt lat="46.479031" lon="11.498374"><ele>869.0</ele><time>2017-08-03T04:32:17Z</time></trkpt>
<trkpt lat="46.479128" lon="11.498241"><ele>876.0</ele><time>2017-08-03T04:32:18Z</time></trkpt>
<trkpt lat="46.479163" lon="11.49821"><ele>876.0</ele><time>2017-08-03T04:32:20Z</time></trkpt>
<trkpt lat="46.479188" lon="11.49828"><ele>908.0</ele><time>2017-08-03T04:32:24Z</time></trkpt>
<trkpt lat="46.479185" lon="11.498361"><ele>901.0</ele><time>2017-08-03T04:32:25Z</time></trkpt>
<trkpt lat="46.479115" lon="11.498506"><ele>869.0</ele><time>2017-08-03T04:32:29Z</time></trkpt>
<trkpt lat="46.479095" lon="11.498581"><ele>869.0</ele><time>2017-08-03T04:32:29Z</time></trkpt>
<trkpt lat="46.479109" lon="11.498664"><ele>869.0</ele><time>2017-08-03T04:32:30Z</time></trkpt>
<trkpt lat="46.479162" lon="11.498713"><ele>869.0</ele><time>2017-08-03T04:32:31Z</time></trkpt>
<trkpt lat="46.479808" lon="11.498523"><ele>901.0</ele><time>2017-08-03T04:32:40Z</time></trkpt>
<trkpt lat="46.47986" lon="11.498488"><ele>901.0</ele><time>2017-08-03T04:32:41Z</time></trkpt>
<trkpt lat="46.479885" lon="11.498433"><ele>901.0</ele><time>2017-08-03T04:32:41Z</time></trkpt>
<trkpt lat="46.479885" lon="11.498348"><ele>901.0</ele><time>2017-08-03T04:32:42Z</time></trkpt>
<trkpt lat="46.479851" lon="11.49826"><ele>908.0</ele><time>2017-08-03T04:32:43Z</time></trkpt>
<trkpt lat="46.479783" lon="11.498184"><ele>908.0</ele><time>2017-08-03T04:32:44Z</time></trkpt>
<trkpt lat="46.479529" lon="11.49803"><ele>908.0</ele><time>2017-08-03T04:32:48Z</time></trkpt>
<trkpt lat="46.479482" lon="11.498031"><ele>908.0</ele><time>2017-08-03T04:32:51Z</time></trkpt>
<trkpt lat="46.479405" lon="11.497691"><ele>908.0</ele><time>2017-08-03T04:32:52Z</time></trkpt>
<trkpt lat="46.479389" lon="11.497481"><ele>906.0</ele><time>2017-08-03T04:32:53Z</time></trkpt>
<trkpt lat="46.479405" lon="11.497209"><ele>906.0</ele><time>2017-08-03T04:32:54Z</time></trkpt>
<trkpt lat="46.479452" lon="11.496969"><ele>906.0</ele><time>2017-08-03T04:32:55Z</time></trkpt>
<trkpt lat="46.479566" lon="11.496658"><ele>884.0</ele><time>2017-08-03T04:32:56Z</time></trkpt>
<trkpt lat="46.479756" lon="11.496369"><ele>884.0</ele><time>2017-08-03T04:32:58Z</time></trkpt>
<trkpt lat="46.48069" lon="11.495415"><ele>882.0</ele><time>2017-08-03T04:33:04Z</time></trkpt>
<trkpt lat="46.480819" lon="11.495317"><ele>882.0</ele><time>2017-08-03T04:33:05Z</time></trkpt>
<trkpt lat="46.481095" lon="11.49516"><ele>893.0</ele><time>2017-08-03T04:33:06Z</time></trkpt>
<trkpt lat="46.481438" lon="11.495041"><ele>893.0</ele><time>2017-08-03T04:33:08Z</time></trkpt>
<trkpt lat="46.481687" lon="11.495006"><ele>891.0</ele><time>2017-08-03T04:33:09Z</time></trkpt>
<trkpt lat="46.482019" lon="11.495008"><ele>891.0</ele><time>2017-08-03T04:33:11Z</time></trkpt>
<trkpt lat="46.48223" lon="11.495051"><ele>891.0</ele><time>2017-08-03T04:33:12Z</time></trkpt>
<trkpt lat="46.482587" lon="11.495211"><ele>883.0</ele><time>2017-08-03T04:33:14Z</time></trkpt>
<trkpt lat="46.483048" lon="11.495487"><ele>883.0</ele><time>2017-08-03T04:33:17Z</time></trkpt>
<trkpt lat="46.483335" lon="11.495593"><ele>891.0</ele><time>2017-08-03T04:33:19Z</time></trkpt>
<trkpt lat="46.483728" lon="11.495628"><ele>891.0</ele><time>2017-08-03T04:33:21Z</time></trkpt>
<trkpt lat="46.484058" lon="11.49557"><ele>891.0</ele><time>2017-08-03T04:33:22Z</time></trkpt>
<trkpt lat="46.485016" lon="11.495267"><ele>942.0</ele><time>2017-08-03T04:33:28Z</time></trkpt>
<trkpt lat="46.485183" lon="11.495202"><ele>942.0</ele><time>2017-08-03T04:33:29Z</time></trkpt>
<trkpt lat="46.485412" lon="11.495059"><ele>942.0</ele><time>2017-08-03T04:33:30Z</time></trkpt>
<trkpt lat="46.48558" lon="11.494901"><ele>918.0</ele><time>2017-08-03T04:33:32Z</time></trkpt>
<trkpt lat="46.485681" lon="11.494777"><ele>918.0</ele><time>2017-08-03T04:33:33Z</time></trkpt>
<trkpt lat="46.485835" lon="11.494527"><ele>959.0</ele><time>2017-08-03T04:33:35Z</time></trkpt>
<trkpt lat="46.485906" lon="11.494378"><ele>959.0</ele><time>2017-08-03T04:33:36Z</time></trkpt>
<trkpt lat="46.486039" lon="11.493955"><ele>951.0</ele><time>2017-08-03T04:33:37Z</time></trkpt>
<trkpt lat="46.486155" lon="11.493203"><ele>935.0</ele><time>2017-08-03T04:33:40Z</time></trkpt>
<trkpt lat="46.486276" lon="11.492677"><ele>935.0</ele><time>2017-08-03T04:33:42Z</time></trkpt>
<trkpt lat="46.486335" lon="11.492514"><ele>935.0</ele><time>2017-08-03T04:33:43Z</time></trkpt>
<trkpt lat="46.486502" lon="11.492147"><ele>918.0</ele><time>2017-08-03T04:33:45Z</time></trkpt>
<trkpt lat="46.486665" lon="11.491882"><ele>918.0</ele><time>2017-08-03T04:33:46Z</time></trkpt>
<trkpt lat="46.486972" lon="11.491541"><ele>913.0</ele><time>2017-08-03T04:33:48Z</time></trkpt>
<trkpt lat="46.487653" lon="11.491056"><ele>929.0</ele><time>2017-08-03T04:33:52Z</time></trkpt>
<trkpt lat="46.488012" lon="11.490862"><ele>929.0</ele><time>2017-08-03T04:33:54Z</time></trkpt>
<trkpt lat="46.488227" lon="11.490815"><ele>898.0</ele><time>2017-08-03T04:33:56Z</time></trkpt>
<trkpt lat="46.488427" lon="11.490825"><ele>898.0</ele><time>2017-08-03T04:33:57Z</time></trkpt>
<trkpt lat="46.488726" lon="11.490922"><ele>923.0</ele><time>2017-08-03T04:33:59Z</time></trkpt>
<trkpt lat="46.48964" lon="11.491322"><ele>918.0</ele><time>2017-08-03T04:34:04Z</time></trkpt>
<trkpt lat="46.490035" lon="11.49146"><ele>911.0</ele><time>2017-08-03T04:34:06Z</time></trkpt>
<trkpt lat="46.490593" lon="11.491481"><ele>911.0</ele><time>2017-08-03T04:34:09Z</time></trkpt>
<trkpt lat="46.490824" lon="11.491549"><ele>911.0</ele><time>2017-08-03T04:34:10Z</time></trkpt>
<trkpt lat="46.490997" lon="11.49169"><ele>906.0</ele><time>2017-08-03T04:34:12Z</time></trkpt>
<trkpt lat="46.491522" lon="11.492343"><ele>906.0</ele><time>2017-08-03T04:34:15Z</time></trkpt>
<trkpt lat="46.491713" lon="11.492492"><ele>898.0</ele><time>2017-08-03T04:34:16Z</time></trkpt>
<trkpt lat="46.492165" lon="11.492767"><ele>906.0</ele><time>2017-08-03T04:34:19Z</time></trkpt>
<trkpt lat="46.492271" lon="11.492865"><ele>906.0</ele><time>2017-08-03T04:34:20Z</time></trkpt>
<trkpt lat="46.492388" lon="11.493027"><ele>906.0</ele><time>2017-08-03T04:34:21Z</time></trkpt>
<trkpt lat="46.492599" lon="11.493429"><ele>923.0</ele><time>2017-08-03T04:34:23Z</time></trkpt>
<trkpt lat="46.492721" lon="11.493591"><ele>923.0</ele><time>2017-08-03T04:34:23Z</time></trkpt>
<trkpt lat="46.492797" lon="11.493654"><ele>923.0</ele><time>2017-08-03T04:34:24Z</time></trkpt>
<trkpt lat="46.492947" lon="11.49373"><ele>923.0</ele><time>2017-08-03T04:34:25Z</time></trkpt>
<trkpt lat="46.493108" lon="11.493727"><ele>923.0</ele><time>2017-08-03T04:34:26Z</time></trkpt>
<trkpt lat="46.493227" lon="11.493671"><ele>923.0</ele><time>2017-08-03T04:34:26Z</time></trkpt>
<trkpt lat="46.493339" lon="11.493563"><ele>959.0</ele><time>2017-08-03T04:34:28Z</time></trkpt>
<trkpt lat="46.49342" lon="11.493438"><ele>959.0</ele><time>2017-08-03T04:34:29Z</time></trkpt>
<trkpt lat="46.493473" lon="11.493298"><ele>949.0</ele><time>2017-08-03T04:34:29Z</time></trkpt>
<trkpt lat="46.493523" lon="11.493037"><ele>949.0</ele><time>2017-08-03T04:34:30Z</time></trkpt>
<trkpt lat="46.493519" lon="11.492884"><ele>949.0</ele><time>2017-08-03T04:34:31Z</time></trkpt>
<trkpt lat="46.493444" lon="11.492622"><ele>949.0</ele><time>2017-08-03T04:34:32Z</time></trkpt>
<trkpt lat="46.493211" lon="11.492142"><ele>923.0</ele><time>2017-08-03T04:34:34Z</time></trkpt>
<trkpt lat="46.493072" lon="11.491748"><ele>923.0</ele><time>2017-08-03T04:34:36Z</time></trkpt>
<trkpt lat="46.493001" lon="11.491438"><ele>933.0</ele><time>2017-08-03T04:34:37Z</time></trkpt>
<trkpt lat="46.492877" lon="11.490492"><ele>933.0</ele><time>2017-08-03T04:34:41Z</time></trkpt>
<trkpt lat="46.492714" lon="11.489583"><ele>930.0</ele><time>2017-08-03T04:34:44Z</time></trkpt>
<trkpt lat="46.492645" lon="11.48907"><ele>925.0</ele><time>2017-08-03T04:34:46Z</time></trkpt>
<trkpt lat="46.492609" lon="11.488581"><ele>925.0</ele><time>2017-08-03T04:34:48Z</time></trkpt>
<trkpt lat="46.492602" lon="11.488193"><ele>918.0</ele><time>2017-08-03T04:34:49Z</time></trkpt>
<trkpt lat="46.492626" lon="11.48789"><ele>918.0</ele><time>2017-08-03T04:34:51Z</time></trkpt>
<trkpt lat="46.492665" lon="11.487712"><ele>918.0</ele><time>2017-08-03T04:34:51Z</time></trkpt>
<trkpt lat="46.492758" lon="11.487458"><ele>908.0</ele><time>2017-08-03T04:34:52Z</time></trkpt>
<trkpt lat="46.492865" lon="11.487273"><ele>908.0</ele><time>2017-08-03T04:34:53Z</time></trkpt>
<trkpt lat="46.492973" lon="11.487133"><ele>908.0</ele><time>2017-08-03T04:34:54Z</time></trkpt>
<trkpt lat="46.493052" lon="11.48706"><ele>908.0</ele><time>2017-08-03T04:34:55Z</time></trkpt>
<trkpt lat="46.493263" lon="11.486932"><ele>908.0</ele><time>2017-08-03T04:34:56Z</time></trkpt>
<trkpt lat="46.493699" lon="11.486746"><ele>922.0</ele><time>2017-08-03T04:34:58Z</time></trkpt>
<trkpt lat="46.493892" lon="11.486617"><ele>913.0</ele><time>2017-08-03T04:34:59Z</time></trkpt>
<trkpt lat="46.494071" lon="11.486437"><ele>913.0</ele><time>2017-08-03T04:35:01Z</time></trkpt>
<trkpt lat="46.494132" lon="11.486354"><ele>913.0</ele><time>2017-08-03T04:35:01Z</time></trkpt>
<trkpt lat="46.494291" lon="11.486069"><ele>944.0</ele><time>2017-08-03T04:35:03Z</time></trkpt>
<trkpt lat="46.495096" lon="11.484085"><ele>933.0</ele><time>2017-08-03T04:35:11Z</time></trkpt>
<trkpt lat="46.495217" lon="11.483859"><ele>933.0</ele><time>2017-08-03T04:35:12Z</time></trkpt>
<trkpt lat="46.495345" lon="11.483706"><ele>933.0</ele><time>2017-08-03T04:35:13Z</time></trkpt>
<trkpt lat="46.495531" lon="11.483572"><ele>933.0</ele><time>2017-08-03T04:35:14Z</time></trkpt>
<trkpt lat="46.495714" lon="11.483513"><ele>933.0</ele><time>2017-08-03T04:35:15Z</time></trkpt>
<trkpt lat="46.495818" lon="11.483505"><ele>933.0</ele><time>2017-08-03T04:35:16Z</time></trkpt>
<trkpt lat="46.495995" lon="11.48353"><ele>944.0</ele><time>2017-08-03T04:35:17Z</time></trkpt>
<trkpt lat="46.496458" lon="11.483669"><ele>944.0</ele><time>2017-08-03T04:35:20Z</time></trkpt>
<trkpt lat="46.496603" lon="11.483668"><ele>944.0</ele><time>2017-08-03T04:35:20Z</time></trkpt>
<trkpt lat="46.496775" lon="11.483623"><ele>961.0</ele><time>2017-08-03T04:35:21Z</time></trkpt>
<trkpt lat="46.496823" lon="11.483598"><ele>961.0</ele><time>2017-08-03T04:35:31Z</time></trkpt>
<trkpt lat="46.496821" lon="11.483682"><ele>961.0</ele><time>2017-08-03T04:35:32Z</time></trkpt>
<trkpt lat="46.496693" lon="11.483755"><ele>961.0</ele><time>2017-08-03T04:35:35Z</time></trkpt>
<trkpt lat="46.496447" lon="11.483779"><ele>944.0</ele><time>2017-08-03T04:35:43Z</time></trkpt>
<trkpt lat="46.496262" lon="11.483834"><ele>944.0</ele><time>2017-08-03T04:35:47Z</time></trkpt>
<trkpt lat="46.495889" lon="11.484001"><ele>944.0</ele><time>2017-08-03T04:35:57Z</time></trkpt>
<trkpt lat="46.495691" lon="11.484141"><ele>933.0</ele><time>2017-08-03T04:36:03Z</time></trkpt>
<trkpt lat="46.495574" lon="11.484292"><ele>953.0</ele><time>2017-08-03T04:36:09Z</time></trkpt>
<trkpt lat="46.495482" lon="11.484501"><ele>953.0</ele><time>2017-08-03T04:36:14Z</time></trkpt>
<trkpt lat="46.495143" lon="11.485755"><ele>969.0</ele><time>2017-08-03T04:36:37Z</time></trkpt>
<trkpt lat="46.49512" lon="11.485904"><ele>979.0</ele><time>2017-08-03T04:36:40Z</time></trkpt>
<trkpt lat="46.49512" lon="11.485904"><ele>979.0</ele><time>2017-08-03T04:36:40Z</time></trkpt>
<trkpt lat="46.495143" lon="11.485755"><ele>969.0</ele><time>2017-08-03T04:36:44Z</time></trkpt>
<trkpt lat="46.495482" lon="11.484501"><ele>953.0</ele><time>2017-08-03T04:37:07Z</time></trkpt>
<trkpt lat="46.495574" lon="11.484292"><ele>953.0</ele><time>2017-08-03T04:37:12Z</time></trkpt>
<trkpt lat="46.495691" lon="11.484141"><ele>933.0</ele><time>2017-08-03T04:37:18Z</time></trkpt>
<trkpt lat="46.495889" lon="11.484001"><ele>944.0</ele><time>2017-08-03T04:37:24Z</time></trkpt>
<trkpt lat="46.496262" lon="11.483834"><ele>944.0</ele><time>2017-08-03T04:37:33Z</time></trkpt>
<trkpt lat="46.496447" lon="11.483779"><ele>944.0</ele><time>2017-08-03T04:37:38Z</time></trkpt>
<trkpt lat="46.496693" lon="11.483755"><ele>961.0</ele><time>2017-08-03T04:37:45Z</time></trkpt>
<trkpt lat="46.496821" lon="11.483682"><ele>961.0</ele><time>2017-08-03T04:37:49Z</time></trkpt>
<trkpt lat="46.496823" lon="11.483598"><ele>961.0</ele><time>2017-08-03T04:37:50Z</time></trkpt>
<trkpt lat="46.496916" lon="11.483532"><ele>961.0</ele><time>2017-08-03T04:37:51Z</time></trkpt>
<trkpt lat="46.497084" lon="11.483358"><ele>961.0</ele><time>2017-08-03T04:37:52Z</time></trkpt>
<trkpt lat="46.497232" lon="11.483094"><ele>947.0</ele><time>2017-08-03T04:37:53Z</time></trkpt>
<trkpt lat="46.497275" lon="11.482978"><ele>947.0</ele><time>2017-08-03T04:37:54Z</time></trkpt>
<trkpt lat="46.497466" lon="11.482264"><ele>933.0</ele><time>2017-08-03T04:37:56Z</time></trkpt>
<trkpt lat="46.497563" lon="11.482005"><ele>943.0</ele><time>2017-08-03T04:37:57Z</time></trkpt>
<trkpt lat="46.497714" lon="11.481766"><ele>943.0</ele><time>2017-08-03T04:37:59Z</time></trkpt>
<trkpt lat="46.497871" lon="11.481616"><ele>944.0</ele><time>2017-08-03T04:38:00Z</time></trkpt>
<trkpt lat="46.498065" lon="11.481521"><ele>944.0</ele><time>2017-08-03T04:38:01Z</time></trkpt>
<trkpt lat="46.498242" lon="11.481497"><ele>944.0</ele><time>2017-08-03T04:38:01Z</time></trkpt>
<trkpt lat="46.498482" lon="11.481559"><ele>938.0</ele><time>2017-08-03T04:38:03Z</time></trkpt>
<trkpt lat="46.498557" lon="11.481598"><ele>938.0</ele><time>2017-08-03T04:38:03Z</time></trkpt>
<trkpt lat="46.498717" lon="11.481737"><ele>933.0</ele><time>2017-08-03T04:38:04Z</time></trkpt>
<trkpt lat="46.498854" lon="11.481931"><ele>933.0</ele><time>2017-08-03T04:38:05Z</time></trkpt>
<trkpt lat="46.499305" lon="11.482941"><ele>905.0</ele><time>2017-08-03T04:38:09Z</time></trkpt>
<trkpt lat="46.499512" lon="11.483274"><ele>905.0</ele><time>2017-08-03T04:38:11Z</time></trkpt>
<trkpt lat="46.499794" lon="11.483606"><ele>912.0</ele><time>2017-08-03T04:38:13Z</time></trkpt>
<trkpt lat="46.500363" lon="11.484183"><ele>898.0</ele><time>2017-08-03T04:38:16Z</time></trkpt>
<trkpt lat="46.500705" lon="11.484558"><ele>898.0</ele><time>2017-08-03T04:38:18Z</time></trkpt>
<trkpt lat="46.50093" lon="11.484813"><ele>891.0</ele><time>2017-08-03T04:38:20Z</time></trkpt>
<trkpt lat="46.501388" lon="11.48539"><ele>888.0</ele><time>2017-08-03T04:38:23Z</time></trkpt>
<trkpt lat="46.501944" lon="11.486181"><ele>886.0</ele><time>2017-08-03T04:38:27Z</time></trkpt>
<trkpt lat="46.502239" lon="11.486652"><ele>886.0</ele><time>2017-08-03T04:38:29Z</time></trkpt>
<trkpt lat="46.502619" lon="11.487308"><ele>878.0</ele><time>2017-08-03T04:38:32Z</time></trkpt>
<trkpt lat="46.502744" lon="11.487486"><ele>878.0</ele><time>2017-08-03T04:38:33Z</time></trkpt>
<trkpt lat="46.502878" lon="11.487635"><ele>876.0</ele><time>2017-08-03T04:38:34Z</time></trkpt>
<trkpt lat="46.503006" lon="11.48773"><ele>876.0</ele><time>2017-08-03T04:38:34Z</time></trkpt>
<trkpt lat="46.503141" lon="11.487792"><ele>876.0</ele><time>2017-08-03T04:38:35Z</time></trkpt>
<trkpt lat="46.503284" lon="11.487803"><ele>876.0</ele><time>2017-08-03T04:38:36Z</time></trkpt>
<trkpt lat="46.50346" lon="11.487768"><ele>866.0</ele><time>2017-08-03T04:38:37Z</time></trkpt>
<trkpt lat="46.503682" lon="11.48761"><ele>866.0</ele><time>2017-08-03T04:38:38Z</time></trkpt>
<trkpt lat="46.503811" lon="11.487415"><ele>869.0</ele><time>2017-08-03T04:38:39Z</time></trkpt>
<trkpt lat="46.503887" lon="11.48722"><ele>869.0</ele><time>2017-08-03T04:38:40Z</time></trkpt>
<trkpt lat="46.503935" lon="11.486999"><ele>869.0</ele><time>2017-08-03T04:38:41Z</time></trkpt>
<trkpt lat="46.503941" lon="11.486765"><ele>869.0</ele><time>2017-08-03T04:38:41Z</time></trkpt>
<trkpt lat="46.503913" lon="11.486528"><ele>860.0</ele><time>2017-08-03T04:38:42Z</time></trkpt>
<trkpt lat="46.503695" lon="11.48555"><ele>852.0</ele><time>2017-08-03T04:38:46Z</time></trkpt>
<trkpt lat="46.503635" lon="11.485136"><ele>852.0</ele><time>2017-08-03T04:38:47Z</time></trkpt>
<trkpt lat="46.503613" lon="11.484746"><ele>846.0</ele><time>2017-08-03T04:38:49Z</time></trkpt>
<trkpt lat="46.503624" lon="11.483547"><ele>837.0</ele><time>2017-08-03T04:38:53Z</time></trkpt>
<trkpt lat="46.503662" lon="11.48293"><ele>832.0</ele><time>2017-08-03T04:38:55Z</time></trkpt>
<trkpt lat="46.503873" lon="11.481552"><ele>826.0</ele><time>2017-08-03T04:39:00Z</time></trkpt>
<trkpt lat="46.503903" lon="11.481103"><ele>826.0</ele><time>2017-08-03T04:39:01Z</time></trkpt>
<trkpt lat="46.503894" lon="11.48069"><ele>815.0</ele><time>2017-08-03T04:39:03Z</time></trkpt>
<trkpt lat="46.503859" lon="11.48035"><ele>815.0</ele><time>2017-08-03T04:39:04Z</time></trkpt>
<trkpt lat="46.503794" lon="11.479997"><ele>808.0</ele><time>2017-08-03T04:39:05Z</time></trkpt>
<trkpt lat="46.503515" lon="11.478884"><ele>800.0</ele><time>2017-08-03T04:39:09Z</time></trkpt>
<trkpt lat="46.503384" lon="11.478278"><ele>782.0</ele><time>2017-08-03T04:39:12Z</time></trkpt>
<trkpt lat="46.5033" lon="11.477966"><ele>814.0</ele><time>2017-08-03T04:39:14Z</time></trkpt>
<trkpt lat="46.503007" lon="11.477242"><ele>802.0</ele><time>2017-08-03T04:39:17Z</time></trkpt>
<trkpt lat="46.502867" lon="11.476776"><ele>802.0</ele><time>2017-08-03T04:39:18Z</time></trkpt>
<trkpt lat="46.50281" lon="11.476432"><ele>790.0</ele><time>2017-08-03T04:39:20Z</time></trkpt>
<trkpt lat="46.502793" lon="11.476235"><ele>790.0</ele><time>2017-08-03T04:39:20Z</time></trkpt>
<trkpt lat="46.50271" lon="11.47475"><ele>765.0</ele><time>2017-08-03T04:39:26Z</time></trkpt>
<trkpt lat="46.502682" lon="11.474451"><ele>765.0</ele><time>2017-08-03T04:39:27Z</time></trkpt>
<trkpt lat="46.502583" lon="11.473843"><ele>750.0</ele><time>2017-08-03T04:39:29Z</time></trkpt>
<trkpt lat="46.502446" lon="11.473346"><ele>786.0</ele><time>2017-08-03T04:39:31Z</time></trkpt>
<trkpt lat="46.502318" lon="11.473011"><ele>764.0</ele><time>2017-08-03T04:39:33Z</time></trkpt>
<trkpt lat="46.502195" lon="11.472748"><ele>764.0</ele><time>2017-08-03T04:39:34Z</time></trkpt>
<trkpt lat="46.501318" lon="11.4713"><ele>751.0</ele><time>2017-08-03T04:39:41Z</time></trkpt>
<trkpt lat="46.500745" lon="11.4702"><ele>746.0</ele><time>2017-08-03T04:39:46Z</time></trkpt>
<trkpt lat="46.500645" lon="11.470046"><ele>746.0</ele><time>2017-08-03T04:39:46Z</time></trkpt>
<trkpt lat="46.500412" lon="11.469767"><ele>717.0</ele><time>2017-08-03T04:39:48Z</time></trkpt>
<trkpt lat="46.500248" lon="11.469625"><ele>717.0</ele><time>2017-08-03T04:39:49Z</time></trkpt>
<trkpt lat="46.499643" lon="11.469198"><ele>742.0</ele><time>2017-08-03T04:39:53Z</time></trkpt>
<trkpt lat="46.499594" lon="11.469145"><ele>720.0</ele><time>2017-08-03T04:39:54Z</time></trkpt>
<trkpt lat="46.499529" lon="11.46903"><ele>720.0</ele><time>2017-08-03T04:39:54Z</time></trkpt>
<trkpt lat="46.499491" lon="11.468836"><ele>720.0</ele><time>2017-08-03T04:39:55Z</time></trkpt>
<trkpt lat="46.499505" lon="11.468703"><ele>720.0</ele><time>2017-08-03T04:39:55Z</time></trkpt>
<trkpt lat="46.499522" lon="11.468636"><ele>720.0</ele><time>2017-08-03T04:39:56Z</time></trkpt>
<trkpt lat="46.499572" lon="11.468542"><ele>720.0</ele><time>2017-08-03T04:39:56Z</time></trkpt>
<trkpt lat="46.499642" lon="11.46847"><ele>720.0</ele><time>2017-08-03T04:39:57Z</time></trkpt>
<trkpt lat="46.499734" lon="11.468432"><ele>720.0</ele><time>2017-08-03T04:39:57Z</time></trkpt>
<trkpt lat="46.499836" lon="11.468447"><ele>720.0</ele><time>2017-08-03T04:39:58Z</time></trkpt>
<trkpt lat="46.499922" lon="11.468511"><ele>720.0</ele><time>2017-08-03T04:39:58Z</time></trkpt>
<trkpt lat="46.500015" lon="11.46864"><ele>695.0</ele><time>2017-08-03T04:39:59Z</time></trkpt>
<trkpt lat="46.50027" lon="11.469105"><ele>695.0</ele><time>2017-08-03T04:40:01Z</time></trkpt>
<trkpt lat="46.500467" lon="11.469393"><ele>717.0</ele><time>2017-08-03T04:40:03Z</time></trkpt>
<trkpt lat="46.500645" lon="11.46958"><ele>717.0</ele><time>2017-08-03T04:40:04Z</time></trkpt>
<trkpt lat="46.500835" lon="11.469709"><ele>702.0</ele><time>2017-08-03T04:40:05Z</time></trkpt>
<trkpt lat="46.501386" lon="11.469997"><ele>702.0</ele><time>2017-08-03T04:40:08Z</time></trkpt>
<trkpt lat="46.501737" lon="11.470288"><ele>706.0</ele><time>2017-08-03T04:40:10Z</time></trkpt>
<trkpt lat="46.502044" lon="11.470648"><ele>706.0</ele><time>2017-08-03T04:40:12Z</time></trkpt>
<trkpt lat="46.502331" lon="11.471137"><ele>723.0</ele><time>2017-08-03T04:40:15Z</time></trkpt>
<trkpt lat="46.502695" lon="11.471812"><ele>719.0</ele><time>2017-08-03T04:40:18Z</time></trkpt>
<trkpt lat="46.502916" lon="11.47212"><ele>719.0</ele><time>2017-08-03T04:40:19Z</time></trkpt>
<trkpt lat="46.503532" lon="11.472809"><ele>702.0</ele><time>2017-08-03T04:40:23Z</time></trkpt>
<trkpt lat="46.503702" lon="11.473084"><ele>702.0</ele><time>2017-08-03T04:40:24Z</time></trkpt>
<trkpt lat="46.503814" lon="11.473342"><ele>714.0</ele><time>2017-08-03T04:40:26Z</time></trkpt>
<trkpt lat="46.503887" lon="11.473583"><ele>714.0</ele><time>2017-08-03T04:40:27Z</time></trkpt>
<trkpt lat="46.503939" lon="11.47389"><ele>714.0</ele><time>2017-08-03T04:40:28Z</time></trkpt>
<trkpt lat="46.504003" lon="11.47445"><ele>724.0</ele><time>2017-08-03T04:40:30Z</time></trkpt>
<trkpt lat="46.504033" lon="11.474586"><ele>724.0</ele><time>2017-08-03T04:40:30Z</time></trkpt>
<trkpt lat="46.504085" lon="11.474724"><ele>724.0</ele><time>2017-08-03T04:40:31Z</time></trkpt>
<trkpt lat="46.5042" lon="11.474922"><ele>698.0</ele><time>2017-08-03T04:40:32Z</time></trkpt>
<trkpt lat="46.504395" lon="11.475098"><ele>703.0</ele><time>2017-08-03T04:40:33Z</time></trkpt>
<trkpt lat="46.504603" lon="11.475165"><ele>703.0</ele><time>2017-08-03T04:40:34Z</time></trkpt>
<trkpt lat="46.504707" lon="11.475164"><ele>703.0</ele><time>2017-08-03T04:40:35Z</time></trkpt>
<trkpt lat="46.504859" lon="11.47512"><ele>703.0</ele><time>2017-08-03T04:40:36Z</time></trkpt>
<trkpt lat="46.505238" lon="11.474897"><ele>666.0</ele><time>2017-08-03T04:40:38Z</time></trkpt>
<trkpt lat="46.505386" lon="11.474831"><ele>666.0</ele><time>2017-08-03T04:40:39Z</time></trkpt>
<trkpt lat="46.505491" lon="11.474813"><ele>666.0</ele><time>2017-08-03T04:40:40Z</time></trkpt>
<trkpt lat="46.505598" lon="11.474833"><ele>666.0</ele><time>2017-08-03T04:40:40Z</time></trkpt>
<trkpt lat="46.505672" lon="11.474857"><ele>666.0</ele><time>2017-08-03T04:40:41Z</time></trkpt>
<trkpt lat="46.505798" lon="11.474946"><ele>666.0</ele><time>2017-08-03T04:40:41Z</time></trkpt>
<trkpt lat="46.505851" lon="11.475001"><ele>643.0</ele><time>2017-08-03T04:40:42Z</time></trkpt>
<trkpt lat="46.505951" lon="11.475163"><ele>643.0</ele><time>2017-08-03T04:40:43Z</time></trkpt>
<trkpt lat="46.506188" lon="11.475723"><ele>643.0</ele><time>2017-08-03T04:40:45Z</time></trkpt>
<trkpt lat="46.506319" lon="11.475992"><ele>659.0</ele><time>2017-08-03T04:40:47Z</time></trkpt>
<trkpt lat="46.506705" lon="11.476667"><ele>629.0</ele><time>2017-08-03T04:40:50Z</time></trkpt>
<trkpt lat="46.506783" lon="11.47684"><ele>640.0</ele><time>2017-08-03T04:40:51Z</time></trkpt>
<trkpt lat="46.506903" lon="11.477178"><ele>640.0</ele><time>2017-08-03T04:40:52Z</time></trkpt>
<trkpt lat="46.506984" lon="11.477333"><ele>640.0</ele><time>2017-08-03T04:40:53Z</time></trkpt>
<trkpt lat="46.50703" lon="11.47738"><ele>640.0</ele><time>2017-08-03T04:40:53Z</time></trkpt>
<trkpt lat="46.507141" lon="11.477428"><ele>640.0</ele><time>2017-08-03T04:40:54Z</time></trkpt>
<trkpt lat="46.507239" lon="11.477383"><ele>640.0</ele><time>2017-08-03T04:40:54Z</time></trkpt>
<trkpt lat="46.507314" lon="11.477259"><ele>640.0</ele><time>2017-08-03T04:40:55Z</time></trkpt>
<trkpt lat="46.507329" lon="11.477184"><ele>640.0</ele><time>2017-08-03T04:40:55Z</time></trkpt>
<trkpt lat="46.507325" lon="11.477095"><ele>640.0</ele><time>2017-08-03T04:40:55Z</time></trkpt>
<trkpt lat="46.507286" lon="11.476917"><ele>640.0</ele><time>2017-08-03T04:40:56Z</time></trkpt>
<trkpt lat="46.507189" lon="11.476652"><ele>629.0</ele><time>2017-08-03T04:40:57Z</time></trkpt>
<trkpt lat="46.506713" lon="11.475536"><ele>607.0</ele><time>2017-08-03T04:41:02Z</time></trkpt>
<trkpt lat="46.506626" lon="11.475282"><ele>643.0</ele><time>2017-08-03T04:41:04Z</time></trkpt>
<trkpt lat="46.506582" lon="11.475094"><ele>643.0</ele><time>2017-08-03T04:41:04Z</time></trkpt>
<trkpt lat="46.506536" lon="11.474793"><ele>626.0</ele><time>2017-08-03T04:41:06Z</time></trkpt>
<trkpt lat="46.506484" lon="11.474047"><ele>604.0</ele><time>2017-08-03T04:41:08Z</time></trkpt>
<trkpt lat="46.506432" lon="11.473769"><ele>604.0</ele><time>2017-08-03T04:41:09Z</time></trkpt>
<trkpt lat="46.506394" lon="11.473681"><ele>604.0</ele><time>2017-08-03T04:41:10Z</time></trkpt>
<trkpt lat="46.506309" lon="11.473552"><ele>604.0</ele><time>2017-08-03T04:41:10Z</time></trkpt>
<trkpt lat="46.506187" lon="11.473456"><ele>604.0</ele><time>2017-08-03T04:41:11Z</time></trkpt>
<trkpt lat="46.505813" lon="11.473255"><ele>623.0</ele><time>2017-08-03T04:41:13Z</time></trkpt>
<trkpt lat="46.505711" lon="11.473145"><ele>623.0</ele><time>2017-08-03T04:41:14Z</time></trkpt>
<trkpt lat="46.505638" lon="11.472995"><ele>623.0</ele><time>2017-08-03T04:41:14Z</time></trkpt>
<trkpt lat="46.505604" lon="11.472718"><ele>623.0</ele><time>2017-08-03T04:41:15Z</time></trkpt>
<trkpt lat="46.505678" lon="11.472011"><ele>614.0</ele><time>2017-08-03T04:41:18Z</time></trkpt>
<trkpt lat="46.505671" lon="11.471696"><ele>614.0</ele><time>2017-08-03T04:41:19Z</time></trkpt>
<trkpt lat="46.505648" lon="11.471552"><ele>599.0</ele><time>2017-08-03T04:41:20Z</time></trkpt>
<trkpt lat="46.505543" lon="11.471195"><ele>599.0</ele><time>2017-08-03T04:41:21Z</time></trkpt>
<trkpt lat="46.505224" lon="11.470422"><ele>561.0</ele><time>2017-08-03T04:41:25Z</time></trkpt>
<trkpt lat="46.50479" lon="11.469437"><ele>583.0</ele><time>2017-08-03T04:41:29Z</time></trkpt>
<trkpt lat="46.504693" lon="11.46911"><ele>544.0</ele><time>2017-08-03T04:41:31Z</time></trkpt>
<trkpt lat="46.504625" lon="11.468962"><ele>544.0</ele><time>2017-08-03T04:41:32Z</time></trkpt>
<trkpt lat="46.504461" lon="11.468726"><ele>544.0</ele><time>2017-08-03T04:41:33Z</time></trkpt>
<trkpt lat="46.504204" lon="11.468444"><ele>544.0</ele><time>2017-08-03T04:41:34Z</time></trkpt>
<trkpt lat="46.503867" lon="11.467991"><ele>547.0</ele><time>2017-08-03T04:41:37Z</time></trkpt>
<trkpt lat="46.503448" lon="11.467587"><ele>547.0</ele><time>2017-08-03T04:41:39Z</time></trkpt>
<trkpt lat="46.503306" lon="11.467365"><ele>557.0</ele><time>2017-08-03T04:41:40Z</time></trkpt>
<trkpt lat="46.503214" lon="11.467141"><ele>557.0</ele><time>2017-08-03T04:41:41Z</time></trkpt>
<trkpt lat="46.50318" lon="11.467005"><ele>557.0</ele><time>2017-08-03T04:41:42Z</time></trkpt>
<trkpt lat="46.503127" lon="11.466641"><ele>541.0</ele><time>2017-08-03T04:41:43Z</time></trkpt>
<trkpt lat="46.503102" lon="11.466277"><ele>541.0</ele><time>2017-08-03T04:41:45Z</time></trkpt>
<trkpt lat="46.503083" lon="11.466141"><ele>541.0</ele><time>2017-08-03T04:41:45Z</time></trkpt>
<trkpt lat="46.503029" lon="11.465938"><ele>541.0</ele><time>2017-08-03T04:41:46Z</time></trkpt>
<trkpt lat="46.502799" lon="11.465414"><ele>518.0</ele><time>2017-08-03T04:41:48Z</time></trkpt>
<trkpt lat="46.502671" lon="11.465162"><ele>518.0</ele><time>2017-08-03T04:41:49Z</time></trkpt>
<trkpt lat="46.502482" lon="11.464969"><ele>515.0</ele><time>2017-08-03T04:41:50Z</time></trkpt>
<trkpt lat="46.502075" lon="11.464845"><ele>515.0</ele><time>2017-08-03T04:41:52Z</time></trkpt>
<trkpt lat="46.501738" lon="11.46478"><ele>515.0</ele><time>2017-08-03T04:41:54Z</time></trkpt>
<trkpt lat="46.501643" lon="11.4647"><ele>549.0</ele><time>2017-08-03T04:41:56Z</time></trkpt>
<trkpt lat="46.501621" lon="11.464644"><ele>549.0</ele><time>2017-08-03T04:41:56Z</time></trkpt>
<trkpt lat="46.501614" lon="11.464474"><ele>549.0</ele><time>2017-08-03T04:41:57Z</time></trkpt>
<trkpt lat="46.501672" lon="11.464351"><ele>515.0</ele><time>2017-08-03T04:41:58Z</time></trkpt>
<trkpt lat="46.50171" lon="11.464316"><ele>515.0</ele><time>2017-08-03T04:41:58Z</time></trkpt>
<trkpt lat="46.501808" lon="11.464329"><ele>515.0</ele><time>2017-08-03T04:41:59Z</time></trkpt>
<trkpt lat="46.501998" lon="11.464491"><ele>515.0</ele><time>2017-08-03T04:42:00Z</time></trkpt>
<trkpt lat="46.50211" lon="11.464553"><ele>515.0</ele><time>2017-08-03T04:42:01Z</time></trkpt>
<trkpt lat="46.502248" lon="11.464567"><ele>515.0</ele><time>2017-08-03T04:42:01Z</time></trkpt>
<trkpt lat="46.502615" lon="11.464496"><ele>497.0</ele><time>2017-08-03T04:42:03Z</time></trkpt>
<trkpt lat="46.502861" lon="11.464559"><ele>497.0</ele><time>2017-08-03T04:42:05Z</time></trkpt>
<trkpt lat="46.503026" lon="11.464673"><ele>497.0</ele><time>2017-08-03T04:42:06Z</time></trkpt>
<trkpt lat="46.503889" lon="11.465676"><ele>492.0</ele><time>2017-08-03T04:42:11Z</time></trkpt>
<trkpt lat="46.504362" lon="11.466493"><ele>468.0</ele><time>2017-08-03T04:42:15Z</time></trkpt>
<trkpt lat="46.504662" lon="11.466947"><ele>482.0</ele><time>2017-08-03T04:42:17Z</time></trkpt>
<trkpt lat="46.504841" lon="11.467185"><ele>482.0</ele><time>2017-08-03T04:42:18Z</time></trkpt>
<trkpt lat="46.50513" lon="11.467515"><ele>467.0</ele><time>2017-08-03T04:42:20Z</time></trkpt>
<trkpt lat="46.505619" lon="11.467992"><ele>467.0</ele><time>2017-08-03T04:42:23Z</time></trkpt>
<trkpt lat="46.505813" lon="11.468249"><ele>467.0</ele><time>2017-08-03T04:42:25Z</time></trkpt>
<trkpt lat="46.506048" lon="11.468631"><ele>445.0</ele><time>2017-08-03T04:42:27Z</time></trkpt>
<trkpt lat="46.50612" lon="11.46869"><ele>445.0</ele><time>2017-08-03T04:42:27Z</time></trkpt>
<trkpt lat="46.506201" lon="11.468721"><ele>445.0</ele><time>2017-08-03T04:42:27Z</time></trkpt>
<trkpt lat="46.506354" lon="11.468692"><ele>445.0</ele><time>2017-08-03T04:42:45Z</time></trkpt>
<trkpt lat="46.506286" lon="11.4684"><ele>445.0</ele><time>2017-08-03T04:42:46Z</time></trkpt>
<trkpt lat="46.506256" lon="11.46834"><ele>445.0</ele><time>2017-08-03T04:42:47Z</time></trkpt>
<trkpt lat="46.505995" lon="11.468169"><ele>418.0</ele><time>2017-08-03T04:42:49Z</time></trkpt>
<trkpt lat="46.505906" lon="11.468085"><ele>418.0</ele><time>2017-08-03T04:42:50Z</time></trkpt>
<trkpt lat="46.505827" lon="11.467967"><ele>467.0</ele><time>2017-08-03T04:42:53Z</time></trkpt>
<trkpt lat="46.50554" lon="11.467401"><ele>446.0</ele><time>2017-08-03T04:42:56Z</time></trkpt>
<trkpt lat="46.50545" lon="11.46713"><ele>446.0</ele><time>2017-08-03T04:42:57Z</time></trkpt>
<trkpt lat="46.505283" lon="11.466392"><ele>430.0</ele><time>2017-08-03T04:43:01Z</time></trkpt>
<trkpt lat="46.505098" lon="11.465303"><ele>408.0</ele><time>2017-08-03T04:43:06Z</time></trkpt>
<trkpt lat="46.505039" lon="11.46506"><ele>408.0</ele><time>2017-08-03T04:43:07Z</time></trkpt>
<trkpt lat="46.504501" lon="11.463639"><ele>418.0</ele><time>2017-08-03T04:43:14Z</time></trkpt>
<trkpt lat="46.504268" lon="11.463246"><ele>385.0</ele><time>2017-08-03T04:43:17Z</time></trkpt>
<trkpt lat="46.504106" lon="11.463032"><ele>419.0</ele><time>2017-08-03T04:43:20Z</time></trkpt>
<trkpt lat="46.50373" lon="11.462608"><ele>419.0</ele><time>2017-08-03T04:43:23Z</time></trkpt>
<trkpt lat="46.503566" lon="11.462439"><ele>374.0</ele><time>2017-08-03T04:43:26Z</time></trkpt>
<trkpt lat="46.503508" lon="11.462412"><ele>374.0</ele><time>2017-08-03T04:43:26Z</time></trkpt>
<trkpt lat="46.503412" lon="11.462429"><ele>374.0</ele><time>2017-08-03T04:43:27Z</time></trkpt>
<trkpt lat="46.503018" lon="11.4627"><ele>437.0</ele><time>2017-08-03T04:43:31Z</time></trkpt>
<trkpt lat="46.502964" lon="11.462715"><ele>437.0</ele><time>2017-08-03T04:43:32Z</time></trkpt>
<trkpt lat="46.502574" lon="11.462572"><ele>437.0</ele><time>2017-08-03T04:43:34Z</time></trkpt>
<trkpt lat="46.502534" lon="11.462529"><ele>437.0</ele><time>2017-08-03T04:43:35Z</time></trkpt>
<trkpt lat="46.502487" lon="11.46242"><ele>428.0</ele><time>2017-08-03T04:43:35Z</time></trkpt>
<trkpt lat="46.502331" lon="11.461638"><ele>392.0</ele><time>2017-08-03T04:43:39Z</time></trkpt>
<trkpt lat="46.502273" lon="11.4615"><ele>392.0</ele><time>2017-08-03T04:43:40Z</time></trkpt>
<trkpt lat="46.502104" lon="11.461337"><ele>392.0</ele><time>2017-08-03T04:43:41Z</time></trkpt>
<trkpt lat="46.501551" lon="11.460932"><ele>422.0</ele><time>2017-08-03T04:43:46Z</time></trkpt>
<trkpt lat="46.501487" lon="11.460827"><ele>379.0</ele><time>2017-08-03T04:43:48Z</time></trkpt>
<trkpt lat="46.501347" lon="11.460518"><ele>379.0</ele><time>2017-08-03T04:43:50Z</time></trkpt>
<trkpt lat="46.50109" lon="11.460377"><ele>379.0</ele><time>2017-08-03T04:43:52Z</time></trkpt>
<trkpt lat="46.501046" lon="11.460328"><ele>379.0</ele><time>2017-08-03T04:43:52Z</time></trkpt>
<trkpt lat="46.500949" lon="11.460069"><ele>379.0</ele><time>2017-08-03T04:43:53Z</time></trkpt>
<trkpt lat="46.500883" lon="11.459966"><ele>349.0</ele><time>2017-08-03T04:43:55Z</time></trkpt>
<trkpt lat="46.500777" lon="11.459906"><ele>391.0</ele><time>2017-08-03T04:43:58Z</time></trkpt>
<trkpt lat="46.500728" lon="11.459826"><ele>391.0</ele><time>2017-08-03T04:43:58Z</time></trkpt>
<trkpt lat="46.500699" lon="11.459745"><ele>391.0</ele><time>2017-08-03T04:43:59Z</time></trkpt>
<trkpt lat="46.500699" lon="11.45966"><ele>391.0</ele><time>2017-08-03T04:43:59Z</time></trkpt>
<trkpt lat="46.500731" lon="11.459439"><ele>391.0</ele><time>2017-08-03T04:44:00Z</time></trkpt>
<trkpt lat="46.500724" lon="11.459201"><ele>391.0</ele><time>2017-08-03T04:44:01Z</time></trkpt>
<trkpt lat="46.500662" lon="11.458923"><ele>365.0</ele><time>2017-08-03T04:44:03Z</time></trkpt>
<trkpt lat="46.500544" lon="11.458645"><ele>365.0</ele><time>2017-08-03T04:44:05Z</time></trkpt>
<trkpt lat="46.500516" lon="11.458543"><ele>365.0</ele><time>2017-08-03T04:44:05Z</time></trkpt>
<trkpt lat="46.500403" lon="11.457477"><ele>343.0</ele><time>2017-08-03T04:44:10Z</time></trkpt>
<trkpt lat="46.500314" lon="11.457127"><ele>343.0</ele><time>2017-08-03T04:44:12Z</time></trkpt>
<trkpt lat="46.500338" lon="11.456729"><ele>343.0</ele><time>2017-08-03T04:44:13Z</time></trkpt>
<trkpt lat="46.500215" lon="11.45633"><ele>338.0</ele><time>2017-08-03T04:44:15Z</time></trkpt>
<trkpt lat="46.500182" lon="11.45618"><ele>338.0</ele><time>2017-08-03T04:44:16Z</time></trkpt>
<trkpt lat="46.500143" lon="11.455534"><ele>331.0</ele><time>2017-08-03T04:44:19Z</time></trkpt>
<trkpt lat="46.500117" lon="11.455445"><ele>331.0</ele><time>2017-08-03T04:44:19Z</time></trkpt>
<trkpt lat="46.500019" lon="11.455268"><ele>331.0</ele><time>2017-08-03T04:44:20Z</time></trkpt>
<trkpt lat="46.49926" lon="11.454304"><ele>337.0</ele><time>2017-08-03T04:44:27Z</time></trkpt>
<trkpt lat="46.498916" lon="11.453757"><ele>342.0</ele><time>2017-08-03T04:44:30Z</time></trkpt>
<trkpt lat="46.498657" lon="11.453123"><ele>321.0</ele><time>2017-08-03T04:44:34Z</time></trkpt>
<trkpt lat="46.498254" lon="11.452395"><ele>323.0</ele><time>2017-08-03T04:44:38Z</time></trkpt>
<trkpt lat="46.497323" lon="11.451335"><ele>326.0</ele><time>2017-08-03T04:44:45Z</time></trkpt>
<trkpt lat="46.497173" lon="11.451153"><ele>326.0</ele><time>2017-08-03T04:44:47Z</time></trkpt>
<trkpt lat="46.497116" lon="11.451057"><ele>326.0</ele><time>2017-08-03T04:44:47Z</time></trkpt>
<trkpt lat="46.497057" lon="11.45093"><ele>326.0</ele><time>2017-08-03T04:44:48Z</time></trkpt>
<trkpt lat="46.496691" lon="11.449361"><ele>309.0</ele><time>2017-08-03T04:44:55Z</time></trkpt>
<trkpt lat="46.496612" lon="11.449119"><ele>312.0</ele><time>2017-08-03T04:44:56Z</time></trkpt>
<trkpt lat="46.496555" lon="11.448992"><ele>312.0</ele><time>2017-08-03T04:44:57Z</time></trkpt>
<trkpt lat="46.49644" lon="11.448877"><ele>312.0</ele><time>2017-08-03T04:44:58Z</time></trkpt>
<trkpt lat="46.495478" lon="11.448299"><ele>323.0</ele><time>2017-08-03T04:45:05Z</time></trkpt>
<trkpt lat="46.49535" lon="11.448179"><ele>323.0</ele><time>2017-08-03T04:45:06Z</time></trkpt>
<trkpt lat="46.495185" lon="11.447972"><ele>323.0</ele><time>2017-08-03T04:45:07Z</time></trkpt>
<trkpt lat="46.495078" lon="11.447778"><ele>323.0</ele><time>2017-08-03T04:45:08Z</time></trkpt>
<trkpt lat="46.495015" lon="11.447519"><ele>323.0</ele><time>2017-08-03T04:45:09Z</time></trkpt>
<trkpt lat="46.495029" lon="11.447276"><ele>318.0</ele><time>2017-08-03T04:45:22Z</time></trkpt>
<trkpt lat="46.49488" lon="11.447282"><ele>328.0</ele><time>2017-08-03T04:45:23Z</time></trkpt>
<trkpt lat="46.494849" lon="11.447217"><ele>328.0</ele><time>2017-08-03T04:45:24Z</time></trkpt>
<trkpt lat="46.494822" lon="11.446817"><ele>328.0</ele><time>2017-08-03T04:45:25Z</time></trkpt>
<trkpt lat="46.49478" lon="11.446612"><ele>321.0</ele><time>2017-08-03T04:45:26Z</time></trkpt>
<trkpt lat="46.494512" lon="11.446134"><ele>321.0</ele><time>2017-08-03T04:45:29Z</time></trkpt>
<trkpt lat="46.494471" lon="11.446017"><ele>321.0</ele><time>2017-08-03T04:45:30Z</time></trkpt>
<trkpt lat="46.494395" lon="11.44526"><ele>317.0</ele><time>2017-08-03T04:45:33Z</time></trkpt>
<trkpt lat="46.494236" lon="11.444438"><ele>318.0</ele><time>2017-08-03T04:45:37Z</time></trkpt>
<trkpt lat="46.494215" lon="11.444164"><ele>327.0</ele><time>2017-08-03T04:45:38Z</time></trkpt>
<trkpt lat="46.494215" lon="11.4438"><ele>327.0</ele><time>2017-08-03T04:45:40Z</time></trkpt>
<trkpt lat="46.494258" lon="11.443603"><ele>327.0</ele><time>2017-08-03T04:45:41Z</time></trkpt>
<trkpt lat="46.494316" lon="11.44347"><ele>327.0</ele><time>2017-08-03T04:45:42Z</time></trkpt>
<trkpt lat="46.494414" lon="11.443345"><ele>327.0</ele><time>2017-08-03T04:45:42Z</time></trkpt>
<trkpt lat="46.494455" lon="11.443248"><ele>333.0</ele><time>2017-08-03T04:45:43Z</time></trkpt>
<trkpt lat="46.494455" lon="11.443158"><ele>333.0</ele><time>2017-08-03T04:45:43Z</time></trkpt>
<trkpt lat="46.494414" lon="11.443127"><ele>333.0</ele><time>2017-08-03T04:45:44Z</time></trkpt>
<trkpt lat="46.494368" lon="11.443123"><ele>333.0</ele><time>2017-08-03T04:45:44Z</time></trkpt>
<trkpt lat="46.494302" lon="11.443149"><ele>333.0</ele><time>2017-08-03T04:45:44Z</time></trkpt>
<trkpt lat="46.494256" lon="11.443253"><ele>333.0</ele><time>2017-08-03T04:45:45Z</time></trkpt>
<trkpt lat="46.494156" lon="11.443674"><ele>364.0</ele><time>2017-08-03T04:45:48Z</time></trkpt>
<trkpt lat="46.494074" lon="11.44395"><ele>364.0</ele><time>2017-08-03T04:45:49Z</time></trkpt>
<trkpt lat="46.493948" lon="11.444282"><ele>361.0</ele><time>2017-08-03T04:45:51Z</time></trkpt>
<trkpt lat="46.493978" lon="11.444459"><ele>361.0</ele><time>2017-08-03T04:45:51Z</time></trkpt>
<trkpt lat="46.494065" lon="11.444744"><ele>361.0</ele><time>2017-08-03T04:45:53Z</time></trkpt>
<trkpt lat="46.494086" lon="11.445136"><ele>365.0</ele><time>2017-08-03T04:45:55Z</time></trkpt>
<trkpt lat="46.494012" lon="11.445452"><ele>365.0</ele><time>2017-08-03T04:45:56Z</time></trkpt>
<trkpt lat="46.49386" lon="11.445679"><ele>365.0</ele><time>2017-08-03T04:45:58Z</time></trkpt>
<trkpt lat="46.493808" lon="11.445789"><ele>365.0</ele><time>2017-08-03T04:45:58Z</time></trkpt>
<trkpt lat="46.493769" lon="11.446194"><ele>358.0</ele><time>2017-08-03T04:46:00Z</time></trkpt>
<trkpt lat="46.493772" lon="11.446616"><ele>358.0</ele><time>2017-08-03T04:46:02Z</time></trkpt>
<trkpt lat="46.49389" lon="11.447266"><ele>362.0</ele><time>2017-08-03T04:46:05Z</time></trkpt>
<trkpt lat="46.493886" lon="11.447333"><ele>362.0</ele><time>2017-08-03T04:46:05Z</time></trkpt>
<trkpt lat="46.493853" lon="11.44739"><ele>362.0</ele><time>2017-08-03T04:46:05Z</time></trkpt>
<trkpt lat="46.493808" lon="11.447398"><ele>362.0</ele><time>2017-08-03T04:46:06Z</time></trkpt>
<trkpt lat="46.493759" lon="11.447357"><ele>362.0</ele><time>2017-08-03T04:46:06Z</time></trkpt>
<trkpt lat="46.493696" lon="11.446956"><ele>362.0</ele><time>2017-08-03T04:46:08Z</time></trkpt>
<trkpt lat="46.493466" lon="11.44626"><ele>358.0</ele><time>2017-08-03T04:46:11Z</time></trkpt>
<trkpt lat="46.493412" lon="11.445898"><ele>358.0</ele><time>2017-08-03T04:46:13Z</time></trkpt>
<trkpt lat="46.493532" lon="11.445222"><ele>365.0</ele><time>2017-08-03T04:46:16Z</time></trkpt>
<trkpt lat="46.493525" lon="11.445101"><ele>365.0</ele><time>2017-08-03T04:46:17Z</time></trkpt>
<trkpt lat="46.493369" lon="11.444767"><ele>361.0</ele><time>2017-08-03T04:46:18Z</time></trkpt>
<trkpt lat="46.493291" lon="11.444514"><ele>411.0</ele><time>2017-08-03T04:46:22Z</time></trkpt>
<trkpt lat="46.49326" lon="11.443872"><ele>400.0</ele><time>2017-08-03T04:46:25Z</time></trkpt>
<trkpt lat="46.493225" lon="11.443801"><ele>400.0</ele><time>2017-08-03T04:46:25Z</time></trkpt>
<trkpt lat="46.493159" lon="11.443768"><ele>400.0</ele><time>2017-08-03T04:46:25Z</time></trkpt>
<trkpt lat="46.492828" lon="11.443799"><ele>400.0</ele><time>2017-08-03T04:46:28Z</time></trkpt>
<trkpt lat="46.492688" lon="11.44379"><ele>400.0</ele><time>2017-08-03T04:46:28Z</time></trkpt>
<trkpt lat="46.492362" lon="11.443657"><ele>415.0</ele><time>2017-08-03T04:46:31Z</time></trkpt>
<trkpt lat="46.4922" lon="11.443631"><ele>415.0</ele><time>2017-08-03T04:46:32Z</time></trkpt>
<trkpt lat="46.492079" lon="11.443709"><ele>415.0</ele><time>2017-08-03T04:46:33Z</time></trkpt>
<trkpt lat="46.491988" lon="11.443872"><ele>415.0</ele><time>2017-08-03T04:46:34Z</time></trkpt>
<trkpt lat="46.491938" lon="11.444067"><ele>415.0</ele><time>2017-08-03T04:46:35Z</time></trkpt>
<trkpt lat="46.4919" lon="11.444244"><ele>427.0</ele><time>2017-08-03T04:46:36Z</time></trkpt>
<trkpt lat="46.491886" lon="11.444468"><ele>427.0</ele><time>2017-08-03T04:46:37Z</time></trkpt>
<trkpt lat="46.491894" lon="11.44456"><ele>427.0</ele><time>2017-08-03T04:46:37Z</time></trkpt>
<trkpt lat="46.491929" lon="11.444691"><ele>427.0</ele><time>2017-08-03T04:46:38Z</time></trkpt>
<trkpt lat="46.492003" lon="11.444816"><ele>427.0</ele><time>2017-08-03T04:46:38Z</time></trkpt>
<trkpt lat="46.492756" lon="11.445401"><ele>416.0</ele><time>2017-08-03T04:46:44Z</time></trkpt>
<trkpt lat="46.492816" lon="11.445536"><ele>416.0</ele><time>2017-08-03T04:46:45Z</time></trkpt>
<trkpt lat="46.492841" lon="11.44572"><ele>416.0</ele><time>2017-08-03T04:46:45Z</time></trkpt>
<trkpt lat="46.492838" lon="11.445924"><ele>419.0</ele><time>2017-08-03T04:46:46Z</time></trkpt>
<trkpt lat="46.492806" lon="11.44608"><ele>419.0</ele><time>2017-08-03T04:46:47Z</time></trkpt>
<trkpt lat="46.492798" lon="11.446245"><ele>419.0</ele><time>2017-08-03T04:46:48Z</time></trkpt>
<trkpt lat="46.492772" lon="11.446361"><ele>419.0</ele><time>2017-08-03T04:46:48Z</time></trkpt>
<trkpt lat="46.49273" lon="11.446418"><ele>419.0</ele><time>2017-08-03T04:46:49Z</time></trkpt>
<trkpt lat="46.492679" lon="11.446387"><ele>419.0</ele><time>2017-08-03T04:46:49Z</time></trkpt>
<trkpt lat="46.492644" lon="11.446307"><ele>419.0</ele><time>2017-08-03T04:46:50Z</time></trkpt>
<trkpt lat="46.492643" lon="11.446182"><ele>419.0</ele><time>2017-08-03T04:46:50Z</time></trkpt>
<trkpt lat="46.492701" lon="11.44593"><ele>419.0</ele><time>2017-08-03T04:46:51Z</time></trkpt>
<trkpt lat="46.49269" lon="11.445832"><ele>416.0</ele><time>2017-08-03T04:46:52Z</time></trkpt>
<trkpt lat="46.492653" lon="11.445747"><ele>416.0</ele><time>2017-08-03T04:46:52Z</time></trkpt>
<trkpt lat="46.492586" lon="11.445678"><ele>416.0</ele><time>2017-08-03T04:46:53Z</time></trkpt>
<trkpt lat="46.492226" lon="11.445517"><ele>440.0</ele><time>2017-08-03T04:46:56Z</time></trkpt>
<trkpt lat="46.492125" lon="11.445505"><ele>440.0</ele><time>2017-08-03T04:46:56Z</time></trkpt>
<trkpt lat="46.491456" lon="11.445713"><ele>458.0</ele><time>2017-08-03T04:47:01Z</time></trkpt>
<trkpt lat="46.491294" lon="11.445823"><ele>458.0</ele><time>2017-08-03T04:47:02Z</time></trkpt>
<trkpt lat="46.491171" lon="11.445824"><ele>458.0</ele><time>2017-08-03T04:47:03Z</time></trkpt>
<trkpt lat="46.49094" lon="11.44546"><ele>458.0</ele><time>2017-08-03T04:47:05Z</time></trkpt>
<trkpt lat="46.490889" lon="11.445451"><ele>458.0</ele><time>2017-08-03T04:47:05Z</time></trkpt>
<trkpt lat="46.490838" lon="11.445502"><ele>458.0</ele><time>2017-08-03T04:47:06Z</time></trkpt>
<trkpt lat="46.490836" lon="11.445606"><ele>458.0</ele><time>2017-08-03T04:47:06Z</time></trkpt>
<trkpt lat="46.490879" lon="11.445696"><ele>458.0</ele><time>2017-08-03T04:47:07Z</time></trkpt>
<trkpt lat="46.49108" lon="11.44593"><ele>497.0</ele><time>2017-08-03T04:47:09Z</time></trkpt>
<trkpt lat="46.491207" lon="11.446033"><ele>497.0</ele><time>2017-08-03T04:47:10Z</time></trkpt>
<trkpt lat="46.491304" lon="11.446076"><ele>497.0</ele><time>2017-08-03T04:47:11Z</time></trkpt>
<trkpt lat="46.491412" lon="11.446061"><ele>497.0</ele><time>2017-08-03T04:47:12Z</time></trkpt>
<trkpt lat="46.491609" lon="11.445968"><ele>497.0</ele><time>2017-08-03T04:47:13Z</time></trkpt>
<trkpt lat="46.491815" lon="11.445954"><ele>472.0</ele><time>2017-08-03T04:47:15Z</time></trkpt>
<trkpt lat="46.491907" lon="11.445974"><ele>472.0</ele><time>2017-08-03T04:47:16Z</time></trkpt>
<trkpt lat="46.491976" lon="11.446015"><ele>472.0</ele><time>2017-08-03T04:47:16Z</time></trkpt>
<trkpt lat="46.492005" lon="11.446092"><ele>472.0</ele><time>2017-08-03T04:47:16Z</time></trkpt>
<trkpt lat="46.491995" lon="11.446153"><ele>472.0</ele><time>2017-08-03T04:47:17Z</time></trkpt>
<trkpt lat="46.491954" lon="11.446193"><ele>472.0</ele><time>2017-08-03T04:47:17Z</time></trkpt>
<trkpt lat="46.491886" lon="11.446196"><ele>472.0</ele><time>2017-08-03T04:47:17Z</time></trkpt>
<trkpt lat="46.491729" lon="11.446108"><ele>472.0</ele><time>2017-08-03T04:47:19Z</time></trkpt>
<trkpt lat="46.491649" lon="11.446142"><ele>497.0</ele><time>2017-08-03T04:47:20Z</time></trkpt>
<trkpt lat="46.491458" lon="11.44638"><ele>497.0</ele><time>2017-08-03T04:47:22Z</time></trkpt>
<trkpt lat="46.491319" lon="11.446506"><ele>497.0</ele><time>2017-08-03T04:47:23Z</time></trkpt>
<trkpt lat="46.490976" lon="11.446513"><ele>497.0</ele><time>2017-08-03T04:47:25Z</time></trkpt>
<trkpt lat="46.490758" lon="11.446473"><ele>502.0</ele><time>2017-08-03T04:47:26Z</time></trkpt>
<trkpt lat="46.490558" lon="11.446393"><ele>502.0</ele><time>2017-08-03T04:47:28Z</time></trkpt>
<trkpt lat="46.49019" lon="11.446089"><ele>502.0</ele><time>2017-08-03T04:47:30Z</time></trkpt>
<trkpt lat="46.490123" lon="11.446057"><ele>502.0</ele><time>2017-08-03T04:47:31Z</time></trkpt>
<trkpt lat="46.49007" lon="11.446112"><ele>502.0</ele><time>2017-08-03T04:47:31Z</time></trkpt>
<trkpt lat="46.490058" lon="11.446194"><ele>502.0</ele><time>2017-08-03T04:47:32Z</time></trkpt>
<trkpt lat="46.49011" lon="11.446329"><ele>502.0</ele><time>2017-08-03T04:47:32Z</time></trkpt>
<trkpt lat="46.490329" lon="11.446394"><ele>502.0</ele><time>2017-08-03T04:47:34Z</time></trkpt>
<trkpt lat="46.49059" lon="11.446694"><ele>541.0</ele><time>2017-08-03T04:47:37Z</time></trkpt>
<trkpt lat="46.490787" lon="11.446829"><ele>541.0</ele><time>2017-08-03T04:47:38Z</time></trkpt>
<trkpt lat="46.491118" lon="11.446829"><ele>534.0</ele><time>2017-08-03T04:47:41Z</time></trkpt>
<trkpt lat="46.491179" lon="11.446881"><ele>534.0</ele><time>2017-08-03T04:47:41Z</time></trkpt>
<trkpt lat="46.491197" lon="11.446953"><ele>534.0</ele><time>2017-08-03T04:47:41Z</time></trkpt>
<trkpt lat="46.491199" lon="11.447009"><ele>534.0</ele><time>2017-08-03T04:47:42Z</time></trkpt>
<trkpt lat="46.49117" lon="11.447058"><ele>534.0</ele><time>2017-08-03T04:47:42Z</time></trkpt>
<trkpt lat="46.491131" lon="11.447081"><ele>534.0</ele><time>2017-08-03T04:47:42Z</time></trkpt>
<trkpt lat="46.491066" lon="11.447085"><ele>534.0</ele><time>2017-08-03T04:47:43Z</time></trkpt>
<trkpt lat="46.490498" lon="11.446967"><ele>541.0</ele><time>2017-08-03T04:47:46Z</time></trkpt>
<trkpt lat="46.490286" lon="11.446734"><ele>541.0</ele><time>2017-08-03T04:47:48Z</time></trkpt>
<trkpt lat="46.490221" lon="11.446734"><ele>541.0</ele><time>2017-08-03T04:47:48Z</time></trkpt>
<trkpt lat="46.490147" lon="11.446793"><ele>541.0</ele><time>2017-08-03T04:47:49Z</time></trkpt>
<trkpt lat="46.489974" lon="11.44704"><ele>547.0</ele><time>2017-08-03T04:47:51Z</time></trkpt>
<trkpt lat="46.489879" lon="11.447103"><ele>547.0</ele><time>2017-08-03T04:47:51Z</time></trkpt>
<trkpt lat="46.489635" lon="11.447008"><ele>547.0</ele><time>2017-08-03T04:47:53Z</time></trkpt>
<trkpt lat="46.489415" lon="11.446845"><ele>547.0</ele><time>2017-08-03T04:47:54Z</time></trkpt>
<trkpt lat="46.489153" lon="11.446977"><ele>529.0</ele><time>2017-08-03T04:47:57Z</time></trkpt>
<trkpt lat="46.489072" lon="11.447109"><ele>529.0</ele><time>2017-08-03T04:47:57Z</time></trkpt>
<trkpt lat="46.489054" lon="11.447287"><ele>529.0</ele><time>2017-08-03T04:47:58Z</time></trkpt>
<trkpt lat="46.489003" lon="11.447513"><ele>583.0</ele><time>2017-08-03T04:48:01Z</time></trkpt>
<trkpt lat="46.488943" lon="11.447601"><ele>583.0</ele><time>2017-08-03T04:48:02Z</time></trkpt>
<trkpt lat="46.488906" lon="11.447702"><ele>583.0</ele><time>2017-08-03T04:48:02Z</time></trkpt>
<trkpt lat="46.488909" lon="11.447771"><ele>583.0</ele><time>2017-08-03T04:48:03Z</time></trkpt>
<trkpt lat="46.488927" lon="11.447816"><ele>583.0</ele><time>2017-08-03T04:48:03Z</time></trkpt>
<trkpt lat="46.488965" lon="11.447814"><ele>583.0</ele><time>2017-08-03T04:48:03Z</time></trkpt>
<trkpt lat="46.489031" lon="11.447712"><ele>583.0</ele><time>2017-08-03T04:48:04Z</time></trkpt>
<trkpt lat="46.489164" lon="11.447416"><ele>529.0</ele><time>2017-08-03T04:48:07Z</time></trkpt>
<trkpt lat="46.489197" lon="11.447287"><ele>547.0</ele><time>2017-08-03T04:48:09Z</time></trkpt>
<trkpt lat="46.489302" lon="11.447195"><ele>547.0</ele><time>2017-08-03T04:48:09Z</time></trkpt>
<trkpt lat="46.489467" lon="11.447198"><ele>547.0</ele><time>2017-08-03T04:48:10Z</time></trkpt>
<trkpt lat="46.489857" lon="11.447493"><ele>547.0</ele><time>2017-08-03T04:48:13Z</time></trkpt>
<trkpt lat="46.490301" lon="11.447671"><ele>588.0</ele><time>2017-08-03T04:48:17Z</time></trkpt>
<trkpt lat="46.490669" lon="11.447638"><ele>588.0</ele><time>2017-08-03T04:48:19Z</time></trkpt>
<trkpt lat="46.490763" lon="11.447725"><ele>588.0</ele><time>2017-08-03T04:48:20Z</time></trkpt>
<trkpt lat="46.491191" lon="11.448"><ele>573.0</ele><time>2017-08-03T04:48:23Z</time></trkpt>
<trkpt lat="46.491574" lon="11.448038"><ele>573.0</ele><time>2017-08-03T04:48:26Z</time></trkpt>
<trkpt lat="46.491608" lon="11.448125"><ele>573.0</ele><time>2017-08-03T04:48:26Z</time></trkpt>
<trkpt lat="46.491603" lon="11.448214"><ele>573.0</ele><time>2017-08-03T04:48:27Z</time></trkpt>
<trkpt lat="46.491573" lon="11.448255"><ele>573.0</ele><time>2017-08-03T04:48:27Z</time></trkpt>
<trkpt lat="46.491506" lon="11.448274"><ele>573.0</ele><time>2017-08-03T04:48:27Z</time></trkpt>
<trkpt lat="46.491271" lon="11.448206"><ele>573.0</ele><time>2017-08-03T04:48:29Z</time></trkpt>
<trkpt lat="46.490864" lon="11.448238"><ele>573.0</ele><time>2017-08-03T04:48:31Z</time></trkpt>
<trkpt lat="46.490548" lon="11.44805"><ele>588.0</ele><time>2017-08-03T04:48:34Z</time></trkpt>
<trkpt lat="46.490486" lon="11.448035"><ele>588.0</ele><time>2017-08-03T04:48:34Z</time></trkpt>
<trkpt lat="46.490406" lon="11.448036"><ele>588.0</ele><time>2017-08-03T04:48:35Z</time></trkpt>
<trkpt lat="46.490252" lon="11.448195"><ele>588.0</ele><time>2017-08-03T04:48:36Z</time></trkpt>
<trkpt lat="46.490147" lon="11.448225"><ele>588.0</ele><time>2017-08-03T04:48:37Z</time></trkpt>
<trkpt lat="46.489939" lon="11.448032"><ele>597.0</ele><time>2017-08-03T04:48:38Z</time></trkpt>
<trkpt lat="46.489811" lon="11.448006"><ele>597.0</ele><time>2017-08-03T04:48:39Z</time></trkpt>
<trkpt lat="46.489573" lon="11.448081"><ele>597.0</ele><time>2017-08-03T04:48:41Z</time></trkpt>
<trkpt lat="46.489405" lon="11.448413"><ele>640.0</ele><time>2017-08-03T04:48:44Z</time></trkpt>
<trkpt lat="46.48939" lon="11.448484"><ele>640.0</ele><time>2017-08-03T04:48:44Z</time></trkpt>
<trkpt lat="46.489394" lon="11.448559"><ele>640.0</ele><time>2017-08-03T04:48:45Z</time></trkpt>
<trkpt lat="46.489444" lon="11.448594"><ele>640.0</ele><time>2017-08-03T04:48:45Z</time></trkpt>
<trkpt lat="46.489516" lon="11.448592"><ele>640.0</ele><time>2017-08-03T04:48:45Z</time></trkpt>
<trkpt lat="46.489607" lon="11.448393"><ele>640.0</ele><time>2017-08-03T04:48:46Z</time></trkpt>
<trkpt lat="46.489691" lon="11.448323"><ele>597.0</ele><time>2017-08-03T04:48:49Z</time></trkpt>
<trkpt lat="46.489805" lon="11.448295"><ele>597.0</ele><time>2017-08-03T04:48:50Z</time></trkpt>
<trkpt lat="46.489889" lon="11.448306"><ele>597.0</ele><time>2017-08-03T04:48:50Z</time></trkpt>
<trkpt lat="46.490153" lon="11.448535"><ele>631.0</ele><time>2017-08-03T04:48:53Z</time></trkpt>
<trkpt lat="46.490368" lon="11.448564"><ele>631.0</ele><time>2017-08-03T04:48:54Z</time></trkpt>
<trkpt lat="46.490581" lon="11.448531"><ele>631.0</ele><time>2017-08-03T04:48:56Z</time></trkpt>
<trkpt lat="46.490665" lon="11.448565"><ele>631.0</ele><time>2017-08-03T04:48:56Z</time></trkpt>
<trkpt lat="46.490698" lon="11.448624"><ele>631.0</ele><time>2017-08-03T04:48:57Z</time></trkpt>
<trkpt lat="46.490715" lon="11.448716"><ele>631.0</ele><time>2017-08-03T04:48:57Z</time></trkpt>
<trkpt lat="46.490657" lon="11.448788"><ele>631.0</ele><time>2017-08-03T04:48:58Z</time></trkpt>
<trkpt lat="46.490479" lon="11.448796"><ele>631.0</ele><time>2017-08-03T04:48:59Z</time></trkpt>
<trkpt lat="46.490251" lon="11.448846"><ele>631.0</ele><time>2017-08-03T04:49:00Z</time></trkpt>
<trkpt lat="46.489855" lon="11.44881"><ele>640.0</ele><time>2017-08-03T04:49:03Z</time></trkpt>
<trkpt lat="46.489341" lon="11.449299"><ele>683.0</ele><time>2017-08-03T04:49:08Z</time></trkpt>
<trkpt lat="46.489096" lon="11.449375"><ele>681.0</ele><time>2017-08-03T04:49:09Z</time></trkpt>
<trkpt lat="46.48905" lon="11.449427"><ele>681.0</ele><time>2017-08-03T04:49:10Z</time></trkpt>
<trkpt lat="46.489053" lon="11.44952"><ele>681.0</ele><time>2017-08-03T04:49:10Z</time></trkpt>
<trkpt lat="46.489132" lon="11.449615"><ele>681.0</ele><time>2017-08-03T04:49:11Z</time></trkpt>
<trkpt lat="46.489225" lon="11.449578"><ele>683.0</ele><time>2017-08-03T04:49:11Z</time></trkpt>
<trkpt lat="46.489501" lon="11.449383"><ele>683.0</ele><time>2017-08-03T04:49:13Z</time></trkpt>
<trkpt lat="46.489829" lon="11.449223"><ele>683.0</ele><time>2017-08-03T04:49:15Z</time></trkpt>
<trkpt lat="46.490219" lon="11.449346"><ele>676.0</ele><time>2017-08-03T04:49:18Z</time></trkpt>
<trkpt lat="46.490444" lon="11.449395"><ele>676.0</ele><time>2017-08-03T04:49:20Z</time></trkpt>
<trkpt lat="46.490894" lon="11.449404"><ele>650.0</ele><time>2017-08-03T04:49:23Z</time></trkpt>
<trkpt lat="46.49101" lon="11.449459"><ele>650.0</ele><time>2017-08-03T04:49:24Z</time></trkpt>
<trkpt lat="46.491063" lon="11.449564"><ele>650.0</ele><time>2017-08-03T04:49:24Z</time></trkpt>
<trkpt lat="46.491086" lon="11.449674"><ele>650.0</ele><time>2017-08-03T04:49:25Z</time></trkpt>
<trkpt lat="46.491035" lon="11.449886"><ele>650.0</ele><time>2017-08-03T04:49:26Z</time></trkpt>
<trkpt lat="46.490658" lon="11.450926"><ele>702.0</ele><time>2017-08-03T04:49:32Z</time></trkpt>
<trkpt lat="46.490627" lon="11.451264"><ele>702.0</ele><time>2017-08-03T04:49:33Z</time></trkpt>
<trkpt lat="46.490604" lon="11.451345"><ele>702.0</ele><time>2017-08-03T04:49:34Z</time></trkpt>
<trkpt lat="46.490527" lon="11.451364"><ele>702.0</ele><time>2017-08-03T04:49:34Z</time></trkpt>
<trkpt lat="46.490487" lon="11.451317"><ele>702.0</ele><time>2017-08-03T04:49:34Z</time></trkpt>
<trkpt lat="46.490498" lon="11.451107"><ele>702.0</ele><time>2017-08-03T04:49:35Z</time></trkpt>
<trkpt lat="46.490636" lon="11.450124"><ele>702.0</ele><time>2017-08-03T04:49:40Z</time></trkpt>
<trkpt lat="46.490617" lon="11.450036"><ele>702.0</ele><time>2017-08-03T04:49:40Z</time></trkpt>
<trkpt lat="46.490568" lon="11.449926"><ele>676.0</ele><time>2017-08-03T04:49:42Z</time></trkpt>
<trkpt lat="46.490483" lon="11.449917"><ele>676.0</ele><time>2017-08-03T04:49:42Z</time></trkpt>
<trkpt lat="46.490416" lon="11.45"><ele>702.0</ele><time>2017-08-03T04:49:44Z</time></trkpt>
<trkpt lat="46.490331" lon="11.450248"><ele>702.0</ele><time>2017-08-03T04:49:45Z</time></trkpt>
<trkpt lat="46.490295" lon="11.450552"><ele>702.0</ele><time>2017-08-03T04:49:47Z</time></trkpt>
<trkpt lat="46.490362" lon="11.450967"><ele>702.0</ele><time>2017-08-03T04:49:49Z</time></trkpt>
<trkpt lat="46.490353" lon="11.451048"><ele>702.0</ele><time>2017-08-03T04:49:49Z</time></trkpt>
<trkpt lat="46.490316" lon="11.451094"><ele>702.0</ele><time>2017-08-03T04:49:49Z</time></trkpt>
<trkpt lat="46.49023" lon="11.451067"><ele>702.0</ele><time>2017-08-03T04:49:50Z</time></trkpt>
<trkpt lat="46.4902" lon="11.451018"><ele>702.0</ele><time>2017-08-03T04:49:50Z</time></trkpt>
<trkpt lat="46.490215" lon="11.450734"><ele>702.0</ele><time>2017-08-03T04:49:51Z</time></trkpt>
<trkpt lat="46.490161" lon="11.450592"><ele>702.0</ele><time>2017-08-03T04:49:52Z</time></trkpt>
<trkpt lat="46.489841" lon="11.450239"><ele>718.0</ele><time>2017-08-03T04:49:55Z</time></trkpt>
<trkpt lat="46.48975" lon="11.450205"><ele>718.0</ele><time>2017-08-03T04:49:55Z</time></trkpt>
<trkpt lat="46.489668" lon="11.450242"><ele>718.0</ele><time>2017-08-03T04:49:56Z</time></trkpt>
<trkpt lat="46.489589" lon="11.450308"><ele>718.0</ele><time>2017-08-03T04:49:57Z</time></trkpt>
<trkpt lat="46.489344" lon="11.450606"><ele>718.0</ele><time>2017-08-03T04:49:59Z</time></trkpt>
<trkpt lat="46.489224" lon="11.45066"><ele>718.0</ele><time>2017-08-03T04:49:59Z</time></trkpt>
<trkpt lat="46.488858" lon="11.450675"><ele>725.0</ele><time>2017-08-03T04:50:02Z</time></trkpt>
<trkpt lat="46.488533" lon="11.450586"><ele>725.0</ele><time>2017-08-03T04:50:04Z</time></trkpt>
<trkpt lat="46.488402" lon="11.450583"><ele>725.0</ele><time>2017-08-03T04:50:05Z</time></trkpt>
<trkpt lat="46.488319" lon="11.450616"><ele>735.0</ele><time>2017-08-03T04:50:06Z</time></trkpt>
<trkpt lat="46.488232" lon="11.450707"><ele>735.0</ele><time>2017-08-03T04:50:06Z</time></trkpt>
<trkpt lat="46.488177" lon="11.450837"><ele>755.0</ele><time>2017-08-03T04:50:08Z</time></trkpt>
<trkpt lat="46.488152" lon="11.451351"><ele>755.0</ele><time>2017-08-03T04:50:10Z</time></trkpt>
<trkpt lat="46.488123" lon="11.451599"><ele>755.0</ele><time>2017-08-03T04:50:11Z</time></trkpt>
<trkpt lat="46.48809" lon="11.451718"><ele>775.0</ele><time>2017-08-03T04:50:12Z</time></trkpt>
<trkpt lat="46.487778" lon="11.452526"><ele>778.0</ele><time>2017-08-03T04:50:16Z</time></trkpt>
<trkpt lat="46.487685" lon="11.452691"><ele>778.0</ele><time>2017-08-03T04:50:17Z</time></trkpt>
<trkpt lat="46.487593" lon="11.452787"><ele>778.0</ele><time>2017-08-03T04:50:18Z</time></trkpt>
<trkpt lat="46.487451" lon="11.45287"><ele>769.0</ele><time>2017-08-03T04:50:19Z</time></trkpt>
<trkpt lat="46.487314" lon="11.452888"><ele>769.0</ele><time>2017-08-03T04:50:20Z</time></trkpt>
<trkpt lat="46.486882" lon="11.452882"><ele>769.0</ele><time>2017-08-03T04:50:23Z</time></trkpt>
<trkpt lat="46.486722" lon="11.45291"><ele>769.0</ele><time>2017-08-03T04:50:24Z</time></trkpt>
<trkpt lat="46.486589" lon="11.452998"><ele>759.0</ele><time>2017-08-03T04:50:25Z</time></trkpt>
<trkpt lat="46.486231" lon="11.453393"><ele>791.0</ele><time>2017-08-03T04:50:28Z</time></trkpt>
<trkpt lat="46.485654" lon="11.453829"><ele>782.0</ele><time>2017-08-03T04:50:33Z</time></trkpt>
<trkpt lat="46.48542" lon="11.454142"><ele>782.0</ele><time>2017-08-03T04:50:35Z</time></trkpt>
<trkpt lat="46.485354" lon="11.454204"><ele>809.0</ele><time>2017-08-03T04:50:36Z</time></trkpt>
<trkpt lat="46.485002" lon="11.454276"><ele>809.0</ele><time>2017-08-03T04:50:39Z</time></trkpt>
<trkpt lat="46.484876" lon="11.454384"><ele>803.0</ele><time>2017-08-03T04:50:40Z</time></trkpt>
<trkpt lat="46.484394" lon="11.455187"><ele>816.0</ele><time>2017-08-03T04:50:44Z</time></trkpt>
<trkpt lat="46.484329" lon="11.45527"><ele>816.0</ele><time>2017-08-03T04:50:45Z</time></trkpt>
<trkpt lat="46.484128" lon="11.455448"><ele>801.0</ele><time>2017-08-03T04:50:47Z</time></trkpt>
<trkpt lat="46.48407" lon="11.455686"><ele>801.0</ele><time>2017-08-03T04:50:48Z</time></trkpt>
<trkpt lat="46.484166" lon="11.45612"><ele>815.0</ele><time>2017-08-03T04:50:50Z</time></trkpt>
<trkpt lat="46.485249" lon="11.459"><ele>803.0</ele><time>2017-08-03T04:51:05Z</time></trkpt>
<trkpt lat="46.485271" lon="11.459091"><ele>803.0</ele><time>2017-08-03T04:51:05Z</time></trkpt>
<trkpt lat="46.48525" lon="11.45923"><ele>815.0</ele><time>2017-08-03T04:51:06Z</time></trkpt>
<trkpt lat="46.485218" lon="11.459278"><ele>815.0</ele><time>2017-08-03T04:51:06Z</time></trkpt>
<trkpt lat="46.485164" lon="11.459307"><ele>815.0</ele><time>2017-08-03T04:51:07Z</time></trkpt>
<trkpt lat="46.485067" lon="11.459297"><ele>815.0</ele><time>2017-08-03T04:51:07Z</time></trkpt>
<trkpt lat="46.484229" lon="11.458239"><ele>818.0</ele><time>2017-08-03T04:51:14Z</time></trkpt>
<trkpt lat="46.484019" lon="11.45802"><ele>832.0</ele><time>2017-08-03T04:51:16Z</time></trkpt>
<trkpt lat="46.483814" lon="11.457932"><ele>832.0</ele><time>2017-08-03T04:51:18Z</time></trkpt>
<trkpt lat="46.483726" lon="11.457929"><ele>832.0</ele><time>2017-08-03T04:51:18Z</time></trkpt>
<trkpt lat="46.482775" lon="11.458239"><ele>843.0</ele><time>2017-08-03T04:51:25Z</time></trkpt>
<trkpt lat="46.482606" lon="11.458314"><ele>843.0</ele><time>2017-08-03T04:51:26Z</time></trkpt>
<trkpt lat="46.48184" lon="11.458771"><ele>859.0</ele><time>2017-08-03T04:51:31Z</time></trkpt>
<trkpt lat="46.481715" lon="11.458879"><ele>859.0</ele><time>2017-08-03T04:51:32Z</time></trkpt>
<trkpt lat="46.48153" lon="11.459235"><ele>870.0</ele><time>2017-08-03T04:51:34Z</time></trkpt>
<trkpt lat="46.480826" lon="11.460426"><ele>869.0</ele><time>2017-08-03T04:51:41Z</time></trkpt>
<trkpt lat="46.480736" lon="11.460637"><ele>869.0</ele><time>2017-08-03T04:51:42Z</time></trkpt>
<trkpt lat="46.480587" lon="11.461481"><ele>882.0</ele><time>2017-08-03T04:51:46Z</time></trkpt>
<trkpt lat="46.480488" lon="11.461916"><ele>889.0</ele><time>2017-08-03T04:51:48Z</time></trkpt>
<trkpt lat="46.48019" lon="11.462537"><ele>882.0</ele><time>2017-08-03T04:51:52Z</time></trkpt>
<trkpt lat="46.479929" lon="11.462912"><ele>892.0</ele><time>2017-08-03T04:51:54Z</time></trkpt>
<trkpt lat="46.479532" lon="11.463439"><ele>883.0</ele><time>2017-08-03T04:51:58Z</time></trkpt>
<trkpt lat="46.479437" lon="11.463537"><ele>883.0</ele><time>2017-08-03T04:51:58Z</time></trkpt>
<trkpt lat="46.479303" lon="11.463545"><ele>883.0</ele><time>2017-08-03T04:51:59Z</time></trkpt>
<trkpt lat="46.479229" lon="11.463461"><ele>883.0</ele><time>2017-08-03T04:52:00Z</time></trkpt>
<trkpt lat="46.479206" lon="11.463392"><ele>883.0</ele><time>2017-08-03T04:52:00Z</time></trkpt>
<trkpt lat="46.479201" lon="11.463316"><ele>892.0</ele><time>2017-08-03T04:52:01Z</time></trkpt>
<trkpt lat="46.479222" lon="11.463182"><ele>892.0</ele><time>2017-08-03T04:52:01Z</time></trkpt>
<trkpt lat="46.479451" lon="11.462512"><ele>892.0</ele><time>2017-08-03T04:52:05Z</time></trkpt>
<trkpt lat="46.479474" lon="11.462256"><ele>892.0</ele><time>2017-08-03T04:52:06Z</time></trkpt>
<trkpt lat="46.479465" lon="11.462128"><ele>892.0</ele><time>2017-08-03T04:52:06Z</time></trkpt>
<trkpt lat="46.479443" lon="11.462001"><ele>892.0</ele><time>2017-08-03T04:52:07Z</time></trkpt>
<trkpt lat="46.479371" lon="11.461813"><ele>892.0</ele><time>2017-08-03T04:52:08Z</time></trkpt>
<trkpt lat="46.47927" lon="11.461672"><ele>892.0</ele><time>2017-08-03T04:52:09Z</time></trkpt>
<trkpt lat="46.479138" lon="11.461557"><ele>892.0</ele><time>2017-08-03T04:52:10Z</time></trkpt>
<trkpt lat="46.478905" lon="11.461477"><ele>892.0</ele><time>2017-08-03T04:52:11Z</time></trkpt>
<trkpt lat="46.478686" lon="11.461505"><ele>892.0</ele><time>2017-08-03T04:52:13Z</time></trkpt>
<trkpt lat="46.478545" lon="11.461566"><ele>892.0</ele><time>2017-08-03T04:52:14Z</time></trkpt>
<trkpt lat="46.478291" lon="11.461761"><ele>920.0</ele><time>2017-08-03T04:52:16Z</time></trkpt>
<trkpt lat="46.477873" lon="11.46224"><ele>920.0</ele><time>2017-08-03T04:52:20Z</time></trkpt>
<trkpt lat="46.477693" lon="11.46239"><ele>920.0</ele><time>2017-08-03T04:52:21Z</time></trkpt>
<trkpt lat="46.477511" lon="11.462458"><ele>920.0</ele><time>2017-08-03T04:52:22Z</time></trkpt>
<trkpt lat="46.477242" lon="11.462498"><ele>925.0</ele><time>2017-08-03T04:52:24Z</time></trkpt>
<trkpt lat="46.47694" lon="11.462402"><ele>925.0</ele><time>2017-08-03T04:52:26Z</time></trkpt>
<trkpt lat="46.47669" lon="11.46222"><ele>925.0</ele><time>2017-08-03T04:52:28Z</time></trkpt>
<trkpt lat="46.476192" lon="11.461752"><ele>941.0</ele><time>2017-08-03T04:52:32Z</time></trkpt>
<trkpt lat="46.475935" lon="11.461551"><ele>934.0</ele><time>2017-08-03T04:52:34Z</time></trkpt>
<trkpt lat="46.475726" lon="11.461416"><ele>952.0</ele><time>2017-08-03T04:52:35Z</time></trkpt>
<trkpt lat="46.475575" lon="11.46141"><ele>952.0</ele><time>2017-08-03T04:52:36Z</time></trkpt>
<trkpt lat="46.475495" lon="11.461445"><ele>952.0</ele><time>2017-08-03T04:52:37Z</time></trkpt>
<trkpt lat="46.47541" lon="11.461518"><ele>952.0</ele><time>2017-08-03T04:52:38Z</time></trkpt>
<trkpt lat="46.475262" lon="11.461777"><ele>954.0</ele><time>2017-08-03T04:52:39Z</time></trkpt>
<trkpt lat="46.475147" lon="11.46218"><ele>954.0</ele><time>2017-08-03T04:52:41Z</time></trkpt>
<trkpt lat="46.475014" lon="11.463035"><ele>962.0</ele><time>2017-08-03T04:52:45Z</time></trkpt>
<trkpt lat="46.474954" lon="11.463287"><ele>978.0</ele><time>2017-08-03T04:52:46Z</time></trkpt>
<trkpt lat="46.47484" lon="11.463582"><ele>975.0</ele><time>2017-08-03T04:52:48Z</time></trkpt>
<trkpt lat="46.474479" lon="11.464316"><ele>977.0</ele><time>2017-08-03T04:52:52Z</time></trkpt>
<trkpt lat="46.473904" lon="11.465628"><ele>1002.0</ele><time>2017-08-03T04:52:59Z</time></trkpt>
<trkpt lat="46.473828" lon="11.46591"><ele>993.0</ele><time>2017-08-03T04:53:00Z</time></trkpt>
<trkpt lat="46.473827" lon="11.466174"><ele>993.0</ele><time>2017-08-03T04:53:02Z</time></trkpt>
<trkpt lat="46.473942" lon="11.466704"><ele>999.0</ele><time>2017-08-03T04:53:04Z</time></trkpt>
<trkpt lat="46.473977" lon="11.466996"><ele>999.0</ele><time>2017-08-03T04:53:05Z</time></trkpt>
<trkpt lat="46.473964" lon="11.467442"><ele>999.0</ele><time>2017-08-03T04:53:07Z</time></trkpt>
<trkpt lat="46.47389" lon="11.467967"><ele>1007.0</ele><time>2017-08-03T04:53:10Z</time></trkpt>
<trkpt lat="46.473899" lon="11.468305"><ele>1007.0</ele><time>2017-08-03T04:53:11Z</time></trkpt>
<trkpt lat="46.473955" lon="11.46856"><ele>1010.0</ele><time>2017-08-03T04:53:13Z</time></trkpt>
<trkpt lat="46.47405" lon="11.468785"><ele>1010.0</ele><time>2017-08-03T04:53:14Z</time></trkpt>
<trkpt lat="46.474187" lon="11.469009"><ele>1002.0</ele><time>2017-08-03T04:53:15Z</time></trkpt>
<trkpt lat="46.474302" lon="11.469148"><ele>1002.0</ele><time>2017-08-03T04:53:16Z</time></trkpt>
<trkpt lat="46.474441" lon="11.469255"><ele>1016.0</ele><time>2017-08-03T04:53:17Z</time></trkpt>
<trkpt lat="46.474662" lon="11.469352"><ele>1016.0</ele><time>2017-08-03T04:53:19Z</time></trkpt>
<trkpt lat="46.475161" lon="11.469488"><ele>1018.0</ele><time>2017-08-03T04:53:22Z</time></trkpt>
<trkpt lat="46.475504" lon="11.469609"><ele>1018.0</ele><time>2017-08-03T04:53:24Z</time></trkpt>
<trkpt lat="46.47563" lon="11.469689"><ele>1018.0</ele><time>2017-08-03T04:53:25Z</time></trkpt>
<trkpt lat="46.475768" lon="11.469813"><ele>1018.0</ele><time>2017-08-03T04:53:26Z</time></trkpt>
<trkpt lat="46.475955" lon="11.470025"><ele>1017.0</ele><time>2017-08-03T04:53:28Z</time></trkpt>
<trkpt lat="46.476134" lon="11.470313"><ele>1017.0</ele><time>2017-08-03T04:53:30Z</time></trkpt>
<trkpt lat="46.476413" lon="11.470934"><ele>1034.0</ele><time>2017-08-03T04:53:33Z</time></trkpt>
<trkpt lat="46.476514" lon="11.471243"><ele>1034.0</ele><time>2017-08-03T04:53:35Z</time></trkpt>
<trkpt lat="46.476743" lon="11.472081"><ele>1035.0</ele><time>2017-08-03T04:53:39Z</time></trkpt>
<trkpt lat="46.476831" lon="11.472326"><ele>1035.0</ele><time>2017-08-03T04:53:40Z</time></trkpt>
<trkpt lat="46.476994" lon="11.472632"><ele>1045.0</ele><time>2017-08-03T04:53:42Z</time></trkpt>
<trkpt lat="46.477168" lon="11.472883"><ele>1045.0</ele><time>2017-08-03T04:53:43Z</time></trkpt>
<trkpt lat="46.477696" lon="11.473559"><ele>1033.0</ele><time>2017-08-03T04:53:48Z</time></trkpt>
<trkpt lat="46.477756" lon="11.473726"><ele>1033.0</ele><time>2017-08-03T04:53:49Z</time></trkpt>
<trkpt lat="46.477801" lon="11.474075"><ele>1033.0</ele><time>2017-08-03T04:53:50Z</time></trkpt>
<trkpt lat="46.477802" lon="11.474362"><ele>1049.0</ele><time>2017-08-03T04:53:52Z</time></trkpt>
<trkpt lat="46.47773" lon="11.474685"><ele>1049.0</ele><time>2017-08-03T04:53:53Z</time></trkpt>
<trkpt lat="46.47763" lon="11.474922"><ele>1049.0</ele><time>2017-08-03T04:53:55Z</time></trkpt>
<trkpt lat="46.477389" lon="11.475314"><ele>1065.0</ele><time>2017-08-03T04:53:57Z</time></trkpt>
<trkpt lat="46.477084" lon="11.475618"><ele>1065.0</ele><time>2017-08-03T04:53:59Z</time></trkpt>
<trkpt lat="46.476934" lon="11.475718"><ele>1065.0</ele><time>2017-08-03T04:54:00Z</time></trkpt>
<trkpt lat="46.476654" lon="11.475852"><ele>1076.0</ele><time>2017-08-03T04:54:02Z</time></trkpt>
<trkpt lat="46.476465" lon="11.475897"><ele>1076.0</ele><time>2017-08-03T04:54:04Z</time></trkpt>
<trkpt lat="46.475963" lon="11.475884"><ele>1076.0</ele><time>2017-08-03T04:54:07Z</time></trkpt>
<trkpt lat="46.475385" lon="11.475938"><ele>1085.0</ele><time>2017-08-03T04:54:11Z</time></trkpt>
<trkpt lat="46.475229" lon="11.475914"><ele>1085.0</ele><time>2017-08-03T04:54:12Z</time></trkpt>
<trkpt lat="46.474885" lon="11.47581"><ele>1111.0</ele><time>2017-08-03T04:54:14Z</time></trkpt>
<trkpt lat="46.474672" lon="11.475802"><ele>1111.0</ele><time>2017-08-03T04:54:16Z</time></trkpt>
<trkpt lat="46.474443" lon="11.475875"><ele>1089.0</ele><time>2017-08-03T04:54:18Z</time></trkpt>
<trkpt lat="46.474053" lon="11.476051"><ele>1109.0</ele><time>2017-08-03T04:54:21Z</time></trkpt>
<trkpt lat="46.472802" lon="11.475944"><ele>1112.0</ele><time>2017-08-03T04:54:29Z</time></trkpt>
<trkpt lat="46.472752" lon="11.475895"><ele>1112.0</ele><time>2017-08-03T04:54:29Z</time></trkpt>
<trkpt lat="46.47272" lon="11.475738"><ele>1127.0</ele><time>2017-08-03T04:54:30Z</time></trkpt>
<trkpt lat="46.472746" lon="11.475634"><ele>1127.0</ele><time>2017-08-03T04:54:31Z</time></trkpt>
<trkpt lat="46.472791" lon="11.475578"><ele>1127.0</ele><time>2017-08-03T04:54:31Z</time></trkpt>
<trkpt lat="46.47287" lon="11.475543"><ele>1127.0</ele><time>2017-08-03T04:54:32Z</time></trkpt>
<trkpt lat="46.472958" lon="11.475544"><ele>1127.0</ele><time>2017-08-03T04:54:32Z</time></trkpt>
<trkpt lat="46.47314" lon="11.475631"><ele>1127.0</ele><time>2017-08-03T04:54:34Z</time></trkpt>
<trkpt lat="46.47323" lon="11.475638"><ele>1127.0</ele><time>2017-08-03T04:54:34Z</time></trkpt>
<trkpt lat="46.473651" lon="11.47555"><ele>1125.0</ele><time>2017-08-03T04:54:37Z</time></trkpt>
<trkpt lat="46.473864" lon="11.47555"><ele>1125.0</ele><time>2017-08-03T04:54:38Z</time></trkpt>
<trkpt lat="46.473947" lon="11.475525"><ele>1125.0</ele><time>2017-08-03T04:54:39Z</time></trkpt>
<trkpt lat="46.474025" lon="11.475473"><ele>1125.0</ele><time>2017-08-03T04:54:39Z</time></trkpt>
<trkpt lat="46.474133" lon="11.475341"><ele>1125.0</ele><time>2017-08-03T04:54:40Z</time></trkpt>
<trkpt lat="46.474168" lon="11.475155"><ele>1111.0</ele><time>2017-08-03T04:54:41Z</time></trkpt>
<trkpt lat="46.47415" lon="11.475001"><ele>1125.0</ele><time>2017-08-03T04:54:42Z</time></trkpt>
<trkpt lat="46.474041" lon="11.474767"><ele>1142.0</ele><time>2017-08-03T04:54:44Z</time></trkpt>
<trkpt lat="46.473899" lon="11.47465"><ele>1142.0</ele><time>2017-08-03T04:54:45Z</time></trkpt>
<trkpt lat="46.473741" lon="11.474594"><ele>1142.0</ele><time>2017-08-03T04:54:46Z</time></trkpt>
<trkpt lat="46.47344" lon="11.474435"><ele>1142.0</ele><time>2017-08-03T04:54:48Z</time></trkpt>
<trkpt lat="46.473093" lon="11.4741"><ele>1151.0</ele><time>2017-08-03T04:54:51Z</time></trkpt>
<trkpt lat="46.4729" lon="11.473953"><ele>1151.0</ele><time>2017-08-03T04:54:52Z</time></trkpt>
<trkpt lat="46.472715" lon="11.473915"><ele>1151.0</ele><time>2017-08-03T04:54:54Z</time></trkpt>
<trkpt lat="46.472485" lon="11.473957"><ele>1156.0</ele><time>2017-08-03T04:54:55Z</time></trkpt>
<trkpt lat="46.471996" lon="11.474195"><ele>1148.0</ele><time>2017-08-03T04:54:58Z</time></trkpt>
<trkpt lat="46.471831" lon="11.474234"><ele>1148.0</ele><time>2017-08-03T04:55:00Z</time></trkpt>
<trkpt lat="46.471669" lon="11.474198"><ele>1148.0</ele><time>2017-08-03T04:55:01Z</time></trkpt>
<trkpt lat="46.47146" lon="11.474098"><ele>1163.0</ele><time>2017-08-03T04:55:02Z</time></trkpt>
<trkpt lat="46.471192" lon="11.473933"><ele>1163.0</ele><time>2017-08-03T04:55:04Z</time></trkpt>
<trkpt lat="46.470894" lon="11.47383"><ele>1163.0</ele><time>2017-08-03T04:55:06Z</time></trkpt>
<trkpt lat="46.470598" lon="11.473815"><ele>1176.0</ele><time>2017-08-03T04:55:08Z</time></trkpt>
<trkpt lat="46.470345" lon="11.473843"><ele>1176.0</ele><time>2017-08-03T04:55:10Z</time></trkpt>
<trkpt lat="46.469846" lon="11.474009"><ele>1195.0</ele><time>2017-08-03T04:55:13Z</time></trkpt>
<trkpt lat="46.469597" lon="11.47405"><ele>1195.0</ele><time>2017-08-03T04:55:15Z</time></trkpt>
<trkpt lat="46.469309" lon="11.47403"><ele>1195.0</ele><time>2017-08-03T04:55:17Z</time></trkpt>
<trkpt lat="46.468659" lon="11.473821"><ele>1197.0</ele><time>2017-08-03T04:55:21Z</time></trkpt>
<trkpt lat="46.468525" lon="11.473804"><ele>1197.0</ele><time>2017-08-03T04:55:22Z</time></trkpt>
<trkpt lat="46.468424" lon="11.473812"><ele>1197.0</ele><time>2017-08-03T04:55:23Z</time></trkpt>
<trkpt lat="46.468299" lon="11.473862"><ele>1190.0</ele><time>2017-08-03T04:55:23Z</time></trkpt>
<trkpt lat="46.467853" lon="11.474116"><ele>1190.0</ele><time>2017-08-03T04:55:27Z</time></trkpt>
<trkpt lat="46.467442" lon="11.474295"><ele>1183.0</ele><time>2017-08-03T04:55:29Z</time></trkpt>
<trkpt lat="46.467178" lon="11.474308"><ele>1183.0</ele><time>2017-08-03T04:55:31Z</time></trkpt>
<trkpt lat="46.467069" lon="11.474285"><ele>1183.0</ele><time>2017-08-03T04:55:32Z</time></trkpt>
<trkpt lat="46.466837" lon="11.474124"><ele>1195.0</ele><time>2017-08-03T04:55:34Z</time></trkpt>
<trkpt lat="46.466714" lon="11.473964"><ele>1195.0</ele><time>2017-08-03T04:55:35Z</time></trkpt>
<trkpt lat="46.466592" lon="11.47374"><ele>1198.0</ele><time>2017-08-03T04:55:36Z</time></trkpt>
<trkpt lat="46.466333" lon="11.472852"><ele>1204.0</ele><time>2017-08-03T04:55:40Z</time></trkpt>
<trkpt lat="46.466172" lon="11.472565"><ele>1204.0</ele><time>2017-08-03T04:55:42Z</time></trkpt>
<trkpt lat="46.465971" lon="11.472389"><ele>1216.0</ele><time>2017-08-03T04:55:44Z</time></trkpt>
<trkpt lat="46.465683" lon="11.472294"><ele>1214.0</ele><time>2017-08-03T04:55:45Z</time></trkpt>
<trkpt lat="46.465599" lon="11.472313"><ele>1214.0</ele><time>2017-08-03T04:55:46Z</time></trkpt>
<trkpt lat="46.465505" lon="11.472391"><ele>1214.0</ele><time>2017-08-03T04:55:47Z</time></trkpt>
<trkpt lat="46.465222" lon="11.473145"><ele>1209.0</ele><time>2017-08-03T04:55:50Z</time></trkpt>
<trkpt lat="46.465107" lon="11.473374"><ele>1204.0</ele><time>2017-08-03T04:55:52Z</time></trkpt>
<trkpt lat="46.464969" lon="11.473546"><ele>1222.0</ele><time>2017-08-03T04:55:53Z</time></trkpt>
<trkpt lat="46.464755" lon="11.473681"><ele>1222.0</ele><time>2017-08-03T04:55:55Z</time></trkpt>
<trkpt lat="46.464415" lon="11.473745"><ele>1222.0</ele><time>2017-08-03T04:55:57Z</time></trkpt>
<trkpt lat="46.464286" lon="11.473729"><ele>1222.0</ele><time>2017-08-03T04:55:58Z</time></trkpt>
<trkpt lat="46.464073" lon="11.473643"><ele>1230.0</ele><time>2017-08-03T04:55:59Z</time></trkpt>
<trkpt lat="46.463881" lon="11.473606"><ele>1230.0</ele><time>2017-08-03T04:56:01Z</time></trkpt>
<trkpt lat="46.463702" lon="11.473606"><ele>1230.0</ele><time>2017-08-03T04:56:02Z</time></trkpt>
<trkpt lat="46.463539" lon="11.473651"><ele>1230.0</ele><time>2017-08-03T04:56:03Z</time></trkpt>
<trkpt lat="46.463366" lon="11.473767"><ele>1230.0</ele><time>2017-08-03T04:56:04Z</time></trkpt>
<trkpt lat="46.4631" lon="11.47407"><ele>1230.0</ele><time>2017-08-03T04:56:06Z</time></trkpt>
<trkpt lat="46.462921" lon="11.474337"><ele>1223.0</ele><time>2017-08-03T04:56:08Z</time></trkpt>
<trkpt lat="46.462741" lon="11.474751"><ele>1223.0</ele><time>2017-08-03T04:56:10Z</time></trkpt>
<trkpt lat="46.462509" lon="11.475363"><ele>1229.0</ele><time>2017-08-03T04:56:13Z</time></trkpt>
<trkpt lat="46.462483" lon="11.475521"><ele>1249.0</ele><time>2017-08-03T04:56:15Z</time></trkpt>
<trkpt lat="46.462513" lon="11.475636"><ele>1229.0</ele><time>2017-08-03T04:56:16Z</time></trkpt>
<trkpt lat="46.462569" lon="11.475703"><ele>1229.0</ele><time>2017-08-03T04:56:16Z</time></trkpt>
<trkpt lat="46.462673" lon="11.475733"><ele>1229.0</ele><time>2017-08-03T04:56:17Z</time></trkpt>
<trkpt lat="46.46298" lon="11.475698"><ele>1229.0</ele><time>2017-08-03T04:56:19Z</time></trkpt>
<trkpt lat="46.463201" lon="11.475744"><ele>1229.0</ele><time>2017-08-03T04:56:21Z</time></trkpt>
<trkpt lat="46.46332" lon="11.475831"><ele>1229.0</ele><time>2017-08-03T04:56:21Z</time></trkpt>
<trkpt lat="46.463426" lon="11.476033"><ele>1231.0</ele><time>2017-08-03T04:56:23Z</time></trkpt>
<trkpt lat="46.463455" lon="11.476135"><ele>1231.0</ele><time>2017-08-03T04:56:23Z</time></trkpt>
<trkpt lat="46.463567" lon="11.476913"><ele>1246.0</ele><time>2017-08-03T04:56:27Z</time></trkpt>
<trkpt lat="46.46366" lon="11.477272"><ele>1246.0</ele><time>2017-08-03T04:56:28Z</time></trkpt>
<trkpt lat="46.463818" lon="11.477635"><ele>1254.0</ele><time>2017-08-03T04:56:30Z</time></trkpt>
<trkpt lat="46.463934" lon="11.478276"><ele>1254.0</ele><time>2017-08-03T04:56:33Z</time></trkpt>
<trkpt lat="46.46415" lon="11.47887"><ele>1264.0</ele><time>2017-08-03T04:56:36Z</time></trkpt>
<trkpt lat="46.464194" lon="11.479392"><ele>1237.0</ele><time>2017-08-03T04:56:39Z</time></trkpt>
<trkpt lat="46.464174" lon="11.479545"><ele>1237.0</ele><time>2017-08-03T04:56:40Z</time></trkpt>
<trkpt lat="46.464108" lon="11.479661"><ele>1278.0</ele><time>2017-08-03T04:56:42Z</time></trkpt>
<trkpt lat="46.463901" lon="11.479938"><ele>1278.0</ele><time>2017-08-03T04:56:44Z</time></trkpt>
<trkpt lat="46.46363" lon="11.480391"><ele>1273.0</ele><time>2017-08-03T04:56:47Z</time></trkpt>
<trkpt lat="46.463533" lon="11.480483"><ele>1273.0</ele><time>2017-08-03T04:56:47Z</time></trkpt>
<trkpt lat="46.463389" lon="11.480535"><ele>1273.0</ele><time>2017-08-03T04:56:48Z</time></trkpt>
<trkpt lat="46.462865" lon="11.480411"><ele>1303.0</ele><time>2017-08-03T04:56:52Z</time></trkpt>
<trkpt lat="46.462642" lon="11.480404"><ele>1303.0</ele><time>2017-08-03T04:56:54Z</time></trkpt>
<trkpt lat="46.462373" lon="11.480442"><ele>1318.0</ele><time>2017-08-03T04:56:56Z</time></trkpt>
<trkpt lat="46.461715" lon="11.480356"><ele>1318.0</ele><time>2017-08-03T04:57:00Z</time></trkpt>
<trkpt lat="46.460638" lon="11.48058"><ele>1314.0</ele><time>2017-08-03T04:57:07Z</time></trkpt>
<trkpt lat="46.460186" lon="11.480589"><ele>1314.0</ele><time>2017-08-03T04:57:10Z</time></trkpt>
<trkpt lat="46.459626" lon="11.480511"><ele>1317.0</ele><time>2017-08-03T04:57:13Z</time></trkpt>
<trkpt lat="46.459286" lon="11.480548"><ele>1317.0</ele><time>2017-08-03T04:57:16Z</time></trkpt>
<trkpt lat="46.459111" lon="11.480614"><ele>1307.0</ele><time>2017-08-03T04:57:17Z</time></trkpt>
<trkpt lat="46.458745" lon="11.480966"><ele>1316.0</ele><time>2017-08-03T04:57:20Z</time></trkpt>
<trkpt lat="46.458155" lon="11.481862"><ele>1308.0</ele><time>2017-08-03T04:57:25Z</time></trkpt>
<trkpt lat="46.458005" lon="11.482004"><ele>1308.0</ele><time>2017-08-03T04:57:27Z</time></trkpt>
<trkpt lat="46.45776" lon="11.482165"><ele>1308.0</ele><time>2017-08-03T04:57:28Z</time></trkpt>
<trkpt lat="46.456934" lon="11.482583"><ele>1309.0</ele><time>2017-08-03T04:57:34Z</time></trkpt>
<trkpt lat="46.456816" lon="11.482685"><ele>1309.0</ele><time>2017-08-03T04:57:35Z</time></trkpt>
<trkpt lat="46.456659" lon="11.482873"><ele>1316.0</ele><time>2017-08-03T04:57:36Z</time></trkpt>
<trkpt lat="46.456289" lon="11.483514"><ele>1321.0</ele><time>2017-08-03T04:57:40Z</time></trkpt>
<trkpt lat="46.456101" lon="11.483715"><ele>1321.0</ele><time>2017-08-03T04:57:41Z</time></trkpt>
<trkpt lat="46.455934" lon="11.483828"><ele>1321.0</ele><time>2017-08-03T04:57:43Z</time></trkpt>
<trkpt lat="46.455751" lon="11.483895"><ele>1322.0</ele><time>2017-08-03T04:57:44Z</time></trkpt>
<trkpt lat="46.455495" lon="11.483871"><ele>1322.0</ele><time>2017-08-03T04:57:45Z</time></trkpt>
<trkpt lat="46.454992" lon="11.483616"><ele>1334.0</ele><time>2017-08-03T04:57:49Z</time></trkpt>
<trkpt lat="46.454772" lon="11.483533"><ele>1334.0</ele><time>2017-08-03T04:57:50Z</time></trkpt>
<trkpt lat="46.454647" lon="11.483514"><ele>1334.0</ele><time>2017-08-03T04:57:51Z</time></trkpt>
<trkpt lat="46.454449" lon="11.483535"><ele>1334.0</ele><time>2017-08-03T04:57:53Z</time></trkpt>
<trkpt lat="46.453821" lon="11.483947"><ele>1339.0</ele><time>2017-08-03T04:57:57Z</time></trkpt>
<trkpt lat="46.45362" lon="11.48406"><ele>1339.0</ele><time>2017-08-03T04:57:58Z</time></trkpt>
<trkpt lat="46.453396" lon="11.484121"><ele>1339.0</ele><time>2017-08-03T04:58:00Z</time></trkpt>
<trkpt lat="46.453073" lon="11.484177"><ele>1350.0</ele><time>2017-08-03T04:58:02Z</time></trkpt>
<trkpt lat="46.452884" lon="11.484164"><ele>1343.0</ele><time>2017-08-03T04:58:03Z</time></trkpt>
<trkpt lat="46.452691" lon="11.484102"><ele>1343.0</ele><time>2017-08-03T04:58:05Z</time></trkpt>
<trkpt lat="46.452443" lon="11.483982"><ele>1343.0</ele><time>2017-08-03T04:58:06Z</time></trkpt>
<trkpt lat="46.452234" lon="11.483832"><ele>1343.0</ele><time>2017-08-03T04:58:08Z</time></trkpt>
<trkpt lat="46.452084" lon="11.483672"><ele>1343.0</ele><time>2017-08-03T04:58:09Z</time></trkpt>
<trkpt lat="46.450854" lon="11.481985"><ele>1331.0</ele><time>2017-08-03T04:58:20Z</time></trkpt>
<trkpt lat="46.450071" lon="11.481231"><ele>1323.0</ele><time>2017-08-03T04:58:26Z</time></trkpt>
<trkpt lat="46.449901" lon="11.480973"><ele>1324.0</ele><time>2017-08-03T04:58:28Z</time></trkpt>
<trkpt lat="46.449755" lon="11.480587"><ele>1314.0</ele><time>2017-08-03T04:58:30Z</time></trkpt>
<trkpt lat="46.449101" lon="11.478506"><ele>1298.0</ele><time>2017-08-03T04:58:40Z</time></trkpt>
<trkpt lat="46.448947" lon="11.478178"><ele>1292.0</ele><time>2017-08-03T04:58:42Z</time></trkpt>
<trkpt lat="46.44871" lon="11.477945"><ele>1292.0</ele><time>2017-08-03T04:58:43Z</time></trkpt>
<trkpt lat="46.44849" lon="11.477893"><ele>1292.0</ele><time>2017-08-03T04:58:45Z</time></trkpt>
<trkpt lat="46.448098" lon="11.477714"><ele>1284.0</ele><time>2017-08-03T04:58:48Z</time></trkpt>
<trkpt lat="46.447838" lon="11.477643"><ele>1284.0</ele><time>2017-08-03T04:58:49Z</time></trkpt>
<trkpt lat="46.447347" lon="11.477552"><ele>1272.0</ele><time>2017-08-03T04:59:01Z</time></trkpt>
<trkpt lat="46.447196" lon="11.477633"><ele>1272.0</ele><time>2017-08-03T04:59:02Z</time></trkpt>
<trkpt lat="46.44675" lon="11.478038"><ele>1272.0</ele><time>2017-08-03T04:59:05Z</time></trkpt>
<trkpt lat="46.446374" lon="11.478223"><ele>1255.0</ele><time>2017-08-03T04:59:08Z</time></trkpt>
<trkpt lat="46.446184" lon="11.478276"><ele>1255.0</ele><time>2017-08-03T04:59:09Z</time></trkpt>
<trkpt lat="46.446016" lon="11.478357"><ele>1273.0</ele><time>2017-08-03T04:59:11Z</time></trkpt>
<trkpt lat="46.445724" lon="11.478639"><ele>1258.0</ele><time>2017-08-03T04:59:13Z</time></trkpt>
<trkpt lat="46.445596" lon="11.478847"><ele>1258.0</ele><time>2017-08-03T04:59:14Z</time></trkpt>
<trkpt lat="46.445501" lon="11.479084"><ele>1258.0</ele><time>2017-08-03T04:59:16Z</time></trkpt>
<trkpt lat="46.445335" lon="11.479856"><ele>1268.0</ele><time>2017-08-03T04:59:19Z</time></trkpt>
<trkpt lat="46.445261" lon="11.480612"><ele>1268.0</ele><time>2017-08-03T04:59:23Z</time></trkpt>
<trkpt lat="46.445258" lon="11.480984"><ele>1261.0</ele><time>2017-08-03T04:59:24Z</time></trkpt>
<trkpt lat="46.445286" lon="11.481174"><ele>1261.0</ele><time>2017-08-03T04:59:25Z</time></trkpt>
<trkpt lat="46.445393" lon="11.481471"><ele>1261.0</ele><time>2017-08-03T04:59:27Z</time></trkpt>
<trkpt lat="46.445706" lon="11.482092"><ele>1248.0</ele><time>2017-08-03T04:59:30Z</time></trkpt>
<trkpt lat="46.445844" lon="11.482486"><ele>1279.0</ele><time>2017-08-03T04:59:33Z</time></trkpt>
<trkpt lat="46.446108" lon="11.483347"><ele>1255.0</ele><time>2017-08-03T04:59:37Z</time></trkpt>
<trkpt lat="46.446142" lon="11.483568"><ele>1255.0</ele><time>2017-08-03T04:59:38Z</time></trkpt>
<trkpt lat="46.446116" lon="11.484024"><ele>1255.0</ele><time>2017-08-03T04:59:40Z</time></trkpt>
<trkpt lat="46.446122" lon="11.48416"><ele>1255.0</ele><time>2017-08-03T04:59:41Z</time></trkpt>
<trkpt lat="46.446086" lon="11.484272"><ele>1246.0</ele><time>2017-08-03T04:59:42Z</time></trkpt>
<trkpt lat="46.446035" lon="11.484342"><ele>1246.0</ele><time>2017-08-03T04:59:42Z</time></trkpt>
<trkpt lat="46.44598" lon="11.484381"><ele>1246.0</ele><time>2017-08-03T04:59:42Z</time></trkpt>
<trkpt lat="46.445824" lon="11.484384"><ele>1227.0</ele><time>2017-08-03T04:59:44Z</time></trkpt>
<trkpt lat="46.44568" lon="11.484247"><ele>1227.0</ele><time>2017-08-03T04:59:45Z</time></trkpt>
<trkpt lat="46.445436" lon="11.483773"><ele>1217.0</ele><time>2017-08-03T04:59:48Z</time></trkpt>
<trkpt lat="46.44507" lon="11.483295"><ele>1231.0</ele><time>2017-08-03T04:59:51Z</time></trkpt>
<trkpt lat="46.444874" lon="11.48317"><ele>1214.0</ele><time>2017-08-03T04:59:53Z</time></trkpt>
<trkpt lat="46.444637" lon="11.483074"><ele>1214.0</ele><time>2017-08-03T04:59:54Z</time></trkpt>
<trkpt lat="46.444466" lon="11.482968"><ele>1214.0</ele><time>2017-08-03T04:59:56Z</time></trkpt>
<trkpt lat="46.444084" lon="11.482645"><ele>1213.0</ele><time>2017-08-03T04:59:58Z</time></trkpt>
<trkpt lat="46.443678" lon="11.482348"><ele>1191.0</ele><time>2017-08-03T05:00:02Z</time></trkpt>
<trkpt lat="46.443459" lon="11.482215"><ele>1191.0</ele><time>2017-08-03T05:00:03Z</time></trkpt>
<trkpt lat="46.442725" lon="11.481823"><ele>1186.0</ele><time>2017-08-03T05:00:08Z</time></trkpt>
<trkpt lat="46.442515" lon="11.481853"><ele>1186.0</ele><time>2017-08-03T05:00:10Z</time></trkpt>
<trkpt lat="46.442434" lon="11.481893"><ele>1199.0</ele><time>2017-08-03T05:00:10Z</time></trkpt>
<trkpt lat="46.442182" lon="11.482135"><ele>1199.0</ele><time>2017-08-03T05:00:12Z</time></trkpt>
<trkpt lat="46.442086" lon="11.482132"><ele>1199.0</ele><time>2017-08-03T05:00:13Z</time></trkpt>
<trkpt lat="46.442002" lon="11.482058"><ele>1199.0</ele><time>2017-08-03T05:00:14Z</time></trkpt>
<trkpt lat="46.441965" lon="11.481916"><ele>1199.0</ele><time>2017-08-03T05:00:14Z</time></trkpt>
<trkpt lat="46.441975" lon="11.48174"><ele>1199.0</ele><time>2017-08-03T05:00:15Z</time></trkpt>
<trkpt lat="46.441967" lon="11.481241"><ele>1184.0</ele><time>2017-08-03T05:00:18Z</time></trkpt>
<trkpt lat="46.441943" lon="11.481072"><ele>1184.0</ele><time>2017-08-03T05:00:18Z</time></trkpt>
<trkpt lat="46.441897" lon="11.480929"><ele>1184.0</ele><time>2017-08-03T05:00:19Z</time></trkpt>
<trkpt lat="46.441655" lon="11.480627"><ele>1186.0</ele><time>2017-08-03T05:00:21Z</time></trkpt>
<trkpt lat="46.441166" lon="11.480155"><ele>1186.0</ele><time>2017-08-03T05:00:25Z</time></trkpt>
<trkpt lat="46.440792" lon="11.479874"><ele>1156.0</ele><time>2017-08-03T05:00:28Z</time></trkpt>
<trkpt lat="46.440545" lon="11.479906"><ele>1156.0</ele><time>2017-08-03T05:00:30Z</time></trkpt>
<trkpt lat="46.440227" lon="11.48026"><ele>1187.0</ele><time>2017-08-03T05:00:33Z</time></trkpt>
<trkpt lat="46.440128" lon="11.480347"><ele>1187.0</ele><time>2017-08-03T05:00:34Z</time></trkpt>
<trkpt lat="46.440016" lon="11.480388"><ele>1187.0</ele><time>2017-08-03T05:00:34Z</time></trkpt>
<trkpt lat="46.439886" lon="11.480531"><ele>1204.0</ele><time>2017-08-03T05:00:36Z</time></trkpt>
<trkpt lat="46.439776" lon="11.480564"><ele>1204.0</ele><time>2017-08-03T05:00:36Z</time></trkpt>
<trkpt lat="46.439675" lon="11.480457"><ele>1204.0</ele><time>2017-08-03T05:00:37Z</time></trkpt>
<trkpt lat="46.439641" lon="11.48032"><ele>1204.0</ele><time>2017-08-03T05:00:38Z</time></trkpt>
<trkpt lat="46.439629" lon="11.479886"><ele>1177.0</ele><time>2017-08-03T05:00:40Z</time></trkpt>
<trkpt lat="46.439646" lon="11.479624"><ele>1177.0</ele><time>2017-08-03T05:00:42Z</time></trkpt>
<trkpt lat="46.439605" lon="11.479402"><ele>1177.0</ele><time>2017-08-03T05:00:43Z</time></trkpt>
<trkpt lat="46.439503" lon="11.4792"><ele>1177.0</ele><time>2017-08-03T05:00:44Z</time></trkpt>
<trkpt lat="46.439243" lon="11.478961"><ele>1150.0</ele><time>2017-08-03T05:00:46Z</time></trkpt>
<trkpt lat="46.439022" lon="11.478846"><ele>1160.0</ele><time>2017-08-03T05:00:48Z</time></trkpt>
<trkpt lat="46.438786" lon="11.47894"><ele>1160.0</ele><time>2017-08-03T05:00:49Z</time></trkpt>
<trkpt lat="46.438625" lon="11.479084"><ele>1160.0</ele><time>2017-08-03T05:00:51Z</time></trkpt>
<trkpt lat="46.438137" lon="11.479681"><ele>1162.0</ele><time>2017-08-03T05:00:55Z</time></trkpt>
<trkpt lat="46.438015" lon="11.47999"><ele>1162.0</ele><time>2017-08-03T05:00:56Z</time></trkpt>
<trkpt lat="46.437927" lon="11.480042"><ele>1194.0</ele><time>2017-08-03T05:00:58Z</time></trkpt>
<trkpt lat="46.437866" lon="11.479975"><ele>1162.0</ele><time>2017-08-03T05:01:00Z</time></trkpt>
<trkpt lat="46.437856" lon="11.479863"><ele>1162.0</ele><time>2017-08-03T05:01:01Z</time></trkpt>
<trkpt lat="46.438242" lon="11.479274"><ele>1162.0</ele><time>2017-08-03T05:01:04Z</time></trkpt>
<trkpt lat="46.438411" lon="11.478852"><ele>1160.0</ele><time>2017-08-03T05:01:07Z</time></trkpt>
<trkpt lat="46.43852" lon="11.478258"><ele>1140.0</ele><time>2017-08-03T05:01:10Z</time></trkpt>
<trkpt lat="46.438681" lon="11.47779"><ele>1140.0</ele><time>2017-08-03T05:01:12Z</time></trkpt>
<trkpt lat="46.438784" lon="11.477435"><ele>1125.0</ele><time>2017-08-03T05:01:14Z</time></trkpt>
<trkpt lat="46.438825" lon="11.477352"><ele>1125.0</ele><time>2017-08-03T05:01:14Z</time></trkpt>
<trkpt lat="46.438938" lon="11.477331"><ele>1125.0</ele><time>2017-08-03T05:01:15Z</time></trkpt>
<trkpt lat="46.439047" lon="11.477372"><ele>1125.0</ele><time>2017-08-03T05:01:16Z</time></trkpt>
<trkpt lat="46.439275" lon="11.477549"><ele>1118.0</ele><time>2017-08-03T05:01:17Z</time></trkpt>
<trkpt lat="46.439357" lon="11.477557"><ele>1118.0</ele><time>2017-08-03T05:01:18Z</time></trkpt>
<trkpt lat="46.439414" lon="11.47744"><ele>1094.0</ele><time>2017-08-03T05:01:19Z</time></trkpt>
<trkpt lat="46.439359" lon="11.477316"><ele>1094.0</ele><time>2017-08-03T05:01:20Z</time></trkpt>
<trkpt lat="46.43915" lon="11.477143"><ele>1125.0</ele><time>2017-08-03T05:01:23Z</time></trkpt>
<trkpt lat="46.439035" lon="11.476974"><ele>1125.0</ele><time>2017-08-03T05:01:24Z</time></trkpt>
<trkpt lat="46.438884" lon="11.476535"><ele>1118.0</ele><time>2017-08-03T05:01:26Z</time></trkpt>
<trkpt lat="46.438748" lon="11.476247"><ele>1118.0</ele><time>2017-08-03T05:01:27Z</time></trkpt>
<trkpt lat="46.438674" lon="11.476247"><ele>1118.0</ele><time>2017-08-03T05:01:28Z</time></trkpt>
<trkpt lat="46.438373" lon="11.476793"><ele>1125.0</ele><time>2017-08-03T05:01:31Z</time></trkpt>
<trkpt lat="46.438293" lon="11.477057"><ele>1106.0</ele><time>2017-08-03T05:01:33Z</time></trkpt>
<trkpt lat="46.438205" lon="11.477491"><ele>1106.0</ele><time>2017-08-03T05:01:35Z</time></trkpt>
<trkpt lat="46.438035" lon="11.477805"><ele>1116.0</ele><time>2017-08-03T05:01:37Z</time></trkpt>
<trkpt lat="46.437661" lon="11.478368"><ele>1137.0</ele><time>2017-08-03T05:01:40Z</time></trkpt>
<trkpt lat="46.437376" lon="11.478696"><ele>1098.0</ele><time>2017-08-03T05:01:43Z</time></trkpt>
<trkpt lat="46.437264" lon="11.478986"><ele>1098.0</ele><time>2017-08-03T05:01:45Z</time></trkpt>
<trkpt lat="46.437221" lon="11.479029"><ele>1098.0</ele><time>2017-08-03T05:01:45Z</time></trkpt>
<trkpt lat="46.437158" lon="11.479005"><ele>1098.0</ele><time>2017-08-03T05:01:46Z</time></trkpt>
<trkpt lat="46.437116" lon="11.478957"><ele>1098.0</ele><time>2017-08-03T05:01:46Z</time></trkpt>
<trkpt lat="46.437097" lon="11.478885"><ele>1098.0</ele><time>2017-08-03T05:01:46Z</time></trkpt>
<trkpt lat="46.437116" lon="11.478791"><ele>1098.0</ele><time>2017-08-03T05:01:47Z</time></trkpt>
<trkpt lat="46.437311" lon="11.478495"><ele>1098.0</ele><time>2017-08-03T05:01:49Z</time></trkpt>
<trkpt lat="46.437455" lon="11.478131"><ele>1079.0</ele><time>2017-08-03T05:01:51Z</time></trkpt>
<trkpt lat="46.437645" lon="11.477475"><ele>1106.0</ele><time>2017-08-03T05:01:54Z</time></trkpt>
<trkpt lat="46.43779" lon="11.47684"><ele>1106.0</ele><time>2017-08-03T05:01:57Z</time></trkpt>
<trkpt lat="46.437851" lon="11.476082"><ele>1106.0</ele><time>2017-08-03T05:02:01Z</time></trkpt>
<trkpt lat="46.437737" lon="11.475159"><ele>1115.0</ele><time>2017-08-03T05:02:05Z</time></trkpt>
<trkpt lat="46.437717" lon="11.475119"><ele>1115.0</ele><time>2017-08-03T05:02:05Z</time></trkpt>
<trkpt lat="46.437671" lon="11.475095"><ele>1115.0</ele><time>2017-08-03T05:02:05Z</time></trkpt>
<trkpt lat="46.437621" lon="11.475091"><ele>1115.0</ele><time>2017-08-03T05:02:06Z</time></trkpt>
<trkpt lat="46.437577" lon="11.475122"><ele>1115.0</ele><time>2017-08-03T05:02:06Z</time></trkpt>
<trkpt lat="46.437557" lon="11.475189"><ele>1115.0</ele><time>2017-08-03T05:02:06Z</time></trkpt>
<trkpt lat="46.437564" lon="11.475272"><ele>1115.0</ele><time>2017-08-03T05:02:07Z</time></trkpt>
<trkpt lat="46.437606" lon="11.47536"><ele>1115.0</ele><time>2017-08-03T05:02:07Z</time></trkpt>
<trkpt lat="46.437653" lon="11.475602"><ele>1115.0</ele><time>2017-08-03T05:02:08Z</time></trkpt>
<trkpt lat="46.437652" lon="11.475818"><ele>1115.0</ele><time>2017-08-03T05:02:09Z</time></trkpt>
<trkpt lat="46.437627" lon="11.475952"><ele>1106.0</ele><time>2017-08-03T05:02:10Z</time></trkpt>
<trkpt lat="46.437493" lon="11.476442"><ele>1065.0</ele><time>2017-08-03T05:02:13Z</time></trkpt>
<trkpt lat="46.437384" lon="11.476652"><ele>1065.0</ele><time>2017-08-03T05:02:15Z</time></trkpt>
<trkpt lat="46.437036" lon="11.476992"><ele>1069.0</ele><time>2017-08-03T05:02:17Z</time></trkpt>
<trkpt lat="46.436782" lon="11.477318"><ele>1069.0</ele><time>2017-08-03T05:02:20Z</time></trkpt>
<trkpt lat="46.436646" lon="11.477665"><ele>1043.0</ele><time>2017-08-03T05:02:22Z</time></trkpt>
<trkpt lat="46.436576" lon="11.477706"><ele>1043.0</ele><time>2017-08-03T05:02:22Z</time></trkpt>
<trkpt lat="46.436516" lon="11.477672"><ele>1043.0</ele><time>2017-08-03T05:02:23Z</time></trkpt>
<trkpt lat="46.436494" lon="11.477569"><ele>1043.0</ele><time>2017-08-03T05:02:23Z</time></trkpt>
<trkpt lat="46.436538" lon="11.477432"><ele>1033.0</ele><time>2017-08-03T05:02:24Z</time></trkpt>
<trkpt lat="46.436638" lon="11.477313"><ele>1033.0</ele><time>2017-08-03T05:02:25Z</time></trkpt>
<trkpt lat="46.436721" lon="11.477161"><ele>1069.0</ele><time>2017-08-03T05:02:27Z</time></trkpt>
<trkpt lat="46.436992" lon="11.476413"><ele>1065.0</ele><time>2017-08-03T05:02:31Z</time></trkpt>
<trkpt lat="46.437035" lon="11.476244"><ele>1065.0</ele><time>2017-08-03T05:02:32Z</time></trkpt>
<trkpt lat="46.43701" lon="11.475479"><ele>1067.0</ele><time>2017-08-03T05:02:35Z</time></trkpt>
<trkpt lat="46.436934" lon="11.475016"><ele>1067.0</ele><time>2017-08-03T05:02:37Z</time></trkpt>
<trkpt lat="46.436925" lon="11.474812"><ele>1065.0</ele><time>2017-08-03T05:02:38Z</time></trkpt>
<trkpt lat="46.43698" lon="11.474508"><ele>1065.0</ele><time>2017-08-03T05:02:40Z</time></trkpt>
<trkpt lat="46.437027" lon="11.474395"><ele>1065.0</ele><time>2017-08-03T05:02:40Z</time></trkpt>
<trkpt lat="46.437034" lon="11.474271"><ele>1065.0</ele><time>2017-08-03T05:02:41Z</time></trkpt>
<trkpt lat="46.437015" lon="11.474207"><ele>1065.0</ele><time>2017-08-03T05:02:41Z</time></trkpt>
<trkpt lat="46.43698" lon="11.474153"><ele>1051.0</ele><time>2017-08-03T05:02:42Z</time></trkpt>
<trkpt lat="46.436934" lon="11.474124"><ele>1051.0</ele><time>2017-08-03T05:02:42Z</time></trkpt>
<trkpt lat="46.436899" lon="11.474129"><ele>1051.0</ele><time>2017-08-03T05:02:43Z</time></trkpt>
<trkpt lat="46.436854" lon="11.474155"><ele>1051.0</ele><time>2017-08-03T05:02:43Z</time></trkpt>
<trkpt lat="46.43682" lon="11.474204"><ele>1065.0</ele><time>2017-08-03T05:02:44Z</time></trkpt>
<trkpt lat="46.436807" lon="11.474323"><ele>1065.0</ele><time>2017-08-03T05:02:44Z</time></trkpt>
<trkpt lat="46.436813" lon="11.474697"><ele>1065.0</ele><time>2017-08-03T05:02:46Z</time></trkpt>
<trkpt lat="46.436639" lon="11.475598"><ele>1016.0</ele><time>2017-08-03T05:02:51Z</time></trkpt>
<trkpt lat="46.436583" lon="11.475717"><ele>1016.0</ele><time>2017-08-03T05:02:52Z</time></trkpt>
<trkpt lat="46.436155" lon="11.476271"><ele>1021.0</ele><time>2017-08-03T05:02:55Z</time></trkpt>
<trkpt lat="46.43577" lon="11.476661"><ele>984.0</ele><time>2017-08-03T05:02:59Z</time></trkpt>
<trkpt lat="46.435693" lon="11.476805"><ele>998.0</ele><time>2017-08-03T05:03:00Z</time></trkpt>
<trkpt lat="46.435621" lon="11.477057"><ele>998.0</ele><time>2017-08-03T05:03:01Z</time></trkpt>
<trkpt lat="46.435576" lon="11.477104"><ele>998.0</ele><time>2017-08-03T05:03:02Z</time></trkpt>
<trkpt lat="46.435525" lon="11.477112"><ele>998.0</ele><time>2017-08-03T05:03:02Z</time></trkpt>
<trkpt lat="46.435474" lon="11.47709"><ele>998.0</ele><time>2017-08-03T05:03:02Z</time></trkpt>
<trkpt lat="46.435427" lon="11.476966"><ele>998.0</ele><time>2017-08-03T05:03:03Z</time></trkpt>
<trkpt lat="46.435433" lon="11.476869"><ele>998.0</ele><time>2017-08-03T05:03:03Z</time></trkpt>
<trkpt lat="46.435798" lon="11.476209"><ele>984.0</ele><time>2017-08-03T05:03:07Z</time></trkpt>
<trkpt lat="46.43587" lon="11.475992"><ele>1021.0</ele><time>2017-08-03T05:03:10Z</time></trkpt>
<trkpt lat="46.435929" lon="11.475732"><ele>1016.0</ele><time>2017-08-03T05:03:11Z</time></trkpt>
<trkpt lat="46.435973" lon="11.474938"><ele>1006.0</ele><time>2017-08-03T05:03:15Z</time></trkpt>
<trkpt lat="46.436043" lon="11.474579"><ele>1006.0</ele><time>2017-08-03T05:03:16Z</time></trkpt>
<trkpt lat="46.436231" lon="11.474264"><ele>1006.0</ele><time>2017-08-03T05:03:18Z</time></trkpt>
<trkpt lat="46.436244" lon="11.474186"><ele>1006.0</ele><time>2017-08-03T05:03:18Z</time></trkpt>
<trkpt lat="46.436226" lon="11.474068"><ele>985.0</ele><time>2017-08-03T05:03:20Z</time></trkpt>
<trkpt lat="46.436184" lon="11.474017"><ele>985.0</ele><time>2017-08-03T05:03:20Z</time></trkpt>
<trkpt lat="46.43611" lon="11.473998"><ele>985.0</ele><time>2017-08-03T05:03:21Z</time></trkpt>
<trkpt lat="46.43604" lon="11.474079"><ele>985.0</ele><time>2017-08-03T05:03:21Z</time></trkpt>
<trkpt lat="46.435943" lon="11.474464"><ele>1006.0</ele><time>2017-08-03T05:03:23Z</time></trkpt>
<trkpt lat="46.43544" lon="11.475434"><ele>970.0</ele><time>2017-08-03T05:03:29Z</time></trkpt>
<trkpt lat="46.435302" lon="11.475579"><ele>970.0</ele><time>2017-08-03T05:03:30Z</time></trkpt>
<trkpt lat="46.435013" lon="11.475792"><ele>970.0</ele><time>2017-08-03T05:03:32Z</time></trkpt>
<trkpt lat="46.434926" lon="11.476006"><ele>949.0</ele><time>2017-08-03T05:03:34Z</time></trkpt>
<trkpt lat="46.434899" lon="11.476197"><ele>949.0</ele><time>2017-08-03T05:03:35Z</time></trkpt>
<trkpt lat="46.434804" lon="11.476325"><ele>949.0</ele><time>2017-08-03T05:03:36Z</time></trkpt>
<trkpt lat="46.434731" lon="11.476315"><ele>949.0</ele><time>2017-08-03T05:03:36Z</time></trkpt>
<trkpt lat="46.434674" lon="11.476233"><ele>949.0</ele><time>2017-08-03T05:03:37Z</time></trkpt>
<trkpt lat="46.434675" lon="11.476103"><ele>949.0</ele><time>2017-08-03T05:03:37Z</time></trkpt>
<trkpt lat="46.435148" lon="11.475123"><ele>970.0</ele><time>2017-08-03T05:03:43Z</time></trkpt>
<trkpt lat="46.435178" lon="11.474928"><ele>949.0</ele><time>2017-08-03T05:03:44Z</time></trkpt>
<trkpt lat="46.435179" lon="11.474556"><ele>949.0</ele><time>2017-08-03T05:03:46Z</time></trkpt>
<trkpt lat="46.435444" lon="11.473502"><ele>933.0</ele><time>2017-08-03T05:03:51Z</time></trkpt>
<trkpt lat="46.435597" lon="11.473086"><ele>910.0</ele><time>2017-08-03T05:03:53Z</time></trkpt>
<trkpt lat="46.435783" lon="11.472815"><ele>910.0</ele><time>2017-08-03T05:03:55Z</time></trkpt>
<trkpt lat="46.436405" lon="11.472068"><ele>922.0</ele><time>2017-08-03T05:04:00Z</time></trkpt>
<trkpt lat="46.436466" lon="11.471966"><ele>922.0</ele><time>2017-08-03T05:04:01Z</time></trkpt>
<trkpt lat="46.436505" lon="11.471813"><ele>922.0</ele><time>2017-08-03T05:04:02Z</time></trkpt>
<trkpt lat="46.436517" lon="11.471635"><ele>900.0</ele><time>2017-08-03T05:04:03Z</time></trkpt>
<trkpt lat="46.436558" lon="11.471478"><ele>900.0</ele><time>2017-08-03T05:04:04Z</time></trkpt>
<trkpt lat="46.436853" lon="11.470957"><ele>947.0</ele><time>2017-08-03T05:04:08Z</time></trkpt>
<trkpt lat="46.436972" lon="11.470702"><ele>915.0</ele><time>2017-08-03T05:04:10Z</time></trkpt>
<trkpt lat="46.437094" lon="11.470408"><ele>915.0</ele><time>2017-08-03T05:04:12Z</time></trkpt>
<trkpt lat="46.437221" lon="11.469939"><ele>883.0</ele><time>2017-08-03T05:04:15Z</time></trkpt>
<trkpt lat="46.437335" lon="11.469754"><ele>883.0</ele><time>2017-08-03T05:04:16Z</time></trkpt>
<trkpt lat="46.437848" lon="11.469187"><ele>903.0</ele><time>2017-08-03T05:04:20Z</time></trkpt>
<trkpt lat="46.438386" lon="11.468661"><ele>860.0</ele><time>2017-08-03T05:04:25Z</time></trkpt>
<trkpt lat="46.438507" lon="11.468591"><ele>860.0</ele><time>2017-08-03T05:04:26Z</time></trkpt>
<trkpt lat="46.438788" lon="11.468601"><ele>860.0</ele><time>2017-08-03T05:04:28Z</time></trkpt>
<trkpt lat="46.439234" lon="11.46872"><ele>858.0</ele><time>2017-08-03T05:04:31Z</time></trkpt>
<trkpt lat="46.439959" lon="11.469071"><ele>858.0</ele><time>2017-08-03T05:04:36Z</time></trkpt>
<trkpt lat="46.440054" lon="11.469165"><ele>862.0</ele><time>2017-08-03T05:04:36Z</time></trkpt>
<trkpt lat="46.440139" lon="11.469125"><ele>862.0</ele><time>2017-08-03T05:04:37Z</time></trkpt>
<trkpt lat="46.440195" lon="11.469016"><ele>862.0</ele><time>2017-08-03T05:04:38Z</time></trkpt>
<trkpt lat="46.440207" lon="11.468929"><ele>862.0</ele><time>2017-08-03T05:04:38Z</time></trkpt>
<trkpt lat="46.440156" lon="11.468842"><ele>862.0</ele><time>2017-08-03T05:04:38Z</time></trkpt>
<trkpt lat="46.439866" lon="11.468747"><ele>858.0</ele><time>2017-08-03T05:04:40Z</time></trkpt>
<trkpt lat="46.439591" lon="11.468474"><ele>858.0</ele><time>2017-08-03T05:04:43Z</time></trkpt>
<trkpt lat="46.439156" lon="11.468134"><ele>831.0</ele><time>2017-08-03T05:04:46Z</time></trkpt>
<trkpt lat="46.438738" lon="11.46791"><ele>831.0</ele><time>2017-08-03T05:04:49Z</time></trkpt>
<trkpt lat="46.438545" lon="11.46787"><ele>831.0</ele><time>2017-08-03T05:04:50Z</time></trkpt>
<trkpt lat="46.438406" lon="11.467866"><ele>831.0</ele><time>2017-08-03T05:04:51Z</time></trkpt>
<trkpt lat="46.438245" lon="11.467936"><ele>827.0</ele><time>2017-08-03T05:04:52Z</time></trkpt>
<trkpt lat="46.437686" lon="11.468388"><ele>862.0</ele><time>2017-08-03T05:04:57Z</time></trkpt>
<trkpt lat="46.437571" lon="11.46843"><ele>862.0</ele><time>2017-08-03T05:04:58Z</time></trkpt>
<trkpt lat="46.437198" lon="11.468501"><ele>832.0</ele><time>2017-08-03T05:05:01Z</time></trkpt>
<trkpt lat="46.437012" lon="11.468573"><ele>832.0</ele><time>2017-08-03T05:05:02Z</time></trkpt>
<trkpt lat="46.43679" lon="11.468714"><ele>832.0</ele><time>2017-08-03T05:05:03Z</time></trkpt>
<trkpt lat="46.436564" lon="11.46894"><ele>810.0</ele><time>2017-08-03T05:05:06Z</time></trkpt>
<trkpt lat="46.436365" lon="11.469214"><ele>840.0</ele><time>2017-08-03T05:05:08Z</time></trkpt>
<trkpt lat="46.436256" lon="11.469397"><ele>840.0</ele><time>2017-08-03T05:05:09Z</time></trkpt>
<trkpt lat="46.436158" lon="11.469389"><ele>840.0</ele><time>2017-08-03T05:05:10Z</time></trkpt>
<trkpt lat="46.436117" lon="11.469314"><ele>840.0</ele><time>2017-08-03T05:05:10Z</time></trkpt>
<trkpt lat="46.436115" lon="11.469162"><ele>810.0</ele><time>2017-08-03T05:05:12Z</time></trkpt>
<trkpt lat="46.436202" lon="11.469055"><ele>810.0</ele><time>2017-08-03T05:05:13Z</time></trkpt>
<trkpt lat="46.436356" lon="11.468949"><ele>810.0</ele><time>2017-08-03T05:05:14Z</time></trkpt>
<trkpt lat="46.436785" lon="11.468408"><ele>832.0</ele><time>2017-08-03T05:05:18Z</time></trkpt>
<trkpt lat="46.437037" lon="11.46806"><ele>806.0</ele><time>2017-08-03T05:05:20Z</time></trkpt>
<trkpt lat="46.437174" lon="11.467796"><ele>806.0</ele><time>2017-08-03T05:05:32Z</time></trkpt>
<trkpt lat="46.437195" lon="11.467817"><ele>806.0</ele><time>2017-08-03T05:05:32Z</time></trkpt>
<trkpt lat="46.437271" lon="11.467824"><ele>806.0</ele><time>2017-08-03T05:05:32Z</time></trkpt>
<trkpt lat="46.437328" lon="11.467753"><ele>806.0</ele><time>2017-08-03T05:05:33Z</time></trkpt>
<trkpt lat="46.437337" lon="11.467668"><ele>806.0</ele><time>2017-08-03T05:05:33Z</time></trkpt>
<trkpt lat="46.437327" lon="11.467622"><ele>806.0</ele><time>2017-08-03T05:05:33Z</time></trkpt>
<trkpt lat="46.437282" lon="11.46756"><ele>806.0</ele><time>2017-08-03T05:05:34Z</time></trkpt>
<trkpt lat="46.437226" lon="11.467547"><ele>806.0</ele><time>2017-08-03T05:05:34Z</time></trkpt>
<trkpt lat="46.437156" lon="11.467614"><ele>806.0</ele><time>2017-08-03T05:05:34Z</time></trkpt>
<trkpt lat="46.437145" lon="11.467652"><ele>806.0</ele><time>2017-08-03T05:05:34Z</time></trkpt>
<trkpt lat="46.436884" lon="11.46752"><ele>806.0</ele><time>2017-08-03T05:05:36Z</time></trkpt>
<trkpt lat="46.436393" lon="11.467327"><ele>838.0</ele><time>2017-08-03T05:05:39Z</time></trkpt>
<trkpt lat="46.436251" lon="11.467321"><ele>838.0</ele><time>2017-08-03T05:05:40Z</time></trkpt>
<trkpt lat="46.436104" lon="11.467392"><ele>838.0</ele><time>2017-08-03T05:05:41Z</time></trkpt>
<trkpt lat="46.436026" lon="11.467473"><ele>838.0</ele><time>2017-08-03T05:05:41Z</time></trkpt>
<trkpt lat="46.435643" lon="11.468051"><ele>846.0</ele><time>2017-08-03T05:05:45Z</time></trkpt>
<trkpt lat="46.435529" lon="11.468191"><ele>846.0</ele><time>2017-08-03T05:05:45Z</time></trkpt>
<trkpt lat="46.435453" lon="11.468264"><ele>846.0</ele><time>2017-08-03T05:05:46Z</time></trkpt>
<trkpt lat="46.435263" lon="11.468386"><ele>817.0</ele><time>2017-08-03T05:05:48Z</time></trkpt>
<trkpt lat="46.435029" lon="11.468632"><ele>817.0</ele><time>2017-08-03T05:05:49Z</time></trkpt>
<trkpt lat="46.43454" lon="11.469461"><ele>819.0</ele><time>2017-08-03T05:05:54Z</time></trkpt>
<trkpt lat="46.434274" lon="11.470052"><ele>817.0</ele><time>2017-08-03T05:05:56Z</time></trkpt>
<trkpt lat="46.434086" lon="11.470535"><ele>834.0</ele><time>2017-08-03T05:05:58Z</time></trkpt>
<trkpt lat="46.433745" lon="11.471103"><ele>828.0</ele><time>2017-08-03T05:06:01Z</time></trkpt>
<trkpt lat="46.433125" lon="11.471968"><ele>841.0</ele><time>2017-08-03T05:06:06Z</time></trkpt>
<trkpt lat="46.43298" lon="11.472274"><ele>841.0</ele><time>2017-08-03T05:06:08Z</time></trkpt>
<trkpt lat="46.432892" lon="11.472564"><ele>831.0</ele><time>2017-08-03T05:06:09Z</time></trkpt>
<trkpt lat="46.432739" lon="11.473324"><ele>831.0</ele><time>2017-08-03T05:06:12Z</time></trkpt>
<trkpt lat="46.432493" lon="11.47479"><ele>855.0</ele><time>2017-08-03T05:06:18Z</time></trkpt>
<trkpt lat="46.432408" lon="11.475171"><ele>843.0</ele><time>2017-08-03T05:06:20Z</time></trkpt>
<trkpt lat="46.432348" lon="11.475345"><ele>843.0</ele><time>2017-08-03T05:06:20Z</time></trkpt>
<trkpt lat="46.432269" lon="11.475475"><ele>843.0</ele><time>2017-08-03T05:06:21Z</time></trkpt>
<trkpt lat="46.431424" lon="11.476508"><ele>870.0</ele><time>2017-08-03T05:06:27Z</time></trkpt>
<trkpt lat="46.431249" lon="11.476678"><ele>841.0</ele><time>2017-08-03T05:06:29Z</time></trkpt>
<trkpt lat="46.431048" lon="11.476836"><ele>841.0</ele><time>2017-08-03T05:06:30Z</time></trkpt>
<trkpt lat="46.430402" lon="11.477281"><ele>880.0</ele><time>2017-08-03T05:06:35Z</time></trkpt>
<trkpt lat="46.430281" lon="11.477328"><ele>880.0</ele><time>2017-08-03T05:06:36Z</time></trkpt>
<trkpt lat="46.429687" lon="11.477439"><ele>899.0</ele><time>2017-08-03T05:06:39Z</time></trkpt>
<trkpt lat="46.429228" lon="11.477593"><ele>863.0</ele><time>2017-08-03T05:06:42Z</time></trkpt>
<trkpt lat="46.428128" lon="11.47814"><ele>909.0</ele><time>2017-08-03T05:06:49Z</time></trkpt>
<trkpt lat="46.427894" lon="11.478296"><ele>909.0</ele><time>2017-08-03T05:06:50Z</time></trkpt>
<trkpt lat="46.425102" lon="11.480825"><ele>873.0</ele><time>2017-08-03T05:07:09Z</time></trkpt>
<trkpt lat="46.425031" lon="11.480908"><ele>869.0</ele><time>2017-08-03T05:07:09Z</time></trkpt>
<trkpt lat="46.424948" lon="11.481112"><ele>879.0</ele><time>2017-08-03T05:07:10Z</time></trkpt>
<trkpt lat="46.424831" lon="11.481635"><ele>879.0</ele><time>2017-08-03T05:07:13Z</time></trkpt>
<trkpt lat="46.424817" lon="11.481699"><ele>870.0</ele><time>2017-08-03T05:07:15Z</time></trkpt>
<trkpt lat="46.42458" lon="11.482074"><ele>870.0</ele><time>2017-08-03T05:07:17Z</time></trkpt>
<trkpt lat="46.423832" lon="11.4841"><ele>882.0</ele><time>2017-08-03T05:07:25Z</time></trkpt>
<trkpt lat="46.423674" lon="11.484364"><ele>903.0</ele><time>2017-08-03T05:07:27Z</time></trkpt>
<trkpt lat="46.423558" lon="11.484482"><ele>903.0</ele><time>2017-08-03T05:07:27Z</time></trkpt>
<trkpt lat="46.423434" lon="11.484575"><ele>903.0</ele><time>2017-08-03T05:07:28Z</time></trkpt>
<trkpt lat="46.423022" lon="11.484761"><ele>890.0</ele><time>2017-08-03T05:07:30Z</time></trkpt>
<trkpt lat="46.42281" lon="11.484913"><ele>890.0</ele><time>2017-08-03T05:07:32Z</time></trkpt>
<trkpt lat="46.422193" lon="11.485493"><ele>902.0</ele><time>2017-08-03T05:07:35Z</time></trkpt>
<trkpt lat="46.421902" lon="11.485711"><ele>902.0</ele><time>2017-08-03T05:07:37Z</time></trkpt>
<trkpt lat="46.420678" lon="11.486241"><ele>916.0</ele><time>2017-08-03T05:07:44Z</time></trkpt>
<trkpt lat="46.420552" lon="11.486332"><ele>916.0</ele><time>2017-08-03T05:07:44Z</time></trkpt>
<trkpt lat="46.420458" lon="11.486432"><ele>916.0</ele><time>2017-08-03T05:07:45Z</time></trkpt>
<trkpt lat="46.420361" lon="11.486579"><ele>916.0</ele><time>2017-08-03T05:07:46Z</time></trkpt>
<trkpt lat="46.419669" lon="11.487977"><ele>925.0</ele><time>2017-08-03T05:07:52Z</time></trkpt>
<trkpt lat="46.419443" lon="11.488239"><ele>925.0</ele><time>2017-08-03T05:07:53Z</time></trkpt>
<trkpt lat="46.41812" lon="11.489354"><ele>934.0</ele><time>2017-08-03T05:08:01Z</time></trkpt>
<trkpt lat="46.417974" lon="11.489435"><ele>934.0</ele><time>2017-08-03T05:08:02Z</time></trkpt>
<trkpt lat="46.417112" lon="11.489628"><ele>928.0</ele><time>2017-08-03T05:08:06Z</time></trkpt>
<trkpt lat="46.416918" lon="11.489641"><ele>928.0</ele><time>2017-08-03T05:08:07Z</time></trkpt>
<trkpt lat="46.416768" lon="11.489606"><ele>928.0</ele><time>2017-08-03T05:08:08Z</time></trkpt>
<trkpt lat="46.416626" lon="11.48955"><ele>933.0</ele><time>2017-08-03T05:08:09Z</time></trkpt>
<trkpt lat="46.415456" lon="11.491001"><ele>954.0</ele><time>2017-08-03T05:08:17Z</time></trkpt>
<trkpt lat="46.414574" lon="11.491831"><ele>974.0</ele><time>2017-08-03T05:08:22Z</time></trkpt>
<trkpt lat="46.41417" lon="11.492355"><ele>974.0</ele><time>2017-08-03T05:08:25Z</time></trkpt>
<trkpt lat="46.414013" lon="11.492678"><ele>985.0</ele><time>2017-08-03T05:08:26Z</time></trkpt>
<trkpt lat="46.413844" lon="11.493093"><ele>985.0</ele><time>2017-08-03T05:08:28Z</time></trkpt>
<trkpt lat="46.4137" lon="11.493531"><ele>1001.0</ele><time>2017-08-03T05:08:30Z</time></trkpt>
<trkpt lat="46.413565" lon="11.493692"><ele>1001.0</ele><time>2017-08-03T05:08:31Z</time></trkpt>
<trkpt lat="46.413374" lon="11.493807"><ele>1001.0</ele><time>2017-08-03T05:08:32Z</time></trkpt>
<trkpt lat="46.413025" lon="11.493917"><ele>990.0</ele><time>2017-08-03T05:08:34Z</time></trkpt>
<trkpt lat="46.412925" lon="11.494018"><ele>990.0</ele><time>2017-08-03T05:08:34Z</time></trkpt>
<trkpt lat="46.412823" lon="11.494223"><ele>1003.0</ele><time>2017-08-03T05:08:35Z</time></trkpt>
<trkpt lat="46.412724" lon="11.494518"><ele>1003.0</ele><time>2017-08-03T05:08:36Z</time></trkpt>
<trkpt lat="46.412642" lon="11.494695"><ele>1003.0</ele><time>2017-08-03T05:08:37Z</time></trkpt>
<trkpt lat="46.412557" lon="11.494803"><ele>1003.0</ele><time>2017-08-03T05:08:38Z</time></trkpt>
<trkpt lat="46.412418" lon="11.494934"><ele>1008.0</ele><time>2017-08-03T05:08:39Z</time></trkpt>
<trkpt lat="46.412197" lon="11.495042"><ele>1018.0</ele><time>2017-08-03T05:08:40Z</time></trkpt>
<trkpt lat="46.411852" lon="11.495572"><ele>1018.0</ele><time>2017-08-03T05:08:42Z</time></trkpt>
<trkpt lat="46.411454" lon="11.496114"><ele>1016.0</ele><time>2017-08-03T05:08:45Z</time></trkpt>
<trkpt lat="46.411213" lon="11.496535"><ele>1016.0</ele><time>2017-08-03T05:08:47Z</time></trkpt>
<trkpt lat="46.411097" lon="11.496792"><ele>1036.0</ele><time>2017-08-03T05:08:48Z</time></trkpt>
<trkpt lat="46.411007" lon="11.497256"><ele>1036.0</ele><time>2017-08-03T05:08:50Z</time></trkpt>
<trkpt lat="46.410937" lon="11.497434"><ele>1036.0</ele><time>2017-08-03T05:08:51Z</time></trkpt>
<trkpt lat="46.410591" lon="11.497852"><ele>1033.0</ele><time>2017-08-03T05:08:53Z</time></trkpt>
<trkpt lat="46.410451" lon="11.498154"><ele>1033.0</ele><time>2017-08-03T05:08:54Z</time></trkpt>
<trkpt lat="46.410256" lon="11.498676"><ele>1054.0</ele><time>2017-08-03T05:08:56Z</time></trkpt>
<trkpt lat="46.40997" lon="11.499165"><ele>1042.0</ele><time>2017-08-03T05:08:59Z</time></trkpt>
<trkpt lat="46.40965" lon="11.500053"><ele>1062.0</ele><time>2017-08-03T05:09:02Z</time></trkpt>
<trkpt lat="46.409378" lon="11.500422"><ele>1062.0</ele><time>2017-08-03T05:09:04Z</time></trkpt>
<trkpt lat="46.409309" lon="11.50054"><ele>1062.0</ele><time>2017-08-03T05:09:05Z</time></trkpt>
<trkpt lat="46.409237" lon="11.50072"><ele>1062.0</ele><time>2017-08-03T05:09:05Z</time></trkpt>
<trkpt lat="46.409101" lon="11.501223"><ele>1069.0</ele><time>2017-08-03T05:09:07Z</time></trkpt>
<trkpt lat="46.408967" lon="11.501449"><ele>1069.0</ele><time>2017-08-03T05:09:08Z</time></trkpt>
<trkpt lat="46.40882" lon="11.501583"><ele>1069.0</ele><time>2017-08-03T05:09:09Z</time></trkpt>
<trkpt lat="46.408619" lon="11.501867"><ele>1074.0</ele><time>2017-08-03T05:09:11Z</time></trkpt>
<trkpt lat="46.408131" lon="11.502468"><ele>1091.0</ele><time>2017-08-03T05:09:14Z</time></trkpt>
<trkpt lat="46.407125" lon="11.503572"><ele>1086.0</ele><time>2017-08-03T05:09:20Z</time></trkpt>
<trkpt lat="46.406103" lon="11.504859"><ele>1098.0</ele><time>2017-08-03T05:09:27Z</time></trkpt>
<trkpt lat="46.405146" lon="11.505833"><ele>1104.0</ele><time>2017-08-03T05:09:33Z</time></trkpt>
<trkpt lat="46.404528" lon="11.506546"><ele>1115.0</ele><time>2017-08-03T05:09:37Z</time></trkpt>
<trkpt lat="46.403936" lon="11.507135"><ele>1121.0</ele><time>2017-08-03T05:09:41Z</time></trkpt>
<trkpt lat="46.403699" lon="11.507412"><ele>1121.0</ele><time>2017-08-03T05:09:42Z</time></trkpt>
<trkpt lat="46.403531" lon="11.50773"><ele>1129.0</ele><time>2017-08-03T05:09:43Z</time></trkpt>
<trkpt lat="46.403397" lon="11.508207"><ele>1129.0</ele><time>2017-08-03T05:09:45Z</time></trkpt>
<trkpt lat="46.40326" lon="11.508618"><ele>1139.0</ele><time>2017-08-03T05:09:47Z</time></trkpt>
<trkpt lat="46.403149" lon="11.508823"><ele>1139.0</ele><time>2017-08-03T05:09:48Z</time></trkpt>
<trkpt lat="46.402799" lon="11.509306"><ele>1144.0</ele><time>2017-08-03T05:09:50Z</time></trkpt>
<trkpt lat="46.402755" lon="11.509456"><ele>1144.0</ele><time>2017-08-03T05:09:51Z</time></trkpt>
<trkpt lat="46.40264" lon="11.510071"><ele>1155.0</ele><time>2017-08-03T05:09:53Z</time></trkpt>
<trkpt lat="46.402287" lon="11.511261"><ele>1159.0</ele><time>2017-08-03T05:09:57Z</time></trkpt>
<trkpt lat="46.402241" lon="11.511775"><ele>1176.0</ele><time>2017-08-03T05:09:59Z</time></trkpt>
<trkpt lat="46.402327" lon="11.512599"><ele>1187.0</ele><time>2017-08-03T05:10:02Z</time></trkpt>
<trkpt lat="46.402294" lon="11.512917"><ele>1187.0</ele><time>2017-08-03T05:10:03Z</time></trkpt>
<trkpt lat="46.402107" lon="11.513626"><ele>1193.0</ele><time>2017-08-03T05:10:06Z</time></trkpt>
<trkpt lat="46.402088" lon="11.513964"><ele>1193.0</ele><time>2017-08-03T05:10:07Z</time></trkpt>
<trkpt lat="46.401964" lon="11.514457"><ele>1207.0</ele><time>2017-08-03T05:10:09Z</time></trkpt>
<trkpt lat="46.401666" lon="11.515002"><ele>1233.0</ele><time>2017-08-03T05:10:12Z</time></trkpt>
<trkpt lat="46.401376" lon="11.516"><ele>1244.0</ele><time>2017-08-03T05:10:16Z</time></trkpt>
<trkpt lat="46.401338" lon="11.516497"><ele>1244.0</ele><time>2017-08-03T05:10:17Z</time></trkpt>
<trkpt lat="46.401236" lon="11.516844"><ele>1250.0</ele><time>2017-08-03T05:10:19Z</time></trkpt>
<trkpt lat="46.400686" lon="11.51776"><ele>1258.0</ele><time>2017-08-03T05:10:23Z</time></trkpt>
<trkpt lat="46.399775" lon="11.518882"><ele>1274.0</ele><time>2017-08-03T05:10:29Z</time></trkpt>
<trkpt lat="46.39949" lon="11.519098"><ele>1274.0</ele><time>2017-08-03T05:10:31Z</time></trkpt>
<trkpt lat="46.39873" lon="11.519368"><ele>1290.0</ele><time>2017-08-03T05:10:34Z</time></trkpt>
<trkpt lat="46.398225" lon="11.519712"><ele>1311.0</ele><time>2017-08-03T05:10:37Z</time></trkpt>
<trkpt lat="46.397985" lon="11.519919"><ele>1311.0</ele><time>2017-08-03T05:10:39Z</time></trkpt>
<trkpt lat="46.397812" lon="11.520122"><ele>1303.0</ele><time>2017-08-03T05:10:40Z</time></trkpt>
<trkpt lat="46.397627" lon="11.520389"><ele>1303.0</ele><time>2017-08-03T05:10:41Z</time></trkpt>
<trkpt lat="46.396996" lon="11.521638"><ele>1320.0</ele><time>2017-08-03T05:10:47Z</time></trkpt>
<trkpt lat="46.396645" lon="11.52213"><ele>1329.0</ele><time>2017-08-03T05:10:49Z</time></trkpt>
<trkpt lat="46.396135" lon="11.522923"><ele>1338.0</ele><time>2017-08-03T05:10:53Z</time></trkpt>
<trkpt lat="46.396058" lon="11.523101"><ele>1338.0</ele><time>2017-08-03T05:10:54Z</time></trkpt>
<trkpt lat="46.396043" lon="11.523251"><ele>1338.0</ele><time>2017-08-03T05:10:54Z</time></trkpt>
<trkpt lat="46.396045" lon="11.523429"><ele>1341.0</ele><time>2017-08-03T05:10:55Z</time></trkpt>
<trkpt lat="46.39616" lon="11.524149"><ele>1341.0</ele><time>2017-08-03T05:10:57Z</time></trkpt>
<trkpt lat="46.396217" lon="11.524767"><ele>1353.0</ele><time>2017-08-03T05:11:00Z</time></trkpt>
<trkpt lat="46.396356" lon="11.525477"><ele>1367.0</ele><time>2017-08-03T05:11:02Z</time></trkpt>
<trkpt lat="46.39636" lon="11.525645"><ele>1367.0</ele><time>2017-08-03T05:11:03Z</time></trkpt>
<trkpt lat="46.396346" lon="11.525788"><ele>1367.0</ele><time>2017-08-03T05:11:03Z</time></trkpt>
<trkpt lat="46.396289" lon="11.525966"><ele>1376.0</ele><time>2017-08-03T05:11:04Z</time></trkpt>
<trkpt lat="46.396147" lon="11.526244"><ele>1376.0</ele><time>2017-08-03T05:11:05Z</time></trkpt>
<trkpt lat="46.396097" lon="11.526428"><ele>1376.0</ele><time>2017-08-03T05:11:06Z</time></trkpt>
<trkpt lat="46.39598" lon="11.527209"><ele>1390.0</ele><time>2017-08-03T05:11:09Z</time></trkpt>
<trkpt lat="46.395911" lon="11.528058"><ele>1404.0</ele><time>2017-08-03T05:11:12Z</time></trkpt>
<trkpt lat="46.395907" lon="11.528442"><ele>1416.0</ele><time>2017-08-03T05:11:13Z</time></trkpt>
<trkpt lat="46.395964" lon="11.529258"><ele>1430.0</ele><time>2017-08-03T05:11:16Z</time></trkpt>
<trkpt lat="46.395983" lon="11.529892"><ele>1430.0</ele><time>2017-08-03T05:11:18Z</time></trkpt>
<trkpt lat="46.396059" lon="11.530575"><ele>1440.0</ele><time>2017-08-03T05:11:21Z</time></trkpt>
<trkpt lat="46.396056" lon="11.53179"><ele>1457.0</ele><time>2017-08-03T05:11:25Z</time></trkpt>
<trkpt lat="46.396008" lon="11.532593"><ele>1470.0</ele><time>2017-08-03T05:11:28Z</time></trkpt>
<trkpt lat="46.395891" lon="11.532701"><ele>1470.0</ele><time>2017-08-03T05:11:29Z</time></trkpt>
<trkpt lat="46.395771" lon="11.532622"><ele>1467.0</ele><time>2017-08-03T05:11:29Z</time></trkpt>
<trkpt lat="46.395495" lon="11.532026"><ele>1457.0</ele><time>2017-08-03T05:11:32Z</time></trkpt>
<trkpt lat="46.395096" lon="11.53143"><ele>1444.0</ele><time>2017-08-03T05:11:35Z</time></trkpt>
<trkpt lat="46.394944" lon="11.531282"><ele>1466.0</ele><time>2017-08-03T05:11:36Z</time></trkpt>
<trkpt lat="46.39468" lon="11.531193"><ele>1466.0</ele><time>2017-08-03T05:11:37Z</time></trkpt>
<trkpt lat="46.394289" lon="11.531118"><ele>1466.0</ele><time>2017-08-03T05:11:39Z</time></trkpt>
<trkpt lat="46.393887" lon="11.530938"><ele>1487.0</ele><time>2017-08-03T05:11:42Z</time></trkpt>
<trkpt lat="46.393626" lon="11.530748"><ele>1475.0</ele><time>2017-08-03T05:11:43Z</time></trkpt>
<trkpt lat="46.392739" lon="11.529897"><ele>1479.0</ele><time>2017-08-03T05:11:49Z</time></trkpt>
<trkpt lat="46.392585" lon="11.529826"><ele>1479.0</ele><time>2017-08-03T05:11:49Z</time></trkpt>
<trkpt lat="46.392495" lon="11.529808"><ele>1489.0</ele><time>2017-08-03T05:11:50Z</time></trkpt>
<trkpt lat="46.392386" lon="11.529815"><ele>1489.0</ele><time>2017-08-03T05:11:51Z</time></trkpt>
<trkpt lat="46.39201" lon="11.529959"><ele>1489.0</ele><time>2017-08-03T05:11:52Z</time></trkpt>
<trkpt lat="46.391844" lon="11.529974"><ele>1489.0</ele><time>2017-08-03T05:11:53Z</time></trkpt>
<trkpt lat="46.391608" lon="11.529912"><ele>1491.0</ele><time>2017-08-03T05:11:55Z</time></trkpt>
<trkpt lat="46.391441" lon="11.529831"><ele>1491.0</ele><time>2017-08-03T05:11:55Z</time></trkpt>
<trkpt lat="46.391362" lon="11.529745"><ele>1491.0</ele><time>2017-08-03T05:11:56Z</time></trkpt>
<trkpt lat="46.391117" lon="11.529299"><ele>1491.0</ele><time>2017-08-03T05:11:58Z</time></trkpt>
<trkpt lat="46.390813" lon="11.528944"><ele>1509.0</ele><time>2017-08-03T05:12:00Z</time></trkpt>
<trkpt lat="46.390457" lon="11.52867"><ele>1509.0</ele><time>2017-08-03T05:12:02Z</time></trkpt>
<trkpt lat="46.390165" lon="11.528548"><ele>1509.0</ele><time>2017-08-03T05:12:04Z</time></trkpt>
<trkpt lat="46.390039" lon="11.528439"><ele>1518.0</ele><time>2017-08-03T05:12:06Z</time></trkpt>
<trkpt lat="46.390039" lon="11.528439"><ele>1518.0</ele><time>2017-08-03T05:12:06Z</time></trkpt>
<trkpt lat="46.389812" lon="11.528242"><ele>1527.0</ele><time>2017-08-03T05:12:07Z</time></trkpt>
<trkpt lat="46.389725" lon="11.528113"><ele>1527.0</ele><time>2017-08-03T05:12:08Z</time></trkpt>
<trkpt lat="46.389627" lon="11.527746"><ele>1527.0</ele><time>2017-08-03T05:12:09Z</time></trkpt>
<trkpt lat="46.389583" lon="11.527612"><ele>1527.0</ele><time>2017-08-03T05:12:10Z</time></trkpt>
<trkpt lat="46.389522" lon="11.527495"><ele>1515.0</ele><time>2017-08-03T05:12:11Z</time></trkpt>
<trkpt lat="46.389341" lon="11.527292"><ele>1515.0</ele><time>2017-08-03T05:12:12Z</time></trkpt>
<trkpt lat="46.389116" lon="11.527122"><ele>1515.0</ele><time>2017-08-03T05:12:13Z</time></trkpt>
<trkpt lat="46.389001" lon="11.52708"><ele>1515.0</ele><time>2017-08-03T05:12:14Z</time></trkpt>
<trkpt lat="46.388836" lon="11.52711"><ele>1515.0</ele><time>2017-08-03T05:12:15Z</time></trkpt>
<trkpt lat="46.388593" lon="11.527294"><ele>1515.0</ele><time>2017-08-03T05:12:16Z</time></trkpt>
<trkpt lat="46.388199" lon="11.527631"><ele>1542.0</ele><time>2017-08-03T05:12:19Z</time></trkpt>
<trkpt lat="46.38812" lon="11.527665"><ele>1542.0</ele><time>2017-08-03T05:12:19Z</time></trkpt>
<trkpt lat="46.388043" lon="11.52767"><ele>1542.0</ele><time>2017-08-03T05:12:20Z</time></trkpt>
<trkpt lat="46.38796" lon="11.527646"><ele>1542.0</ele><time>2017-08-03T05:12:20Z</time></trkpt>
<trkpt lat="46.387899" lon="11.527582"><ele>1542.0</ele><time>2017-08-03T05:12:21Z</time></trkpt>
<trkpt lat="46.387736" lon="11.527217"><ele>1530.0</ele><time>2017-08-03T05:12:22Z</time></trkpt>
<trkpt lat="46.387675" lon="11.527167"><ele>1530.0</ele><time>2017-08-03T05:12:23Z</time></trkpt>
<trkpt lat="46.387378" lon="11.527087"><ele>1546.0</ele><time>2017-08-03T05:12:24Z</time></trkpt>
<trkpt lat="46.387166" lon="11.527077"><ele>1546.0</ele><time>2017-08-03T05:12:26Z</time></trkpt>
<trkpt lat="46.386996" lon="11.527015"><ele>1546.0</ele><time>2017-08-03T05:12:27Z</time></trkpt>
<trkpt lat="46.386927" lon="11.526945"><ele>1546.0</ele><time>2017-08-03T05:12:27Z</time></trkpt>
<trkpt lat="46.386716" lon="11.526632"><ele>1539.0</ele><time>2017-08-03T05:12:29Z</time></trkpt>
<trkpt lat="46.386656" lon="11.526471"><ele>1563.0</ele><time>2017-08-03T05:12:30Z</time></trkpt>
<trkpt lat="46.386629" lon="11.526325"><ele>1563.0</ele><time>2017-08-03T05:12:31Z</time></trkpt>
<trkpt lat="46.386625" lon="11.526113"><ele>1563.0</ele><time>2017-08-03T05:12:31Z</time></trkpt>
<trkpt lat="46.386679" lon="11.525631"><ele>1544.0</ele><time>2017-08-03T05:12:33Z</time></trkpt>
<trkpt lat="46.386664" lon="11.525188"><ele>1563.0</ele><time>2017-08-03T05:12:35Z</time></trkpt>
<trkpt lat="46.386579" lon="11.524693"><ele>1562.0</ele><time>2017-08-03T05:12:37Z</time></trkpt>
<trkpt lat="46.386516" lon="11.524502"><ele>1562.0</ele><time>2017-08-03T05:12:38Z</time></trkpt>
<trkpt lat="46.386437" lon="11.524356"><ele>1562.0</ele><time>2017-08-03T05:12:39Z</time></trkpt>
<trkpt lat="46.386305" lon="11.524208"><ele>1562.0</ele><time>2017-08-03T05:12:39Z</time></trkpt>
<trkpt lat="46.386134" lon="11.524119"><ele>1570.0</ele><time>2017-08-03T05:12:40Z</time></trkpt>
<trkpt lat="46.385944" lon="11.524161"><ele>1570.0</ele><time>2017-08-03T05:12:42Z</time></trkpt>
<trkpt lat="46.38551" lon="11.524538"><ele>1558.0</ele><time>2017-08-03T05:12:44Z</time></trkpt>
<trkpt lat="46.384808" lon="11.524819"><ele>1549.0</ele><time>2017-08-03T05:12:48Z</time></trkpt>
<trkpt lat="46.384693" lon="11.524917"><ele>1549.0</ele><time>2017-08-03T05:12:49Z</time></trkpt>
<trkpt lat="46.384562" lon="11.52511"><ele>1559.0</ele><time>2017-08-03T05:12:50Z</time></trkpt>
<trkpt lat="46.384416" lon="11.525397"><ele>1559.0</ele><time>2017-08-03T05:12:51Z</time></trkpt>
<trkpt lat="46.384254" lon="11.525856"><ele>1570.0</ele><time>2017-08-03T05:12:53Z</time></trkpt>
<trkpt lat="46.384172" lon="11.526008"><ele>1570.0</ele><time>2017-08-03T05:12:54Z</time></trkpt>
<trkpt lat="46.38407" lon="11.526131"><ele>1550.0</ele><time>2017-08-03T05:12:55Z</time></trkpt>
<trkpt lat="46.383915" lon="11.52621"><ele>1550.0</ele><time>2017-08-03T05:12:56Z</time></trkpt>
<trkpt lat="46.383796" lon="11.526238"><ele>1550.0</ele><time>2017-08-03T05:12:57Z</time></trkpt>
<trkpt lat="46.383566" lon="11.526225"><ele>1550.0</ele><time>2017-08-03T05:12:58Z</time></trkpt>
<trkpt lat="46.383467" lon="11.526193"><ele>1550.0</ele><time>2017-08-03T05:12:59Z</time></trkpt>
<trkpt lat="46.38329" lon="11.526057"><ele>1538.0</ele><time>2017-08-03T05:13:00Z</time></trkpt>
<trkpt lat="46.383212" lon="11.525966"><ele>1538.0</ele><time>2017-08-03T05:13:00Z</time></trkpt>
<trkpt lat="46.383158" lon="11.525857"><ele>1538.0</ele><time>2017-08-03T05:13:01Z</time></trkpt>
<trkpt lat="46.383115" lon="11.525711"><ele>1532.0</ele><time>2017-08-03T05:13:01Z</time></trkpt>
<trkpt lat="46.383084" lon="11.525426"><ele>1532.0</ele><time>2017-08-03T05:13:02Z</time></trkpt>
<trkpt lat="46.383111" lon="11.525167"><ele>1532.0</ele><time>2017-08-03T05:13:03Z</time></trkpt>
<trkpt lat="46.383184" lon="11.524894"><ele>1527.0</ele><time>2017-08-03T05:13:05Z</time></trkpt>
<trkpt lat="46.383373" lon="11.52435"><ele>1531.0</ele><time>2017-08-03T05:13:07Z</time></trkpt>
<trkpt lat="46.383467" lon="11.523708"><ele>1517.0</ele><time>2017-08-03T05:13:09Z</time></trkpt>
<trkpt lat="46.384063" lon="11.521071"><ele>1497.0</ele><time>2017-08-03T05:13:20Z</time></trkpt>
<trkpt lat="46.384138" lon="11.52015"><ele>1494.0</ele><time>2017-08-03T05:13:23Z</time></trkpt>
<trkpt lat="46.384585" lon="11.518479"><ele>1481.0</ele><time>2017-08-03T05:13:30Z</time></trkpt>
<trkpt lat="46.384648" lon="11.517935"><ele>1478.0</ele><time>2017-08-03T05:13:32Z</time></trkpt>
<trkpt lat="46.384626" lon="11.51614"><ele>1457.0</ele><time>2017-08-03T05:13:38Z</time></trkpt>
<trkpt lat="46.384723" lon="11.515551"><ele>1449.0</ele><time>2017-08-03T05:13:41Z</time></trkpt>
<trkpt lat="46.385056" lon="11.514498"><ele>1458.0</ele><time>2017-08-03T05:13:45Z</time></trkpt>
<trkpt lat="46.38517" lon="11.513712"><ele>1441.0</ele><time>2017-08-03T05:13:48Z</time></trkpt>
<trkpt lat="46.385359" lon="11.513194"><ele>1426.0</ele><time>2017-08-03T05:13:50Z</time></trkpt>
<trkpt lat="46.385392" lon="11.513042"><ele>1426.0</ele><time>2017-08-03T05:13:51Z</time></trkpt>
<trkpt lat="46.38545" lon="11.512545"><ele>1426.0</ele><time>2017-08-03T05:13:53Z</time></trkpt>
<trkpt lat="46.385504" lon="11.512313"><ele>1404.0</ele><time>2017-08-03T05:13:54Z</time></trkpt>
<trkpt lat="46.385547" lon="11.51222"><ele>1404.0</ele><time>2017-08-03T05:13:54Z</time></trkpt>
<trkpt lat="46.385669" lon="11.512063"><ele>1404.0</ele><time>2017-08-03T05:13:55Z</time></trkpt>
<trkpt lat="46.386503" lon="11.511295"><ele>1399.0</ele><time>2017-08-03T05:14:01Z</time></trkpt>
<trkpt lat="46.386728" lon="11.510986"><ele>1442.0</ele><time>2017-08-03T05:14:03Z</time></trkpt>
<trkpt lat="46.386885" lon="11.510463"><ele>1431.0</ele><time>2017-08-03T05:14:05Z</time></trkpt>
<trkpt lat="46.387003" lon="11.50989"><ele>1420.0</ele><time>2017-08-03T05:14:08Z</time></trkpt>
<trkpt lat="46.386982" lon="11.50951"><ele>1420.0</ele><time>2017-08-03T05:14:09Z</time></trkpt>
<trkpt lat="46.386913" lon="11.50911"><ele>1424.0</ele><time>2017-08-03T05:14:11Z</time></trkpt>
<trkpt lat="46.386678" lon="11.508596"><ele>1424.0</ele><time>2017-08-03T05:14:13Z</time></trkpt>
<trkpt lat="46.386193" lon="11.507363"><ele>1395.0</ele><time>2017-08-03T05:14:18Z</time></trkpt>
<trkpt lat="46.385967" lon="11.506447"><ele>1393.0</ele><time>2017-08-03T05:14:22Z</time></trkpt>
<trkpt lat="46.385447" lon="11.505571"><ele>1354.0</ele><time>2017-08-03T05:14:27Z</time></trkpt>
<trkpt lat="46.385471" lon="11.505075"><ele>1354.0</ele><time>2017-08-03T05:14:28Z</time></trkpt>
<trkpt lat="46.385666" lon="11.504023"><ele>1335.0</ele><time>2017-08-03T05:14:33Z</time></trkpt>
<trkpt lat="46.38571" lon="11.503391"><ele>1335.0</ele><time>2017-08-03T05:14:35Z</time></trkpt>
<trkpt lat="46.385724" lon="11.502726"><ele>1327.0</ele><time>2017-08-03T05:14:37Z</time></trkpt>
<trkpt lat="46.385785" lon="11.501872"><ele>1327.0</ele><time>2017-08-03T05:14:41Z</time></trkpt>
<trkpt lat="46.385886" lon="11.501268"><ele>1325.0</ele><time>2017-08-03T05:14:43Z</time></trkpt>
<trkpt lat="46.386293" lon="11.499957"><ele>1310.0</ele><time>2017-08-03T05:14:48Z</time></trkpt>
<trkpt lat="46.386363" lon="11.4995"><ele>1310.0</ele><time>2017-08-03T05:14:50Z</time></trkpt>
<trkpt lat="46.386386" lon="11.499187"><ele>1310.0</ele><time>2017-08-03T05:14:51Z</time></trkpt>
<trkpt lat="46.386354" lon="11.498487"><ele>1307.0</ele><time>2017-08-03T05:14:54Z</time></trkpt>
<trkpt lat="46.386398" lon="11.498243"><ele>1303.0</ele><time>2017-08-03T05:14:55Z</time></trkpt>
<trkpt lat="46.386475" lon="11.49799"><ele>1303.0</ele><time>2017-08-03T05:14:56Z</time></trkpt>
<trkpt lat="46.386563" lon="11.497811"><ele>1303.0</ele><time>2017-08-03T05:14:56Z</time></trkpt>
<trkpt lat="46.386653" lon="11.497688"><ele>1303.0</ele><time>2017-08-03T05:14:57Z</time></trkpt>
<trkpt lat="46.386918" lon="11.497516"><ele>1286.0</ele><time>2017-08-03T05:14:59Z</time></trkpt>
<trkpt lat="46.386989" lon="11.497425"><ele>1277.0</ele><time>2017-08-03T05:14:59Z</time></trkpt>
<trkpt lat="46.387046" lon="11.49731"><ele>1277.0</ele><time>2017-08-03T05:15:00Z</time></trkpt>
<trkpt lat="46.38707" lon="11.497213"><ele>1277.0</ele><time>2017-08-03T05:15:00Z</time></trkpt>
<trkpt lat="46.387054" lon="11.496984"><ele>1277.0</ele><time>2017-08-03T05:15:01Z</time></trkpt>
<trkpt lat="46.387012" lon="11.496892"><ele>1277.0</ele><time>2017-08-03T05:15:02Z</time></trkpt>
<trkpt lat="46.386943" lon="11.496799"><ele>1277.0</ele><time>2017-08-03T05:15:02Z</time></trkpt>
<trkpt lat="46.386773" lon="11.496642"><ele>1284.0</ele><time>2017-08-03T05:15:03Z</time></trkpt>
<trkpt lat="46.386728" lon="11.49654"><ele>1284.0</ele><time>2017-08-03T05:15:04Z</time></trkpt>
<trkpt lat="46.386699" lon="11.496414"><ele>1284.0</ele><time>2017-08-03T05:15:05Z</time></trkpt>
<trkpt lat="46.386917" lon="11.496378"><ele>1284.0</ele><time>2017-08-03T05:15:06Z</time></trkpt>
<trkpt lat="46.387304" lon="11.496183"><ele>1284.0</ele><time>2017-08-03T05:15:09Z</time></trkpt>
<trkpt lat="46.387444" lon="11.496068"><ele>1284.0</ele><time>2017-08-03T05:15:09Z</time></trkpt>
<trkpt lat="46.388041" lon="11.495383"><ele>1283.0</ele><time>2017-08-03T05:15:14Z</time></trkpt>
<trkpt lat="46.388655" lon="11.494856"><ele>1265.0</ele><time>2017-08-03T05:15:18Z</time></trkpt>
<trkpt lat="46.389061" lon="11.494239"><ele>1265.0</ele><time>2017-08-03T05:15:21Z</time></trkpt>
<trkpt lat="46.389262" lon="11.493828"><ele>1274.0</ele><time>2017-08-03T05:15:23Z</time></trkpt>
<trkpt lat="46.389344" lon="11.493482"><ele>1274.0</ele><time>2017-08-03T05:15:24Z</time></trkpt>
<trkpt lat="46.389359" lon="11.492908"><ele>1269.0</ele><time>2017-08-03T05:15:27Z</time></trkpt>
<trkpt lat="46.3894" lon="11.492702"><ele>1269.0</ele><time>2017-08-03T05:15:27Z</time></trkpt>
<trkpt lat="46.389502" lon="11.492459"><ele>1268.0</ele><time>2017-08-03T05:15:29Z</time></trkpt>
<trkpt lat="46.389636" lon="11.492207"><ele>1268.0</ele><time>2017-08-03T05:15:30Z</time></trkpt>
<trkpt lat="46.38969" lon="11.491996"><ele>1268.0</ele><time>2017-08-03T05:15:31Z</time></trkpt>
<trkpt lat="46.389701" lon="11.491779"><ele>1268.0</ele><time>2017-08-03T05:15:31Z</time></trkpt>
<trkpt lat="46.389592" lon="11.491135"><ele>1264.0</ele><time>2017-08-03T05:15:34Z</time></trkpt>
<trkpt lat="46.389579" lon="11.490892"><ele>1264.0</ele><time>2017-08-03T05:15:35Z</time></trkpt>
<trkpt lat="46.389672" lon="11.490255"><ele>1248.0</ele><time>2017-08-03T05:15:38Z</time></trkpt>
<trkpt lat="46.389677" lon="11.490008"><ele>1248.0</ele><time>2017-08-03T05:15:39Z</time></trkpt>
<trkpt lat="46.38953" lon="11.489302"><ele>1236.0</ele><time>2017-08-03T05:15:41Z</time></trkpt>
<trkpt lat="46.389553" lon="11.489145"><ele>1238.0</ele><time>2017-08-03T05:15:42Z</time></trkpt>
<trkpt lat="46.389876" lon="11.48841"><ele>1238.0</ele><time>2017-08-03T05:15:45Z</time></trkpt>
<trkpt lat="46.390075" lon="11.487694"><ele>1242.0</ele><time>2017-08-03T05:15:48Z</time></trkpt>
<trkpt lat="46.390357" lon="11.487146"><ele>1234.0</ele><time>2017-08-03T05:15:51Z</time></trkpt>
<trkpt lat="46.390392" lon="11.486967"><ele>1234.0</ele><time>2017-08-03T05:15:52Z</time></trkpt>
<trkpt lat="46.390392" lon="11.486718"><ele>1234.0</ele><time>2017-08-03T05:15:53Z</time></trkpt>
<trkpt lat="46.390272" lon="11.486025"><ele>1228.0</ele><time>2017-08-03T05:15:55Z</time></trkpt>
<trkpt lat="46.390297" lon="11.485906"><ele>1228.0</ele><time>2017-08-03T05:15:56Z</time></trkpt>
<trkpt lat="46.390475" lon="11.48549"><ele>1214.0</ele><time>2017-08-03T05:15:58Z</time></trkpt>
<trkpt lat="46.390732" lon="11.485043"><ele>1214.0</ele><time>2017-08-03T05:16:00Z</time></trkpt>
<trkpt lat="46.390808" lon="11.484787"><ele>1216.0</ele><time>2017-08-03T05:16:01Z</time></trkpt>
<trkpt lat="46.390851" lon="11.484553"><ele>1217.0</ele><time>2017-08-03T05:16:02Z</time></trkpt>
<trkpt lat="46.390882" lon="11.484264"><ele>1217.0</ele><time>2017-08-03T05:16:03Z</time></trkpt>
<trkpt lat="46.390904" lon="11.483611"><ele>1198.0</ele><time>2017-08-03T05:16:06Z</time></trkpt>
<trkpt lat="46.390938" lon="11.48342"><ele>1198.0</ele><time>2017-08-03T05:16:07Z</time></trkpt>
<trkpt lat="46.391026" lon="11.48328"><ele>1189.0</ele><time>2017-08-03T05:16:08Z</time></trkpt>
<trkpt lat="46.391392" lon="11.482918"><ele>1189.0</ele><time>2017-08-03T05:16:10Z</time></trkpt>
<trkpt lat="46.391698" lon="11.482767"><ele>1204.0</ele><time>2017-08-03T05:16:12Z</time></trkpt>
<trkpt lat="46.391848" lon="11.482649"><ele>1204.0</ele><time>2017-08-03T05:16:13Z</time></trkpt>
<trkpt lat="46.391947" lon="11.482543"><ele>1204.0</ele><time>2017-08-03T05:16:14Z</time></trkpt>
<trkpt lat="46.392031" lon="11.482376"><ele>1181.0</ele><time>2017-08-03T05:16:15Z</time></trkpt>
<trkpt lat="46.392076" lon="11.482263"><ele>1181.0</ele><time>2017-08-03T05:16:16Z</time></trkpt>
<trkpt lat="46.392116" lon="11.482102"><ele>1181.0</ele><time>2017-08-03T05:16:16Z</time></trkpt>
<trkpt lat="46.392137" lon="11.481698"><ele>1181.0</ele><time>2017-08-03T05:16:18Z</time></trkpt>
<trkpt lat="46.39214" lon="11.481232"><ele>1176.0</ele><time>2017-08-03T05:16:20Z</time></trkpt>
<trkpt lat="46.392244" lon="11.480679"><ele>1187.0</ele><time>2017-08-03T05:16:22Z</time></trkpt>
<trkpt lat="46.392377" lon="11.480435"><ele>1187.0</ele><time>2017-08-03T05:16:23Z</time></trkpt>
<trkpt lat="46.392623" lon="11.480107"><ele>1166.0</ele><time>2017-08-03T05:16:25Z</time></trkpt>
<trkpt lat="46.392819" lon="11.479917"><ele>1177.0</ele><time>2017-08-03T05:16:27Z</time></trkpt>
<trkpt lat="46.393078" lon="11.47976"><ele>1177.0</ele><time>2017-08-03T05:16:28Z</time></trkpt>
<trkpt lat="46.393336" lon="11.479672"><ele>1150.0</ele><time>2017-08-03T05:16:30Z</time></trkpt>
<trkpt lat="46.393512" lon="11.479578"><ele>1150.0</ele><time>2017-08-03T05:16:31Z</time></trkpt>
<trkpt lat="46.393753" lon="11.47936"><ele>1150.0</ele><time>2017-08-03T05:16:33Z</time></trkpt>
<trkpt lat="46.394535" lon="11.478448"><ele>1140.0</ele><time>2017-08-03T05:16:38Z</time></trkpt>
<trkpt lat="46.394632" lon="11.478388"><ele>1140.0</ele><time>2017-08-03T05:16:39Z</time></trkpt>
<trkpt lat="46.394454" lon="11.478135"><ele>1159.0</ele><time>2017-08-03T05:16:41Z</time></trkpt>
<trkpt lat="46.394259" lon="11.477625"><ele>1159.0</ele><time>2017-08-03T05:16:43Z</time></trkpt>
<trkpt lat="46.394171" lon="11.477343"><ele>1177.0</ele><time>2017-08-03T05:16:44Z</time></trkpt>
<trkpt lat="46.394104" lon="11.477005"><ele>1167.0</ele><time>2017-08-03T05:16:46Z</time></trkpt>
<trkpt lat="46.394053" lon="11.476608"><ele>1170.0</ele><time>2017-08-03T05:16:47Z</time></trkpt>
<trkpt lat="46.394065" lon="11.476292"><ele>1170.0</ele><time>2017-08-03T05:16:48Z</time></trkpt>
<trkpt lat="46.39428" lon="11.475805"><ele>1207.0</ele><time>2017-08-03T05:16:51Z</time></trkpt>
<trkpt lat="46.394311" lon="11.475549"><ele>1207.0</ele><time>2017-08-03T05:16:52Z</time></trkpt>
<trkpt lat="46.394255" lon="11.475286"><ele>1207.0</ele><time>2017-08-03T05:16:53Z</time></trkpt>
<trkpt lat="46.394148" lon="11.475118"><ele>1183.0</ele><time>2017-08-03T05:16:54Z</time></trkpt>
<trkpt lat="46.393777" lon="11.47469"><ele>1196.0</ele><time>2017-08-03T05:16:56Z</time></trkpt>
<trkpt lat="46.393687" lon="11.474462"><ele>1196.0</ele><time>2017-08-03T05:16:57Z</time></trkpt>
<trkpt lat="46.393643" lon="11.474216"><ele>1196.0</ele><time>2017-08-03T05:16:58Z</time></trkpt>
<trkpt lat="46.393649" lon="11.473052"><ele>1209.0</ele><time>2017-08-03T05:17:02Z</time></trkpt>
<trkpt lat="46.393694" lon="11.472112"><ele>1222.0</ele><time>2017-08-03T05:17:06Z</time></trkpt>
<trkpt lat="46.393762" lon="11.471391"><ele>1230.0</ele><time>2017-08-03T05:17:08Z</time></trkpt>
<trkpt lat="46.393883" lon="11.470528"><ele>1235.0</ele><time>2017-08-03T05:17:12Z</time></trkpt>
<trkpt lat="46.393885" lon="11.470366"><ele>1235.0</ele><time>2017-08-03T05:17:12Z</time></trkpt>
<trkpt lat="46.393866" lon="11.47016"><ele>1235.0</ele><time>2017-08-03T05:17:13Z</time></trkpt>
<trkpt lat="46.393796" lon="11.469777"><ele>1244.0</ele><time>2017-08-03T05:17:14Z</time></trkpt>
<trkpt lat="46.393668" lon="11.469397"><ele>1244.0</ele><time>2017-08-03T05:17:16Z</time></trkpt>
<trkpt lat="46.393556" lon="11.46913"><ele>1260.0</ele><time>2017-08-03T05:17:17Z</time></trkpt>
<trkpt lat="46.39343" lon="11.468964"><ele>1260.0</ele><time>2017-08-03T05:17:18Z</time></trkpt>
<trkpt lat="46.393299" lon="11.468883"><ele>1225.0</ele><time>2017-08-03T05:17:20Z</time></trkpt>
<trkpt lat="46.392066" lon="11.468632"><ele>1230.0</ele><time>2017-08-03T05:17:26Z</time></trkpt>
<trkpt lat="46.391827" lon="11.468504"><ele>1230.0</ele><time>2017-08-03T05:17:27Z</time></trkpt>
<trkpt lat="46.391331" lon="11.468051"><ele>1247.0</ele><time>2017-08-03T05:17:30Z</time></trkpt>
<trkpt lat="46.390524" lon="11.467492"><ele>1271.0</ele><time>2017-08-03T05:17:35Z</time></trkpt>
<trkpt lat="46.390386" lon="11.467339"><ele>1271.0</ele><time>2017-08-03T05:17:36Z</time></trkpt>
<trkpt lat="46.390096" lon="11.46675"><ele>1271.0</ele><time>2017-08-03T05:17:39Z</time></trkpt>
<trkpt lat="46.389951" lon="11.466509"><ele>1295.0</ele><time>2017-08-03T05:17:40Z</time></trkpt>
<trkpt lat="46.389637" lon="11.466208"><ele>1295.0</ele><time>2017-08-03T05:17:42Z</time></trkpt>
<trkpt lat="46.389596" lon="11.466076"><ele>1295.0</ele><time>2017-08-03T05:17:43Z</time></trkpt>
<trkpt lat="46.389597" lon="11.465855"><ele>1295.0</ele><time>2017-08-03T05:17:43Z</time></trkpt>
<trkpt lat="46.389679" lon="11.465709"><ele>1326.0</ele><time>2017-08-03T05:17:45Z</time></trkpt>
<trkpt lat="46.389773" lon="11.465638"><ele>1326.0</ele><time>2017-08-03T05:17:45Z</time></trkpt>
<trkpt lat="46.389923" lon="11.465647"><ele>1326.0</ele><time>2017-08-03T05:17:46Z</time></trkpt>
<trkpt lat="46.390086" lon="11.465815"><ele>1318.0</ele><time>2017-08-03T05:17:47Z</time></trkpt>
<trkpt lat="46.390408" lon="11.466044"><ele>1292.0</ele><time>2017-08-03T05:17:50Z</time></trkpt>
<trkpt lat="46.390734" lon="11.46618"><ele>1292.0</ele><time>2017-08-03T05:17:51Z</time></trkpt>
<trkpt lat="46.390969" lon="11.466232"><ele>1284.0</ele><time>2017-08-03T05:17:53Z</time></trkpt>
<trkpt lat="46.391111" lon="11.466211"><ele>1284.0</ele><time>2017-08-03T05:17:53Z</time></trkpt>
<trkpt lat="46.391244" lon="11.466149"><ele>1284.0</ele><time>2017-08-03T05:17:54Z</time></trkpt>
<trkpt lat="46.39169" lon="11.465815"><ele>1271.0</ele><time>2017-08-03T05:17:57Z</time></trkpt>
<trkpt lat="46.391832" lon="11.465624"><ele>1271.0</ele><time>2017-08-03T05:17:58Z</time></trkpt>
<trkpt lat="46.391923" lon="11.465357"><ele>1271.0</ele><time>2017-08-03T05:17:59Z</time></trkpt>
<trkpt lat="46.391887" lon="11.464907"><ele>1275.0</ele><time>2017-08-03T05:18:00Z</time></trkpt>
<trkpt lat="46.391706" lon="11.464142"><ele>1281.0</ele><time>2017-08-03T05:18:03Z</time></trkpt>
<trkpt lat="46.391686" lon="11.463524"><ele>1281.0</ele><time>2017-08-03T05:18:05Z</time></trkpt>
<trkpt lat="46.391911" lon="11.46255"><ele>1290.0</ele><time>2017-08-03T05:18:09Z</time></trkpt>
<trkpt lat="46.392365" lon="11.461229"><ele>1320.0</ele><time>2017-08-03T05:18:14Z</time></trkpt>
<trkpt lat="46.392472" lon="11.45995"><ele>1349.0</ele><time>2017-08-03T05:18:19Z</time></trkpt>
<trkpt lat="46.393059" lon="11.458771"><ele>1333.0</ele><time>2017-08-03T05:18:24Z</time></trkpt>
<trkpt lat="46.393213" lon="11.458588"><ele>1333.0</ele><time>2017-08-03T05:18:25Z</time></trkpt>
<trkpt lat="46.393344" lon="11.458507"><ele>1339.0</ele><time>2017-08-03T05:18:26Z</time></trkpt>
<trkpt lat="46.393435" lon="11.458478"><ele>1339.0</ele><time>2017-08-03T05:18:26Z</time></trkpt>
<trkpt lat="46.393582" lon="11.458502"><ele>1339.0</ele><time>2017-08-03T05:18:27Z</time></trkpt>
<trkpt lat="46.393731" lon="11.458595"><ele>1339.0</ele><time>2017-08-03T05:18:28Z</time></trkpt>
<trkpt lat="46.393894" lon="11.458814"><ele>1339.0</ele><time>2017-08-03T05:18:29Z</time></trkpt>
<trkpt lat="46.394295" lon="11.45922"><ele>1343.0</ele><time>2017-08-03T05:18:32Z</time></trkpt>
<trkpt lat="46.394428" lon="11.45933"><ele>1343.0</ele><time>2017-08-03T05:18:32Z</time></trkpt>
<trkpt lat="46.394555" lon="11.459371"><ele>1343.0</ele><time>2017-08-03T05:18:33Z</time></trkpt>
<trkpt lat="46.394665" lon="11.45935"><ele>1343.0</ele><time>2017-08-03T05:18:34Z</time></trkpt>
<trkpt lat="46.394768" lon="11.459274"><ele>1343.0</ele><time>2017-08-03T05:18:34Z</time></trkpt>
<trkpt lat="46.394842" lon="11.459168"><ele>1343.0</ele><time>2017-08-03T05:18:35Z</time></trkpt>
<trkpt lat="46.394914" lon="11.458996"><ele>1344.0</ele><time>2017-08-03T05:18:35Z</time></trkpt>
<trkpt lat="46.394977" lon="11.458682"><ele>1344.0</ele><time>2017-08-03T05:18:37Z</time></trkpt>
<trkpt lat="46.395301" lon="11.45755"><ele>1355.0</ele><time>2017-08-03T05:18:41Z</time></trkpt>
<trkpt lat="46.395448" lon="11.457107"><ele>1359.0</ele><time>2017-08-03T05:18:43Z</time></trkpt>
<trkpt lat="46.395598" lon="11.456855"><ele>1359.0</ele><time>2017-08-03T05:18:44Z</time></trkpt>
<trkpt lat="46.395771" lon="11.45669"><ele>1359.0</ele><time>2017-08-03T05:18:45Z</time></trkpt>
<trkpt lat="46.39616" lon="11.456445"><ele>1374.0</ele><time>2017-08-03T05:18:47Z</time></trkpt>
<trkpt lat="46.396667" lon="11.456071"><ele>1379.0</ele><time>2017-08-03T05:18:50Z</time></trkpt>
<trkpt lat="46.398224" lon="11.454748"><ele>1394.0</ele><time>2017-08-03T05:18:59Z</time></trkpt>
<trkpt lat="46.398691" lon="11.454499"><ele>1402.0</ele><time>2017-08-03T05:19:02Z</time></trkpt>
<trkpt lat="46.399726" lon="11.454249"><ele>1407.0</ele><time>2017-08-03T05:19:07Z</time></trkpt>
<trkpt lat="46.400452" lon="11.454121"><ele>1418.0</ele><time>2017-08-03T05:19:11Z</time></trkpt>
<trkpt lat="46.401553" lon="11.453999"><ele>1420.0</ele><time>2017-08-03T05:19:17Z</time></trkpt>
<trkpt lat="46.401688" lon="11.45394"><ele>1421.0</ele><time>2017-08-03T05:19:17Z</time></trkpt>
<trkpt lat="46.401847" lon="11.45384"><ele>1421.0</ele><time>2017-08-03T05:19:18Z</time></trkpt>
<trkpt lat="46.403009" lon="11.452686"><ele>1418.0</ele><time>2017-08-03T05:19:25Z</time></trkpt>
<trkpt lat="46.40318" lon="11.452322"><ele>1421.0</ele><time>2017-08-03T05:19:27Z</time></trkpt>
<trkpt lat="46.403327" lon="11.452076"><ele>1421.0</ele><time>2017-08-03T05:19:28Z</time></trkpt>
<trkpt lat="46.404123" lon="11.450146"><ele>1402.0</ele><time>2017-08-03T05:19:36Z</time></trkpt>
<trkpt lat="46.404225" lon="11.44994"><ele>1402.0</ele><time>2017-08-03T05:19:37Z</time></trkpt>
<trkpt lat="46.404433" lon="11.449699"><ele>1402.0</ele><time>2017-08-03T05:19:38Z</time></trkpt>
<trkpt lat="46.405207" lon="11.448942"><ele>1385.0</ele><time>2017-08-03T05:19:43Z</time></trkpt>
<trkpt lat="46.405328" lon="11.44875"><ele>1385.0</ele><time>2017-08-03T05:19:44Z</time></trkpt>
<trkpt lat="46.405411" lon="11.448546"><ele>1385.0</ele><time>2017-08-03T05:19:45Z</time></trkpt>
<trkpt lat="46.405627" lon="11.447848"><ele>1384.0</ele><time>2017-08-03T05:19:48Z</time></trkpt>
<trkpt lat="46.405793" lon="11.447419"><ele>1383.0</ele><time>2017-08-03T05:19:49Z</time></trkpt>
<trkpt lat="46.405945" lon="11.447092"><ele>1367.0</ele><time>2017-08-03T05:19:51Z</time></trkpt>
<trkpt lat="46.406636" lon="11.445956"><ele>1369.0</ele><time>2017-08-03T05:19:56Z</time></trkpt>
<trkpt lat="46.406729" lon="11.445823"><ele>1374.0</ele><time>2017-08-03T05:19:57Z</time></trkpt>
<trkpt lat="46.406847" lon="11.445712"><ele>1374.0</ele><time>2017-08-03T05:19:58Z</time></trkpt>
<trkpt lat="46.407075" lon="11.445561"><ele>1374.0</ele><time>2017-08-03T05:19:59Z</time></trkpt>
<trkpt lat="46.407519" lon="11.445432"><ele>1373.0</ele><time>2017-08-03T05:20:01Z</time></trkpt>
<trkpt lat="46.407714" lon="11.44535"><ele>1373.0</ele><time>2017-08-03T05:20:02Z</time></trkpt>
<trkpt lat="46.407909" lon="11.445206"><ele>1373.0</ele><time>2017-08-03T05:20:03Z</time></trkpt>
<trkpt lat="46.408088" lon="11.444927"><ele>1374.0</ele><time>2017-08-03T05:20:05Z</time></trkpt>
<trkpt lat="46.408144" lon="11.444783"><ele>1374.0</ele><time>2017-08-03T05:20:05Z</time></trkpt>
<trkpt lat="46.408242" lon="11.444419"><ele>1374.0</ele><time>2017-08-03T05:20:07Z</time></trkpt>
<trkpt lat="46.408259" lon="11.44408"><ele>1376.0</ele><time>2017-08-03T05:20:08Z</time></trkpt>
<trkpt lat="46.408276" lon="11.442277"><ele>1371.0</ele><time>2017-08-03T05:20:14Z</time></trkpt>
<trkpt lat="46.408292" lon="11.442165"><ele>1371.0</ele><time>2017-08-03T05:20:15Z</time></trkpt>
<trkpt lat="46.408403" lon="11.441869"><ele>1369.0</ele><time>2017-08-03T05:20:16Z</time></trkpt>
<trkpt lat="46.408537" lon="11.441718"><ele>1369.0</ele><time>2017-08-03T05:20:17Z</time></trkpt>
<trkpt lat="46.408992" lon="11.441353"><ele>1379.0</ele><time>2017-08-03T05:20:19Z</time></trkpt>
<trkpt lat="46.409215" lon="11.441069"><ele>1369.0</ele><time>2017-08-03T05:20:21Z</time></trkpt>
<trkpt lat="46.409564" lon="11.44038"><ele>1371.0</ele><time>2017-08-03T05:20:24Z</time></trkpt>
<trkpt lat="46.409744" lon="11.440061"><ele>1371.0</ele><time>2017-08-03T05:20:25Z</time></trkpt>
<trkpt lat="46.410158" lon="11.439506"><ele>1371.0</ele><time>2017-08-03T05:20:28Z</time></trkpt>
<trkpt lat="46.410266" lon="11.439309"><ele>1371.0</ele><time>2017-08-03T05:20:29Z</time></trkpt>
<trkpt lat="46.410373" lon="11.439018"><ele>1367.0</ele><time>2017-08-03T05:20:30Z</time></trkpt>
<trkpt lat="46.410454" lon="11.438547"><ele>1367.0</ele><time>2017-08-03T05:20:32Z</time></trkpt>
<trkpt lat="46.410565" lon="11.437457"><ele>1364.0</ele><time>2017-08-03T05:20:36Z</time></trkpt>
<trkpt lat="46.410574" lon="11.437002"><ele>1364.0</ele><time>2017-08-03T05:20:38Z</time></trkpt>
<trkpt lat="46.41052" lon="11.436661"><ele>1364.0</ele><time>2017-08-03T05:20:39Z</time></trkpt>
<trkpt lat="46.410575" lon="11.436599"><ele>1364.0</ele><time>2017-08-03T05:20:40Z</time></trkpt>
<trkpt lat="46.410598" lon="11.436503"><ele>1364.0</ele><time>2017-08-03T05:20:40Z</time></trkpt>
<trkpt lat="46.410574" lon="11.436387"><ele>1364.0</ele><time>2017-08-03T05:20:41Z</time></trkpt>
<trkpt lat="46.410538" lon="11.436339"><ele>1364.0</ele><time>2017-08-03T05:20:41Z</time></trkpt>
<trkpt lat="46.410493" lon="11.436315"><ele>1364.0</ele><time>2017-08-03T05:20:41Z</time></trkpt>
<trkpt lat="46.410448" lon="11.436317"><ele>1364.0</ele><time>2017-08-03T05:20:41Z</time></trkpt>
<trkpt lat="46.410374" lon="11.436384"><ele>1364.0</ele><time>2017-08-03T05:20:42Z</time></trkpt>
<trkpt lat="46.410273" lon="11.436269"><ele>1364.0</ele><time>2017-08-03T05:20:42Z</time></trkpt>
<trkpt lat="46.40976" lon="11.435155"><ele>1360.0</ele><time>2017-08-03T05:20:47Z</time></trkpt>
<trkpt lat="46.409303" lon="11.433925"><ele>1357.0</ele><time>2017-08-03T05:20:53Z</time></trkpt>
<trkpt lat="46.408621" lon="11.432242"><ele>1344.0</ele><time>2017-08-03T05:21:00Z</time></trkpt>
<trkpt lat="46.408369" lon="11.431739"><ele>1344.0</ele><time>2017-08-03T05:21:02Z</time></trkpt>
<trkpt lat="46.408231" lon="11.431515"><ele>1332.0</ele><time>2017-08-03T05:21:03Z</time></trkpt>
<trkpt lat="46.408155" lon="11.43144"><ele>1332.0</ele><time>2017-08-03T05:21:04Z</time></trkpt>
<trkpt lat="46.40795" lon="11.431301"><ele>1332.0</ele><time>2017-08-03T05:21:05Z</time></trkpt>
<trkpt lat="46.407733" lon="11.431228"><ele>1332.0</ele><time>2017-08-03T05:21:06Z</time></trkpt>
<trkpt lat="46.407447" lon="11.431219"><ele>1337.0</ele><time>2017-08-03T05:21:08Z</time></trkpt>
<trkpt lat="46.407222" lon="11.431265"><ele>1337.0</ele><time>2017-08-03T05:21:09Z</time></trkpt>
<trkpt lat="46.40708" lon="11.431256"><ele>1337.0</ele><time>2017-08-03T05:21:10Z</time></trkpt>
<trkpt lat="46.406873" lon="11.431117"><ele>1337.0</ele><time>2017-08-03T05:21:11Z</time></trkpt>
<trkpt lat="46.406436" lon="11.430537"><ele>1321.0</ele><time>2017-08-03T05:21:14Z</time></trkpt>
<trkpt lat="46.406357" lon="11.430483"><ele>1321.0</ele><time>2017-08-03T05:21:15Z</time></trkpt>
<trkpt lat="46.406262" lon="11.430453"><ele>1321.0</ele><time>2017-08-03T05:21:15Z</time></trkpt>
<trkpt lat="46.406174" lon="11.430477"><ele>1321.0</ele><time>2017-08-03T05:21:16Z</time></trkpt>
<trkpt lat="46.406034" lon="11.430585"><ele>1321.0</ele><time>2017-08-03T05:21:17Z</time></trkpt>
<trkpt lat="46.405843" lon="11.430803"><ele>1321.0</ele><time>2017-08-03T05:21:18Z</time></trkpt>
<trkpt lat="46.405747" lon="11.430819"><ele>1329.0</ele><time>2017-08-03T05:21:19Z</time></trkpt>
<trkpt lat="46.405653" lon="11.430749"><ele>1329.0</ele><time>2017-08-03T05:21:19Z</time></trkpt>
<trkpt lat="46.405576" lon="11.430357"><ele>1329.0</ele><time>2017-08-03T05:21:21Z</time></trkpt>
<trkpt lat="46.405486" lon="11.429685"><ele>1311.0</ele><time>2017-08-03T05:21:23Z</time></trkpt>
<trkpt lat="46.405438" lon="11.429503"><ele>1311.0</ele><time>2017-08-03T05:21:24Z</time></trkpt>
<trkpt lat="46.405344" lon="11.42933"><ele>1311.0</ele><time>2017-08-03T05:21:25Z</time></trkpt>
<trkpt lat="46.405263" lon="11.429262"><ele>1311.0</ele><time>2017-08-03T05:21:25Z</time></trkpt>
<trkpt lat="46.405169" lon="11.429223"><ele>1311.0</ele><time>2017-08-03T05:21:26Z</time></trkpt>
<trkpt lat="46.40498" lon="11.429221"><ele>1312.0</ele><time>2017-08-03T05:21:27Z</time></trkpt>
<trkpt lat="46.404875" lon="11.429284"><ele>1312.0</ele><time>2017-08-03T05:21:27Z</time></trkpt>
<trkpt lat="46.404733" lon="11.429473"><ele>1312.0</ele><time>2017-08-03T05:21:29Z</time></trkpt>
<trkpt lat="46.404184" lon="11.430317"><ele>1329.0</ele><time>2017-08-03T05:21:33Z</time></trkpt>
<trkpt lat="46.404068" lon="11.430433"><ele>1308.0</ele><time>2017-08-03T05:21:34Z</time></trkpt>
<trkpt lat="46.403392" lon="11.430939"><ele>1321.0</ele><time>2017-08-03T05:21:38Z</time></trkpt>
<trkpt lat="46.403341" lon="11.431026"><ele>1321.0</ele><time>2017-08-03T05:21:39Z</time></trkpt>
<trkpt lat="46.403136" lon="11.431715"><ele>1320.0</ele><time>2017-08-03T05:21:41Z</time></trkpt>
<trkpt lat="46.403067" lon="11.431812"><ele>1320.0</ele><time>2017-08-03T05:21:42Z</time></trkpt>
<trkpt lat="46.40298" lon="11.43185"><ele>1320.0</ele><time>2017-08-03T05:21:42Z</time></trkpt>
<trkpt lat="46.402905" lon="11.431841"><ele>1320.0</ele><time>2017-08-03T05:21:43Z</time></trkpt>
<trkpt lat="46.402842" lon="11.431787"><ele>1320.0</ele><time>2017-08-03T05:21:43Z</time></trkpt>
<trkpt lat="46.402671" lon="11.430898"><ele>1305.0</ele><time>2017-08-03T05:21:47Z</time></trkpt>
<trkpt lat="46.402595" lon="11.430676"><ele>1290.0</ele><time>2017-08-03T05:21:48Z</time></trkpt>
<trkpt lat="46.402458" lon="11.430505"><ele>1291.0</ele><time>2017-08-03T05:21:49Z</time></trkpt>
<trkpt lat="46.402281" lon="11.430407"><ele>1291.0</ele><time>2017-08-03T05:21:50Z</time></trkpt>
<trkpt lat="46.401928" lon="11.430376"><ele>1291.0</ele><time>2017-08-03T05:21:52Z</time></trkpt>
<trkpt lat="46.401231" lon="11.430371"><ele>1281.0</ele><time>2017-08-03T05:21:56Z</time></trkpt>
<trkpt lat="46.40107" lon="11.430406"><ele>1281.0</ele><time>2017-08-03T05:21:56Z</time></trkpt>
<trkpt lat="46.400703" lon="11.430611"><ele>1270.0</ele><time>2017-08-03T05:21:59Z</time></trkpt>
<trkpt lat="46.400589" lon="11.430706"><ele>1270.0</ele><time>2017-08-03T05:21:59Z</time></trkpt>
<trkpt lat="46.400158" lon="11.43131"><ele>1292.0</ele><time>2017-08-03T05:22:03Z</time></trkpt>
<trkpt lat="46.400056" lon="11.431417"><ele>1292.0</ele><time>2017-08-03T05:22:03Z</time></trkpt>
<trkpt lat="46.399718" lon="11.431621"><ele>1268.0</ele><time>2017-08-03T05:22:06Z</time></trkpt>
<trkpt lat="46.399626" lon="11.431742"><ele>1290.0</ele><time>2017-08-03T05:22:07Z</time></trkpt>
<trkpt lat="46.399552" lon="11.431886"><ele>1290.0</ele><time>2017-08-03T05:22:08Z</time></trkpt>
<trkpt lat="46.399501" lon="11.432088"><ele>1290.0</ele><time>2017-08-03T05:22:08Z</time></trkpt>
<trkpt lat="46.399456" lon="11.432571"><ele>1310.0</ele><time>2017-08-03T05:22:10Z</time></trkpt>
<trkpt lat="46.399419" lon="11.432693"><ele>1310.0</ele><time>2017-08-03T05:22:11Z</time></trkpt>
<trkpt lat="46.399339" lon="11.432798"><ele>1310.0</ele><time>2017-08-03T05:22:12Z</time></trkpt>
<trkpt lat="46.399114" lon="11.432843"><ele>1276.0</ele><time>2017-08-03T05:22:14Z</time></trkpt>
<trkpt lat="46.399028" lon="11.432912"><ele>1276.0</ele><time>2017-08-03T05:22:14Z</time></trkpt>
<trkpt lat="46.398824" lon="11.433183"><ele>1276.0</ele><time>2017-08-03T05:22:16Z</time></trkpt>
<trkpt lat="46.398671" lon="11.433471"><ele>1297.0</ele><time>2017-08-03T05:22:17Z</time></trkpt>
<trkpt lat="46.398596" lon="11.433535"><ele>1297.0</ele><time>2017-08-03T05:22:18Z</time></trkpt>
<trkpt lat="46.398519" lon="11.433547"><ele>1297.0</ele><time>2017-08-03T05:22:18Z</time></trkpt>
<trkpt lat="46.398444" lon="11.433511"><ele>1297.0</ele><time>2017-08-03T05:22:19Z</time></trkpt>
<trkpt lat="46.398375" lon="11.433416"><ele>1297.0</ele><time>2017-08-03T05:22:19Z</time></trkpt>
<trkpt lat="46.398202" lon="11.432469"><ele>1263.0</ele><time>2017-08-03T05:22:23Z</time></trkpt>
<trkpt lat="46.398139" lon="11.432225"><ele>1263.0</ele><time>2017-08-03T05:22:24Z</time></trkpt>
<trkpt lat="46.398115" lon="11.43183"><ele>1263.0</ele><time>2017-08-03T05:22:25Z</time></trkpt>
<trkpt lat="46.398127" lon="11.431142"><ele>1259.0</ele><time>2017-08-03T05:22:28Z</time></trkpt>
<trkpt lat="46.398092" lon="11.430989"><ele>1259.0</ele><time>2017-08-03T05:22:29Z</time></trkpt>
<trkpt lat="46.398039" lon="11.430889"><ele>1259.0</ele><time>2017-08-03T05:22:29Z</time></trkpt>
<trkpt lat="46.397945" lon="11.430765"><ele>1246.0</ele><time>2017-08-03T05:22:30Z</time></trkpt>
<trkpt lat="46.397855" lon="11.430719"><ele>1246.0</ele><time>2017-08-03T05:22:31Z</time></trkpt>
<trkpt lat="46.397568" lon="11.430769"><ele>1246.0</ele><time>2017-08-03T05:22:32Z</time></trkpt>
<trkpt lat="46.39737" lon="11.430829"><ele>1256.0</ele><time>2017-08-03T05:22:33Z</time></trkpt>
<trkpt lat="46.397192" lon="11.430842"><ele>1268.0</ele><time>2017-08-03T05:22:34Z</time></trkpt>
<trkpt lat="46.397076" lon="11.430814"><ele>1256.0</ele><time>2017-08-03T05:22:35Z</time></trkpt>
<trkpt lat="46.397001" lon="11.430737"><ele>1256.0</ele><time>2017-08-03T05:22:36Z</time></trkpt>
<trkpt lat="46.396967" lon="11.430636"><ele>1256.0</ele><time>2017-08-03T05:22:36Z</time></trkpt>
<trkpt lat="46.396962" lon="11.43049"><ele>1256.0</ele><time>2017-08-03T05:22:37Z</time></trkpt>
<trkpt lat="46.397222" lon="11.430023"><ele>1256.0</ele><time>2017-08-03T05:22:39Z</time></trkpt>
<trkpt lat="46.397353" lon="11.429741"><ele>1243.0</ele><time>2017-08-03T05:22:40Z</time></trkpt>
<trkpt lat="46.397402" lon="11.429564"><ele>1243.0</ele><time>2017-08-03T05:22:41Z</time></trkpt>
<trkpt lat="46.397416" lon="11.429364"><ele>1243.0</ele><time>2017-08-03T05:22:42Z</time></trkpt>
<trkpt lat="46.397391" lon="11.429131"><ele>1224.0</ele><time>2017-08-03T05:22:43Z</time></trkpt>
<trkpt lat="46.397353" lon="11.428986"><ele>1224.0</ele><time>2017-08-03T05:22:44Z</time></trkpt>
<trkpt lat="46.397162" lon="11.428585"><ele>1224.0</ele><time>2017-08-03T05:22:45Z</time></trkpt>
<trkpt lat="46.397128" lon="11.42839"><ele>1224.0</ele><time>2017-08-03T05:22:46Z</time></trkpt>
<trkpt lat="46.397131" lon="11.428102"><ele>1209.0</ele><time>2017-08-03T05:22:47Z</time></trkpt>
<trkpt lat="46.397163" lon="11.427853"><ele>1209.0</ele><time>2017-08-03T05:22:48Z</time></trkpt>
<trkpt lat="46.397149" lon="11.427689"><ele>1209.0</ele><time>2017-08-03T05:22:49Z</time></trkpt>
<trkpt lat="46.397028" lon="11.427323"><ele>1229.0</ele><time>2017-08-03T05:22:51Z</time></trkpt>
<trkpt lat="46.39696" lon="11.427029"><ele>1229.0</ele><time>2017-08-03T05:22:52Z</time></trkpt>
<trkpt lat="46.396951" lon="11.426899"><ele>1229.0</ele><time>2017-08-03T05:22:52Z</time></trkpt>
<trkpt lat="46.396979" lon="11.426581"><ele>1276.0</ele><time>2017-08-03T05:22:55Z</time></trkpt>
<trkpt lat="46.397008" lon="11.426472"><ele>1276.0</ele><time>2017-08-03T05:22:55Z</time></trkpt>
<trkpt lat="46.397079" lon="11.426357"><ele>1276.0</ele><time>2017-08-03T05:22:56Z</time></trkpt>
<trkpt lat="46.397236" lon="11.426223"><ele>1276.0</ele><time>2017-08-03T05:22:57Z</time></trkpt>
<trkpt lat="46.397417" lon="11.426148"><ele>1276.0</ele><time>2017-08-03T05:22:58Z</time></trkpt>
<trkpt lat="46.397634" lon="11.426122"><ele>1280.0</ele><time>2017-08-03T05:22:59Z</time></trkpt>
<trkpt lat="46.398231" lon="11.426143"><ele>1280.0</ele><time>2017-08-03T05:23:02Z</time></trkpt>
<trkpt lat="46.398662" lon="11.426208"><ele>1267.0</ele><time>2017-08-03T05:23:05Z</time></trkpt>
<trkpt lat="46.398754" lon="11.426182"><ele>1267.0</ele><time>2017-08-03T05:23:05Z</time></trkpt>
<trkpt lat="46.399311" lon="11.425737"><ele>1264.0</ele><time>2017-08-03T05:23:09Z</time></trkpt>
<trkpt lat="46.399659" lon="11.425515"><ele>1264.0</ele><time>2017-08-03T05:23:11Z</time></trkpt>
<trkpt lat="46.399912" lon="11.425276"><ele>1264.0</ele><time>2017-08-03T05:23:12Z</time></trkpt>
<trkpt lat="46.400027" lon="11.425047"><ele>1201.0</ele><time>2017-08-03T05:23:16Z</time></trkpt>
<trkpt lat="46.400044" lon="11.424804"><ele>1217.0</ele><time>2017-08-03T05:23:17Z</time></trkpt>
<trkpt lat="46.399974" lon="11.424285"><ele>1283.0</ele><time>2017-08-03T05:23:20Z</time></trkpt>
<trkpt lat="46.399999" lon="11.423995"><ele>1295.0</ele><time>2017-08-03T05:23:22Z</time></trkpt>
<trkpt lat="46.400089" lon="11.42381"><ele>1233.0</ele><time>2017-08-03T05:23:25Z</time></trkpt>
<trkpt lat="46.40025" lon="11.423629"><ele>1233.0</ele><time>2017-08-03T05:23:26Z</time></trkpt>
<trkpt lat="46.400363" lon="11.423355"><ele>1233.0</ele><time>2017-08-03T05:23:27Z</time></trkpt>
<trkpt lat="46.400436" lon="11.423121"><ele>1237.0</ele><time>2017-08-03T05:23:28Z</time></trkpt>
<trkpt lat="46.400454" lon="11.422934"><ele>1237.0</ele><time>2017-08-03T05:23:29Z</time></trkpt>
<trkpt lat="46.400278" lon="11.422135"><ele>1249.0</ele><time>2017-08-03T05:23:32Z</time></trkpt>
<trkpt lat="46.400267" lon="11.421923"><ele>1249.0</ele><time>2017-08-03T05:23:33Z</time></trkpt>
<trkpt lat="46.400298" lon="11.421702"><ele>1249.0</ele><time>2017-08-03T05:23:33Z</time></trkpt>
<trkpt lat="46.400398" lon="11.421369"><ele>1265.0</ele><time>2017-08-03T05:23:35Z</time></trkpt>
<trkpt lat="46.400476" lon="11.421047"><ele>1265.0</ele><time>2017-08-03T05:23:36Z</time></trkpt>
<trkpt lat="46.400466" lon="11.420628"><ele>1284.0</ele><time>2017-08-03T05:23:38Z</time></trkpt>
<trkpt lat="46.400506" lon="11.420454"><ele>1284.0</ele><time>2017-08-03T05:23:39Z</time></trkpt>
<trkpt lat="46.400736" lon="11.420271"><ele>1284.0</ele><time>2017-08-03T05:23:40Z</time></trkpt>
<trkpt lat="46.401065" lon="11.420288"><ele>1272.0</ele><time>2017-08-03T05:23:42Z</time></trkpt>
<trkpt lat="46.401531" lon="11.420381"><ele>1272.0</ele><time>2017-08-03T05:23:45Z</time></trkpt>
<trkpt lat="46.401741" lon="11.420318"><ele>1248.0</ele><time>2017-08-03T05:23:46Z</time></trkpt>
<trkpt lat="46.401809" lon="11.420216"><ele>1248.0</ele><time>2017-08-03T05:23:47Z</time></trkpt>
<trkpt lat="46.401865" lon="11.420073"><ele>1248.0</ele><time>2017-08-03T05:23:47Z</time></trkpt>
<trkpt lat="46.401929" lon="11.417896"><ele>1261.0</ele><time>2017-08-03T05:23:55Z</time></trkpt>
<trkpt lat="46.401979" lon="11.417584"><ele>1261.0</ele><time>2017-08-03T05:23:57Z</time></trkpt>
<trkpt lat="46.40219" lon="11.416573"><ele>1265.0</ele><time>2017-08-03T05:24:01Z</time></trkpt>
<trkpt lat="46.402198" lon="11.41632"><ele>1265.0</ele><time>2017-08-03T05:24:01Z</time></trkpt>
<trkpt lat="46.402152" lon="11.416107"><ele>1265.0</ele><time>2017-08-03T05:24:02Z</time></trkpt>
<trkpt lat="46.401946" lon="11.415549"><ele>1262.0</ele><time>2017-08-03T05:24:05Z</time></trkpt>
<trkpt lat="46.401424" lon="11.414442"><ele>1279.0</ele><time>2017-08-03T05:24:10Z</time></trkpt>
<trkpt lat="46.400422" lon="11.412783"><ele>1291.0</ele><time>2017-08-03T05:24:18Z</time></trkpt>
<trkpt lat="46.400239" lon="11.412105"><ele>1288.0</ele><time>2017-08-03T05:24:21Z</time></trkpt>
<trkpt lat="46.400035" lon="11.411162"><ele>1302.0</ele><time>2017-08-03T05:24:24Z</time></trkpt>
<trkpt lat="46.400047" lon="11.410783"><ele>1325.0</ele><time>2017-08-03T05:24:26Z</time></trkpt>
<trkpt lat="46.400172" lon="11.410571"><ele>1325.0</ele><time>2017-08-03T05:24:27Z</time></trkpt>
<trkpt lat="46.40029" lon="11.410455"><ele>1325.0</ele><time>2017-08-03T05:24:28Z</time></trkpt>
<trkpt lat="46.400436" lon="11.410407"><ele>1325.0</ele><time>2017-08-03T05:24:29Z</time></trkpt>
<trkpt lat="46.400609" lon="11.410389"><ele>1325.0</ele><time>2017-08-03T05:24:30Z</time></trkpt>
<trkpt lat="46.4008" lon="11.410305"><ele>1325.0</ele><time>2017-08-03T05:24:31Z</time></trkpt>
<trkpt lat="46.400899" lon="11.41016"><ele>1312.0</ele><time>2017-08-03T05:24:32Z</time></trkpt>
<trkpt lat="46.401293" lon="11.409276"><ele>1328.0</ele><time>2017-08-03T05:24:36Z</time></trkpt>
<trkpt lat="46.401352" lon="11.408998"><ele>1322.0</ele><time>2017-08-03T05:24:37Z</time></trkpt>
<trkpt lat="46.401341" lon="11.408723"><ele>1322.0</ele><time>2017-08-03T05:24:38Z</time></trkpt>
<trkpt lat="46.40126" lon="11.408382"><ele>1322.0</ele><time>2017-08-03T05:24:39Z</time></trkpt>
<trkpt lat="46.401094" lon="11.407923"><ele>1318.0</ele><time>2017-08-03T05:24:41Z</time></trkpt>
<trkpt lat="46.40084" lon="11.407141"><ele>1323.0</ele><time>2017-08-03T05:24:44Z</time></trkpt>
<trkpt lat="46.400621" lon="11.406573"><ele>1321.0</ele><time>2017-08-03T05:24:47Z</time></trkpt>
<trkpt lat="46.400385" lon="11.406111"><ele>1321.0</ele><time>2017-08-03T05:24:49Z</time></trkpt>
<trkpt lat="46.400338" lon="11.405975"><ele>1321.0</ele><time>2017-08-03T05:24:49Z</time></trkpt>
<trkpt lat="46.400324" lon="11.405627"><ele>1338.0</ele><time>2017-08-03T05:24:51Z</time></trkpt>
<trkpt lat="46.400354" lon="11.405458"><ele>1338.0</ele><time>2017-08-03T05:24:51Z</time></trkpt>
<trkpt lat="46.400426" lon="11.405257"><ele>1338.0</ele><time>2017-08-03T05:24:52Z</time></trkpt>
<trkpt lat="46.400992" lon="11.404264"><ele>1328.0</ele><time>2017-08-03T05:24:57Z</time></trkpt>
<trkpt lat="46.401399" lon="11.403479"><ele>1354.0</ele><time>2017-08-03T05:25:01Z</time></trkpt>
<trkpt lat="46.401685" lon="11.402885"><ele>1356.0</ele><time>2017-08-03T05:25:04Z</time></trkpt>
<trkpt lat="46.40183" lon="11.402443"><ele>1359.0</ele><time>2017-08-03T05:25:05Z</time></trkpt>
<trkpt lat="46.401878" lon="11.402077"><ele>1359.0</ele><time>2017-08-03T05:25:07Z</time></trkpt>
<trkpt lat="46.401885" lon="11.401822"><ele>1359.0</ele><time>2017-08-03T05:25:08Z</time></trkpt>
<trkpt lat="46.401854" lon="11.401397"><ele>1351.0</ele><time>2017-08-03T05:25:09Z</time></trkpt>
<trkpt lat="46.401803" lon="11.401039"><ele>1351.0</ele><time>2017-08-03T05:25:11Z</time></trkpt>
<trkpt lat="46.40167" lon="11.40061"><ele>1330.0</ele><time>2017-08-03T05:25:13Z</time></trkpt>
<trkpt lat="46.401471" lon="11.400231"><ele>1360.0</ele><time>2017-08-03T05:25:15Z</time></trkpt>
<trkpt lat="46.401202" lon="11.39988"><ele>1354.0</ele><time>2017-08-03T05:25:17Z</time></trkpt>
<trkpt lat="46.400904" lon="11.39962"><ele>1354.0</ele><time>2017-08-03T05:25:19Z</time></trkpt>
<trkpt lat="46.399751" lon="11.398977"><ele>1368.0</ele><time>2017-08-03T05:25:25Z</time></trkpt>
<trkpt lat="46.399443" lon="11.398779"><ele>1368.0</ele><time>2017-08-03T05:25:27Z</time></trkpt>
<trkpt lat="46.399278" lon="11.398558"><ele>1368.0</ele><time>2017-08-03T05:25:29Z</time></trkpt>
<trkpt lat="46.399154" lon="11.398262"><ele>1376.0</ele><time>2017-08-03T05:25:30Z</time></trkpt>
<trkpt lat="46.399046" lon="11.397879"><ele>1376.0</ele><time>2017-08-03T05:25:31Z</time></trkpt>
<trkpt lat="46.398864" lon="11.397336"><ele>1375.0</ele><time>2017-08-03T05:25:34Z</time></trkpt>
<trkpt lat="46.398237" lon="11.39632"><ele>1370.0</ele><time>2017-08-03T05:25:39Z</time></trkpt>
<trkpt lat="46.397885" lon="11.395704"><ele>1363.0</ele><time>2017-08-03T05:25:42Z</time></trkpt>
<trkpt lat="46.397791" lon="11.39539"><ele>1363.0</ele><time>2017-08-03T05:25:43Z</time></trkpt>
<trkpt lat="46.397642" lon="11.394659"><ele>1352.0</ele><time>2017-08-03T05:25:46Z</time></trkpt>
<trkpt lat="46.397466" lon="11.394261"><ele>1375.0</ele><time>2017-08-03T05:25:48Z</time></trkpt>
<trkpt lat="46.397282" lon="11.39395"><ele>1364.0</ele><time>2017-08-03T05:25:49Z</time></trkpt>
<trkpt lat="46.397048" lon="11.393732"><ele>1364.0</ele><time>2017-08-03T05:25:51Z</time></trkpt>
<trkpt lat="46.396929" lon="11.393654"><ele>1364.0</ele><time>2017-08-03T05:25:52Z</time></trkpt>
<trkpt lat="46.39651" lon="11.393377"><ele>1383.0</ele><time>2017-08-03T05:25:55Z</time></trkpt>
<trkpt lat="46.39665" lon="11.392845"><ele>1386.0</ele><time>2017-08-03T05:25:57Z</time></trkpt>
<trkpt lat="46.396673" lon="11.392499"><ele>1375.0</ele><time>2017-08-03T05:25:59Z</time></trkpt>
<trkpt lat="46.396529" lon="11.391511"><ele>1383.0</ele><time>2017-08-03T05:26:02Z</time></trkpt>
<trkpt lat="46.396587" lon="11.390986"><ele>1383.0</ele><time>2017-08-03T05:26:04Z</time></trkpt>
<trkpt lat="46.396685" lon="11.390631"><ele>1373.0</ele><time>2017-08-03T05:26:06Z</time></trkpt>
<trkpt lat="46.396839" lon="11.390219"><ele>1373.0</ele><time>2017-08-03T05:26:07Z</time></trkpt>
<trkpt lat="46.396947" lon="11.389847"><ele>1375.0</ele><time>2017-08-03T05:26:09Z</time></trkpt>
<trkpt lat="46.396976" lon="11.389505"><ele>1375.0</ele><time>2017-08-03T05:26:10Z</time></trkpt>
<trkpt lat="46.396923" lon="11.388904"><ele>1369.0</ele><time>2017-08-03T05:26:12Z</time></trkpt>
<trkpt lat="46.396796" lon="11.388123"><ele>1372.0</ele><time>2017-08-03T05:26:15Z</time></trkpt>
<trkpt lat="46.396723" lon="11.387457"><ele>1369.0</ele><time>2017-08-03T05:26:17Z</time></trkpt>
<trkpt lat="46.396578" lon="11.386862"><ele>1370.0</ele><time>2017-08-03T05:26:19Z</time></trkpt>
<trkpt lat="46.396365" lon="11.386297"><ele>1366.0</ele><time>2017-08-03T05:26:22Z</time></trkpt>
<trkpt lat="46.39542" lon="11.38487"><ele>1361.0</ele><time>2017-08-03T05:26:29Z</time></trkpt>
<trkpt lat="46.394922" lon="11.384308"><ele>1356.0</ele><time>2017-08-03T05:26:32Z</time></trkpt>
<trkpt lat="46.393986" lon="11.383175"><ele>1353.0</ele><time>2017-08-03T05:26:38Z</time></trkpt>
<trkpt lat="46.393566" lon="11.382764"><ele>1353.0</ele><time>2017-08-03T05:26:41Z</time></trkpt>
<trkpt lat="46.392774" lon="11.382162"><ele>1344.0</ele><time>2017-08-03T05:26:45Z</time></trkpt>
<trkpt lat="46.3922" lon="11.381587"><ele>1341.0</ele><time>2017-08-03T05:26:49Z</time></trkpt>
<trkpt lat="46.390119" lon="11.379255"><ele>1321.0</ele><time>2017-08-03T05:27:03Z</time></trkpt>
<trkpt lat="46.389585" lon="11.378679"><ele>1309.0</ele><time>2017-08-03T05:27:06Z</time></trkpt>
<trkpt lat="46.387973" lon="11.377098"><ele>1291.0</ele><time>2017-08-03T05:27:16Z</time></trkpt>
<trkpt lat="46.387757" lon="11.376948"><ele>1291.0</ele><time>2017-08-03T05:27:17Z</time></trkpt>
<trkpt lat="46.387514" lon="11.376828"><ele>1291.0</ele><time>2017-08-03T05:27:19Z</time></trkpt>
<trkpt lat="46.387177" lon="11.376765"><ele>1294.0</ele><time>2017-08-03T05:27:20Z</time></trkpt>
<trkpt lat="46.386108" lon="11.376771"><ele>1286.0</ele><time>2017-08-03T05:27:26Z</time></trkpt>
<trkpt lat="46.385972" lon="11.376751"><ele>1286.0</ele><time>2017-08-03T05:27:27Z</time></trkpt>
<trkpt lat="46.385758" lon="11.376624"><ele>1277.0</ele><time>2017-08-03T05:27:28Z</time></trkpt>
<trkpt lat="46.385607" lon="11.376459"><ele>1277.0</ele><time>2017-08-03T05:27:29Z</time></trkpt>
<trkpt lat="46.385365" lon="11.376021"><ele>1277.0</ele><time>2017-08-03T05:27:31Z</time></trkpt>
<trkpt lat="46.385277" lon="11.375802"><ele>1270.0</ele><time>2017-08-03T05:27:32Z</time></trkpt>
<trkpt lat="46.385231" lon="11.375605"><ele>1270.0</ele><time>2017-08-03T05:27:32Z</time></trkpt>
<trkpt lat="46.385206" lon="11.375411"><ele>1270.0</ele><time>2017-08-03T05:27:33Z</time></trkpt>
<trkpt lat="46.385175" lon="11.373348"><ele>1286.0</ele><time>2017-08-03T05:27:40Z</time></trkpt>
<trkpt lat="46.385099" lon="11.372874"><ele>1284.0</ele><time>2017-08-03T05:27:42Z</time></trkpt>
<trkpt lat="46.385016" lon="11.372655"><ele>1284.0</ele><time>2017-08-03T05:27:43Z</time></trkpt>
<trkpt lat="46.384907" lon="11.372471"><ele>1289.0</ele><time>2017-08-03T05:27:44Z</time></trkpt>
<trkpt lat="46.38471" lon="11.372249"><ele>1289.0</ele><time>2017-08-03T05:27:45Z</time></trkpt>
<trkpt lat="46.384042" lon="11.371773"><ele>1302.0</ele><time>2017-08-03T05:27:49Z</time></trkpt>
<trkpt lat="46.383842" lon="11.371562"><ele>1303.0</ele><time>2017-08-03T05:27:50Z</time></trkpt>
<trkpt lat="46.383636" lon="11.371232"><ele>1303.0</ele><time>2017-08-03T05:27:52Z</time></trkpt>
<trkpt lat="46.383073" lon="11.370007"><ele>1299.0</ele><time>2017-08-03T05:27:57Z</time></trkpt>
<trkpt lat="46.382928" lon="11.369822"><ele>1295.0</ele><time>2017-08-03T05:27:58Z</time></trkpt>
<trkpt lat="46.382831" lon="11.369736"><ele>1295.0</ele><time>2017-08-03T05:27:59Z</time></trkpt>
<trkpt lat="46.382653" lon="11.36964"><ele>1295.0</ele><time>2017-08-03T05:28:00Z</time></trkpt>
<trkpt lat="46.382492" lon="11.369602"><ele>1300.0</ele><time>2017-08-03T05:28:01Z</time></trkpt>
<trkpt lat="46.381222" lon="11.3696"><ele>1293.0</ele><time>2017-08-03T05:28:07Z</time></trkpt>
<trkpt lat="46.380975" lon="11.36956"><ele>1293.0</ele><time>2017-08-03T05:28:08Z</time></trkpt>
<trkpt lat="46.380875" lon="11.369508"><ele>1293.0</ele><time>2017-08-03T05:28:09Z</time></trkpt>
<trkpt lat="46.380677" lon="11.369356"><ele>1285.0</ele><time>2017-08-03T05:28:10Z</time></trkpt>
<trkpt lat="46.380524" lon="11.369171"><ele>1285.0</ele><time>2017-08-03T05:28:11Z</time></trkpt>
<trkpt lat="46.38043" lon="11.369013"><ele>1280.0</ele><time>2017-08-03T05:28:12Z</time></trkpt>
<trkpt lat="46.379755" lon="11.367657"><ele>1286.0</ele><time>2017-08-03T05:28:18Z</time></trkpt>
<trkpt lat="46.379577" lon="11.367408"><ele>1277.0</ele><time>2017-08-03T05:28:19Z</time></trkpt>
<trkpt lat="46.379406" lon="11.367225"><ele>1277.0</ele><time>2017-08-03T05:28:20Z</time></trkpt>
<trkpt lat="46.378719" lon="11.366586"><ele>1275.0</ele><time>2017-08-03T05:28:25Z</time></trkpt>
<trkpt lat="46.378407" lon="11.366346"><ele>1275.0</ele><time>2017-08-03T05:28:26Z</time></trkpt>
<trkpt lat="46.378149" lon="11.366201"><ele>1282.0</ele><time>2017-08-03T05:28:28Z</time></trkpt>
<trkpt lat="46.377992" lon="11.366134"><ele>1282.0</ele><time>2017-08-03T05:28:29Z</time></trkpt>
<trkpt lat="46.376255" lon="11.365526"><ele>1283.0</ele><time>2017-08-03T05:28:38Z</time></trkpt>
<trkpt lat="46.376017" lon="11.365473"><ele>1283.0</ele><time>2017-08-03T05:28:39Z</time></trkpt>
<trkpt lat="46.375537" lon="11.365434"><ele>1284.0</ele><time>2017-08-03T05:28:41Z</time></trkpt>
<trkpt lat="46.375405" lon="11.365398"><ele>1284.0</ele><time>2017-08-03T05:28:42Z</time></trkpt>
<trkpt lat="46.375225" lon="11.365298"><ele>1284.0</ele><time>2017-08-03T05:28:43Z</time></trkpt>
<trkpt lat="46.375127" lon="11.36522"><ele>1284.0</ele><time>2017-08-03T05:28:44Z</time></trkpt>
<trkpt lat="46.374998" lon="11.365075"><ele>1287.0</ele><time>2017-08-03T05:28:45Z</time></trkpt>
<trkpt lat="46.374928" lon="11.364967"><ele>1287.0</ele><time>2017-08-03T05:28:45Z</time></trkpt>
<trkpt lat="46.374796" lon="11.364679"><ele>1287.0</ele><time>2017-08-03T05:28:46Z</time></trkpt>
<trkpt lat="46.373816" lon="11.362287"><ele>1286.0</ele><time>2017-08-03T05:28:56Z</time></trkpt>
<trkpt lat="46.373723" lon="11.362104"><ele>1286.0</ele><time>2017-08-03T05:28:57Z</time></trkpt>
<trkpt lat="46.37365" lon="11.361997"><ele>1286.0</ele><time>2017-08-03T05:28:58Z</time></trkpt>
<trkpt lat="46.373446" lon="11.361785"><ele>1286.0</ele><time>2017-08-03T05:28:59Z</time></trkpt>
<trkpt lat="46.371974" lon="11.36088"><ele>1288.0</ele><time>2017-08-03T05:29:07Z</time></trkpt>
<trkpt lat="46.371736" lon="11.360755"><ele>1288.0</ele><time>2017-08-03T05:29:08Z</time></trkpt>
<trkpt lat="46.371517" lon="11.360674"><ele>1278.0</ele><time>2017-08-03T05:29:10Z</time></trkpt>
<trkpt lat="46.371385" lon="11.360647"><ele>1278.0</ele><time>2017-08-03T05:29:10Z</time></trkpt>
<trkpt lat="46.371099" lon="11.360639"><ele>1278.0</ele><time>2017-08-03T05:29:12Z</time></trkpt>
<trkpt lat="46.37083" lon="11.360703"><ele>1274.0</ele><time>2017-08-03T05:29:13Z</time></trkpt>
<trkpt lat="46.368837" lon="11.361336"><ele>1271.0</ele><time>2017-08-03T05:29:24Z</time></trkpt>
<trkpt lat="46.368662" lon="11.361345"><ele>1271.0</ele><time>2017-08-03T05:29:24Z</time></trkpt>
<trkpt lat="46.368563" lon="11.361332"><ele>1271.0</ele><time>2017-08-03T05:29:25Z</time></trkpt>
<trkpt lat="46.368351" lon="11.36124"><ele>1271.0</ele><time>2017-08-03T05:29:26Z</time></trkpt>
<trkpt lat="46.367749" lon="11.360826"><ele>1260.0</ele><time>2017-08-03T05:29:30Z</time></trkpt>
<trkpt lat="46.367617" lon="11.360662"><ele>1260.0</ele><time>2017-08-03T05:29:30Z</time></trkpt>
<trkpt lat="46.367543" lon="11.360517"><ele>1260.0</ele><time>2017-08-03T05:29:31Z</time></trkpt>
<trkpt lat="46.367444" lon="11.360251"><ele>1241.0</ele><time>2017-08-03T05:29:33Z</time></trkpt>
<trkpt lat="46.367389" lon="11.359976"><ele>1231.0</ele><time>2017-08-03T05:29:34Z</time></trkpt>
<trkpt lat="46.367334" lon="11.358887"><ele>1225.0</ele><time>2017-08-03T05:29:37Z</time></trkpt>
<trkpt lat="46.367336" lon="11.358654"><ele>1225.0</ele><time>2017-08-03T05:29:38Z</time></trkpt>
<trkpt lat="46.367368" lon="11.358176"><ele>1214.0</ele><time>2017-08-03T05:29:40Z</time></trkpt>
<trkpt lat="46.367412" lon="11.357832"><ele>1214.0</ele><time>2017-08-03T05:29:41Z</time></trkpt>
<trkpt lat="46.367436" lon="11.357744"><ele>1214.0</ele><time>2017-08-03T05:29:42Z</time></trkpt>
<trkpt lat="46.367471" lon="11.357648"><ele>1214.0</ele><time>2017-08-03T05:29:42Z</time></trkpt>
<trkpt lat="46.367534" lon="11.357547"><ele>1228.0</ele><time>2017-08-03T05:29:43Z</time></trkpt>
<trkpt lat="46.36765" lon="11.35744"><ele>1213.0</ele><time>2017-08-03T05:29:44Z</time></trkpt>
<trkpt lat="46.368154" lon="11.357178"><ele>1213.0</ele><time>2017-08-03T05:29:47Z</time></trkpt>
<trkpt lat="46.368248" lon="11.357101"><ele>1213.0</ele><time>2017-08-03T05:29:47Z</time></trkpt>
<trkpt lat="46.368806" lon="11.356451"><ele>1200.0</ele><time>2017-08-03T05:29:51Z</time></trkpt>
<trkpt lat="46.369209" lon="11.355928"><ele>1215.0</ele><time>2017-08-03T05:29:54Z</time></trkpt>
<trkpt lat="46.369288" lon="11.355798"><ele>1197.0</ele><time>2017-08-03T05:29:55Z</time></trkpt>
<trkpt lat="46.369417" lon="11.355472"><ele>1197.0</ele><time>2017-08-03T05:29:56Z</time></trkpt>
<trkpt lat="46.369485" lon="11.355158"><ele>1197.0</ele><time>2017-08-03T05:29:57Z</time></trkpt>
<trkpt lat="46.369534" lon="11.354839"><ele>1196.0</ele><time>2017-08-03T05:29:58Z</time></trkpt>
<trkpt lat="46.369554" lon="11.354635"><ele>1196.0</ele><time>2017-08-03T05:29:59Z</time></trkpt>
<trkpt lat="46.369571" lon="11.354107"><ele>1198.0</ele><time>2017-08-03T05:30:01Z</time></trkpt>
<trkpt lat="46.369565" lon="11.353831"><ele>1198.0</ele><time>2017-08-03T05:30:02Z</time></trkpt>
<trkpt lat="46.369548" lon="11.353718"><ele>1198.0</ele><time>2017-08-03T05:30:02Z</time></trkpt>
<trkpt lat="46.369484" lon="11.35352"><ele>1198.0</ele><time>2017-08-03T05:30:03Z</time></trkpt>
<trkpt lat="46.369379" lon="11.353378"><ele>1198.0</ele><time>2017-08-03T05:30:04Z</time></trkpt>
<trkpt lat="46.369192" lon="11.353268"><ele>1186.0</ele><time>2017-08-03T05:30:05Z</time></trkpt>
<trkpt lat="46.368799" lon="11.35311"><ele>1187.0</ele><time>2017-08-03T05:30:07Z</time></trkpt>
<trkpt lat="46.368611" lon="11.352974"><ele>1187.0</ele><time>2017-08-03T05:30:08Z</time></trkpt>
<trkpt lat="46.368459" lon="11.352781"><ele>1187.0</ele><time>2017-08-03T05:30:09Z</time></trkpt>
<trkpt lat="46.36837" lon="11.352613"><ele>1187.0</ele><time>2017-08-03T05:30:10Z</time></trkpt>
<trkpt lat="46.368072" lon="11.35194"><ele>1182.0</ele><time>2017-08-03T05:30:13Z</time></trkpt>
<trkpt lat="46.367868" lon="11.351616"><ele>1172.0</ele><time>2017-08-03T05:30:15Z</time></trkpt>
<trkpt lat="46.367408" lon="11.351038"><ele>1175.0</ele><time>2017-08-03T05:30:18Z</time></trkpt>
<trkpt lat="46.367321" lon="11.350877"><ele>1175.0</ele><time>2017-08-03T05:30:18Z</time></trkpt>
<trkpt lat="46.36694" lon="11.350015"><ele>1176.0</ele><time>2017-08-03T05:30:22Z</time></trkpt>
<trkpt lat="46.366845" lon="11.349706"><ele>1177.0</ele><time>2017-08-03T05:30:23Z</time></trkpt>
<trkpt lat="46.366806" lon="11.349397"><ele>1177.0</ele><time>2017-08-03T05:30:24Z</time></trkpt>
<trkpt lat="46.366852" lon="11.348989"><ele>1176.0</ele><time>2017-08-03T05:30:26Z</time></trkpt>
<trkpt lat="46.366973" lon="11.348636"><ele>1176.0</ele><time>2017-08-03T05:30:27Z</time></trkpt>
<trkpt lat="46.367241" lon="11.348137"><ele>1175.0</ele><time>2017-08-03T05:30:29Z</time></trkpt>
<trkpt lat="46.367364" lon="11.347866"><ele>1175.0</ele><time>2017-08-03T05:30:31Z</time></trkpt>
<trkpt lat="46.36747" lon="11.347479"><ele>1177.0</ele><time>2017-08-03T05:30:32Z</time></trkpt>
<trkpt lat="46.36773" lon="11.34617"><ele>1161.0</ele><time>2017-08-03T05:30:37Z</time></trkpt>
<trkpt lat="46.367757" lon="11.345793"><ele>1153.0</ele><time>2017-08-03T05:30:38Z</time></trkpt>
<trkpt lat="46.367697" lon="11.34541"><ele>1153.0</ele><time>2017-08-03T05:30:40Z</time></trkpt>
<trkpt lat="46.367356" lon="11.343723"><ele>1144.0</ele><time>2017-08-03T05:30:46Z</time></trkpt>
<trkpt lat="46.367189" lon="11.343019"><ele>1136.0</ele><time>2017-08-03T05:30:49Z</time></trkpt>
<trkpt lat="46.367038" lon="11.342707"><ele>1136.0</ele><time>2017-08-03T05:30:50Z</time></trkpt>
<trkpt lat="46.366316" lon="11.341402"><ele>1123.0</ele><time>2017-08-03T05:30:56Z</time></trkpt>
<trkpt lat="46.366201" lon="11.341238"><ele>1123.0</ele><time>2017-08-03T05:30:57Z</time></trkpt>
<trkpt lat="46.366061" lon="11.341088"><ele>1123.0</ele><time>2017-08-03T05:30:58Z</time></trkpt>
<trkpt lat="46.365626" lon="11.340736"><ele>1114.0</ele><time>2017-08-03T05:31:00Z</time></trkpt>
<trkpt lat="46.365569" lon="11.340671"><ele>1114.0</ele><time>2017-08-03T05:31:01Z</time></trkpt>
<trkpt lat="46.365289" lon="11.340154"><ele>1114.0</ele><time>2017-08-03T05:31:03Z</time></trkpt>
<trkpt lat="46.364784" lon="11.339475"><ele>1105.0</ele><time>2017-08-03T05:31:06Z</time></trkpt>
<trkpt lat="46.364674" lon="11.339273"><ele>1105.0</ele><time>2017-08-03T05:31:07Z</time></trkpt>
<trkpt lat="46.364549" lon="11.338982"><ele>1105.0</ele><time>2017-08-03T05:31:09Z</time></trkpt>
<trkpt lat="46.363907" lon="11.337063"><ele>1092.0</ele><time>2017-08-03T05:31:16Z</time></trkpt>
<trkpt lat="46.363809" lon="11.336825"><ele>1092.0</ele><time>2017-08-03T05:31:17Z</time></trkpt>
<trkpt lat="46.363706" lon="11.33667"><ele>1092.0</ele><time>2017-08-03T05:31:18Z</time></trkpt>
<trkpt lat="46.362571" lon="11.335558"><ele>1068.0</ele><time>2017-08-03T05:31:25Z</time></trkpt>
<trkpt lat="46.362429" lon="11.335444"><ele>1062.0</ele><time>2017-08-03T05:31:26Z</time></trkpt>
<trkpt lat="46.36226" lon="11.335389"><ele>1062.0</ele><time>2017-08-03T05:31:27Z</time></trkpt>
<trkpt lat="46.360992" lon="11.335444"><ele>1056.0</ele><time>2017-08-03T05:31:33Z</time></trkpt>
<trkpt lat="46.360493" lon="11.335373"><ele>1047.0</ele><time>2017-08-03T05:31:36Z</time></trkpt>
<trkpt lat="46.359857" lon="11.335394"><ele>1036.0</ele><time>2017-08-03T05:31:39Z</time></trkpt>
<trkpt lat="46.359668" lon="11.335428"><ele>1036.0</ele><time>2017-08-03T05:31:40Z</time></trkpt>
<trkpt lat="46.359504" lon="11.335512"><ele>1036.0</ele><time>2017-08-03T05:31:41Z</time></trkpt>
<trkpt lat="46.359406" lon="11.335588"><ele>1036.0</ele><time>2017-08-03T05:31:42Z</time></trkpt>
<trkpt lat="46.358877" lon="11.336066"><ele>1036.0</ele><time>2017-08-03T05:31:45Z</time></trkpt>
<trkpt lat="46.358748" lon="11.336135"><ele>1036.0</ele><time>2017-08-03T05:31:46Z</time></trkpt>
<trkpt lat="46.358698" lon="11.33614"><ele>1036.0</ele><time>2017-08-03T05:31:46Z</time></trkpt>
<trkpt lat="46.358622" lon="11.33613"><ele>1036.0</ele><time>2017-08-03T05:31:46Z</time></trkpt>
<trkpt lat="46.35847" lon="11.336065"><ele>1036.0</ele><time>2017-08-03T05:31:47Z</time></trkpt>
<trkpt lat="46.357747" lon="11.335625"><ele>1008.0</ele><time>2017-08-03T05:31:51Z</time></trkpt>
<trkpt lat="46.35764" lon="11.335607"><ele>1008.0</ele><time>2017-08-03T05:31:52Z</time></trkpt>
<trkpt lat="46.357454" lon="11.335622"><ele>999.0</ele><time>2017-08-03T05:31:53Z</time></trkpt>
<trkpt lat="46.357107" lon="11.335693"><ele>999.0</ele><time>2017-08-03T05:31:55Z</time></trkpt>
<trkpt lat="46.356707" lon="11.335808"><ele>999.0</ele><time>2017-08-03T05:31:57Z</time></trkpt>
<trkpt lat="46.356365" lon="11.336032"><ele>996.0</ele><time>2017-08-03T05:31:59Z</time></trkpt>
<trkpt lat="46.356136" lon="11.336234"><ele>996.0</ele><time>2017-08-03T05:32:00Z</time></trkpt>
<trkpt lat="46.355019" lon="11.337561"><ele>996.0</ele><time>2017-08-03T05:32:07Z</time></trkpt>
<trkpt lat="46.354943" lon="11.337695"><ele>976.0</ele><time>2017-08-03T05:32:09Z</time></trkpt>
<trkpt lat="46.354688" lon="11.338351"><ele>984.0</ele><time>2017-08-03T05:32:11Z</time></trkpt>
<trkpt lat="46.354601" lon="11.338491"><ele>984.0</ele><time>2017-08-03T05:32:12Z</time></trkpt>
<trkpt lat="46.35455" lon="11.338512"><ele>984.0</ele><time>2017-08-03T05:32:12Z</time></trkpt>
<trkpt lat="46.354444" lon="11.338469"><ele>984.0</ele><time>2017-08-03T05:32:13Z</time></trkpt>
<trkpt lat="46.354406" lon="11.338408"><ele>984.0</ele><time>2017-08-03T05:32:13Z</time></trkpt>
<trkpt lat="46.354374" lon="11.33828"><ele>976.0</ele><time>2017-08-03T05:32:14Z</time></trkpt>
<trkpt lat="46.354392" lon="11.338154"><ele>976.0</ele><time>2017-08-03T05:32:14Z</time></trkpt>
<trkpt lat="46.354575" lon="11.337694"><ele>976.0</ele><time>2017-08-03T05:32:16Z</time></trkpt>
<trkpt lat="46.35461" lon="11.337585"><ele>976.0</ele><time>2017-08-03T05:32:16Z</time></trkpt>
<trkpt lat="46.354625" lon="11.337474"><ele>972.0</ele><time>2017-08-03T05:32:17Z</time></trkpt>
<trkpt lat="46.354574" lon="11.336438"><ele>963.0</ele><time>2017-08-03T05:32:21Z</time></trkpt>
<trkpt lat="46.354589" lon="11.336254"><ele>963.0</ele><time>2017-08-03T05:32:21Z</time></trkpt>
<trkpt lat="46.354607" lon="11.336176"><ele>963.0</ele><time>2017-08-03T05:32:21Z</time></trkpt>
<trkpt lat="46.354782" lon="11.335763"><ele>950.0</ele><time>2017-08-03T05:32:23Z</time></trkpt>
<trkpt lat="46.354888" lon="11.335463"><ele>950.0</ele><time>2017-08-03T05:32:24Z</time></trkpt>
<trkpt lat="46.354911" lon="11.335333"><ele>950.0</ele><time>2017-08-03T05:32:25Z</time></trkpt>
<trkpt lat="46.354958" lon="11.334769"><ele>938.0</ele><time>2017-08-03T05:32:27Z</time></trkpt>
<trkpt lat="46.355005" lon="11.334551"><ele>958.0</ele><time>2017-08-03T05:32:28Z</time></trkpt>
<trkpt lat="46.355039" lon="11.334465"><ele>958.0</ele><time>2017-08-03T05:32:29Z</time></trkpt>
<trkpt lat="46.355315" lon="11.33398"><ele>946.0</ele><time>2017-08-03T05:32:31Z</time></trkpt>
<trkpt lat="46.355412" lon="11.333768"><ele>946.0</ele><time>2017-08-03T05:32:32Z</time></trkpt>
<trkpt lat="46.355454" lon="11.333551"><ele>946.0</ele><time>2017-08-03T05:32:33Z</time></trkpt>
<trkpt lat="46.355423" lon="11.333383"><ele>946.0</ele><time>2017-08-03T05:32:33Z</time></trkpt>
<trkpt lat="46.355382" lon="11.333316"><ele>923.0</ele><time>2017-08-03T05:32:34Z</time></trkpt>
<trkpt lat="46.355279" lon="11.333236"><ele>923.0</ele><time>2017-08-03T05:32:35Z</time></trkpt>
<trkpt lat="46.355196" lon="11.333245"><ele>923.0</ele><time>2017-08-03T05:32:35Z</time></trkpt>
<trkpt lat="46.354568" lon="11.333969"><ele>924.0</ele><time>2017-08-03T05:32:39Z</time></trkpt>
<trkpt lat="46.354449" lon="11.334017"><ele>924.0</ele><time>2017-08-03T05:32:40Z</time></trkpt>
<trkpt lat="46.354397" lon="11.333992"><ele>924.0</ele><time>2017-08-03T05:32:40Z</time></trkpt>
<trkpt lat="46.354315" lon="11.333889"><ele>924.0</ele><time>2017-08-03T05:32:41Z</time></trkpt>
<trkpt lat="46.354292" lon="11.333817"><ele>924.0</ele><time>2017-08-03T05:32:41Z</time></trkpt>
<trkpt lat="46.3543" lon="11.333631"><ele>924.0</ele><time>2017-08-03T05:32:42Z</time></trkpt>
<trkpt lat="46.354379" lon="11.333373"><ele>924.0</ele><time>2017-08-03T05:32:43Z</time></trkpt>
<trkpt lat="46.354716" lon="11.332475"><ele>906.0</ele><time>2017-08-03T05:32:47Z</time></trkpt>
<trkpt lat="46.354759" lon="11.332263"><ele>906.0</ele><time>2017-08-03T05:32:47Z</time></trkpt>
<trkpt lat="46.354755" lon="11.332165"><ele>906.0</ele><time>2017-08-03T05:32:48Z</time></trkpt>
<trkpt lat="46.354681" lon="11.331864"><ele>906.0</ele><time>2017-08-03T05:32:49Z</time></trkpt>
<trkpt lat="46.354538" lon="11.331544"><ele>896.0</ele><time>2017-08-03T05:32:50Z</time></trkpt>
<trkpt lat="46.354457" lon="11.331441"><ele>896.0</ele><time>2017-08-03T05:32:51Z</time></trkpt>
<trkpt lat="46.354405" lon="11.3314"><ele>896.0</ele><time>2017-08-03T05:32:51Z</time></trkpt>
<trkpt lat="46.353626" lon="11.331097"><ele>891.0</ele><time>2017-08-03T05:32:55Z</time></trkpt>
<trkpt lat="46.353506" lon="11.331077"><ele>891.0</ele><time>2017-08-03T05:32:56Z</time></trkpt>
<trkpt lat="46.353377" lon="11.331101"><ele>891.0</ele><time>2017-08-03T05:32:57Z</time></trkpt>
<trkpt lat="46.353184" lon="11.331219"><ele>884.0</ele><time>2017-08-03T05:32:58Z</time></trkpt>
<trkpt lat="46.353" lon="11.331402"><ele>884.0</ele><time>2017-08-03T05:32:59Z</time></trkpt>
<trkpt lat="46.352889" lon="11.33161"><ele>884.0</ele><time>2017-08-03T05:33:00Z</time></trkpt>
<trkpt lat="46.352785" lon="11.33188"><ele>890.0</ele><time>2017-08-03T05:33:01Z</time></trkpt>
<trkpt lat="46.352647" lon="11.33251"><ele>894.0</ele><time>2017-08-03T05:33:03Z</time></trkpt>
<trkpt lat="46.352608" lon="11.332629"><ele>894.0</ele><time>2017-08-03T05:33:04Z</time></trkpt>
<trkpt lat="46.352393" lon="11.333077"><ele>866.0</ele><time>2017-08-03T05:33:06Z</time></trkpt>
<trkpt lat="46.352173" lon="11.333888"><ele>866.0</ele><time>2017-08-03T05:33:09Z</time></trkpt>
<trkpt lat="46.352087" lon="11.334085"><ele>866.0</ele><time>2017-08-03T05:33:10Z</time></trkpt>
<trkpt lat="46.351965" lon="11.334216"><ele>867.0</ele><time>2017-08-03T05:33:11Z</time></trkpt>
<trkpt lat="46.351704" lon="11.334364"><ele>867.0</ele><time>2017-08-03T05:33:12Z</time></trkpt>
<trkpt lat="46.351568" lon="11.334487"><ele>847.0</ele><time>2017-08-03T05:33:13Z</time></trkpt>
<trkpt lat="46.351216" lon="11.33489"><ele>847.0</ele><time>2017-08-03T05:33:16Z</time></trkpt>
<trkpt lat="46.350991" lon="11.335218"><ele>854.0</ele><time>2017-08-03T05:33:17Z</time></trkpt>
<trkpt lat="46.350942" lon="11.335362"><ele>854.0</ele><time>2017-08-03T05:33:18Z</time></trkpt>
<trkpt lat="46.350881" lon="11.335853"><ele>864.0</ele><time>2017-08-03T05:33:20Z</time></trkpt>
<trkpt lat="46.350693" lon="11.336598"><ele>842.0</ele><time>2017-08-03T05:33:23Z</time></trkpt>
<trkpt lat="46.350506" lon="11.337988"><ele>839.0</ele><time>2017-08-03T05:33:28Z</time></trkpt>
<trkpt lat="46.350338" lon="11.338906"><ele>840.0</ele><time>2017-08-03T05:33:31Z</time></trkpt>
<trkpt lat="46.350276" lon="11.339162"><ele>840.0</ele><time>2017-08-03T05:33:32Z</time></trkpt>
<trkpt lat="46.350191" lon="11.339339"><ele>837.0</ele><time>2017-08-03T05:33:33Z</time></trkpt>
<trkpt lat="46.349476" lon="11.340265"><ele>812.0</ele><time>2017-08-03T05:33:38Z</time></trkpt>
<trkpt lat="46.349227" lon="11.340549"><ele>812.0</ele><time>2017-08-03T05:33:40Z</time></trkpt>
<trkpt lat="46.34894" lon="11.340783"><ele>787.0</ele><time>2017-08-03T05:33:42Z</time></trkpt>
<trkpt lat="46.348791" lon="11.340869"><ele>795.0</ele><time>2017-08-03T05:33:43Z</time></trkpt>
<trkpt lat="46.348669" lon="11.340901"><ele>795.0</ele><time>2017-08-03T05:33:43Z</time></trkpt>
<trkpt lat="46.348228" lon="11.340956"><ele>778.0</ele><time>2017-08-03T05:33:46Z</time></trkpt>
<trkpt lat="46.348099" lon="11.340937"><ele>778.0</ele><time>2017-08-03T05:33:46Z</time></trkpt>
<trkpt lat="46.347828" lon="11.340818"><ele>773.0</ele><time>2017-08-03T05:33:48Z</time></trkpt>
<trkpt lat="46.347681" lon="11.340705"><ele>773.0</ele><time>2017-08-03T05:33:49Z</time></trkpt>
<trkpt lat="46.347393" lon="11.340307"><ele>771.0</ele><time>2017-08-03T05:33:51Z</time></trkpt>
<trkpt lat="46.347231" lon="11.340117"><ele>771.0</ele><time>2017-08-03T05:33:52Z</time></trkpt>
<trkpt lat="46.347152" lon="11.340053"><ele>771.0</ele><time>2017-08-03T05:33:52Z</time></trkpt>
<trkpt lat="46.347036" lon="11.340011"><ele>771.0</ele><time>2017-08-03T05:33:53Z</time></trkpt>
<trkpt lat="46.346892" lon="11.340047"><ele>771.0</ele><time>2017-08-03T05:33:53Z</time></trkpt>
<trkpt lat="46.34673" lon="11.340165"><ele>771.0</ele><time>2017-08-03T05:33:54Z</time></trkpt>
<trkpt lat="46.346581" lon="11.340215"><ele>758.0</ele><time>2017-08-03T05:33:55Z</time></trkpt>
<trkpt lat="46.346452" lon="11.3402"><ele>758.0</ele><time>2017-08-03T05:33:56Z</time></trkpt>
<trkpt lat="46.346401" lon="11.34015"><ele>758.0</ele><time>2017-08-03T05:33:56Z</time></trkpt>
<trkpt lat="46.346337" lon="11.34004"><ele>758.0</ele><time>2017-08-03T05:33:57Z</time></trkpt>
<trkpt lat="46.34631" lon="11.339954"><ele>752.0</ele><time>2017-08-03T05:33:57Z</time></trkpt>
<trkpt lat="46.346298" lon="11.339818"><ele>752.0</ele><time>2017-08-03T05:33:58Z</time></trkpt>
<trkpt lat="46.346379" lon="11.339106"><ele>749.0</ele><time>2017-08-03T05:34:00Z</time></trkpt>
<trkpt lat="46.34638" lon="11.338882"><ele>749.0</ele><time>2017-08-03T05:34:01Z</time></trkpt>
<trkpt lat="46.346342" lon="11.338697"><ele>749.0</ele><time>2017-08-03T05:34:02Z</time></trkpt>
<trkpt lat="46.346282" lon="11.338568"><ele>749.0</ele><time>2017-08-03T05:34:02Z</time></trkpt>
<trkpt lat="46.346186" lon="11.338488"><ele>749.0</ele><time>2017-08-03T05:34:03Z</time></trkpt>
<trkpt lat="46.346081" lon="11.338447"><ele>749.0</ele><time>2017-08-03T05:34:04Z</time></trkpt>
<trkpt lat="46.34445" lon="11.337955"><ele>735.0</ele><time>2017-08-03T05:34:12Z</time></trkpt>
<trkpt lat="46.344137" lon="11.337832"><ele>755.0</ele><time>2017-08-03T05:34:14Z</time></trkpt>
<trkpt lat="46.344026" lon="11.33774"><ele>755.0</ele><time>2017-08-03T05:34:15Z</time></trkpt>
<trkpt lat="46.343812" lon="11.337462"><ele>742.0</ele><time>2017-08-03T05:34:16Z</time></trkpt>
<trkpt lat="46.343331" lon="11.336678"><ele>757.0</ele><time>2017-08-03T05:34:20Z</time></trkpt>
<trkpt lat="46.343175" lon="11.336484"><ele>749.0</ele><time>2017-08-03T05:34:21Z</time></trkpt>
<trkpt lat="46.343063" lon="11.336447"><ele>749.0</ele><time>2017-08-03T05:34:28Z</time></trkpt>
<trkpt lat="46.342975" lon="11.336157"><ele>749.0</ele><time>2017-08-03T05:34:29Z</time></trkpt>
<trkpt lat="46.342835" lon="11.335949"><ele>749.0</ele><time>2017-08-03T05:34:30Z</time></trkpt>
<trkpt lat="46.342442" lon="11.335724"><ele>753.0</ele><time>2017-08-03T05:34:33Z</time></trkpt>
<trkpt lat="46.342268" lon="11.335567"><ele>753.0</ele><time>2017-08-03T05:34:34Z</time></trkpt>
<trkpt lat="46.342186" lon="11.335341"><ele>753.0</ele><time>2017-08-03T05:34:35Z</time></trkpt>
<trkpt lat="46.34218" lon="11.334998"><ele>750.0</ele><time>2017-08-03T05:34:36Z</time></trkpt>
<trkpt lat="46.342283" lon="11.334738"><ele>750.0</ele><time>2017-08-03T05:34:37Z</time></trkpt>
<trkpt lat="46.34252" lon="11.334518"><ele>726.0</ele><time>2017-08-03T05:34:39Z</time></trkpt>
<trkpt lat="46.343124" lon="11.333875"><ele>731.0</ele><time>2017-08-03T05:34:43Z</time></trkpt>
<trkpt lat="46.343275" lon="11.333659"><ele>731.0</ele><time>2017-08-03T05:34:45Z</time></trkpt>
<trkpt lat="46.343345" lon="11.33346"><ele>706.0</ele><time>2017-08-03T05:34:46Z</time></trkpt>
<trkpt lat="46.343385" lon="11.333188"><ele>712.0</ele><time>2017-08-03T05:34:47Z</time></trkpt>
<trkpt lat="46.343372" lon="11.332919"><ele>712.0</ele><time>2017-08-03T05:34:48Z</time></trkpt>
<trkpt lat="46.34329" lon="11.332451"><ele>721.0</ele><time>2017-08-03T05:34:50Z</time></trkpt>
<trkpt lat="46.343245" lon="11.332178"><ele>717.0</ele><time>2017-08-03T05:34:51Z</time></trkpt>
</trkseg>
</trk>
</gpx>